<?xml version="1.0" encoding="UTF-8" standalone="no" ?>
<gpx xmlns="http://www.topografix.com/GPX/1/1" xmlns:xsi="http://www.w3.org/2001/XMLSchema-instance" xsi:schemaLocation="http://www.topografix.com/GPX/1/1 http://www.topografix.com/GPX/1/1/gpx.xsd" version="1.1" creator="VisuGPX - https://www.visugpx.com">
  <metadata>
    <name>Curienne coche fifi</name>
    <desc><![CDATA[Curienne coche fifi]]></desc>
  </metadata>
  <trk>
    <name><![CDATA[30-MARS-14 18:30:55]]></name>
    <trkseg>
      <trkpt lat="45.52311" lon="5.90852">
        <ele>755.25</ele>
        <time>2014-03-30T11:45:49Z</time>
      </trkpt>
      <trkpt lat="45.52312" lon="5.90846">
        <ele>755.25</ele>
        <time>2014-03-30T11:46:14Z</time>
      </trkpt>
      <trkpt lat="45.52312" lon="5.90846">
        <ele>754.77</ele>
        <time>2014-03-30T11:46:21Z</time>
      </trkpt>
      <trkpt lat="45.52316" lon="5.90855">
        <ele>754.77</ele>
        <time>2014-03-30T11:46:26Z</time>
      </trkpt>
      <trkpt lat="45.52321" lon="5.90865">
        <ele>752.85</ele>
        <time>2014-03-30T11:46:29Z</time>
      </trkpt>
      <trkpt lat="45.52324" lon="5.90866">
        <ele>753.33</ele>
        <time>2014-03-30T11:46:36Z</time>
      </trkpt>
      <trkpt lat="45.52327" lon="5.9087">
        <ele>751.41</ele>
        <time>2014-03-30T11:46:39Z</time>
      </trkpt>
      <trkpt lat="45.52337" lon="5.90897">
        <ele>748.52</ele>
        <time>2014-03-30T11:46:45Z</time>
      </trkpt>
      <trkpt lat="45.52345" lon="5.90917">
        <ele>747.08</ele>
        <time>2014-03-30T11:46:48Z</time>
      </trkpt>
      <trkpt lat="45.52355" lon="5.90939">
        <ele>743.72</ele>
        <time>2014-03-30T11:46:51Z</time>
      </trkpt>
      <trkpt lat="45.52359" lon="5.90946">
        <ele>742.76</ele>
        <time>2014-03-30T11:46:52Z</time>
      </trkpt>
      <trkpt lat="45.52371" lon="5.90968">
        <ele>738.91</ele>
        <time>2014-03-30T11:46:56Z</time>
      </trkpt>
      <trkpt lat="45.52375" lon="5.90986">
        <ele>735.55</ele>
        <time>2014-03-30T11:47:00Z</time>
      </trkpt>
      <trkpt lat="45.52372" lon="5.90991">
        <ele>735.55</ele>
        <time>2014-03-30T11:47:01Z</time>
      </trkpt>
      <trkpt lat="45.52367" lon="5.90996">
        <ele>733.62</ele>
        <time>2014-03-30T11:47:02Z</time>
      </trkpt>
      <trkpt lat="45.52361" lon="5.90999">
        <ele>733.14</ele>
        <time>2014-03-30T11:47:03Z</time>
      </trkpt>
      <trkpt lat="45.52354" lon="5.91002">
        <ele>731.22</ele>
        <time>2014-03-30T11:47:04Z</time>
      </trkpt>
      <trkpt lat="45.52347" lon="5.91006">
        <ele>730.74</ele>
        <time>2014-03-30T11:47:05Z</time>
      </trkpt>
      <trkpt lat="45.5234" lon="5.9101">
        <ele>730.26</ele>
        <time>2014-03-30T11:47:06Z</time>
      </trkpt>
      <trkpt lat="45.52333" lon="5.91016">
        <ele>729.3</ele>
        <time>2014-03-30T11:47:07Z</time>
      </trkpt>
      <trkpt lat="45.52327" lon="5.91025">
        <ele>727.86</ele>
        <time>2014-03-30T11:47:08Z</time>
      </trkpt>
      <trkpt lat="45.52322" lon="5.91034">
        <ele>726.89</ele>
        <time>2014-03-30T11:47:09Z</time>
      </trkpt>
      <trkpt lat="45.52317" lon="5.91044">
        <ele>726.41</ele>
        <time>2014-03-30T11:47:10Z</time>
      </trkpt>
      <trkpt lat="45.52312" lon="5.91054">
        <ele>724.97</ele>
        <time>2014-03-30T11:47:11Z</time>
      </trkpt>
      <trkpt lat="45.52306" lon="5.91063">
        <ele>724.01</ele>
        <time>2014-03-30T11:47:12Z</time>
      </trkpt>
      <trkpt lat="45.523" lon="5.91071">
        <ele>723.53</ele>
        <time>2014-03-30T11:47:13Z</time>
      </trkpt>
      <trkpt lat="45.52294" lon="5.9108">
        <ele>722.57</ele>
        <time>2014-03-30T11:47:14Z</time>
      </trkpt>
      <trkpt lat="45.52289" lon="5.9109">
        <ele>721.61</ele>
        <time>2014-03-30T11:47:15Z</time>
      </trkpt>
      <trkpt lat="45.52285" lon="5.91102">
        <ele>719.68</ele>
        <time>2014-03-30T11:47:16Z</time>
      </trkpt>
      <trkpt lat="45.52282" lon="5.91115">
        <ele>719.2</ele>
        <time>2014-03-30T11:47:17Z</time>
      </trkpt>
      <trkpt lat="45.52282" lon="5.91127">
        <ele>717.76</ele>
        <time>2014-03-30T11:47:18Z</time>
      </trkpt>
      <trkpt lat="45.52281" lon="5.9114">
        <ele>717.28</ele>
        <time>2014-03-30T11:47:19Z</time>
      </trkpt>
      <trkpt lat="45.52282" lon="5.91175">
        <ele>714.88</ele>
        <time>2014-03-30T11:47:22Z</time>
      </trkpt>
      <trkpt lat="45.52287" lon="5.91206">
        <ele>711.51</ele>
        <time>2014-03-30T11:47:25Z</time>
      </trkpt>
      <trkpt lat="45.52289" lon="5.91221">
        <ele>710.07</ele>
        <time>2014-03-30T11:47:27Z</time>
      </trkpt>
      <trkpt lat="45.52292" lon="5.91227">
        <ele>709.11</ele>
        <time>2014-03-30T11:47:28Z</time>
      </trkpt>
      <trkpt lat="45.52296" lon="5.91228">
        <ele>708.15</ele>
        <time>2014-03-30T11:47:29Z</time>
      </trkpt>
      <trkpt lat="45.52301" lon="5.91227">
        <ele>707.19</ele>
        <time>2014-03-30T11:47:30Z</time>
      </trkpt>
      <trkpt lat="45.52306" lon="5.91224">
        <ele>705.75</ele>
        <time>2014-03-30T11:47:31Z</time>
      </trkpt>
      <trkpt lat="45.52312" lon="5.91221">
        <ele>704.78</ele>
        <time>2014-03-30T11:47:32Z</time>
      </trkpt>
      <trkpt lat="45.52317" lon="5.9122">
        <ele>703.82</ele>
        <time>2014-03-30T11:47:33Z</time>
      </trkpt>
      <trkpt lat="45.52323" lon="5.91223">
        <ele>702.38</ele>
        <time>2014-03-30T11:47:34Z</time>
      </trkpt>
      <trkpt lat="45.52328" lon="5.9123">
        <ele>701.9</ele>
        <time>2014-03-30T11:47:35Z</time>
      </trkpt>
      <trkpt lat="45.52333" lon="5.91237">
        <ele>701.42</ele>
        <time>2014-03-30T11:47:36Z</time>
      </trkpt>
      <trkpt lat="45.52337" lon="5.91243">
        <ele>700.46</ele>
        <time>2014-03-30T11:47:37Z</time>
      </trkpt>
      <trkpt lat="45.52341" lon="5.91246">
        <ele>699.5</ele>
        <time>2014-03-30T11:47:38Z</time>
      </trkpt>
      <trkpt lat="45.52345" lon="5.91248">
        <ele>699.5</ele>
        <time>2014-03-30T11:47:39Z</time>
      </trkpt>
      <trkpt lat="45.5235" lon="5.91248">
        <ele>699.02</ele>
        <time>2014-03-30T11:47:40Z</time>
      </trkpt>
      <trkpt lat="45.52354" lon="5.91246">
        <ele>698.53</ele>
        <time>2014-03-30T11:47:41Z</time>
      </trkpt>
      <trkpt lat="45.52359" lon="5.91242">
        <ele>698.53</ele>
        <time>2014-03-30T11:47:42Z</time>
      </trkpt>
      <trkpt lat="45.52363" lon="5.91239">
        <ele>698.05</ele>
        <time>2014-03-30T11:47:43Z</time>
      </trkpt>
      <trkpt lat="45.52398" lon="5.91213">
        <ele>694.69</ele>
        <time>2014-03-30T11:47:49Z</time>
      </trkpt>
      <trkpt lat="45.52428" lon="5.91192">
        <ele>690.36</ele>
        <time>2014-03-30T11:47:53Z</time>
      </trkpt>
      <trkpt lat="45.52463" lon="5.91176">
        <ele>688.44</ele>
        <time>2014-03-30T11:47:58Z</time>
      </trkpt>
      <trkpt lat="45.52467" lon="5.91175">
        <ele>687.48</ele>
        <time>2014-03-30T11:47:59Z</time>
      </trkpt>
      <trkpt lat="45.52471" lon="5.91173">
        <ele>686.52</ele>
        <time>2014-03-30T11:48:00Z</time>
      </trkpt>
      <trkpt lat="45.52485" lon="5.9117">
        <ele>683.63</ele>
        <time>2014-03-30T11:48:04Z</time>
      </trkpt>
      <trkpt lat="45.52501" lon="5.91166">
        <ele>681.71</ele>
        <time>2014-03-30T11:48:08Z</time>
      </trkpt>
      <trkpt lat="45.52528" lon="5.91157">
        <ele>678.35</ele>
        <time>2014-03-30T11:48:16Z</time>
      </trkpt>
      <trkpt lat="45.52533" lon="5.91155">
        <ele>677.87</ele>
        <time>2014-03-30T11:48:17Z</time>
      </trkpt>
      <trkpt lat="45.52536" lon="5.91153">
        <ele>677.87</ele>
        <time>2014-03-30T11:48:18Z</time>
      </trkpt>
      <trkpt lat="45.5254" lon="5.91151">
        <ele>677.39</ele>
        <time>2014-03-30T11:48:19Z</time>
      </trkpt>
      <trkpt lat="45.52544" lon="5.9115">
        <ele>676.42</ele>
        <time>2014-03-30T11:48:20Z</time>
      </trkpt>
      <trkpt lat="45.52548" lon="5.91149">
        <ele>676.42</ele>
        <time>2014-03-30T11:48:21Z</time>
      </trkpt>
      <trkpt lat="45.5257" lon="5.91148">
        <ele>674.98</ele>
        <time>2014-03-30T11:48:26Z</time>
      </trkpt>
      <trkpt lat="45.52575" lon="5.91149">
        <ele>674.5</ele>
        <time>2014-03-30T11:48:27Z</time>
      </trkpt>
      <trkpt lat="45.52598" lon="5.9115">
        <ele>672.58</ele>
        <time>2014-03-30T11:48:32Z</time>
      </trkpt>
      <trkpt lat="45.52608" lon="5.91148">
        <ele>672.1</ele>
        <time>2014-03-30T11:48:34Z</time>
      </trkpt>
      <trkpt lat="45.52613" lon="5.91146">
        <ele>671.62</ele>
        <time>2014-03-30T11:48:35Z</time>
      </trkpt>
      <trkpt lat="45.52617" lon="5.91145">
        <ele>671.14</ele>
        <time>2014-03-30T11:48:36Z</time>
      </trkpt>
      <trkpt lat="45.52622" lon="5.91143">
        <ele>671.14</ele>
        <time>2014-03-30T11:48:37Z</time>
      </trkpt>
      <trkpt lat="45.52627" lon="5.9114">
        <ele>671.14</ele>
        <time>2014-03-30T11:48:38Z</time>
      </trkpt>
      <trkpt lat="45.52646" lon="5.9113">
        <ele>669.7</ele>
        <time>2014-03-30T11:48:42Z</time>
      </trkpt>
      <trkpt lat="45.52649" lon="5.91128">
        <ele>669.7</ele>
        <time>2014-03-30T11:48:43Z</time>
      </trkpt>
      <trkpt lat="45.52661" lon="5.91122">
        <ele>667.77</ele>
        <time>2014-03-30T11:48:46Z</time>
      </trkpt>
      <trkpt lat="45.52673" lon="5.91121">
        <ele>666.81</ele>
        <time>2014-03-30T11:48:49Z</time>
      </trkpt>
      <trkpt lat="45.52692" lon="5.91119">
        <ele>664.89</ele>
        <time>2014-03-30T11:48:53Z</time>
      </trkpt>
      <trkpt lat="45.52701" lon="5.91116">
        <ele>664.41</ele>
        <time>2014-03-30T11:48:55Z</time>
      </trkpt>
      <trkpt lat="45.52705" lon="5.91115">
        <ele>663.93</ele>
        <time>2014-03-30T11:48:56Z</time>
      </trkpt>
      <trkpt lat="45.52711" lon="5.91112">
        <ele>662.97</ele>
        <time>2014-03-30T11:48:57Z</time>
      </trkpt>
      <trkpt lat="45.52716" lon="5.9111">
        <ele>662.97</ele>
        <time>2014-03-30T11:48:58Z</time>
      </trkpt>
      <trkpt lat="45.52723" lon="5.91109">
        <ele>662.49</ele>
        <time>2014-03-30T11:48:59Z</time>
      </trkpt>
      <trkpt lat="45.52728" lon="5.91109">
        <ele>661.52</ele>
        <time>2014-03-30T11:49:00Z</time>
      </trkpt>
      <trkpt lat="45.52733" lon="5.9111">
        <ele>661.52</ele>
        <time>2014-03-30T11:49:01Z</time>
      </trkpt>
      <trkpt lat="45.52738" lon="5.91111">
        <ele>660.56</ele>
        <time>2014-03-30T11:49:02Z</time>
      </trkpt>
      <trkpt lat="45.52753" lon="5.91117">
        <ele>659.12</ele>
        <time>2014-03-30T11:49:06Z</time>
      </trkpt>
      <trkpt lat="45.52756" lon="5.91121">
        <ele>658.16</ele>
        <time>2014-03-30T11:49:07Z</time>
      </trkpt>
      <trkpt lat="45.52763" lon="5.91132">
        <ele>656.72</ele>
        <time>2014-03-30T11:49:09Z</time>
      </trkpt>
      <trkpt lat="45.52768" lon="5.91138">
        <ele>655.28</ele>
        <time>2014-03-30T11:49:10Z</time>
      </trkpt>
      <trkpt lat="45.52774" lon="5.91144">
        <ele>653.83</ele>
        <time>2014-03-30T11:49:11Z</time>
      </trkpt>
      <trkpt lat="45.52782" lon="5.91148">
        <ele>652.39</ele>
        <time>2014-03-30T11:49:12Z</time>
      </trkpt>
      <trkpt lat="45.52791" lon="5.91151">
        <ele>650.95</ele>
        <time>2014-03-30T11:49:13Z</time>
      </trkpt>
      <trkpt lat="45.528" lon="5.91155">
        <ele>649.51</ele>
        <time>2014-03-30T11:49:14Z</time>
      </trkpt>
      <trkpt lat="45.5282" lon="5.91161">
        <ele>646.14</ele>
        <time>2014-03-30T11:49:16Z</time>
      </trkpt>
      <trkpt lat="45.52842" lon="5.9117">
        <ele>642.78</ele>
        <time>2014-03-30T11:49:18Z</time>
      </trkpt>
      <trkpt lat="45.52866" lon="5.91179">
        <ele>638.45</ele>
        <time>2014-03-30T11:49:20Z</time>
      </trkpt>
      <trkpt lat="45.52892" lon="5.91187">
        <ele>634.13</ele>
        <time>2014-03-30T11:49:22Z</time>
      </trkpt>
      <trkpt lat="45.52919" lon="5.91194">
        <ele>630.28</ele>
        <time>2014-03-30T11:49:24Z</time>
      </trkpt>
      <trkpt lat="45.52957" lon="5.91204">
        <ele>626.44</ele>
        <time>2014-03-30T11:49:27Z</time>
      </trkpt>
      <trkpt lat="45.52999" lon="5.91212">
        <ele>623.55</ele>
        <time>2014-03-30T11:49:31Z</time>
      </trkpt>
      <trkpt lat="45.53026" lon="5.91223">
        <ele>618.75</ele>
        <time>2014-03-30T11:49:34Z</time>
      </trkpt>
      <trkpt lat="45.53053" lon="5.9124">
        <ele>614.9</ele>
        <time>2014-03-30T11:49:38Z</time>
      </trkpt>
      <trkpt lat="45.53056" lon="5.91244">
        <ele>614.42</ele>
        <time>2014-03-30T11:49:39Z</time>
      </trkpt>
      <trkpt lat="45.53058" lon="5.91249">
        <ele>614.42</ele>
        <time>2014-03-30T11:49:40Z</time>
      </trkpt>
      <trkpt lat="45.53063" lon="5.91257">
        <ele>613.94</ele>
        <time>2014-03-30T11:49:42Z</time>
      </trkpt>
      <trkpt lat="45.53067" lon="5.9126">
        <ele>613.94</ele>
        <time>2014-03-30T11:49:43Z</time>
      </trkpt>
      <trkpt lat="45.53072" lon="5.91262">
        <ele>613.46</ele>
        <time>2014-03-30T11:49:44Z</time>
      </trkpt>
      <trkpt lat="45.53083" lon="5.91268">
        <ele>612.02</ele>
        <time>2014-03-30T11:49:46Z</time>
      </trkpt>
      <trkpt lat="45.53089" lon="5.91272">
        <ele>611.54</ele>
        <time>2014-03-30T11:49:47Z</time>
      </trkpt>
      <trkpt lat="45.53095" lon="5.91277">
        <ele>611.06</ele>
        <time>2014-03-30T11:49:48Z</time>
      </trkpt>
      <trkpt lat="45.531" lon="5.91283">
        <ele>611.06</ele>
        <time>2014-03-30T11:49:49Z</time>
      </trkpt>
      <trkpt lat="45.53106" lon="5.91291">
        <ele>610.09</ele>
        <time>2014-03-30T11:49:50Z</time>
      </trkpt>
      <trkpt lat="45.5311" lon="5.91298">
        <ele>610.57</ele>
        <time>2014-03-30T11:49:51Z</time>
      </trkpt>
      <trkpt lat="45.53114" lon="5.91307">
        <ele>610.09</ele>
        <time>2014-03-30T11:49:52Z</time>
      </trkpt>
      <trkpt lat="45.53118" lon="5.91315">
        <ele>610.09</ele>
        <time>2014-03-30T11:49:53Z</time>
      </trkpt>
      <trkpt lat="45.53122" lon="5.91324">
        <ele>610.09</ele>
        <time>2014-03-30T11:49:54Z</time>
      </trkpt>
      <trkpt lat="45.53125" lon="5.91334">
        <ele>609.61</ele>
        <time>2014-03-30T11:49:55Z</time>
      </trkpt>
      <trkpt lat="45.5314" lon="5.91368">
        <ele>609.61</ele>
        <time>2014-03-30T11:49:59Z</time>
      </trkpt>
      <trkpt lat="45.53145" lon="5.91374">
        <ele>609.61</ele>
        <time>2014-03-30T11:50:00Z</time>
      </trkpt>
      <trkpt lat="45.5318" lon="5.91407">
        <ele>608.17</ele>
        <time>2014-03-30T11:50:06Z</time>
      </trkpt>
      <trkpt lat="45.53186" lon="5.9141">
        <ele>608.17</ele>
        <time>2014-03-30T11:50:07Z</time>
      </trkpt>
      <trkpt lat="45.53246" lon="5.91441">
        <ele>605.77</ele>
        <time>2014-03-30T11:50:16Z</time>
      </trkpt>
      <trkpt lat="45.53252" lon="5.91448">
        <ele>605.77</ele>
        <time>2014-03-30T11:50:17Z</time>
      </trkpt>
      <trkpt lat="45.53257" lon="5.91456">
        <ele>605.29</ele>
        <time>2014-03-30T11:50:18Z</time>
      </trkpt>
      <trkpt lat="45.53261" lon="5.91465">
        <ele>605.77</ele>
        <time>2014-03-30T11:50:19Z</time>
      </trkpt>
      <trkpt lat="45.53265" lon="5.91474">
        <ele>605.77</ele>
        <time>2014-03-30T11:50:20Z</time>
      </trkpt>
      <trkpt lat="45.53273" lon="5.91491">
        <ele>605.29</ele>
        <time>2014-03-30T11:50:22Z</time>
      </trkpt>
      <trkpt lat="45.53279" lon="5.91498">
        <ele>605.29</ele>
        <time>2014-03-30T11:50:23Z</time>
      </trkpt>
      <trkpt lat="45.53285" lon="5.91503">
        <ele>604.33</ele>
        <time>2014-03-30T11:50:24Z</time>
      </trkpt>
      <trkpt lat="45.53291" lon="5.91508">
        <ele>603.85</ele>
        <time>2014-03-30T11:50:25Z</time>
      </trkpt>
      <trkpt lat="45.53298" lon="5.91512">
        <ele>603.36</ele>
        <time>2014-03-30T11:50:26Z</time>
      </trkpt>
      <trkpt lat="45.53305" lon="5.91515">
        <ele>603.36</ele>
        <time>2014-03-30T11:50:27Z</time>
      </trkpt>
      <trkpt lat="45.53313" lon="5.91517">
        <ele>602.88</ele>
        <time>2014-03-30T11:50:28Z</time>
      </trkpt>
      <trkpt lat="45.53346" lon="5.91528">
        <ele>599.52</ele>
        <time>2014-03-30T11:50:32Z</time>
      </trkpt>
      <trkpt lat="45.53385" lon="5.91542">
        <ele>595.67</ele>
        <time>2014-03-30T11:50:36Z</time>
      </trkpt>
      <trkpt lat="45.53405" lon="5.9155">
        <ele>592.31</ele>
        <time>2014-03-30T11:50:38Z</time>
      </trkpt>
      <trkpt lat="45.53436" lon="5.91567">
        <ele>588.46</ele>
        <time>2014-03-30T11:50:41Z</time>
      </trkpt>
      <trkpt lat="45.53458" lon="5.91577">
        <ele>586.06</ele>
        <time>2014-03-30T11:50:43Z</time>
      </trkpt>
      <trkpt lat="45.5347" lon="5.9158">
        <ele>584.14</ele>
        <time>2014-03-30T11:50:44Z</time>
      </trkpt>
      <trkpt lat="45.53507" lon="5.91585">
        <ele>580.29</ele>
        <time>2014-03-30T11:50:47Z</time>
      </trkpt>
      <trkpt lat="45.53533" lon="5.91585">
        <ele>576.45</ele>
        <time>2014-03-30T11:50:49Z</time>
      </trkpt>
      <trkpt lat="45.53559" lon="5.91584">
        <ele>573.08</ele>
        <time>2014-03-30T11:50:51Z</time>
      </trkpt>
      <trkpt lat="45.53598" lon="5.91587">
        <ele>569.24</ele>
        <time>2014-03-30T11:50:54Z</time>
      </trkpt>
      <trkpt lat="45.53637" lon="5.91595">
        <ele>565.87</ele>
        <time>2014-03-30T11:50:57Z</time>
      </trkpt>
      <trkpt lat="45.53674" lon="5.91603">
        <ele>561.55</ele>
        <time>2014-03-30T11:51:00Z</time>
      </trkpt>
      <trkpt lat="45.53687" lon="5.91606">
        <ele>561.07</ele>
        <time>2014-03-30T11:51:01Z</time>
      </trkpt>
      <trkpt lat="45.53725" lon="5.91615">
        <ele>557.7</ele>
        <time>2014-03-30T11:51:04Z</time>
      </trkpt>
      <trkpt lat="45.53764" lon="5.91622">
        <ele>554.34</ele>
        <time>2014-03-30T11:51:07Z</time>
      </trkpt>
      <trkpt lat="45.53803" lon="5.91629">
        <ele>550.49</ele>
        <time>2014-03-30T11:51:10Z</time>
      </trkpt>
      <trkpt lat="45.53842" lon="5.91636">
        <ele>547.13</ele>
        <time>2014-03-30T11:51:13Z</time>
      </trkpt>
      <trkpt lat="45.5388" lon="5.91644">
        <ele>544.72</ele>
        <time>2014-03-30T11:51:16Z</time>
      </trkpt>
      <trkpt lat="45.53892" lon="5.91648">
        <ele>542.8</ele>
        <time>2014-03-30T11:51:17Z</time>
      </trkpt>
      <trkpt lat="45.53928" lon="5.91667">
        <ele>538.96</ele>
        <time>2014-03-30T11:51:20Z</time>
      </trkpt>
      <trkpt lat="45.53939" lon="5.91676">
        <ele>537.99</ele>
        <time>2014-03-30T11:51:21Z</time>
      </trkpt>
      <trkpt lat="45.53989" lon="5.91725">
        <ele>534.63</ele>
        <time>2014-03-30T11:51:26Z</time>
      </trkpt>
      <trkpt lat="45.54" lon="5.91731">
        <ele>534.15</ele>
        <time>2014-03-30T11:51:27Z</time>
      </trkpt>
      <trkpt lat="45.54011" lon="5.91734">
        <ele>533.19</ele>
        <time>2014-03-30T11:51:28Z</time>
      </trkpt>
      <trkpt lat="45.54023" lon="5.91734">
        <ele>532.23</ele>
        <time>2014-03-30T11:51:29Z</time>
      </trkpt>
      <trkpt lat="45.54035" lon="5.91733">
        <ele>531.75</ele>
        <time>2014-03-30T11:51:30Z</time>
      </trkpt>
      <trkpt lat="45.5408" lon="5.91728">
        <ele>528.38</ele>
        <time>2014-03-30T11:51:34Z</time>
      </trkpt>
      <trkpt lat="45.54126" lon="5.91723">
        <ele>525.02</ele>
        <time>2014-03-30T11:51:38Z</time>
      </trkpt>
      <trkpt lat="45.5416" lon="5.91719">
        <ele>523.09</ele>
        <time>2014-03-30T11:51:41Z</time>
      </trkpt>
      <trkpt lat="45.54214" lon="5.91703">
        <ele>519.73</ele>
        <time>2014-03-30T11:51:46Z</time>
      </trkpt>
      <trkpt lat="45.54265" lon="5.91679">
        <ele>516.37</ele>
        <time>2014-03-30T11:51:51Z</time>
      </trkpt>
      <trkpt lat="45.54306" lon="5.9166">
        <ele>513.96</ele>
        <time>2014-03-30T11:51:55Z</time>
      </trkpt>
      <trkpt lat="45.54337" lon="5.91646">
        <ele>512.04</ele>
        <time>2014-03-30T11:51:58Z</time>
      </trkpt>
      <trkpt lat="45.54386" lon="5.91625">
        <ele>509.16</ele>
        <time>2014-03-30T11:52:03Z</time>
      </trkpt>
      <trkpt lat="45.54407" lon="5.9162">
        <ele>507.23</ele>
        <time>2014-03-30T11:52:05Z</time>
      </trkpt>
      <trkpt lat="45.5445" lon="5.9162">
        <ele>503.87</ele>
        <time>2014-03-30T11:52:09Z</time>
      </trkpt>
      <trkpt lat="45.54471" lon="5.91625">
        <ele>502.43</ele>
        <time>2014-03-30T11:52:11Z</time>
      </trkpt>
      <trkpt lat="45.54481" lon="5.9163">
        <ele>501.95</ele>
        <time>2014-03-30T11:52:12Z</time>
      </trkpt>
      <trkpt lat="45.54491" lon="5.91638">
        <ele>500.98</ele>
        <time>2014-03-30T11:52:13Z</time>
      </trkpt>
      <trkpt lat="45.54499" lon="5.91648">
        <ele>500.02</ele>
        <time>2014-03-30T11:52:14Z</time>
      </trkpt>
      <trkpt lat="45.54507" lon="5.91659">
        <ele>499.06</ele>
        <time>2014-03-30T11:52:15Z</time>
      </trkpt>
      <trkpt lat="45.54513" lon="5.91672">
        <ele>498.1</ele>
        <time>2014-03-30T11:52:16Z</time>
      </trkpt>
      <trkpt lat="45.54535" lon="5.91728">
        <ele>494.26</ele>
        <time>2014-03-30T11:52:20Z</time>
      </trkpt>
      <trkpt lat="45.54539" lon="5.91743">
        <ele>493.29</ele>
        <time>2014-03-30T11:52:21Z</time>
      </trkpt>
      <trkpt lat="45.54542" lon="5.91759">
        <ele>492.33</ele>
        <time>2014-03-30T11:52:22Z</time>
      </trkpt>
      <trkpt lat="45.54547" lon="5.9179">
        <ele>490.89</ele>
        <time>2014-03-30T11:52:24Z</time>
      </trkpt>
      <trkpt lat="45.54548" lon="5.91806">
        <ele>489.93</ele>
        <time>2014-03-30T11:52:25Z</time>
      </trkpt>
      <trkpt lat="45.54547" lon="5.91822">
        <ele>488.97</ele>
        <time>2014-03-30T11:52:26Z</time>
      </trkpt>
      <trkpt lat="45.54544" lon="5.91839">
        <ele>488.01</ele>
        <time>2014-03-30T11:52:27Z</time>
      </trkpt>
      <trkpt lat="45.54541" lon="5.91855">
        <ele>486.56</ele>
        <time>2014-03-30T11:52:28Z</time>
      </trkpt>
      <trkpt lat="45.54536" lon="5.91871">
        <ele>485.6</ele>
        <time>2014-03-30T11:52:29Z</time>
      </trkpt>
      <trkpt lat="45.5453" lon="5.91886">
        <ele>485.12</ele>
        <time>2014-03-30T11:52:30Z</time>
      </trkpt>
      <trkpt lat="45.54523" lon="5.91901">
        <ele>483.68</ele>
        <time>2014-03-30T11:52:31Z</time>
      </trkpt>
      <trkpt lat="45.54515" lon="5.91915">
        <ele>483.2</ele>
        <time>2014-03-30T11:52:32Z</time>
      </trkpt>
      <trkpt lat="45.54506" lon="5.91928">
        <ele>481.76</ele>
        <time>2014-03-30T11:52:33Z</time>
      </trkpt>
      <trkpt lat="45.54496" lon="5.91939">
        <ele>480.8</ele>
        <time>2014-03-30T11:52:34Z</time>
      </trkpt>
      <trkpt lat="45.54485" lon="5.91949">
        <ele>479.84</ele>
        <time>2014-03-30T11:52:35Z</time>
      </trkpt>
      <trkpt lat="45.54475" lon="5.91958">
        <ele>478.87</ele>
        <time>2014-03-30T11:52:36Z</time>
      </trkpt>
      <trkpt lat="45.54464" lon="5.91969">
        <ele>478.39</ele>
        <time>2014-03-30T11:52:37Z</time>
      </trkpt>
      <trkpt lat="45.54456" lon="5.91981">
        <ele>476.95</ele>
        <time>2014-03-30T11:52:38Z</time>
      </trkpt>
      <trkpt lat="45.54448" lon="5.91994">
        <ele>476.47</ele>
        <time>2014-03-30T11:52:39Z</time>
      </trkpt>
      <trkpt lat="45.54442" lon="5.92007">
        <ele>475.99</ele>
        <time>2014-03-30T11:52:40Z</time>
      </trkpt>
      <trkpt lat="45.54431" lon="5.9203">
        <ele>475.03</ele>
        <time>2014-03-30T11:52:42Z</time>
      </trkpt>
      <trkpt lat="45.54427" lon="5.92042">
        <ele>474.55</ele>
        <time>2014-03-30T11:52:43Z</time>
      </trkpt>
      <trkpt lat="45.54426" lon="5.92056">
        <ele>474.07</ele>
        <time>2014-03-30T11:52:44Z</time>
      </trkpt>
      <trkpt lat="45.54427" lon="5.92068">
        <ele>473.11</ele>
        <time>2014-03-30T11:52:45Z</time>
      </trkpt>
      <trkpt lat="45.54431" lon="5.92078">
        <ele>472.63</ele>
        <time>2014-03-30T11:52:46Z</time>
      </trkpt>
      <trkpt lat="45.54437" lon="5.92084">
        <ele>472.14</ele>
        <time>2014-03-30T11:52:47Z</time>
      </trkpt>
      <trkpt lat="45.54444" lon="5.92088">
        <ele>471.66</ele>
        <time>2014-03-30T11:52:48Z</time>
      </trkpt>
      <trkpt lat="45.54452" lon="5.9209">
        <ele>471.66</ele>
        <time>2014-03-30T11:52:49Z</time>
      </trkpt>
      <trkpt lat="45.54477" lon="5.92093">
        <ele>472.14</ele>
        <time>2014-03-30T11:52:52Z</time>
      </trkpt>
      <trkpt lat="45.54485" lon="5.92092">
        <ele>472.14</ele>
        <time>2014-03-30T11:52:53Z</time>
      </trkpt>
      <trkpt lat="45.54549" lon="5.92071">
        <ele>473.11</ele>
        <time>2014-03-30T11:53:03Z</time>
      </trkpt>
      <trkpt lat="45.54593" lon="5.92063">
        <ele>474.55</ele>
        <time>2014-03-30T11:53:12Z</time>
      </trkpt>
      <trkpt lat="45.54598" lon="5.92064">
        <ele>474.55</ele>
        <time>2014-03-30T11:53:13Z</time>
      </trkpt>
      <trkpt lat="45.54602" lon="5.92065">
        <ele>474.55</ele>
        <time>2014-03-30T11:53:14Z</time>
      </trkpt>
      <trkpt lat="45.54606" lon="5.92066">
        <ele>474.55</ele>
        <time>2014-03-30T11:53:15Z</time>
      </trkpt>
      <trkpt lat="45.5461" lon="5.92066">
        <ele>474.55</ele>
        <time>2014-03-30T11:53:16Z</time>
      </trkpt>
      <trkpt lat="45.54673" lon="5.9208">
        <ele>474.07</ele>
        <time>2014-03-30T11:53:29Z</time>
      </trkpt>
      <trkpt lat="45.54678" lon="5.92081">
        <ele>474.55</ele>
        <time>2014-03-30T11:53:30Z</time>
      </trkpt>
      <trkpt lat="45.54718" lon="5.92089">
        <ele>473.59</ele>
        <time>2014-03-30T11:53:37Z</time>
      </trkpt>
      <trkpt lat="45.5473" lon="5.92094">
        <ele>473.11</ele>
        <time>2014-03-30T11:53:39Z</time>
      </trkpt>
      <trkpt lat="45.54737" lon="5.92096">
        <ele>472.63</ele>
        <time>2014-03-30T11:53:40Z</time>
      </trkpt>
      <trkpt lat="45.54744" lon="5.92099">
        <ele>472.14</ele>
        <time>2014-03-30T11:53:41Z</time>
      </trkpt>
      <trkpt lat="45.54789" lon="5.92121">
        <ele>468.3</ele>
        <time>2014-03-30T11:53:47Z</time>
      </trkpt>
      <trkpt lat="45.54823" lon="5.92131">
        <ele>465.9</ele>
        <time>2014-03-30T11:53:51Z</time>
      </trkpt>
      <trkpt lat="45.54833" lon="5.92131">
        <ele>465.42</ele>
        <time>2014-03-30T11:53:52Z</time>
      </trkpt>
      <trkpt lat="45.54879" lon="5.92136">
        <ele>461.09</ele>
        <time>2014-03-30T11:53:57Z</time>
      </trkpt>
      <trkpt lat="45.54904" lon="5.92142">
        <ele>458.69</ele>
        <time>2014-03-30T11:54:00Z</time>
      </trkpt>
      <trkpt lat="45.54921" lon="5.92148">
        <ele>457.72</ele>
        <time>2014-03-30T11:54:02Z</time>
      </trkpt>
      <trkpt lat="45.5493" lon="5.92146">
        <ele>456.76</ele>
        <time>2014-03-30T11:54:03Z</time>
      </trkpt>
      <trkpt lat="45.54976" lon="5.9214">
        <ele>452.92</ele>
        <time>2014-03-30T11:54:08Z</time>
      </trkpt>
      <trkpt lat="45.55006" lon="5.92135">
        <ele>450.03</ele>
        <time>2014-03-30T11:54:11Z</time>
      </trkpt>
      <trkpt lat="45.55058" lon="5.92132">
        <ele>446.19</ele>
        <time>2014-03-30T11:54:16Z</time>
      </trkpt>
      <trkpt lat="45.55116" lon="5.92136">
        <ele>443.31</ele>
        <time>2014-03-30T11:54:22Z</time>
      </trkpt>
      <trkpt lat="45.55146" lon="5.92139">
        <ele>441.38</ele>
        <time>2014-03-30T11:54:25Z</time>
      </trkpt>
      <trkpt lat="45.55195" lon="5.92145">
        <ele>438.02</ele>
        <time>2014-03-30T11:54:30Z</time>
      </trkpt>
      <trkpt lat="45.55235" lon="5.92148">
        <ele>435.61</ele>
        <time>2014-03-30T11:54:34Z</time>
      </trkpt>
      <trkpt lat="45.55309" lon="5.92153">
        <ele>432.25</ele>
        <time>2014-03-30T11:54:43Z</time>
      </trkpt>
      <trkpt lat="45.55315" lon="5.92155">
        <ele>432.25</ele>
        <time>2014-03-30T11:54:44Z</time>
      </trkpt>
      <trkpt lat="45.55319" lon="5.9216">
        <ele>431.29</ele>
        <time>2014-03-30T11:54:45Z</time>
      </trkpt>
      <trkpt lat="45.55323" lon="5.92163">
        <ele>431.29</ele>
        <time>2014-03-30T11:54:46Z</time>
      </trkpt>
      <trkpt lat="45.55327" lon="5.92165">
        <ele>431.29</ele>
        <time>2014-03-30T11:54:47Z</time>
      </trkpt>
      <trkpt lat="45.55331" lon="5.92165">
        <ele>430.81</ele>
        <time>2014-03-30T11:54:48Z</time>
      </trkpt>
      <trkpt lat="45.55335" lon="5.92165">
        <ele>430.33</ele>
        <time>2014-03-30T11:54:49Z</time>
      </trkpt>
      <trkpt lat="45.55346" lon="5.92167">
        <ele>430.33</ele>
        <time>2014-03-30T11:54:53Z</time>
      </trkpt>
      <trkpt lat="45.55348" lon="5.92169">
        <ele>430.33</ele>
        <time>2014-03-30T11:54:54Z</time>
      </trkpt>
      <trkpt lat="45.55349" lon="5.9217">
        <ele>429.37</ele>
        <time>2014-03-30T11:55:10Z</time>
      </trkpt>
      <trkpt lat="45.5535" lon="5.92171">
        <ele>429.37</ele>
        <time>2014-03-30T11:55:11Z</time>
      </trkpt>
      <trkpt lat="45.55352" lon="5.92171">
        <ele>429.37</ele>
        <time>2014-03-30T11:55:12Z</time>
      </trkpt>
      <trkpt lat="45.55354" lon="5.92171">
        <ele>429.37</ele>
        <time>2014-03-30T11:55:13Z</time>
      </trkpt>
      <trkpt lat="45.55366" lon="5.92174">
        <ele>428.4</ele>
        <time>2014-03-30T11:55:16Z</time>
      </trkpt>
      <trkpt lat="45.55372" lon="5.92175">
        <ele>428.4</ele>
        <time>2014-03-30T11:55:17Z</time>
      </trkpt>
      <trkpt lat="45.55412" lon="5.92172">
        <ele>425.04</ele>
        <time>2014-03-30T11:55:23Z</time>
      </trkpt>
      <trkpt lat="45.5545" lon="5.92172">
        <ele>422.64</ele>
        <time>2014-03-30T11:55:28Z</time>
      </trkpt>
      <trkpt lat="45.555" lon="5.92178">
        <ele>419.75</ele>
        <time>2014-03-30T11:55:34Z</time>
      </trkpt>
      <trkpt lat="45.55527" lon="5.92181">
        <ele>417.83</ele>
        <time>2014-03-30T11:55:37Z</time>
      </trkpt>
      <trkpt lat="45.55565" lon="5.92186">
        <ele>415.91</ele>
        <time>2014-03-30T11:55:41Z</time>
      </trkpt>
      <trkpt lat="45.55613" lon="5.92191">
        <ele>412.06</ele>
        <time>2014-03-30T11:55:46Z</time>
      </trkpt>
      <trkpt lat="45.55663" lon="5.92198">
        <ele>408.7</ele>
        <time>2014-03-30T11:55:51Z</time>
      </trkpt>
      <trkpt lat="45.557" lon="5.92201">
        <ele>406.29</ele>
        <time>2014-03-30T11:55:55Z</time>
      </trkpt>
      <trkpt lat="45.55736" lon="5.92205">
        <ele>403.41</ele>
        <time>2014-03-30T11:55:59Z</time>
      </trkpt>
      <trkpt lat="45.55745" lon="5.92206">
        <ele>403.41</ele>
        <time>2014-03-30T11:56:00Z</time>
      </trkpt>
      <trkpt lat="45.55773" lon="5.92211">
        <ele>401.01</ele>
        <time>2014-03-30T11:56:03Z</time>
      </trkpt>
      <trkpt lat="45.55793" lon="5.92213">
        <ele>399.57</ele>
        <time>2014-03-30T11:56:05Z</time>
      </trkpt>
      <trkpt lat="45.55834" lon="5.92217">
        <ele>397.16</ele>
        <time>2014-03-30T11:56:09Z</time>
      </trkpt>
      <trkpt lat="45.55864" lon="5.92221">
        <ele>394.76</ele>
        <time>2014-03-30T11:56:12Z</time>
      </trkpt>
      <trkpt lat="45.55895" lon="5.92227">
        <ele>391.87</ele>
        <time>2014-03-30T11:56:16Z</time>
      </trkpt>
      <trkpt lat="45.55902" lon="5.92232">
        <ele>391.87</ele>
        <time>2014-03-30T11:56:17Z</time>
      </trkpt>
      <trkpt lat="45.55909" lon="5.92238">
        <ele>390.91</ele>
        <time>2014-03-30T11:56:18Z</time>
      </trkpt>
      <trkpt lat="45.55944" lon="5.92281">
        <ele>386.59</ele>
        <time>2014-03-30T11:56:23Z</time>
      </trkpt>
      <trkpt lat="45.55968" lon="5.92327">
        <ele>383.22</ele>
        <time>2014-03-30T11:56:27Z</time>
      </trkpt>
      <trkpt lat="45.55972" lon="5.9234">
        <ele>382.74</ele>
        <time>2014-03-30T11:56:28Z</time>
      </trkpt>
      <trkpt lat="45.55979" lon="5.92383">
        <ele>380.34</ele>
        <time>2014-03-30T11:56:31Z</time>
      </trkpt>
      <trkpt lat="45.55983" lon="5.92397">
        <ele>379.86</ele>
        <time>2014-03-30T11:56:32Z</time>
      </trkpt>
      <trkpt lat="45.56003" lon="5.92447">
        <ele>376.01</ele>
        <time>2014-03-30T11:56:36Z</time>
      </trkpt>
      <trkpt lat="45.56023" lon="5.92497">
        <ele>373.13</ele>
        <time>2014-03-30T11:56:41Z</time>
      </trkpt>
      <trkpt lat="45.56033" lon="5.92516">
        <ele>371.69</ele>
        <time>2014-03-30T11:56:43Z</time>
      </trkpt>
      <trkpt lat="45.56042" lon="5.92537">
        <ele>370.73</ele>
        <time>2014-03-30T11:56:45Z</time>
      </trkpt>
      <trkpt lat="45.56059" lon="5.92586">
        <ele>367.36</ele>
        <time>2014-03-30T11:56:49Z</time>
      </trkpt>
      <trkpt lat="45.56065" lon="5.92597">
        <ele>365.92</ele>
        <time>2014-03-30T11:56:50Z</time>
      </trkpt>
      <trkpt lat="45.56072" lon="5.92607">
        <ele>364.96</ele>
        <time>2014-03-30T11:56:51Z</time>
      </trkpt>
      <trkpt lat="45.5608" lon="5.92616">
        <ele>364</ele>
        <time>2014-03-30T11:56:52Z</time>
      </trkpt>
      <trkpt lat="45.56089" lon="5.92626">
        <ele>363.52</ele>
        <time>2014-03-30T11:56:53Z</time>
      </trkpt>
      <trkpt lat="45.56106" lon="5.92646">
        <ele>361.59</ele>
        <time>2014-03-30T11:56:55Z</time>
      </trkpt>
      <trkpt lat="45.56116" lon="5.92657">
        <ele>360.63</ele>
        <time>2014-03-30T11:56:56Z</time>
      </trkpt>
      <trkpt lat="45.56124" lon="5.92669">
        <ele>360.15</ele>
        <time>2014-03-30T11:56:57Z</time>
      </trkpt>
      <trkpt lat="45.56154" lon="5.9272">
        <ele>355.83</ele>
        <time>2014-03-30T11:57:01Z</time>
      </trkpt>
      <trkpt lat="45.56175" lon="5.92757">
        <ele>353.42</ele>
        <time>2014-03-30T11:57:04Z</time>
      </trkpt>
      <trkpt lat="45.56179" lon="5.92771">
        <ele>351.98</ele>
        <time>2014-03-30T11:57:05Z</time>
      </trkpt>
      <trkpt lat="45.56182" lon="5.92786">
        <ele>351.02</ele>
        <time>2014-03-30T11:57:06Z</time>
      </trkpt>
      <trkpt lat="45.56182" lon="5.92803">
        <ele>350.06</ele>
        <time>2014-03-30T11:57:07Z</time>
      </trkpt>
      <trkpt lat="45.56182" lon="5.92819">
        <ele>349.1</ele>
        <time>2014-03-30T11:57:08Z</time>
      </trkpt>
      <trkpt lat="45.56184" lon="5.92882">
        <ele>346.69</ele>
        <time>2014-03-30T11:57:12Z</time>
      </trkpt>
      <trkpt lat="45.56184" lon="5.92895">
        <ele>345.73</ele>
        <time>2014-03-30T11:57:13Z</time>
      </trkpt>
      <trkpt lat="45.56182" lon="5.92907">
        <ele>344.77</ele>
        <time>2014-03-30T11:57:14Z</time>
      </trkpt>
      <trkpt lat="45.56178" lon="5.92918">
        <ele>343.81</ele>
        <time>2014-03-30T11:57:15Z</time>
      </trkpt>
      <trkpt lat="45.56171" lon="5.92927">
        <ele>343.33</ele>
        <time>2014-03-30T11:57:16Z</time>
      </trkpt>
      <trkpt lat="45.56164" lon="5.92935">
        <ele>341.89</ele>
        <time>2014-03-30T11:57:17Z</time>
      </trkpt>
      <trkpt lat="45.56156" lon="5.92944">
        <ele>341.41</ele>
        <time>2014-03-30T11:57:18Z</time>
      </trkpt>
      <trkpt lat="45.56148" lon="5.92953">
        <ele>340.92</ele>
        <time>2014-03-30T11:57:19Z</time>
      </trkpt>
      <trkpt lat="45.56141" lon="5.92964">
        <ele>339.96</ele>
        <time>2014-03-30T11:57:20Z</time>
      </trkpt>
      <trkpt lat="45.56135" lon="5.92975">
        <ele>339</ele>
        <time>2014-03-30T11:57:21Z</time>
      </trkpt>
      <trkpt lat="45.5613" lon="5.92987">
        <ele>338.04</ele>
        <time>2014-03-30T11:57:22Z</time>
      </trkpt>
      <trkpt lat="45.56115" lon="5.93019">
        <ele>336.6</ele>
        <time>2014-03-30T11:57:25Z</time>
      </trkpt>
      <trkpt lat="45.5611" lon="5.93027">
        <ele>335.64</ele>
        <time>2014-03-30T11:57:26Z</time>
      </trkpt>
      <trkpt lat="45.56104" lon="5.93034">
        <ele>335.16</ele>
        <time>2014-03-30T11:57:27Z</time>
      </trkpt>
      <trkpt lat="45.56097" lon="5.93039">
        <ele>334.2</ele>
        <time>2014-03-30T11:57:28Z</time>
      </trkpt>
      <trkpt lat="45.56089" lon="5.93044">
        <ele>334.2</ele>
        <time>2014-03-30T11:57:29Z</time>
      </trkpt>
      <trkpt lat="45.56082" lon="5.9305">
        <ele>333.23</ele>
        <time>2014-03-30T11:57:30Z</time>
      </trkpt>
      <trkpt lat="45.56077" lon="5.93058">
        <ele>332.75</ele>
        <time>2014-03-30T11:57:31Z</time>
      </trkpt>
      <trkpt lat="45.56075" lon="5.93069">
        <ele>332.75</ele>
        <time>2014-03-30T11:57:32Z</time>
      </trkpt>
      <trkpt lat="45.56075" lon="5.93079">
        <ele>332.75</ele>
        <time>2014-03-30T11:57:33Z</time>
      </trkpt>
      <trkpt lat="45.56072" lon="5.93087">
        <ele>331.31</ele>
        <time>2014-03-30T11:57:34Z</time>
      </trkpt>
      <trkpt lat="45.56068" lon="5.93094">
        <ele>332.27</ele>
        <time>2014-03-30T11:57:35Z</time>
      </trkpt>
      <trkpt lat="45.56064" lon="5.93098">
        <ele>332.27</ele>
        <time>2014-03-30T11:57:36Z</time>
      </trkpt>
      <trkpt lat="45.56059" lon="5.93102">
        <ele>332.27</ele>
        <time>2014-03-30T11:57:37Z</time>
      </trkpt>
      <trkpt lat="45.56055" lon="5.93106">
        <ele>332.75</ele>
        <time>2014-03-30T11:57:38Z</time>
      </trkpt>
      <trkpt lat="45.56051" lon="5.93112">
        <ele>332.75</ele>
        <time>2014-03-30T11:57:39Z</time>
      </trkpt>
      <trkpt lat="45.56048" lon="5.93118">
        <ele>333.71</ele>
        <time>2014-03-30T11:57:40Z</time>
      </trkpt>
      <trkpt lat="45.56046" lon="5.93124">
        <ele>333.23</ele>
        <time>2014-03-30T11:57:41Z</time>
      </trkpt>
      <trkpt lat="45.56044" lon="5.93132">
        <ele>333.23</ele>
        <time>2014-03-30T11:57:42Z</time>
      </trkpt>
      <trkpt lat="45.56043" lon="5.93139">
        <ele>333.23</ele>
        <time>2014-03-30T11:57:43Z</time>
      </trkpt>
      <trkpt lat="45.56042" lon="5.93147">
        <ele>333.23</ele>
        <time>2014-03-30T11:57:44Z</time>
      </trkpt>
      <trkpt lat="45.56042" lon="5.93154">
        <ele>332.75</ele>
        <time>2014-03-30T11:57:45Z</time>
      </trkpt>
      <trkpt lat="45.56035" lon="5.93291">
        <ele>333.71</ele>
        <time>2014-03-30T11:58:03Z</time>
      </trkpt>
      <trkpt lat="45.56034" lon="5.93305">
        <ele>334.68</ele>
        <time>2014-03-30T11:58:05Z</time>
      </trkpt>
      <trkpt lat="45.56033" lon="5.93332">
        <ele>334.68</ele>
        <time>2014-03-30T11:58:09Z</time>
      </trkpt>
      <trkpt lat="45.56027" lon="5.93413">
        <ele>337.08</ele>
        <time>2014-03-30T11:58:22Z</time>
      </trkpt>
      <trkpt lat="45.56023" lon="5.93469">
        <ele>338.04</ele>
        <time>2014-03-30T11:58:31Z</time>
      </trkpt>
      <trkpt lat="45.56024" lon="5.93475">
        <ele>338.52</ele>
        <time>2014-03-30T11:58:32Z</time>
      </trkpt>
      <trkpt lat="45.56025" lon="5.93481">
        <ele>338.52</ele>
        <time>2014-03-30T11:58:33Z</time>
      </trkpt>
      <trkpt lat="45.56028" lon="5.93492">
        <ele>338.52</ele>
        <time>2014-03-30T11:58:35Z</time>
      </trkpt>
      <trkpt lat="45.5603" lon="5.93497">
        <ele>338.52</ele>
        <time>2014-03-30T11:58:36Z</time>
      </trkpt>
      <trkpt lat="45.56055" lon="5.93529">
        <ele>341.89</ele>
        <time>2014-03-30T11:58:47Z</time>
      </trkpt>
      <trkpt lat="45.56086" lon="5.93559">
        <ele>344.29</ele>
        <time>2014-03-30T11:59:01Z</time>
      </trkpt>
      <trkpt lat="45.56108" lon="5.93596">
        <ele>347.17</ele>
        <time>2014-03-30T11:59:14Z</time>
      </trkpt>
      <trkpt lat="45.56114" lon="5.93659">
        <ele>348.62</ele>
        <time>2014-03-30T11:59:29Z</time>
      </trkpt>
      <trkpt lat="45.56089" lon="5.93705">
        <ele>348.13</ele>
        <time>2014-03-30T11:59:39Z</time>
      </trkpt>
      <trkpt lat="45.56081" lon="5.93726">
        <ele>348.13</ele>
        <time>2014-03-30T11:59:43Z</time>
      </trkpt>
      <trkpt lat="45.5607" lon="5.93789">
        <ele>346.69</ele>
        <time>2014-03-30T11:59:55Z</time>
      </trkpt>
      <trkpt lat="45.56073" lon="5.93779">
        <ele>345.25</ele>
        <time>2014-03-30T12:00:04Z</time>
      </trkpt>
      <trkpt lat="45.56072" lon="5.93778">
        <ele>344.77</ele>
        <time>2014-03-30T12:00:05Z</time>
      </trkpt>
      <trkpt lat="45.5607" lon="5.93771">
        <ele>344.77</ele>
        <time>2014-03-30T12:00:06Z</time>
      </trkpt>
      <trkpt lat="45.56078" lon="5.9376">
        <ele>344.29</ele>
        <time>2014-03-30T12:00:07Z</time>
      </trkpt>
      <trkpt lat="45.56147" lon="5.93666">
        <ele>342.37</ele>
        <time>2014-03-30T12:00:18Z</time>
      </trkpt>
      <trkpt lat="45.56152" lon="5.93661">
        <ele>342.37</ele>
        <time>2014-03-30T12:00:19Z</time>
      </trkpt>
      <trkpt lat="45.56158" lon="5.93656">
        <ele>342.37</ele>
        <time>2014-03-30T12:00:20Z</time>
      </trkpt>
      <trkpt lat="45.56166" lon="5.93653">
        <ele>341.41</ele>
        <time>2014-03-30T12:00:21Z</time>
      </trkpt>
      <trkpt lat="45.56173" lon="5.9365">
        <ele>341.41</ele>
        <time>2014-03-30T12:00:22Z</time>
      </trkpt>
      <trkpt lat="45.56179" lon="5.9365">
        <ele>341.41</ele>
        <time>2014-03-30T12:00:23Z</time>
      </trkpt>
      <trkpt lat="45.56186" lon="5.9365">
        <ele>341.41</ele>
        <time>2014-03-30T12:00:24Z</time>
      </trkpt>
      <trkpt lat="45.56192" lon="5.93651">
        <ele>340.92</ele>
        <time>2014-03-30T12:00:25Z</time>
      </trkpt>
      <trkpt lat="45.56198" lon="5.93653">
        <ele>340.92</ele>
        <time>2014-03-30T12:00:26Z</time>
      </trkpt>
      <trkpt lat="45.56204" lon="5.93656">
        <ele>340.44</ele>
        <time>2014-03-30T12:00:27Z</time>
      </trkpt>
      <trkpt lat="45.5621" lon="5.93659">
        <ele>340.44</ele>
        <time>2014-03-30T12:00:28Z</time>
      </trkpt>
      <trkpt lat="45.56217" lon="5.93662">
        <ele>339.96</ele>
        <time>2014-03-30T12:00:29Z</time>
      </trkpt>
      <trkpt lat="45.56223" lon="5.93666">
        <ele>339.48</ele>
        <time>2014-03-30T12:00:30Z</time>
      </trkpt>
      <trkpt lat="45.56265" lon="5.93687">
        <ele>336.6</ele>
        <time>2014-03-30T12:00:36Z</time>
      </trkpt>
      <trkpt lat="45.56294" lon="5.93701">
        <ele>333.71</ele>
        <time>2014-03-30T12:00:40Z</time>
      </trkpt>
      <trkpt lat="45.56321" lon="5.93718">
        <ele>330.35</ele>
        <time>2014-03-30T12:00:44Z</time>
      </trkpt>
      <trkpt lat="45.56353" lon="5.93737">
        <ele>326.99</ele>
        <time>2014-03-30T12:00:49Z</time>
      </trkpt>
      <trkpt lat="45.56379" lon="5.93757">
        <ele>323.62</ele>
        <time>2014-03-30T12:00:53Z</time>
      </trkpt>
      <trkpt lat="45.56395" lon="5.93774">
        <ele>322.18</ele>
        <time>2014-03-30T12:00:56Z</time>
      </trkpt>
      <trkpt lat="45.56402" lon="5.93785">
        <ele>321.22</ele>
        <time>2014-03-30T12:00:58Z</time>
      </trkpt>
      <trkpt lat="45.56405" lon="5.93791">
        <ele>320.74</ele>
        <time>2014-03-30T12:00:59Z</time>
      </trkpt>
      <trkpt lat="45.56406" lon="5.93797">
        <ele>320.26</ele>
        <time>2014-03-30T12:01:00Z</time>
      </trkpt>
      <trkpt lat="45.56407" lon="5.93804">
        <ele>320.26</ele>
        <time>2014-03-30T12:01:01Z</time>
      </trkpt>
      <trkpt lat="45.56406" lon="5.93811">
        <ele>319.78</ele>
        <time>2014-03-30T12:01:02Z</time>
      </trkpt>
      <trkpt lat="45.56404" lon="5.93816">
        <ele>319.3</ele>
        <time>2014-03-30T12:01:03Z</time>
      </trkpt>
      <trkpt lat="45.56401" lon="5.93822">
        <ele>318.81</ele>
        <time>2014-03-30T12:01:04Z</time>
      </trkpt>
      <trkpt lat="45.56399" lon="5.93827">
        <ele>318.81</ele>
        <time>2014-03-30T12:01:05Z</time>
      </trkpt>
      <trkpt lat="45.56396" lon="5.93832">
        <ele>318.33</ele>
        <time>2014-03-30T12:01:06Z</time>
      </trkpt>
      <trkpt lat="45.56393" lon="5.93839">
        <ele>317.85</ele>
        <time>2014-03-30T12:01:08Z</time>
      </trkpt>
      <trkpt lat="45.56393" lon="5.93841">
        <ele>317.85</ele>
        <time>2014-03-30T12:01:09Z</time>
      </trkpt>
      <trkpt lat="45.56395" lon="5.9384">
        <ele>317.37</ele>
        <time>2014-03-30T12:01:10Z</time>
      </trkpt>
      <trkpt lat="45.56397" lon="5.93838">
        <ele>316.89</ele>
        <time>2014-03-30T12:01:11Z</time>
      </trkpt>
      <trkpt lat="45.564" lon="5.93835">
        <ele>315.93</ele>
        <time>2014-03-30T12:01:12Z</time>
      </trkpt>
      <trkpt lat="45.56405" lon="5.93833">
        <ele>315.45</ele>
        <time>2014-03-30T12:01:13Z</time>
      </trkpt>
      <trkpt lat="45.56433" lon="5.9382">
        <ele>312.09</ele>
        <time>2014-03-30T12:01:18Z</time>
      </trkpt>
      <trkpt lat="45.56449" lon="5.9381">
        <ele>310.16</ele>
        <time>2014-03-30T12:01:21Z</time>
      </trkpt>
      <trkpt lat="45.56453" lon="5.93808">
        <ele>309.68</ele>
        <time>2014-03-30T12:01:22Z</time>
      </trkpt>
      <trkpt lat="45.56455" lon="5.93807">
        <ele>309.2</ele>
        <time>2014-03-30T12:01:23Z</time>
      </trkpt>
      <trkpt lat="45.56458" lon="5.93808">
        <ele>309.2</ele>
        <time>2014-03-30T12:01:24Z</time>
      </trkpt>
      <trkpt lat="45.56459" lon="5.9381">
        <ele>308.72</ele>
        <time>2014-03-30T12:01:25Z</time>
      </trkpt>
      <trkpt lat="45.56459" lon="5.93813">
        <ele>309.2</ele>
        <time>2014-03-30T12:01:26Z</time>
      </trkpt>
      <trkpt lat="45.56456" lon="5.93816">
        <ele>308.72</ele>
        <time>2014-03-30T12:01:27Z</time>
      </trkpt>
      <trkpt lat="45.56454" lon="5.9382">
        <ele>308.72</ele>
        <time>2014-03-30T12:01:28Z</time>
      </trkpt>
      <trkpt lat="45.56451" lon="5.93824">
        <ele>309.2</ele>
        <time>2014-03-30T12:01:29Z</time>
      </trkpt>
      <trkpt lat="45.56404" lon="5.93886">
        <ele>306.32</ele>
        <time>2014-03-30T12:01:41Z</time>
      </trkpt>
      <trkpt lat="45.564" lon="5.93894">
        <ele>305.84</ele>
        <time>2014-03-30T12:01:43Z</time>
      </trkpt>
      <trkpt lat="45.564" lon="5.93899">
        <ele>306.32</ele>
        <time>2014-03-30T12:01:44Z</time>
      </trkpt>
      <trkpt lat="45.56403" lon="5.93911">
        <ele>306.8</ele>
        <time>2014-03-30T12:01:47Z</time>
      </trkpt>
      <trkpt lat="45.56422" lon="5.93945">
        <ele>306.8</ele>
        <time>2014-03-30T12:01:56Z</time>
      </trkpt>
      <trkpt lat="45.56433" lon="5.93941">
        <ele>306.32</ele>
        <time>2014-03-30T12:02:00Z</time>
      </trkpt>
      <trkpt lat="45.56452" lon="5.93941">
        <ele>305.84</ele>
        <time>2014-03-30T12:02:08Z</time>
      </trkpt>
      <trkpt lat="45.56452" lon="5.93941">
        <ele>305.36</ele>
        <time>2014-03-30T12:02:31Z</time>
      </trkpt>
      <trkpt lat="45.56453" lon="5.93942">
        <ele>305.36</ele>
        <time>2014-03-30T12:03:11Z</time>
      </trkpt>
      <trkpt lat="45.56453" lon="5.93942">
        <ele>303.91</ele>
        <time>2014-03-30T12:03:44Z</time>
      </trkpt>
      <trkpt lat="45.56454" lon="5.93942">
        <ele>303.43</ele>
        <time>2014-03-30T12:04:28Z</time>
      </trkpt>
      <trkpt lat="45.56453" lon="5.93941">
        <ele>302.95</ele>
        <time>2014-03-30T12:05:03Z</time>
      </trkpt>
      <trkpt lat="45.56453" lon="5.93941">
        <ele>302.95</ele>
        <time>2014-03-30T12:05:27Z</time>
      </trkpt>
      <trkpt lat="45.56454" lon="5.93943">
        <ele>301.51</ele>
        <time>2014-03-30T12:06:06Z</time>
      </trkpt>
      <trkpt lat="45.56455" lon="5.93943">
        <ele>300.55</ele>
        <time>2014-03-30T12:06:45Z</time>
      </trkpt>
      <trkpt lat="45.56455" lon="5.93943">
        <ele>300.07</ele>
        <time>2014-03-30T12:07:13Z</time>
      </trkpt>
      <trkpt lat="45.56457" lon="5.93954">
        <ele>300.55</ele>
        <time>2014-03-30T12:07:18Z</time>
      </trkpt>
      <trkpt lat="45.56467" lon="5.94013">
        <ele>301.03</ele>
        <time>2014-03-30T12:07:32Z</time>
      </trkpt>
      <trkpt lat="45.56492" lon="5.94061">
        <ele>301.03</ele>
        <time>2014-03-30T12:07:46Z</time>
      </trkpt>
      <trkpt lat="45.56526" lon="5.94088">
        <ele>301.51</ele>
        <time>2014-03-30T12:07:57Z</time>
      </trkpt>
      <trkpt lat="45.56553" lon="5.94105">
        <ele>301.03</ele>
        <time>2014-03-30T12:08:09Z</time>
      </trkpt>
      <trkpt lat="45.56553" lon="5.94105">
        <ele>301.51</ele>
        <time>2014-03-30T12:08:10Z</time>
      </trkpt>
      <trkpt lat="45.56553" lon="5.94107">
        <ele>301.51</ele>
        <time>2014-03-30T12:08:12Z</time>
      </trkpt>
      <trkpt lat="45.56543" lon="5.94149">
        <ele>301.03</ele>
        <time>2014-03-30T12:08:21Z</time>
      </trkpt>
      <trkpt lat="45.56518" lon="5.94199">
        <ele>301.03</ele>
        <time>2014-03-30T12:08:29Z</time>
      </trkpt>
      <trkpt lat="45.56515" lon="5.94205">
        <ele>301.51</ele>
        <time>2014-03-30T12:08:30Z</time>
      </trkpt>
      <trkpt lat="45.56505" lon="5.94222">
        <ele>301.03</ele>
        <time>2014-03-30T12:08:33Z</time>
      </trkpt>
      <trkpt lat="45.56501" lon="5.94228">
        <ele>301.03</ele>
        <time>2014-03-30T12:08:34Z</time>
      </trkpt>
      <trkpt lat="45.56445" lon="5.94343">
        <ele>301.51</ele>
        <time>2014-03-30T12:08:53Z</time>
      </trkpt>
      <trkpt lat="45.56428" lon="5.94377">
        <ele>302.47</ele>
        <time>2014-03-30T12:08:59Z</time>
      </trkpt>
      <trkpt lat="45.56423" lon="5.94387">
        <ele>301.51</ele>
        <time>2014-03-30T12:09:01Z</time>
      </trkpt>
      <trkpt lat="45.56421" lon="5.94394">
        <ele>301.99</ele>
        <time>2014-03-30T12:09:02Z</time>
      </trkpt>
      <trkpt lat="45.56422" lon="5.944">
        <ele>301.99</ele>
        <time>2014-03-30T12:09:03Z</time>
      </trkpt>
      <trkpt lat="45.56424" lon="5.94405">
        <ele>302.47</ele>
        <time>2014-03-30T12:09:04Z</time>
      </trkpt>
      <trkpt lat="45.56428" lon="5.94408">
        <ele>302.95</ele>
        <time>2014-03-30T12:09:05Z</time>
      </trkpt>
      <trkpt lat="45.56433" lon="5.9441">
        <ele>301.99</ele>
        <time>2014-03-30T12:09:06Z</time>
      </trkpt>
      <trkpt lat="45.56438" lon="5.94414">
        <ele>301.99</ele>
        <time>2014-03-30T12:09:07Z</time>
      </trkpt>
      <trkpt lat="45.56442" lon="5.94417">
        <ele>301.51</ele>
        <time>2014-03-30T12:09:08Z</time>
      </trkpt>
      <trkpt lat="45.56447" lon="5.94422">
        <ele>301.51</ele>
        <time>2014-03-30T12:09:09Z</time>
      </trkpt>
      <trkpt lat="45.5645" lon="5.94427">
        <ele>301.51</ele>
        <time>2014-03-30T12:09:10Z</time>
      </trkpt>
      <trkpt lat="45.56454" lon="5.94432">
        <ele>301.03</ele>
        <time>2014-03-30T12:09:11Z</time>
      </trkpt>
      <trkpt lat="45.56457" lon="5.94439">
        <ele>301.03</ele>
        <time>2014-03-30T12:09:12Z</time>
      </trkpt>
      <trkpt lat="45.56459" lon="5.94446">
        <ele>301.03</ele>
        <time>2014-03-30T12:09:13Z</time>
      </trkpt>
      <trkpt lat="45.56462" lon="5.94453">
        <ele>300.55</ele>
        <time>2014-03-30T12:09:14Z</time>
      </trkpt>
      <trkpt lat="45.56463" lon="5.9446">
        <ele>301.03</ele>
        <time>2014-03-30T12:09:15Z</time>
      </trkpt>
      <trkpt lat="45.56464" lon="5.94468">
        <ele>300.55</ele>
        <time>2014-03-30T12:09:16Z</time>
      </trkpt>
      <trkpt lat="45.56464" lon="5.94477">
        <ele>300.07</ele>
        <time>2014-03-30T12:09:17Z</time>
      </trkpt>
      <trkpt lat="45.56465" lon="5.94485">
        <ele>300.07</ele>
        <time>2014-03-30T12:09:18Z</time>
      </trkpt>
      <trkpt lat="45.56459" lon="5.94594">
        <ele>299.11</ele>
        <time>2014-03-30T12:09:30Z</time>
      </trkpt>
      <trkpt lat="45.56454" lon="5.94665">
        <ele>302.47</ele>
        <time>2014-03-30T12:09:42Z</time>
      </trkpt>
      <trkpt lat="45.56449" lon="5.94693">
        <ele>302.47</ele>
        <time>2014-03-30T12:09:48Z</time>
      </trkpt>
      <trkpt lat="45.56452" lon="5.94698">
        <ele>302.95</ele>
        <time>2014-03-30T12:09:49Z</time>
      </trkpt>
      <trkpt lat="45.56455" lon="5.94701">
        <ele>302.47</ele>
        <time>2014-03-30T12:09:50Z</time>
      </trkpt>
      <trkpt lat="45.56463" lon="5.94705">
        <ele>301.99</ele>
        <time>2014-03-30T12:09:52Z</time>
      </trkpt>
      <trkpt lat="45.56467" lon="5.94708">
        <ele>301.99</ele>
        <time>2014-03-30T12:09:53Z</time>
      </trkpt>
      <trkpt lat="45.56471" lon="5.94712">
        <ele>301.51</ele>
        <time>2014-03-30T12:09:54Z</time>
      </trkpt>
      <trkpt lat="45.56475" lon="5.94717">
        <ele>301.03</ele>
        <time>2014-03-30T12:09:55Z</time>
      </trkpt>
      <trkpt lat="45.56479" lon="5.94721">
        <ele>301.51</ele>
        <time>2014-03-30T12:09:56Z</time>
      </trkpt>
      <trkpt lat="45.56503" lon="5.9475">
        <ele>301.51</ele>
        <time>2014-03-30T12:10:02Z</time>
      </trkpt>
      <trkpt lat="45.56512" lon="5.94767">
        <ele>302.47</ele>
        <time>2014-03-30T12:10:05Z</time>
      </trkpt>
      <trkpt lat="45.56514" lon="5.94773">
        <ele>302.47</ele>
        <time>2014-03-30T12:10:06Z</time>
      </trkpt>
      <trkpt lat="45.56516" lon="5.94778">
        <ele>302.95</ele>
        <time>2014-03-30T12:10:07Z</time>
      </trkpt>
      <trkpt lat="45.56533" lon="5.94832">
        <ele>304.88</ele>
        <time>2014-03-30T12:10:18Z</time>
      </trkpt>
      <trkpt lat="45.56546" lon="5.94874">
        <ele>304.88</ele>
        <time>2014-03-30T12:10:27Z</time>
      </trkpt>
      <trkpt lat="45.56549" lon="5.94877">
        <ele>304.88</ele>
        <time>2014-03-30T12:10:28Z</time>
      </trkpt>
      <trkpt lat="45.56552" lon="5.94882">
        <ele>304.88</ele>
        <time>2014-03-30T12:10:29Z</time>
      </trkpt>
      <trkpt lat="45.56555" lon="5.94886">
        <ele>305.36</ele>
        <time>2014-03-30T12:10:30Z</time>
      </trkpt>
      <trkpt lat="45.56558" lon="5.94892">
        <ele>304.88</ele>
        <time>2014-03-30T12:10:31Z</time>
      </trkpt>
      <trkpt lat="45.56576" lon="5.94925">
        <ele>305.36</ele>
        <time>2014-03-30T12:10:38Z</time>
      </trkpt>
      <trkpt lat="45.56578" lon="5.94929">
        <ele>305.36</ele>
        <time>2014-03-30T12:10:39Z</time>
      </trkpt>
      <trkpt lat="45.5661" lon="5.9499">
        <ele>305.84</ele>
        <time>2014-03-30T12:10:52Z</time>
      </trkpt>
      <trkpt lat="45.5662" lon="5.9501">
        <ele>305.84</ele>
        <time>2014-03-30T12:10:56Z</time>
      </trkpt>
      <trkpt lat="45.56665" lon="5.95096">
        <ele>305.84</ele>
        <time>2014-03-30T12:11:12Z</time>
      </trkpt>
      <trkpt lat="45.56675" lon="5.95116">
        <ele>306.32</ele>
        <time>2014-03-30T12:11:16Z</time>
      </trkpt>
      <trkpt lat="45.56677" lon="5.95121">
        <ele>306.8</ele>
        <time>2014-03-30T12:11:17Z</time>
      </trkpt>
      <trkpt lat="45.56677" lon="5.95126">
        <ele>306.8</ele>
        <time>2014-03-30T12:11:18Z</time>
      </trkpt>
      <trkpt lat="45.56677" lon="5.95131">
        <ele>306.8</ele>
        <time>2014-03-30T12:11:19Z</time>
      </trkpt>
      <trkpt lat="45.56676" lon="5.95137">
        <ele>307.28</ele>
        <time>2014-03-30T12:11:20Z</time>
      </trkpt>
      <trkpt lat="45.56675" lon="5.95142">
        <ele>306.8</ele>
        <time>2014-03-30T12:11:21Z</time>
      </trkpt>
      <trkpt lat="45.56675" lon="5.95148">
        <ele>306.8</ele>
        <time>2014-03-30T12:11:22Z</time>
      </trkpt>
      <trkpt lat="45.56687" lon="5.95177">
        <ele>306.8</ele>
        <time>2014-03-30T12:11:28Z</time>
      </trkpt>
      <trkpt lat="45.56691" lon="5.9518">
        <ele>306.8</ele>
        <time>2014-03-30T12:11:29Z</time>
      </trkpt>
      <trkpt lat="45.56695" lon="5.95184">
        <ele>306.8</ele>
        <time>2014-03-30T12:11:30Z</time>
      </trkpt>
      <trkpt lat="45.56699" lon="5.95188">
        <ele>306.8</ele>
        <time>2014-03-30T12:11:31Z</time>
      </trkpt>
      <trkpt lat="45.56703" lon="5.95192">
        <ele>306.8</ele>
        <time>2014-03-30T12:11:32Z</time>
      </trkpt>
      <trkpt lat="45.56707" lon="5.95196">
        <ele>306.32</ele>
        <time>2014-03-30T12:11:33Z</time>
      </trkpt>
      <trkpt lat="45.56741" lon="5.95228">
        <ele>306.8</ele>
        <time>2014-03-30T12:11:41Z</time>
      </trkpt>
      <trkpt lat="45.56744" lon="5.95232">
        <ele>307.28</ele>
        <time>2014-03-30T12:11:42Z</time>
      </trkpt>
      <trkpt lat="45.56744" lon="5.95237">
        <ele>307.28</ele>
        <time>2014-03-30T12:11:43Z</time>
      </trkpt>
      <trkpt lat="45.56744" lon="5.95241">
        <ele>307.76</ele>
        <time>2014-03-30T12:11:44Z</time>
      </trkpt>
      <trkpt lat="45.56746" lon="5.95245">
        <ele>307.28</ele>
        <time>2014-03-30T12:11:45Z</time>
      </trkpt>
      <trkpt lat="45.56747" lon="5.95247">
        <ele>307.28</ele>
        <time>2014-03-30T12:11:46Z</time>
      </trkpt>
      <trkpt lat="45.56749" lon="5.95247">
        <ele>307.76</ele>
        <time>2014-03-30T12:11:47Z</time>
      </trkpt>
      <trkpt lat="45.5675" lon="5.95247">
        <ele>307.28</ele>
        <time>2014-03-30T12:11:48Z</time>
      </trkpt>
      <trkpt lat="45.56773" lon="5.95242">
        <ele>307.76</ele>
        <time>2014-03-30T12:11:59Z</time>
      </trkpt>
      <trkpt lat="45.56775" lon="5.95239">
        <ele>307.76</ele>
        <time>2014-03-30T12:12:00Z</time>
      </trkpt>
      <trkpt lat="45.56776" lon="5.95234">
        <ele>307.76</ele>
        <time>2014-03-30T12:12:01Z</time>
      </trkpt>
      <trkpt lat="45.56778" lon="5.95229">
        <ele>307.76</ele>
        <time>2014-03-30T12:12:02Z</time>
      </trkpt>
      <trkpt lat="45.56781" lon="5.95225">
        <ele>307.28</ele>
        <time>2014-03-30T12:12:03Z</time>
      </trkpt>
      <trkpt lat="45.56785" lon="5.95223">
        <ele>307.76</ele>
        <time>2014-03-30T12:12:04Z</time>
      </trkpt>
      <trkpt lat="45.56789" lon="5.95222">
        <ele>307.28</ele>
        <time>2014-03-30T12:12:05Z</time>
      </trkpt>
      <trkpt lat="45.56794" lon="5.95221">
        <ele>307.28</ele>
        <time>2014-03-30T12:12:06Z</time>
      </trkpt>
      <trkpt lat="45.56843" lon="5.95213">
        <ele>307.76</ele>
        <time>2014-03-30T12:12:17Z</time>
      </trkpt>
      <trkpt lat="45.56847" lon="5.95215">
        <ele>307.76</ele>
        <time>2014-03-30T12:12:18Z</time>
      </trkpt>
      <trkpt lat="45.56851" lon="5.95219">
        <ele>307.76</ele>
        <time>2014-03-30T12:12:19Z</time>
      </trkpt>
      <trkpt lat="45.56855" lon="5.95223">
        <ele>308.72</ele>
        <time>2014-03-30T12:12:20Z</time>
      </trkpt>
      <trkpt lat="45.56858" lon="5.95228">
        <ele>308.24</ele>
        <time>2014-03-30T12:12:21Z</time>
      </trkpt>
      <trkpt lat="45.56865" lon="5.95237">
        <ele>308.24</ele>
        <time>2014-03-30T12:12:23Z</time>
      </trkpt>
      <trkpt lat="45.56884" lon="5.95274">
        <ele>308.72</ele>
        <time>2014-03-30T12:12:31Z</time>
      </trkpt>
      <trkpt lat="45.56883" lon="5.95278">
        <ele>308.72</ele>
        <time>2014-03-30T12:12:32Z</time>
      </trkpt>
      <trkpt lat="45.5688" lon="5.9528">
        <ele>309.2</ele>
        <time>2014-03-30T12:12:33Z</time>
      </trkpt>
      <trkpt lat="45.56877" lon="5.9528">
        <ele>308.72</ele>
        <time>2014-03-30T12:12:34Z</time>
      </trkpt>
      <trkpt lat="45.56874" lon="5.95279">
        <ele>308.72</ele>
        <time>2014-03-30T12:12:35Z</time>
      </trkpt>
      <trkpt lat="45.56871" lon="5.95279">
        <ele>308.72</ele>
        <time>2014-03-30T12:12:36Z</time>
      </trkpt>
      <trkpt lat="45.56868" lon="5.95279">
        <ele>309.2</ele>
        <time>2014-03-30T12:12:37Z</time>
      </trkpt>
      <trkpt lat="45.56865" lon="5.95279">
        <ele>309.68</ele>
        <time>2014-03-30T12:12:38Z</time>
      </trkpt>
      <trkpt lat="45.56863" lon="5.95278">
        <ele>309.2</ele>
        <time>2014-03-30T12:12:39Z</time>
      </trkpt>
      <trkpt lat="45.56861" lon="5.95276">
        <ele>309.2</ele>
        <time>2014-03-30T12:12:40Z</time>
      </trkpt>
      <trkpt lat="45.56859" lon="5.95274">
        <ele>309.2</ele>
        <time>2014-03-30T12:12:41Z</time>
      </trkpt>
      <trkpt lat="45.5685" lon="5.95273">
        <ele>309.68</ele>
        <time>2014-03-30T12:12:47Z</time>
      </trkpt>
      <trkpt lat="45.56848" lon="5.95275">
        <ele>310.64</ele>
        <time>2014-03-30T12:12:48Z</time>
      </trkpt>
      <trkpt lat="45.56845" lon="5.95283">
        <ele>311.6</ele>
        <time>2014-03-30T12:12:51Z</time>
      </trkpt>
      <trkpt lat="45.56845" lon="5.95285">
        <ele>311.6</ele>
        <time>2014-03-30T12:12:52Z</time>
      </trkpt>
      <trkpt lat="45.56845" lon="5.95288">
        <ele>312.09</ele>
        <time>2014-03-30T12:12:53Z</time>
      </trkpt>
      <trkpt lat="45.56846" lon="5.9529">
        <ele>312.09</ele>
        <time>2014-03-30T12:12:54Z</time>
      </trkpt>
      <trkpt lat="45.56846" lon="5.95292">
        <ele>312.57</ele>
        <time>2014-03-30T12:12:55Z</time>
      </trkpt>
      <trkpt lat="45.56847" lon="5.95294">
        <ele>313.05</ele>
        <time>2014-03-30T12:12:56Z</time>
      </trkpt>
      <trkpt lat="45.56847" lon="5.95296">
        <ele>313.05</ele>
        <time>2014-03-30T12:12:57Z</time>
      </trkpt>
      <trkpt lat="45.56848" lon="5.95299">
        <ele>313.53</ele>
        <time>2014-03-30T12:12:58Z</time>
      </trkpt>
      <trkpt lat="45.56848" lon="5.95301">
        <ele>314.01</ele>
        <time>2014-03-30T12:12:59Z</time>
      </trkpt>
      <trkpt lat="45.56849" lon="5.95302">
        <ele>313.53</ele>
        <time>2014-03-30T12:13:00Z</time>
      </trkpt>
      <trkpt lat="45.56849" lon="5.95304">
        <ele>314.01</ele>
        <time>2014-03-30T12:13:01Z</time>
      </trkpt>
      <trkpt lat="45.56849" lon="5.95306">
        <ele>314.01</ele>
        <time>2014-03-30T12:13:02Z</time>
      </trkpt>
      <trkpt lat="45.5685" lon="5.95308">
        <ele>314.49</ele>
        <time>2014-03-30T12:13:03Z</time>
      </trkpt>
      <trkpt lat="45.56849" lon="5.9531">
        <ele>314.97</ele>
        <time>2014-03-30T12:13:04Z</time>
      </trkpt>
      <trkpt lat="45.56849" lon="5.95312">
        <ele>314.97</ele>
        <time>2014-03-30T12:13:05Z</time>
      </trkpt>
      <trkpt lat="45.5685" lon="5.95314">
        <ele>315.45</ele>
        <time>2014-03-30T12:13:06Z</time>
      </trkpt>
      <trkpt lat="45.5685" lon="5.95315">
        <ele>315.45</ele>
        <time>2014-03-30T12:13:07Z</time>
      </trkpt>
      <trkpt lat="45.5685" lon="5.95317">
        <ele>315.93</ele>
        <time>2014-03-30T12:13:08Z</time>
      </trkpt>
      <trkpt lat="45.5685" lon="5.95318">
        <ele>316.41</ele>
        <time>2014-03-30T12:13:09Z</time>
      </trkpt>
      <trkpt lat="45.5685" lon="5.95325">
        <ele>317.37</ele>
        <time>2014-03-30T12:13:13Z</time>
      </trkpt>
      <trkpt lat="45.5685" lon="5.95327">
        <ele>317.37</ele>
        <time>2014-03-30T12:13:14Z</time>
      </trkpt>
      <trkpt lat="45.56851" lon="5.95328">
        <ele>317.85</ele>
        <time>2014-03-30T12:13:15Z</time>
      </trkpt>
      <trkpt lat="45.56856" lon="5.95347">
        <ele>321.22</ele>
        <time>2014-03-30T12:13:25Z</time>
      </trkpt>
      <trkpt lat="45.56857" lon="5.95351">
        <ele>321.22</ele>
        <time>2014-03-30T12:13:28Z</time>
      </trkpt>
      <trkpt lat="45.5686" lon="5.95369">
        <ele>323.14</ele>
        <time>2014-03-30T12:13:38Z</time>
      </trkpt>
      <trkpt lat="45.56865" lon="5.95378">
        <ele>324.58</ele>
        <time>2014-03-30T12:13:44Z</time>
      </trkpt>
      <trkpt lat="45.56867" lon="5.95382">
        <ele>325.54</ele>
        <time>2014-03-30T12:13:47Z</time>
      </trkpt>
      <trkpt lat="45.56872" lon="5.95404">
        <ele>327.95</ele>
        <time>2014-03-30T12:13:59Z</time>
      </trkpt>
      <trkpt lat="45.56888" lon="5.95422">
        <ele>329.87</ele>
        <time>2014-03-30T12:14:12Z</time>
      </trkpt>
      <trkpt lat="45.56898" lon="5.95446">
        <ele>331.79</ele>
        <time>2014-03-30T12:14:26Z</time>
      </trkpt>
      <trkpt lat="45.56902" lon="5.95469">
        <ele>334.68</ele>
        <time>2014-03-30T12:14:39Z</time>
      </trkpt>
      <trkpt lat="45.56902" lon="5.9547">
        <ele>334.68</ele>
        <time>2014-03-30T12:14:40Z</time>
      </trkpt>
      <trkpt lat="45.56902" lon="5.95477">
        <ele>335.16</ele>
        <time>2014-03-30T12:14:44Z</time>
      </trkpt>
      <trkpt lat="45.56894" lon="5.95494">
        <ele>339</ele>
        <time>2014-03-30T12:14:56Z</time>
      </trkpt>
      <trkpt lat="45.56894" lon="5.95496">
        <ele>339</ele>
        <time>2014-03-30T12:14:57Z</time>
      </trkpt>
      <trkpt lat="45.56888" lon="5.95504">
        <ele>340.92</ele>
        <time>2014-03-30T12:15:03Z</time>
      </trkpt>
      <trkpt lat="45.56889" lon="5.95514">
        <ele>341.89</ele>
        <time>2014-03-30T12:15:09Z</time>
      </trkpt>
      <trkpt lat="45.56895" lon="5.95523">
        <ele>343.33</ele>
        <time>2014-03-30T12:15:14Z</time>
      </trkpt>
      <trkpt lat="45.56897" lon="5.95526">
        <ele>344.29</ele>
        <time>2014-03-30T12:15:16Z</time>
      </trkpt>
      <trkpt lat="45.56899" lon="5.95533">
        <ele>345.25</ele>
        <time>2014-03-30T12:15:28Z</time>
      </trkpt>
      <trkpt lat="45.56898" lon="5.95544">
        <ele>348.62</ele>
        <time>2014-03-30T12:15:40Z</time>
      </trkpt>
      <trkpt lat="45.56897" lon="5.95549">
        <ele>350.54</ele>
        <time>2014-03-30T12:15:56Z</time>
      </trkpt>
      <trkpt lat="45.56897" lon="5.95554">
        <ele>351.98</ele>
        <time>2014-03-30T12:16:13Z</time>
      </trkpt>
      <trkpt lat="45.56895" lon="5.95565">
        <ele>354.86</ele>
        <time>2014-03-30T12:16:23Z</time>
      </trkpt>
      <trkpt lat="45.56891" lon="5.95577">
        <ele>357.75</ele>
        <time>2014-03-30T12:16:35Z</time>
      </trkpt>
      <trkpt lat="45.56891" lon="5.95578">
        <ele>358.23</ele>
        <time>2014-03-30T12:16:40Z</time>
      </trkpt>
      <trkpt lat="45.5689" lon="5.95585">
        <ele>358.23</ele>
        <time>2014-03-30T12:16:53Z</time>
      </trkpt>
      <trkpt lat="45.5689" lon="5.95585">
        <ele>358.71</ele>
        <time>2014-03-30T12:17:25Z</time>
      </trkpt>
      <trkpt lat="45.5689" lon="5.95585">
        <ele>358.23</ele>
        <time>2014-03-30T12:17:28Z</time>
      </trkpt>
      <trkpt lat="45.56899" lon="5.95599">
        <ele>358.23</ele>
        <time>2014-03-30T12:17:35Z</time>
      </trkpt>
      <trkpt lat="45.56902" lon="5.95614">
        <ele>358.71</ele>
        <time>2014-03-30T12:17:40Z</time>
      </trkpt>
      <trkpt lat="45.56914" lon="5.95664">
        <ele>357.27</ele>
        <time>2014-03-30T12:17:55Z</time>
      </trkpt>
      <trkpt lat="45.56916" lon="5.95707">
        <ele>358.23</ele>
        <time>2014-03-30T12:18:07Z</time>
      </trkpt>
      <trkpt lat="45.56916" lon="5.95716">
        <ele>358.23</ele>
        <time>2014-03-30T12:18:10Z</time>
      </trkpt>
      <trkpt lat="45.56936" lon="5.95752">
        <ele>357.27</ele>
        <time>2014-03-30T12:18:23Z</time>
      </trkpt>
      <trkpt lat="45.56945" lon="5.95775">
        <ele>356.79</ele>
        <time>2014-03-30T12:18:30Z</time>
      </trkpt>
      <trkpt lat="45.56941" lon="5.95786">
        <ele>355.83</ele>
        <time>2014-03-30T12:18:41Z</time>
      </trkpt>
      <trkpt lat="45.5694" lon="5.95786">
        <ele>356.31</ele>
        <time>2014-03-30T12:18:56Z</time>
      </trkpt>
      <trkpt lat="45.56939" lon="5.95787">
        <ele>356.31</ele>
        <time>2014-03-30T12:18:58Z</time>
      </trkpt>
      <trkpt lat="45.56931" lon="5.95792">
        <ele>356.31</ele>
        <time>2014-03-30T12:19:04Z</time>
      </trkpt>
      <trkpt lat="45.56903" lon="5.95815">
        <ele>356.31</ele>
        <time>2014-03-30T12:19:21Z</time>
      </trkpt>
      <trkpt lat="45.56879" lon="5.95835">
        <ele>356.79</ele>
        <time>2014-03-30T12:19:34Z</time>
      </trkpt>
      <trkpt lat="45.56847" lon="5.95856">
        <ele>355.83</ele>
        <time>2014-03-30T12:19:49Z</time>
      </trkpt>
      <trkpt lat="45.56808" lon="5.95886">
        <ele>354.86</ele>
        <time>2014-03-30T12:20:04Z</time>
      </trkpt>
      <trkpt lat="45.56776" lon="5.95919">
        <ele>354.86</ele>
        <time>2014-03-30T12:20:19Z</time>
      </trkpt>
      <trkpt lat="45.56747" lon="5.95943">
        <ele>351.98</ele>
        <time>2014-03-30T12:20:30Z</time>
      </trkpt>
      <trkpt lat="45.56737" lon="5.9595">
        <ele>350.54</ele>
        <time>2014-03-30T12:20:33Z</time>
      </trkpt>
      <trkpt lat="45.56728" lon="5.95956">
        <ele>349.58</ele>
        <time>2014-03-30T12:20:35Z</time>
      </trkpt>
      <trkpt lat="45.56723" lon="5.95958">
        <ele>349.1</ele>
        <time>2014-03-30T12:20:36Z</time>
      </trkpt>
      <trkpt lat="45.56718" lon="5.95958">
        <ele>349.1</ele>
        <time>2014-03-30T12:20:37Z</time>
      </trkpt>
      <trkpt lat="45.56714" lon="5.95957">
        <ele>348.62</ele>
        <time>2014-03-30T12:20:38Z</time>
      </trkpt>
      <trkpt lat="45.56709" lon="5.95955">
        <ele>348.62</ele>
        <time>2014-03-30T12:20:39Z</time>
      </trkpt>
      <trkpt lat="45.56704" lon="5.95953">
        <ele>348.62</ele>
        <time>2014-03-30T12:20:40Z</time>
      </trkpt>
      <trkpt lat="45.567" lon="5.9595">
        <ele>348.62</ele>
        <time>2014-03-30T12:20:41Z</time>
      </trkpt>
      <trkpt lat="45.56696" lon="5.95947">
        <ele>349.58</ele>
        <time>2014-03-30T12:20:42Z</time>
      </trkpt>
      <trkpt lat="45.56685" lon="5.9594">
        <ele>349.1</ele>
        <time>2014-03-30T12:20:45Z</time>
      </trkpt>
      <trkpt lat="45.56673" lon="5.95935">
        <ele>349.1</ele>
        <time>2014-03-30T12:20:48Z</time>
      </trkpt>
      <trkpt lat="45.56625" lon="5.95917">
        <ele>347.17</ele>
        <time>2014-03-30T12:20:59Z</time>
      </trkpt>
      <trkpt lat="45.56621" lon="5.95918">
        <ele>347.17</ele>
        <time>2014-03-30T12:21:00Z</time>
      </trkpt>
      <trkpt lat="45.56606" lon="5.95919">
        <ele>345.25</ele>
        <time>2014-03-30T12:21:03Z</time>
      </trkpt>
      <trkpt lat="45.56601" lon="5.95918">
        <ele>344.77</ele>
        <time>2014-03-30T12:21:04Z</time>
      </trkpt>
      <trkpt lat="45.56582" lon="5.9591">
        <ele>343.81</ele>
        <time>2014-03-30T12:21:08Z</time>
      </trkpt>
      <trkpt lat="45.56573" lon="5.95903">
        <ele>343.81</ele>
        <time>2014-03-30T12:21:10Z</time>
      </trkpt>
      <trkpt lat="45.56531" lon="5.95862">
        <ele>342.37</ele>
        <time>2014-03-30T12:21:20Z</time>
      </trkpt>
      <trkpt lat="45.56526" lon="5.9586">
        <ele>341.89</ele>
        <time>2014-03-30T12:21:21Z</time>
      </trkpt>
      <trkpt lat="45.56521" lon="5.95859">
        <ele>341.41</ele>
        <time>2014-03-30T12:21:22Z</time>
      </trkpt>
      <trkpt lat="45.56516" lon="5.95859">
        <ele>341.41</ele>
        <time>2014-03-30T12:21:23Z</time>
      </trkpt>
      <trkpt lat="45.5651" lon="5.9586">
        <ele>340.44</ele>
        <time>2014-03-30T12:21:24Z</time>
      </trkpt>
      <trkpt lat="45.56504" lon="5.95861">
        <ele>340.44</ele>
        <time>2014-03-30T12:21:25Z</time>
      </trkpt>
      <trkpt lat="45.565" lon="5.95863">
        <ele>339.48</ele>
        <time>2014-03-30T12:21:26Z</time>
      </trkpt>
      <trkpt lat="45.56495" lon="5.95866">
        <ele>339</ele>
        <time>2014-03-30T12:21:27Z</time>
      </trkpt>
      <trkpt lat="45.56491" lon="5.95868">
        <ele>338.04</ele>
        <time>2014-03-30T12:21:28Z</time>
      </trkpt>
      <trkpt lat="45.56488" lon="5.95872">
        <ele>338.04</ele>
        <time>2014-03-30T12:21:29Z</time>
      </trkpt>
      <trkpt lat="45.56485" lon="5.95877">
        <ele>337.08</ele>
        <time>2014-03-30T12:21:30Z</time>
      </trkpt>
      <trkpt lat="45.56485" lon="5.95884">
        <ele>336.6</ele>
        <time>2014-03-30T12:21:31Z</time>
      </trkpt>
      <trkpt lat="45.56485" lon="5.95891">
        <ele>336.12</ele>
        <time>2014-03-30T12:21:32Z</time>
      </trkpt>
      <trkpt lat="45.56485" lon="5.95898">
        <ele>335.64</ele>
        <time>2014-03-30T12:21:33Z</time>
      </trkpt>
      <trkpt lat="45.56485" lon="5.95906">
        <ele>335.16</ele>
        <time>2014-03-30T12:21:34Z</time>
      </trkpt>
      <trkpt lat="45.56485" lon="5.95922">
        <ele>334.2</ele>
        <time>2014-03-30T12:21:36Z</time>
      </trkpt>
      <trkpt lat="45.56485" lon="5.95967">
        <ele>330.35</ele>
        <time>2014-03-30T12:21:41Z</time>
      </trkpt>
      <trkpt lat="45.56485" lon="5.95986">
        <ele>329.39</ele>
        <time>2014-03-30T12:21:43Z</time>
      </trkpt>
      <trkpt lat="45.56483" lon="5.96024">
        <ele>326.5</ele>
        <time>2014-03-30T12:21:47Z</time>
      </trkpt>
      <trkpt lat="45.56479" lon="5.96046">
        <ele>325.54</ele>
        <time>2014-03-30T12:21:51Z</time>
      </trkpt>
      <trkpt lat="45.5648" lon="5.9605">
        <ele>325.54</ele>
        <time>2014-03-30T12:21:52Z</time>
      </trkpt>
      <trkpt lat="45.56483" lon="5.96053">
        <ele>325.54</ele>
        <time>2014-03-30T12:21:53Z</time>
      </trkpt>
      <trkpt lat="45.56487" lon="5.96056">
        <ele>325.06</ele>
        <time>2014-03-30T12:21:54Z</time>
      </trkpt>
      <trkpt lat="45.5649" lon="5.96058">
        <ele>325.06</ele>
        <time>2014-03-30T12:21:55Z</time>
      </trkpt>
      <trkpt lat="45.56538" lon="5.96097">
        <ele>321.7</ele>
        <time>2014-03-30T12:22:05Z</time>
      </trkpt>
      <trkpt lat="45.56543" lon="5.96102">
        <ele>321.7</ele>
        <time>2014-03-30T12:22:06Z</time>
      </trkpt>
      <trkpt lat="45.56567" lon="5.96125">
        <ele>319.3</ele>
        <time>2014-03-30T12:22:10Z</time>
      </trkpt>
      <trkpt lat="45.56578" lon="5.96137">
        <ele>318.33</ele>
        <time>2014-03-30T12:22:12Z</time>
      </trkpt>
      <trkpt lat="45.56612" lon="5.96181">
        <ele>315.45</ele>
        <time>2014-03-30T12:22:18Z</time>
      </trkpt>
      <trkpt lat="45.56633" lon="5.96215">
        <ele>313.53</ele>
        <time>2014-03-30T12:22:22Z</time>
      </trkpt>
      <trkpt lat="45.56648" lon="5.96243">
        <ele>312.09</ele>
        <time>2014-03-30T12:22:25Z</time>
      </trkpt>
      <trkpt lat="45.5671" lon="5.9634">
        <ele>311.6</ele>
        <time>2014-03-30T12:22:37Z</time>
      </trkpt>
      <trkpt lat="45.56754" lon="5.96369">
        <ele>311.6</ele>
        <time>2014-03-30T12:22:45Z</time>
      </trkpt>
      <trkpt lat="45.56759" lon="5.96373">
        <ele>312.09</ele>
        <time>2014-03-30T12:22:46Z</time>
      </trkpt>
      <trkpt lat="45.56763" lon="5.96378">
        <ele>312.09</ele>
        <time>2014-03-30T12:22:47Z</time>
      </trkpt>
      <trkpt lat="45.56767" lon="5.96383">
        <ele>312.09</ele>
        <time>2014-03-30T12:22:48Z</time>
      </trkpt>
      <trkpt lat="45.5677" lon="5.96388">
        <ele>312.57</ele>
        <time>2014-03-30T12:22:49Z</time>
      </trkpt>
      <trkpt lat="45.56772" lon="5.96392">
        <ele>312.09</ele>
        <time>2014-03-30T12:22:50Z</time>
      </trkpt>
      <trkpt lat="45.56773" lon="5.96395">
        <ele>312.57</ele>
        <time>2014-03-30T12:22:51Z</time>
      </trkpt>
      <trkpt lat="45.56774" lon="5.96397">
        <ele>312.57</ele>
        <time>2014-03-30T12:22:52Z</time>
      </trkpt>
      <trkpt lat="45.56775" lon="5.96398">
        <ele>312.57</ele>
        <time>2014-03-30T12:22:53Z</time>
      </trkpt>
      <trkpt lat="45.56776" lon="5.964">
        <ele>312.57</ele>
        <time>2014-03-30T12:22:54Z</time>
      </trkpt>
      <trkpt lat="45.56777" lon="5.96402">
        <ele>312.57</ele>
        <time>2014-03-30T12:22:55Z</time>
      </trkpt>
      <trkpt lat="45.56779" lon="5.96404">
        <ele>313.05</ele>
        <time>2014-03-30T12:22:56Z</time>
      </trkpt>
      <trkpt lat="45.56791" lon="5.96413">
        <ele>313.05</ele>
        <time>2014-03-30T12:23:00Z</time>
      </trkpt>
      <trkpt lat="45.56795" lon="5.96416">
        <ele>312.57</ele>
        <time>2014-03-30T12:23:01Z</time>
      </trkpt>
      <trkpt lat="45.56844" lon="5.96479">
        <ele>312.57</ele>
        <time>2014-03-30T12:23:14Z</time>
      </trkpt>
      <trkpt lat="45.56846" lon="5.96484">
        <ele>313.05</ele>
        <time>2014-03-30T12:23:15Z</time>
      </trkpt>
      <trkpt lat="45.56849" lon="5.9649">
        <ele>313.05</ele>
        <time>2014-03-30T12:23:16Z</time>
      </trkpt>
      <trkpt lat="45.56851" lon="5.96496">
        <ele>312.57</ele>
        <time>2014-03-30T12:23:17Z</time>
      </trkpt>
      <trkpt lat="45.56854" lon="5.96502">
        <ele>313.05</ele>
        <time>2014-03-30T12:23:18Z</time>
      </trkpt>
      <trkpt lat="45.56858" lon="5.96506">
        <ele>313.05</ele>
        <time>2014-03-30T12:23:19Z</time>
      </trkpt>
      <trkpt lat="45.56862" lon="5.9651">
        <ele>313.53</ele>
        <time>2014-03-30T12:23:20Z</time>
      </trkpt>
      <trkpt lat="45.56866" lon="5.96512">
        <ele>313.53</ele>
        <time>2014-03-30T12:23:21Z</time>
      </trkpt>
      <trkpt lat="45.56875" lon="5.96518">
        <ele>313.05</ele>
        <time>2014-03-30T12:23:23Z</time>
      </trkpt>
      <trkpt lat="45.56939" lon="5.96608">
        <ele>314.49</ele>
        <time>2014-03-30T12:23:42Z</time>
      </trkpt>
      <trkpt lat="45.57" lon="5.96703">
        <ele>315.93</ele>
        <time>2014-03-30T12:24:02Z</time>
      </trkpt>
      <trkpt lat="45.57019" lon="5.96736">
        <ele>316.41</ele>
        <time>2014-03-30T12:24:09Z</time>
      </trkpt>
      <trkpt lat="45.57027" lon="5.96752">
        <ele>317.37</ele>
        <time>2014-03-30T12:24:18Z</time>
      </trkpt>
      <trkpt lat="45.57027" lon="5.96752">
        <ele>316.41</ele>
        <time>2014-03-30T12:24:35Z</time>
      </trkpt>
      <trkpt lat="45.57028" lon="5.96753">
        <ele>316.89</ele>
        <time>2014-03-30T12:24:45Z</time>
      </trkpt>
      <trkpt lat="45.57029" lon="5.96754">
        <ele>316.41</ele>
        <time>2014-03-30T12:24:46Z</time>
      </trkpt>
      <trkpt lat="45.5703" lon="5.96756">
        <ele>316.89</ele>
        <time>2014-03-30T12:24:47Z</time>
      </trkpt>
      <trkpt lat="45.5706" lon="5.96818">
        <ele>317.37</ele>
        <time>2014-03-30T12:25:03Z</time>
      </trkpt>
      <trkpt lat="45.57084" lon="5.96864">
        <ele>317.37</ele>
        <time>2014-03-30T12:25:12Z</time>
      </trkpt>
      <trkpt lat="45.57114" lon="5.9692">
        <ele>317.85</ele>
        <time>2014-03-30T12:25:23Z</time>
      </trkpt>
      <trkpt lat="45.57115" lon="5.96926">
        <ele>318.33</ele>
        <time>2014-03-30T12:25:24Z</time>
      </trkpt>
      <trkpt lat="45.57115" lon="5.96932">
        <ele>318.33</ele>
        <time>2014-03-30T12:25:25Z</time>
      </trkpt>
      <trkpt lat="45.57114" lon="5.96939">
        <ele>317.85</ele>
        <time>2014-03-30T12:25:26Z</time>
      </trkpt>
      <trkpt lat="45.57113" lon="5.96945">
        <ele>317.85</ele>
        <time>2014-03-30T12:25:27Z</time>
      </trkpt>
      <trkpt lat="45.57111" lon="5.9695">
        <ele>317.85</ele>
        <time>2014-03-30T12:25:28Z</time>
      </trkpt>
      <trkpt lat="45.5711" lon="5.96956">
        <ele>317.85</ele>
        <time>2014-03-30T12:25:29Z</time>
      </trkpt>
      <trkpt lat="45.57085" lon="5.97028">
        <ele>318.33</ele>
        <time>2014-03-30T12:25:40Z</time>
      </trkpt>
      <trkpt lat="45.57083" lon="5.97034">
        <ele>318.81</ele>
        <time>2014-03-30T12:25:41Z</time>
      </trkpt>
      <trkpt lat="45.5708" lon="5.97041">
        <ele>318.81</ele>
        <time>2014-03-30T12:25:42Z</time>
      </trkpt>
      <trkpt lat="45.57077" lon="5.97047">
        <ele>318.81</ele>
        <time>2014-03-30T12:25:43Z</time>
      </trkpt>
      <trkpt lat="45.57075" lon="5.97054">
        <ele>318.81</ele>
        <time>2014-03-30T12:25:44Z</time>
      </trkpt>
      <trkpt lat="45.57074" lon="5.97061">
        <ele>318.81</ele>
        <time>2014-03-30T12:25:45Z</time>
      </trkpt>
      <trkpt lat="45.57073" lon="5.97068">
        <ele>319.3</ele>
        <time>2014-03-30T12:25:46Z</time>
      </trkpt>
      <trkpt lat="45.57074" lon="5.97076">
        <ele>319.3</ele>
        <time>2014-03-30T12:25:47Z</time>
      </trkpt>
      <trkpt lat="45.57075" lon="5.97083">
        <ele>319.3</ele>
        <time>2014-03-30T12:25:48Z</time>
      </trkpt>
      <trkpt lat="45.57077" lon="5.9709">
        <ele>318.81</ele>
        <time>2014-03-30T12:25:49Z</time>
      </trkpt>
      <trkpt lat="45.57079" lon="5.97097">
        <ele>318.81</ele>
        <time>2014-03-30T12:25:50Z</time>
      </trkpt>
      <trkpt lat="45.57121" lon="5.97208">
        <ele>319.3</ele>
        <time>2014-03-30T12:26:07Z</time>
      </trkpt>
      <trkpt lat="45.57151" lon="5.97295">
        <ele>320.74</ele>
        <time>2014-03-30T12:26:21Z</time>
      </trkpt>
      <trkpt lat="45.57152" lon="5.97301">
        <ele>320.26</ele>
        <time>2014-03-30T12:26:22Z</time>
      </trkpt>
      <trkpt lat="45.57153" lon="5.97308">
        <ele>320.74</ele>
        <time>2014-03-30T12:26:23Z</time>
      </trkpt>
      <trkpt lat="45.57153" lon="5.97322">
        <ele>320.26</ele>
        <time>2014-03-30T12:26:25Z</time>
      </trkpt>
      <trkpt lat="45.57151" lon="5.97328">
        <ele>320.26</ele>
        <time>2014-03-30T12:26:26Z</time>
      </trkpt>
      <trkpt lat="45.5715" lon="5.97335">
        <ele>320.26</ele>
        <time>2014-03-30T12:26:27Z</time>
      </trkpt>
      <trkpt lat="45.57148" lon="5.97341">
        <ele>320.74</ele>
        <time>2014-03-30T12:26:28Z</time>
      </trkpt>
      <trkpt lat="45.57146" lon="5.97348">
        <ele>320.26</ele>
        <time>2014-03-30T12:26:29Z</time>
      </trkpt>
      <trkpt lat="45.57107" lon="5.97471">
        <ele>319.78</ele>
        <time>2014-03-30T12:26:46Z</time>
      </trkpt>
      <trkpt lat="45.57104" lon="5.97478">
        <ele>319.78</ele>
        <time>2014-03-30T12:26:47Z</time>
      </trkpt>
      <trkpt lat="45.571" lon="5.97484">
        <ele>319.3</ele>
        <time>2014-03-30T12:26:48Z</time>
      </trkpt>
      <trkpt lat="45.57024" lon="5.97554">
        <ele>317.85</ele>
        <time>2014-03-30T12:27:04Z</time>
      </trkpt>
      <trkpt lat="45.57018" lon="5.97557">
        <ele>317.37</ele>
        <time>2014-03-30T12:27:05Z</time>
      </trkpt>
      <trkpt lat="45.56955" lon="5.97581">
        <ele>315.93</ele>
        <time>2014-03-30T12:27:16Z</time>
      </trkpt>
      <trkpt lat="45.56949" lon="5.9758">
        <ele>315.93</ele>
        <time>2014-03-30T12:27:17Z</time>
      </trkpt>
      <trkpt lat="45.56944" lon="5.97579">
        <ele>316.41</ele>
        <time>2014-03-30T12:27:18Z</time>
      </trkpt>
      <trkpt lat="45.56939" lon="5.97579">
        <ele>316.41</ele>
        <time>2014-03-30T12:27:19Z</time>
      </trkpt>
      <trkpt lat="45.56935" lon="5.97582">
        <ele>316.41</ele>
        <time>2014-03-30T12:27:20Z</time>
      </trkpt>
      <trkpt lat="45.56932" lon="5.97586">
        <ele>316.89</ele>
        <time>2014-03-30T12:27:21Z</time>
      </trkpt>
      <trkpt lat="45.56931" lon="5.97593">
        <ele>316.41</ele>
        <time>2014-03-30T12:27:22Z</time>
      </trkpt>
      <trkpt lat="45.56933" lon="5.976">
        <ele>316.89</ele>
        <time>2014-03-30T12:27:23Z</time>
      </trkpt>
      <trkpt lat="45.56937" lon="5.97604">
        <ele>315.93</ele>
        <time>2014-03-30T12:27:24Z</time>
      </trkpt>
      <trkpt lat="45.56941" lon="5.97608">
        <ele>315.93</ele>
        <time>2014-03-30T12:27:25Z</time>
      </trkpt>
      <trkpt lat="45.56946" lon="5.97612">
        <ele>316.41</ele>
        <time>2014-03-30T12:27:26Z</time>
      </trkpt>
      <trkpt lat="45.5695" lon="5.97617">
        <ele>316.41</ele>
        <time>2014-03-30T12:27:27Z</time>
      </trkpt>
      <trkpt lat="45.56953" lon="5.97623">
        <ele>316.41</ele>
        <time>2014-03-30T12:27:28Z</time>
      </trkpt>
      <trkpt lat="45.56956" lon="5.97629">
        <ele>316.41</ele>
        <time>2014-03-30T12:27:29Z</time>
      </trkpt>
      <trkpt lat="45.5701" lon="5.97738">
        <ele>316.89</ele>
        <time>2014-03-30T12:27:47Z</time>
      </trkpt>
      <trkpt lat="45.57029" lon="5.97781">
        <ele>316.89</ele>
        <time>2014-03-30T12:27:54Z</time>
      </trkpt>
      <trkpt lat="45.5703" lon="5.97788">
        <ele>316.89</ele>
        <time>2014-03-30T12:27:55Z</time>
      </trkpt>
      <trkpt lat="45.5703" lon="5.97796">
        <ele>316.41</ele>
        <time>2014-03-30T12:27:56Z</time>
      </trkpt>
      <trkpt lat="45.57028" lon="5.97803">
        <ele>316.89</ele>
        <time>2014-03-30T12:27:57Z</time>
      </trkpt>
      <trkpt lat="45.57026" lon="5.9781">
        <ele>316.89</ele>
        <time>2014-03-30T12:27:58Z</time>
      </trkpt>
      <trkpt lat="45.57023" lon="5.97817">
        <ele>316.89</ele>
        <time>2014-03-30T12:27:59Z</time>
      </trkpt>
      <trkpt lat="45.5702" lon="5.97823">
        <ele>316.41</ele>
        <time>2014-03-30T12:28:00Z</time>
      </trkpt>
      <trkpt lat="45.57017" lon="5.97829">
        <ele>316.41</ele>
        <time>2014-03-30T12:28:01Z</time>
      </trkpt>
      <trkpt lat="45.56947" lon="5.9794">
        <ele>314.97</ele>
        <time>2014-03-30T12:28:19Z</time>
      </trkpt>
      <trkpt lat="45.56944" lon="5.97946">
        <ele>314.97</ele>
        <time>2014-03-30T12:28:20Z</time>
      </trkpt>
      <trkpt lat="45.56944" lon="5.97953">
        <ele>314.97</ele>
        <time>2014-03-30T12:28:21Z</time>
      </trkpt>
      <trkpt lat="45.56944" lon="5.97961">
        <ele>314.97</ele>
        <time>2014-03-30T12:28:22Z</time>
      </trkpt>
      <trkpt lat="45.56946" lon="5.97968">
        <ele>314.49</ele>
        <time>2014-03-30T12:28:23Z</time>
      </trkpt>
      <trkpt lat="45.56982" lon="5.98084">
        <ele>315.45</ele>
        <time>2014-03-30T12:28:39Z</time>
      </trkpt>
      <trkpt lat="45.5701" lon="5.98176">
        <ele>315.45</ele>
        <time>2014-03-30T12:28:54Z</time>
      </trkpt>
      <trkpt lat="45.5701" lon="5.98182">
        <ele>315.93</ele>
        <time>2014-03-30T12:28:55Z</time>
      </trkpt>
      <trkpt lat="45.57007" lon="5.98195">
        <ele>316.41</ele>
        <time>2014-03-30T12:28:57Z</time>
      </trkpt>
      <trkpt lat="45.57007" lon="5.98201">
        <ele>316.41</ele>
        <time>2014-03-30T12:28:58Z</time>
      </trkpt>
      <trkpt lat="45.57007" lon="5.98208">
        <ele>316.41</ele>
        <time>2014-03-30T12:28:59Z</time>
      </trkpt>
      <trkpt lat="45.57008" lon="5.98214">
        <ele>316.41</ele>
        <time>2014-03-30T12:29:00Z</time>
      </trkpt>
      <trkpt lat="45.57008" lon="5.9822">
        <ele>316.89</ele>
        <time>2014-03-30T12:29:01Z</time>
      </trkpt>
      <trkpt lat="45.57008" lon="5.98226">
        <ele>316.89</ele>
        <time>2014-03-30T12:29:02Z</time>
      </trkpt>
      <trkpt lat="45.57007" lon="5.98232">
        <ele>317.37</ele>
        <time>2014-03-30T12:29:03Z</time>
      </trkpt>
      <trkpt lat="45.56994" lon="5.98288">
        <ele>319.78</ele>
        <time>2014-03-30T12:29:16Z</time>
      </trkpt>
      <trkpt lat="45.56976" lon="5.9832">
        <ele>322.66</ele>
        <time>2014-03-30T12:29:28Z</time>
      </trkpt>
      <trkpt lat="45.56973" lon="5.98339">
        <ele>324.1</ele>
        <time>2014-03-30T12:29:35Z</time>
      </trkpt>
      <trkpt lat="45.56975" lon="5.98342">
        <ele>324.1</ele>
        <time>2014-03-30T12:29:36Z</time>
      </trkpt>
      <trkpt lat="45.56977" lon="5.98343">
        <ele>324.58</ele>
        <time>2014-03-30T12:29:37Z</time>
      </trkpt>
      <trkpt lat="45.56979" lon="5.98345">
        <ele>324.58</ele>
        <time>2014-03-30T12:29:38Z</time>
      </trkpt>
      <trkpt lat="45.56981" lon="5.98346">
        <ele>325.06</ele>
        <time>2014-03-30T12:29:39Z</time>
      </trkpt>
      <trkpt lat="45.56983" lon="5.98347">
        <ele>325.06</ele>
        <time>2014-03-30T12:29:40Z</time>
      </trkpt>
      <trkpt lat="45.57011" lon="5.98351">
        <ele>327.95</ele>
        <time>2014-03-30T12:29:54Z</time>
      </trkpt>
      <trkpt lat="45.57039" lon="5.98341">
        <ele>331.31</ele>
        <time>2014-03-30T12:30:09Z</time>
      </trkpt>
      <trkpt lat="45.57066" lon="5.98333">
        <ele>334.2</ele>
        <time>2014-03-30T12:30:23Z</time>
      </trkpt>
      <trkpt lat="45.57089" lon="5.98333">
        <ele>337.08</ele>
        <time>2014-03-30T12:30:35Z</time>
      </trkpt>
      <trkpt lat="45.57115" lon="5.98341">
        <ele>340.44</ele>
        <time>2014-03-30T12:30:49Z</time>
      </trkpt>
      <trkpt lat="45.57137" lon="5.98353">
        <ele>343.33</ele>
        <time>2014-03-30T12:31:02Z</time>
      </trkpt>
      <trkpt lat="45.57162" lon="5.98362">
        <ele>346.69</ele>
        <time>2014-03-30T12:31:16Z</time>
      </trkpt>
      <trkpt lat="45.57164" lon="5.98362">
        <ele>346.69</ele>
        <time>2014-03-30T12:31:17Z</time>
      </trkpt>
      <trkpt lat="45.57166" lon="5.98361">
        <ele>346.69</ele>
        <time>2014-03-30T12:31:18Z</time>
      </trkpt>
      <trkpt lat="45.57167" lon="5.98362">
        <ele>347.17</ele>
        <time>2014-03-30T12:31:19Z</time>
      </trkpt>
      <trkpt lat="45.57169" lon="5.98363">
        <ele>347.17</ele>
        <time>2014-03-30T12:31:20Z</time>
      </trkpt>
      <trkpt lat="45.57191" lon="5.98379">
        <ele>350.54</ele>
        <time>2014-03-30T12:31:33Z</time>
      </trkpt>
      <trkpt lat="45.57204" lon="5.9836">
        <ele>352.94</ele>
        <time>2014-03-30T12:31:44Z</time>
      </trkpt>
      <trkpt lat="45.57219" lon="5.98342">
        <ele>355.83</ele>
        <time>2014-03-30T12:31:56Z</time>
      </trkpt>
      <trkpt lat="45.57245" lon="5.98341">
        <ele>358.71</ele>
        <time>2014-03-30T12:32:10Z</time>
      </trkpt>
      <trkpt lat="45.5727" lon="5.98323">
        <ele>362.07</ele>
        <time>2014-03-30T12:32:24Z</time>
      </trkpt>
      <trkpt lat="45.5729" lon="5.98335">
        <ele>364.96</ele>
        <time>2014-03-30T12:32:36Z</time>
      </trkpt>
      <trkpt lat="45.57288" lon="5.9837">
        <ele>367.84</ele>
        <time>2014-03-30T12:32:50Z</time>
      </trkpt>
      <trkpt lat="45.57254" lon="5.98385">
        <ele>370.24</ele>
        <time>2014-03-30T12:33:06Z</time>
      </trkpt>
      <trkpt lat="45.57236" lon="5.98402">
        <ele>372.65</ele>
        <time>2014-03-30T12:33:18Z</time>
      </trkpt>
      <trkpt lat="45.57237" lon="5.98404">
        <ele>372.65</ele>
        <time>2014-03-30T12:33:19Z</time>
      </trkpt>
      <trkpt lat="45.57238" lon="5.98407">
        <ele>372.65</ele>
        <time>2014-03-30T12:33:20Z</time>
      </trkpt>
      <trkpt lat="45.57239" lon="5.98409">
        <ele>373.13</ele>
        <time>2014-03-30T12:33:21Z</time>
      </trkpt>
      <trkpt lat="45.57241" lon="5.98411">
        <ele>372.65</ele>
        <time>2014-03-30T12:33:22Z</time>
      </trkpt>
      <trkpt lat="45.57243" lon="5.98412">
        <ele>373.61</ele>
        <time>2014-03-30T12:33:23Z</time>
      </trkpt>
      <trkpt lat="45.57245" lon="5.98413">
        <ele>374.09</ele>
        <time>2014-03-30T12:33:24Z</time>
      </trkpt>
      <trkpt lat="45.57246" lon="5.98414">
        <ele>374.09</ele>
        <time>2014-03-30T12:33:25Z</time>
      </trkpt>
      <trkpt lat="45.57249" lon="5.98414">
        <ele>374.09</ele>
        <time>2014-03-30T12:33:26Z</time>
      </trkpt>
      <trkpt lat="45.57251" lon="5.98414">
        <ele>374.09</ele>
        <time>2014-03-30T12:33:27Z</time>
      </trkpt>
      <trkpt lat="45.5728" lon="5.98415">
        <ele>376.97</ele>
        <time>2014-03-30T12:33:41Z</time>
      </trkpt>
      <trkpt lat="45.57305" lon="5.9842">
        <ele>379.86</ele>
        <time>2014-03-30T12:33:54Z</time>
      </trkpt>
      <trkpt lat="45.57334" lon="5.98419">
        <ele>382.74</ele>
        <time>2014-03-30T12:34:09Z</time>
      </trkpt>
      <trkpt lat="45.57351" lon="5.98398">
        <ele>385.15</ele>
        <time>2014-03-30T12:34:20Z</time>
      </trkpt>
      <trkpt lat="45.57352" lon="5.98397">
        <ele>385.15</ele>
        <time>2014-03-30T12:34:21Z</time>
      </trkpt>
      <trkpt lat="45.57354" lon="5.98398">
        <ele>385.63</ele>
        <time>2014-03-30T12:34:22Z</time>
      </trkpt>
      <trkpt lat="45.57356" lon="5.98398">
        <ele>386.11</ele>
        <time>2014-03-30T12:34:23Z</time>
      </trkpt>
      <trkpt lat="45.57357" lon="5.984">
        <ele>386.11</ele>
        <time>2014-03-30T12:34:24Z</time>
      </trkpt>
      <trkpt lat="45.57359" lon="5.98406">
        <ele>386.59</ele>
        <time>2014-03-30T12:34:33Z</time>
      </trkpt>
      <trkpt lat="45.57359" lon="5.98405">
        <ele>386.59</ele>
        <time>2014-03-30T12:34:44Z</time>
      </trkpt>
      <trkpt lat="45.5737" lon="5.98404">
        <ele>387.55</ele>
        <time>2014-03-30T12:34:50Z</time>
      </trkpt>
      <trkpt lat="45.57397" lon="5.98421">
        <ele>390.43</ele>
        <time>2014-03-30T12:35:06Z</time>
      </trkpt>
      <trkpt lat="45.57409" lon="5.98427">
        <ele>391.87</ele>
        <time>2014-03-30T12:35:13Z</time>
      </trkpt>
      <trkpt lat="45.57429" lon="5.98437">
        <ele>394.76</ele>
        <time>2014-03-30T12:35:25Z</time>
      </trkpt>
      <trkpt lat="45.57458" lon="5.9844">
        <ele>397.16</ele>
        <time>2014-03-30T12:35:40Z</time>
      </trkpt>
      <trkpt lat="45.57492" lon="5.98437">
        <ele>400.53</ele>
        <time>2014-03-30T12:35:57Z</time>
      </trkpt>
      <trkpt lat="45.5752" lon="5.98427">
        <ele>403.89</ele>
        <time>2014-03-30T12:36:12Z</time>
      </trkpt>
      <trkpt lat="45.57543" lon="5.98405">
        <ele>406.77</ele>
        <time>2014-03-30T12:36:26Z</time>
      </trkpt>
      <trkpt lat="45.57567" lon="5.98389">
        <ele>409.66</ele>
        <time>2014-03-30T12:36:40Z</time>
      </trkpt>
      <trkpt lat="45.57567" lon="5.98389">
        <ele>409.18</ele>
        <time>2014-03-30T12:36:41Z</time>
      </trkpt>
      <trkpt lat="45.57563" lon="5.98396">
        <ele>410.62</ele>
        <time>2014-03-30T12:36:48Z</time>
      </trkpt>
      <trkpt lat="45.57561" lon="5.98416">
        <ele>412.06</ele>
        <time>2014-03-30T12:36:56Z</time>
      </trkpt>
      <trkpt lat="45.57565" lon="5.98423">
        <ele>413.5</ele>
        <time>2014-03-30T12:37:00Z</time>
      </trkpt>
      <trkpt lat="45.57573" lon="5.98438">
        <ele>415.43</ele>
        <time>2014-03-30T12:37:11Z</time>
      </trkpt>
      <trkpt lat="45.57575" lon="5.98438">
        <ele>415.91</ele>
        <time>2014-03-30T12:37:13Z</time>
      </trkpt>
      <trkpt lat="45.57582" lon="5.98439">
        <ele>416.87</ele>
        <time>2014-03-30T12:37:19Z</time>
      </trkpt>
      <trkpt lat="45.57589" lon="5.98441">
        <ele>418.31</ele>
        <time>2014-03-30T12:37:25Z</time>
      </trkpt>
      <trkpt lat="45.57593" lon="5.98439">
        <ele>418.31</ele>
        <time>2014-03-30T12:37:28Z</time>
      </trkpt>
      <trkpt lat="45.57603" lon="5.9844">
        <ele>421.19</ele>
        <time>2014-03-30T12:37:36Z</time>
      </trkpt>
      <trkpt lat="45.57618" lon="5.98441">
        <ele>423.6</ele>
        <time>2014-03-30T12:37:47Z</time>
      </trkpt>
      <trkpt lat="45.57634" lon="5.98458">
        <ele>426</ele>
        <time>2014-03-30T12:38:01Z</time>
      </trkpt>
      <trkpt lat="45.5765" lon="5.9848">
        <ele>429.37</ele>
        <time>2014-03-30T12:38:17Z</time>
      </trkpt>
      <trkpt lat="45.57665" lon="5.98503">
        <ele>431.77</ele>
        <time>2014-03-30T12:38:33Z</time>
      </trkpt>
      <trkpt lat="45.57673" lon="5.9852">
        <ele>434.17</ele>
        <time>2014-03-30T12:38:44Z</time>
      </trkpt>
      <trkpt lat="45.57678" lon="5.98528">
        <ele>435.61</ele>
        <time>2014-03-30T12:38:50Z</time>
      </trkpt>
      <trkpt lat="45.57687" lon="5.98547">
        <ele>439.46</ele>
        <time>2014-03-30T12:39:02Z</time>
      </trkpt>
      <trkpt lat="45.57697" lon="5.98553">
        <ele>440.42</ele>
        <time>2014-03-30T12:39:10Z</time>
      </trkpt>
      <trkpt lat="45.57719" lon="5.98558">
        <ele>443.31</ele>
        <time>2014-03-30T12:39:24Z</time>
      </trkpt>
      <trkpt lat="45.57734" lon="5.98559">
        <ele>444.75</ele>
        <time>2014-03-30T12:39:37Z</time>
      </trkpt>
      <trkpt lat="45.57734" lon="5.98559">
        <ele>445.23</ele>
        <time>2014-03-30T12:39:59Z</time>
      </trkpt>
      <trkpt lat="45.57734" lon="5.98558">
        <ele>445.23</ele>
        <time>2014-03-30T12:40:30Z</time>
      </trkpt>
      <trkpt lat="45.57734" lon="5.98559">
        <ele>445.23</ele>
        <time>2014-03-30T12:41:09Z</time>
      </trkpt>
      <trkpt lat="45.57734" lon="5.98558">
        <ele>445.23</ele>
        <time>2014-03-30T12:41:41Z</time>
      </trkpt>
      <trkpt lat="45.57734" lon="5.98558">
        <ele>445.23</ele>
        <time>2014-03-30T12:41:59Z</time>
      </trkpt>
      <trkpt lat="45.57734" lon="5.98558">
        <ele>444.75</ele>
        <time>2014-03-30T12:42:40Z</time>
      </trkpt>
      <trkpt lat="45.57735" lon="5.98558">
        <ele>444.75</ele>
        <time>2014-03-30T12:43:09Z</time>
      </trkpt>
      <trkpt lat="45.57763" lon="5.98548">
        <ele>446.67</ele>
        <time>2014-03-30T12:43:24Z</time>
      </trkpt>
      <trkpt lat="45.5779" lon="5.98554">
        <ele>449.07</ele>
        <time>2014-03-30T12:43:38Z</time>
      </trkpt>
      <trkpt lat="45.57806" lon="5.98586">
        <ele>451.48</ele>
        <time>2014-03-30T12:43:52Z</time>
      </trkpt>
      <trkpt lat="45.57791" lon="5.98615">
        <ele>452.92</ele>
        <time>2014-03-30T12:44:05Z</time>
      </trkpt>
      <trkpt lat="45.57766" lon="5.98627">
        <ele>455.8</ele>
        <time>2014-03-30T12:44:19Z</time>
      </trkpt>
      <trkpt lat="45.57729" lon="5.98642">
        <ele>458.21</ele>
        <time>2014-03-30T12:44:37Z</time>
      </trkpt>
      <trkpt lat="45.57702" lon="5.98682">
        <ele>460.61</ele>
        <time>2014-03-30T12:44:54Z</time>
      </trkpt>
      <trkpt lat="45.57681" lon="5.9872">
        <ele>463.97</ele>
        <time>2014-03-30T12:45:09Z</time>
      </trkpt>
      <trkpt lat="45.57663" lon="5.98761">
        <ele>465.9</ele>
        <time>2014-03-30T12:45:25Z</time>
      </trkpt>
      <trkpt lat="45.57654" lon="5.98787">
        <ele>468.3</ele>
        <time>2014-03-30T12:45:37Z</time>
      </trkpt>
      <trkpt lat="45.57648" lon="5.98812">
        <ele>470.7</ele>
        <time>2014-03-30T12:45:50Z</time>
      </trkpt>
      <trkpt lat="45.57644" lon="5.98839">
        <ele>473.59</ele>
        <time>2014-03-30T12:46:03Z</time>
      </trkpt>
      <trkpt lat="45.57626" lon="5.98853">
        <ele>476.47</ele>
        <time>2014-03-30T12:46:16Z</time>
      </trkpt>
      <trkpt lat="45.57606" lon="5.98868">
        <ele>478.87</ele>
        <time>2014-03-30T12:46:30Z</time>
      </trkpt>
      <trkpt lat="45.57604" lon="5.98871">
        <ele>478.87</ele>
        <time>2014-03-30T12:46:32Z</time>
      </trkpt>
      <trkpt lat="45.57601" lon="5.98882">
        <ele>479.35</ele>
        <time>2014-03-30T12:46:37Z</time>
      </trkpt>
      <trkpt lat="45.57606" lon="5.9892">
        <ele>482.72</ele>
        <time>2014-03-30T12:46:54Z</time>
      </trkpt>
      <trkpt lat="45.5761" lon="5.98948">
        <ele>485.12</ele>
        <time>2014-03-30T12:47:07Z</time>
      </trkpt>
      <trkpt lat="45.57613" lon="5.9898">
        <ele>488.49</ele>
        <time>2014-03-30T12:47:22Z</time>
      </trkpt>
      <trkpt lat="45.5761" lon="5.99011">
        <ele>491.37</ele>
        <time>2014-03-30T12:47:37Z</time>
      </trkpt>
      <trkpt lat="45.57607" lon="5.99044">
        <ele>495.22</ele>
        <time>2014-03-30T12:47:52Z</time>
      </trkpt>
      <trkpt lat="45.57607" lon="5.99052">
        <ele>495.7</ele>
        <time>2014-03-30T12:47:56Z</time>
      </trkpt>
      <trkpt lat="45.57608" lon="5.99059">
        <ele>497.14</ele>
        <time>2014-03-30T12:48:00Z</time>
      </trkpt>
      <trkpt lat="45.57606" lon="5.99084">
        <ele>500.5</ele>
        <time>2014-03-30T12:48:13Z</time>
      </trkpt>
      <trkpt lat="45.57604" lon="5.99102">
        <ele>503.87</ele>
        <time>2014-03-30T12:48:24Z</time>
      </trkpt>
      <trkpt lat="45.57606" lon="5.99114">
        <ele>504.35</ele>
        <time>2014-03-30T12:48:32Z</time>
      </trkpt>
      <trkpt lat="45.57604" lon="5.99122">
        <ele>504.83</ele>
        <time>2014-03-30T12:48:36Z</time>
      </trkpt>
      <trkpt lat="45.57608" lon="5.9914">
        <ele>505.79</ele>
        <time>2014-03-30T12:48:50Z</time>
      </trkpt>
      <trkpt lat="45.57608" lon="5.9914">
        <ele>505.31</ele>
        <time>2014-03-30T12:49:12Z</time>
      </trkpt>
      <trkpt lat="45.57608" lon="5.9914">
        <ele>505.79</ele>
        <time>2014-03-30T12:49:36Z</time>
      </trkpt>
      <trkpt lat="45.57608" lon="5.9914">
        <ele>505.79</ele>
        <time>2014-03-30T12:49:53Z</time>
      </trkpt>
      <trkpt lat="45.57608" lon="5.99142">
        <ele>505.31</ele>
        <time>2014-03-30T12:50:01Z</time>
      </trkpt>
      <trkpt lat="45.57602" lon="5.99148">
        <ele>506.75</ele>
        <time>2014-03-30T12:50:07Z</time>
      </trkpt>
      <trkpt lat="45.57596" lon="5.99154">
        <ele>509.64</ele>
        <time>2014-03-30T12:50:20Z</time>
      </trkpt>
      <trkpt lat="45.57601" lon="5.99155">
        <ele>511.56</ele>
        <time>2014-03-30T12:50:24Z</time>
      </trkpt>
      <trkpt lat="45.57609" lon="5.99159">
        <ele>513</ele>
        <time>2014-03-30T12:50:37Z</time>
      </trkpt>
      <trkpt lat="45.5761" lon="5.99163">
        <ele>512.52</ele>
        <time>2014-03-30T12:50:40Z</time>
      </trkpt>
      <trkpt lat="45.57618" lon="5.99199">
        <ele>514.92</ele>
        <time>2014-03-30T12:50:55Z</time>
      </trkpt>
      <trkpt lat="45.57633" lon="5.99235">
        <ele>515.88</ele>
        <time>2014-03-30T12:51:09Z</time>
      </trkpt>
      <trkpt lat="45.57645" lon="5.99271">
        <ele>516.85</ele>
        <time>2014-03-30T12:51:22Z</time>
      </trkpt>
      <trkpt lat="45.57654" lon="5.99301">
        <ele>518.77</ele>
        <time>2014-03-30T12:51:33Z</time>
      </trkpt>
      <trkpt lat="45.57657" lon="5.99333">
        <ele>519.73</ele>
        <time>2014-03-30T12:51:45Z</time>
      </trkpt>
      <trkpt lat="45.57661" lon="5.99367">
        <ele>520.69</ele>
        <time>2014-03-30T12:51:57Z</time>
      </trkpt>
      <trkpt lat="45.57667" lon="5.99418">
        <ele>519.73</ele>
        <time>2014-03-30T12:52:09Z</time>
      </trkpt>
      <trkpt lat="45.57669" lon="5.99455">
        <ele>522.61</ele>
        <time>2014-03-30T12:52:23Z</time>
      </trkpt>
      <trkpt lat="45.57671" lon="5.99484">
        <ele>524.06</ele>
        <time>2014-03-30T12:52:35Z</time>
      </trkpt>
      <trkpt lat="45.57678" lon="5.99518">
        <ele>526.94</ele>
        <time>2014-03-30T12:52:50Z</time>
      </trkpt>
      <trkpt lat="45.57681" lon="5.99541">
        <ele>528.86</ele>
        <time>2014-03-30T12:53:01Z</time>
      </trkpt>
      <trkpt lat="45.57682" lon="5.99547">
        <ele>529.82</ele>
        <time>2014-03-30T12:53:04Z</time>
      </trkpt>
      <trkpt lat="45.57684" lon="5.99573">
        <ele>532.71</ele>
        <time>2014-03-30T12:53:18Z</time>
      </trkpt>
      <trkpt lat="45.57681" lon="5.99598">
        <ele>535.59</ele>
        <time>2014-03-30T12:53:31Z</time>
      </trkpt>
      <trkpt lat="45.5768" lon="5.99612">
        <ele>537.03</ele>
        <time>2014-03-30T12:53:39Z</time>
      </trkpt>
      <trkpt lat="45.57674" lon="5.99639">
        <ele>539.92</ele>
        <time>2014-03-30T12:53:53Z</time>
      </trkpt>
      <trkpt lat="45.57669" lon="5.99664">
        <ele>542.8</ele>
        <time>2014-03-30T12:54:08Z</time>
      </trkpt>
      <trkpt lat="45.57668" lon="5.99675">
        <ele>544.24</ele>
        <time>2014-03-30T12:54:14Z</time>
      </trkpt>
      <trkpt lat="45.57664" lon="5.99698">
        <ele>547.61</ele>
        <time>2014-03-30T12:54:29Z</time>
      </trkpt>
      <trkpt lat="45.57663" lon="5.99701">
        <ele>548.57</ele>
        <time>2014-03-30T12:54:32Z</time>
      </trkpt>
      <trkpt lat="45.57662" lon="5.99711">
        <ele>549.53</ele>
        <time>2014-03-30T12:54:37Z</time>
      </trkpt>
      <trkpt lat="45.57661" lon="5.9972">
        <ele>550.49</ele>
        <time>2014-03-30T12:54:51Z</time>
      </trkpt>
      <trkpt lat="45.5766" lon="5.99724">
        <ele>550.49</ele>
        <time>2014-03-30T12:55:07Z</time>
      </trkpt>
      <trkpt lat="45.5766" lon="5.99724">
        <ele>550.97</ele>
        <time>2014-03-30T12:55:28Z</time>
      </trkpt>
      <trkpt lat="45.5766" lon="5.99724">
        <ele>550.97</ele>
        <time>2014-03-30T12:55:46Z</time>
      </trkpt>
      <trkpt lat="45.5766" lon="5.99726">
        <ele>551.45</ele>
        <time>2014-03-30T12:55:59Z</time>
      </trkpt>
      <trkpt lat="45.57657" lon="5.99757">
        <ele>554.34</ele>
        <time>2014-03-30T12:56:13Z</time>
      </trkpt>
      <trkpt lat="45.57655" lon="5.99794">
        <ele>556.74</ele>
        <time>2014-03-30T12:56:29Z</time>
      </trkpt>
      <trkpt lat="45.57651" lon="5.99833">
        <ele>558.66</ele>
        <time>2014-03-30T12:56:43Z</time>
      </trkpt>
      <trkpt lat="45.57646" lon="5.99868">
        <ele>562.03</ele>
        <time>2014-03-30T12:56:58Z</time>
      </trkpt>
      <trkpt lat="45.57642" lon="5.99884">
        <ele>564.43</ele>
        <time>2014-03-30T12:57:06Z</time>
      </trkpt>
      <trkpt lat="45.57636" lon="5.99906">
        <ele>567.32</ele>
        <time>2014-03-30T12:57:17Z</time>
      </trkpt>
      <trkpt lat="45.57636" lon="5.99918">
        <ele>567.8</ele>
        <time>2014-03-30T12:57:22Z</time>
      </trkpt>
      <trkpt lat="45.57637" lon="5.99959">
        <ele>567.8</ele>
        <time>2014-03-30T12:57:35Z</time>
      </trkpt>
      <trkpt lat="45.57634" lon="6.00005">
        <ele>568.28</ele>
        <time>2014-03-30T12:57:48Z</time>
      </trkpt>
      <trkpt lat="45.57634" lon="6.00055">
        <ele>568.76</ele>
        <time>2014-03-30T12:58:01Z</time>
      </trkpt>
      <trkpt lat="45.57639" lon="6.00107">
        <ele>569.72</ele>
        <time>2014-03-30T12:58:12Z</time>
      </trkpt>
      <trkpt lat="45.57639" lon="6.00176">
        <ele>570.2</ele>
        <time>2014-03-30T12:58:28Z</time>
      </trkpt>
      <trkpt lat="45.57645" lon="6.00218">
        <ele>571.16</ele>
        <time>2014-03-30T12:58:40Z</time>
      </trkpt>
      <trkpt lat="45.57646" lon="6.00264">
        <ele>572.6</ele>
        <time>2014-03-30T12:58:53Z</time>
      </trkpt>
      <trkpt lat="45.57645" lon="6.00314">
        <ele>573.08</ele>
        <time>2014-03-30T12:59:06Z</time>
      </trkpt>
      <trkpt lat="45.57644" lon="6.0036">
        <ele>574.53</ele>
        <time>2014-03-30T12:59:19Z</time>
      </trkpt>
      <trkpt lat="45.57647" lon="6.00399">
        <ele>575.01</ele>
        <time>2014-03-30T12:59:31Z</time>
      </trkpt>
      <trkpt lat="45.57636" lon="6.00419">
        <ele>576.45</ele>
        <time>2014-03-30T12:59:42Z</time>
      </trkpt>
      <trkpt lat="45.57631" lon="6.00417">
        <ele>576.45</ele>
        <time>2014-03-30T12:59:48Z</time>
      </trkpt>
      <trkpt lat="45.57631" lon="6.00403">
        <ele>576.93</ele>
        <time>2014-03-30T12:59:52Z</time>
      </trkpt>
      <trkpt lat="45.57629" lon="6.00389">
        <ele>577.89</ele>
        <time>2014-03-30T12:59:58Z</time>
      </trkpt>
      <trkpt lat="45.57626" lon="6.00384">
        <ele>577.89</ele>
        <time>2014-03-30T13:00:00Z</time>
      </trkpt>
      <trkpt lat="45.57621" lon="6.00377">
        <ele>578.85</ele>
        <time>2014-03-30T13:00:04Z</time>
      </trkpt>
      <trkpt lat="45.57613" lon="6.00364">
        <ele>582.7</ele>
        <time>2014-03-30T13:00:14Z</time>
      </trkpt>
      <trkpt lat="45.57605" lon="6.00353">
        <ele>585.58</ele>
        <time>2014-03-30T13:00:22Z</time>
      </trkpt>
      <trkpt lat="45.576" lon="6.00335">
        <ele>587.5</ele>
        <time>2014-03-30T13:00:32Z</time>
      </trkpt>
      <trkpt lat="45.57599" lon="6.00328">
        <ele>587.02</ele>
        <time>2014-03-30T13:00:35Z</time>
      </trkpt>
      <trkpt lat="45.57587" lon="6.00309">
        <ele>590.87</ele>
        <time>2014-03-30T13:00:48Z</time>
      </trkpt>
      <trkpt lat="45.57576" lon="6.00292">
        <ele>593.75</ele>
        <time>2014-03-30T13:01:01Z</time>
      </trkpt>
      <trkpt lat="45.57575" lon="6.0029">
        <ele>593.75</ele>
        <time>2014-03-30T13:01:02Z</time>
      </trkpt>
      <trkpt lat="45.57571" lon="6.00282">
        <ele>596.15</ele>
        <time>2014-03-30T13:01:07Z</time>
      </trkpt>
      <trkpt lat="45.57568" lon="6.00271">
        <ele>597.6</ele>
        <time>2014-03-30T13:01:14Z</time>
      </trkpt>
      <trkpt lat="45.57566" lon="6.00267">
        <ele>598.08</ele>
        <time>2014-03-30T13:01:17Z</time>
      </trkpt>
      <trkpt lat="45.57562" lon="6.00254">
        <ele>600.48</ele>
        <time>2014-03-30T13:01:26Z</time>
      </trkpt>
      <trkpt lat="45.57565" lon="6.0022">
        <ele>600.48</ele>
        <time>2014-03-30T13:01:40Z</time>
      </trkpt>
      <trkpt lat="45.57566" lon="6.00204">
        <ele>600</ele>
        <time>2014-03-30T13:01:53Z</time>
      </trkpt>
      <trkpt lat="45.57566" lon="6.00203">
        <ele>600</ele>
        <time>2014-03-30T13:02:08Z</time>
      </trkpt>
      <trkpt lat="45.57567" lon="6.002">
        <ele>600</ele>
        <time>2014-03-30T13:02:39Z</time>
      </trkpt>
      <trkpt lat="45.57567" lon="6.002">
        <ele>600.48</ele>
        <time>2014-03-30T13:03:12Z</time>
      </trkpt>
      <trkpt lat="45.57568" lon="6.00199">
        <ele>600.48</ele>
        <time>2014-03-30T13:03:48Z</time>
      </trkpt>
      <trkpt lat="45.57568" lon="6.00199">
        <ele>600.96</ele>
        <time>2014-03-30T13:04:13Z</time>
      </trkpt>
      <trkpt lat="45.57567" lon="6.00196">
        <ele>600.96</ele>
        <time>2014-03-30T13:04:52Z</time>
      </trkpt>
      <trkpt lat="45.57566" lon="6.00171">
        <ele>601.44</ele>
        <time>2014-03-30T13:05:01Z</time>
      </trkpt>
      <trkpt lat="45.57568" lon="6.00114">
        <ele>600.48</ele>
        <time>2014-03-30T13:05:14Z</time>
      </trkpt>
      <trkpt lat="45.57565" lon="6.00057">
        <ele>600.96</ele>
        <time>2014-03-30T13:05:27Z</time>
      </trkpt>
      <trkpt lat="45.57564" lon="6.00042">
        <ele>602.4</ele>
        <time>2014-03-30T13:05:32Z</time>
      </trkpt>
      <trkpt lat="45.57558" lon="6.00005">
        <ele>604.81</ele>
        <time>2014-03-30T13:05:44Z</time>
      </trkpt>
      <trkpt lat="45.57556" lon="5.99998">
        <ele>604.81</ele>
        <time>2014-03-30T13:05:47Z</time>
      </trkpt>
      <trkpt lat="45.57554" lon="5.99989">
        <ele>605.29</ele>
        <time>2014-03-30T13:05:51Z</time>
      </trkpt>
      <trkpt lat="45.57548" lon="5.99957">
        <ele>607.21</ele>
        <time>2014-03-30T13:06:03Z</time>
      </trkpt>
      <trkpt lat="45.57536" lon="5.99926">
        <ele>610.57</ele>
        <time>2014-03-30T13:06:16Z</time>
      </trkpt>
      <trkpt lat="45.57524" lon="5.99905">
        <ele>613.46</ele>
        <time>2014-03-30T13:06:28Z</time>
      </trkpt>
      <trkpt lat="45.57521" lon="5.99895">
        <ele>614.42</ele>
        <time>2014-03-30T13:06:33Z</time>
      </trkpt>
      <trkpt lat="45.57518" lon="5.99874">
        <ele>615.86</ele>
        <time>2014-03-30T13:06:43Z</time>
      </trkpt>
      <trkpt lat="45.57516" lon="5.99862">
        <ele>616.82</ele>
        <time>2014-03-30T13:06:49Z</time>
      </trkpt>
      <trkpt lat="45.57514" lon="5.99852">
        <ele>617.3</ele>
        <time>2014-03-30T13:06:53Z</time>
      </trkpt>
      <trkpt lat="45.57508" lon="5.99838">
        <ele>619.23</ele>
        <time>2014-03-30T13:07:03Z</time>
      </trkpt>
      <trkpt lat="45.57496" lon="5.9981">
        <ele>623.07</ele>
        <time>2014-03-30T13:07:18Z</time>
      </trkpt>
      <trkpt lat="45.57492" lon="5.998">
        <ele>623.07</ele>
        <time>2014-03-30T13:07:24Z</time>
      </trkpt>
      <trkpt lat="45.57479" lon="5.99783">
        <ele>624.51</ele>
        <time>2014-03-30T13:07:38Z</time>
      </trkpt>
      <trkpt lat="45.57475" lon="5.99777">
        <ele>624.99</ele>
        <time>2014-03-30T13:07:51Z</time>
      </trkpt>
      <trkpt lat="45.5747" lon="5.99799">
        <ele>626.44</ele>
        <time>2014-03-30T13:08:02Z</time>
      </trkpt>
      <trkpt lat="45.5747" lon="5.99834">
        <ele>628.36</ele>
        <time>2014-03-30T13:08:18Z</time>
      </trkpt>
      <trkpt lat="45.57473" lon="5.99866">
        <ele>629.32</ele>
        <time>2014-03-30T13:08:30Z</time>
      </trkpt>
      <trkpt lat="45.5747" lon="5.99912">
        <ele>630.76</ele>
        <time>2014-03-30T13:08:45Z</time>
      </trkpt>
      <trkpt lat="45.57466" lon="5.99935">
        <ele>632.2</ele>
        <time>2014-03-30T13:08:54Z</time>
      </trkpt>
      <trkpt lat="45.57463" lon="5.99946">
        <ele>633.17</ele>
        <time>2014-03-30T13:08:59Z</time>
      </trkpt>
      <trkpt lat="45.57456" lon="5.99967">
        <ele>636.53</ele>
        <time>2014-03-30T13:09:10Z</time>
      </trkpt>
      <trkpt lat="45.57454" lon="5.99971">
        <ele>637.01</ele>
        <time>2014-03-30T13:09:12Z</time>
      </trkpt>
      <trkpt lat="45.57452" lon="5.99976">
        <ele>637.49</ele>
        <time>2014-03-30T13:09:26Z</time>
      </trkpt>
      <trkpt lat="45.57452" lon="5.99976">
        <ele>637.49</ele>
        <time>2014-03-30T13:09:48Z</time>
      </trkpt>
      <trkpt lat="45.57447" lon="5.99982">
        <ele>637.49</ele>
        <time>2014-03-30T13:10:02Z</time>
      </trkpt>
      <trkpt lat="45.57434" lon="6.00014">
        <ele>639.41</ele>
        <time>2014-03-30T13:10:16Z</time>
      </trkpt>
      <trkpt lat="45.57428" lon="6.00055">
        <ele>642.3</ele>
        <time>2014-03-30T13:10:31Z</time>
      </trkpt>
      <trkpt lat="45.57424" lon="6.00074">
        <ele>643.74</ele>
        <time>2014-03-30T13:10:38Z</time>
      </trkpt>
      <trkpt lat="45.57424" lon="6.00083">
        <ele>643.74</ele>
        <time>2014-03-30T13:10:42Z</time>
      </trkpt>
      <trkpt lat="45.57421" lon="6.00113">
        <ele>645.66</ele>
        <time>2014-03-30T13:10:53Z</time>
      </trkpt>
      <trkpt lat="45.57417" lon="6.00128">
        <ele>646.62</ele>
        <time>2014-03-30T13:10:59Z</time>
      </trkpt>
      <trkpt lat="45.57407" lon="6.00172">
        <ele>649.03</ele>
        <time>2014-03-30T13:11:15Z</time>
      </trkpt>
      <trkpt lat="45.57401" lon="6.00204">
        <ele>651.91</ele>
        <time>2014-03-30T13:11:27Z</time>
      </trkpt>
      <trkpt lat="45.57394" lon="6.00239">
        <ele>655.28</ele>
        <time>2014-03-30T13:11:40Z</time>
      </trkpt>
      <trkpt lat="45.57385" lon="6.00286">
        <ele>658.16</ele>
        <time>2014-03-30T13:11:58Z</time>
      </trkpt>
      <trkpt lat="45.57378" lon="6.00325">
        <ele>661.52</ele>
        <time>2014-03-30T13:12:13Z</time>
      </trkpt>
      <trkpt lat="45.5737" lon="6.00337">
        <ele>663.93</ele>
        <time>2014-03-30T13:12:26Z</time>
      </trkpt>
      <trkpt lat="45.57369" lon="6.00336">
        <ele>664.41</ele>
        <time>2014-03-30T13:12:27Z</time>
      </trkpt>
      <trkpt lat="45.57366" lon="6.00291">
        <ele>666.33</ele>
        <time>2014-03-30T13:12:41Z</time>
      </trkpt>
      <trkpt lat="45.57364" lon="6.00252">
        <ele>668.73</ele>
        <time>2014-03-30T13:12:55Z</time>
      </trkpt>
      <trkpt lat="45.57363" lon="6.00221">
        <ele>668.73</ele>
        <time>2014-03-30T13:13:09Z</time>
      </trkpt>
      <trkpt lat="45.57361" lon="6.00184">
        <ele>668.73</ele>
        <time>2014-03-30T13:13:24Z</time>
      </trkpt>
      <trkpt lat="45.57364" lon="6.00132">
        <ele>667.29</ele>
        <time>2014-03-30T13:13:37Z</time>
      </trkpt>
      <trkpt lat="45.57364" lon="6.00061">
        <ele>666.81</ele>
        <time>2014-03-30T13:13:51Z</time>
      </trkpt>
      <trkpt lat="45.57362" lon="6.00009">
        <ele>667.77</ele>
        <time>2014-03-30T13:14:05Z</time>
      </trkpt>
      <trkpt lat="45.57359" lon="5.99956">
        <ele>669.22</ele>
        <time>2014-03-30T13:14:18Z</time>
      </trkpt>
      <trkpt lat="45.57352" lon="5.99887">
        <ele>670.66</ele>
        <time>2014-03-30T13:14:34Z</time>
      </trkpt>
      <trkpt lat="45.57345" lon="5.9983">
        <ele>671.14</ele>
        <time>2014-03-30T13:14:48Z</time>
      </trkpt>
      <trkpt lat="45.57341" lon="5.99778">
        <ele>669.22</ele>
        <time>2014-03-30T13:15:00Z</time>
      </trkpt>
      <trkpt lat="45.57335" lon="5.99744">
        <ele>667.77</ele>
        <time>2014-03-30T13:15:06Z</time>
      </trkpt>
      <trkpt lat="45.57333" lon="5.99737">
        <ele>667.77</ele>
        <time>2014-03-30T13:15:07Z</time>
      </trkpt>
      <trkpt lat="45.57318" lon="5.99673">
        <ele>669.22</ele>
        <time>2014-03-30T13:15:18Z</time>
      </trkpt>
      <trkpt lat="45.57317" lon="5.99662">
        <ele>668.73</ele>
        <time>2014-03-30T13:15:20Z</time>
      </trkpt>
      <trkpt lat="45.57316" lon="5.99655">
        <ele>667.77</ele>
        <time>2014-03-30T13:15:21Z</time>
      </trkpt>
      <trkpt lat="45.57314" lon="5.99641">
        <ele>667.29</ele>
        <time>2014-03-30T13:15:23Z</time>
      </trkpt>
      <trkpt lat="45.57312" lon="5.99634">
        <ele>666.81</ele>
        <time>2014-03-30T13:15:24Z</time>
      </trkpt>
      <trkpt lat="45.57311" lon="5.99627">
        <ele>666.33</ele>
        <time>2014-03-30T13:15:25Z</time>
      </trkpt>
      <trkpt lat="45.57309" lon="5.9962">
        <ele>666.81</ele>
        <time>2014-03-30T13:15:26Z</time>
      </trkpt>
      <trkpt lat="45.57308" lon="5.99614">
        <ele>666.81</ele>
        <time>2014-03-30T13:15:27Z</time>
      </trkpt>
      <trkpt lat="45.57307" lon="5.99608">
        <ele>666.81</ele>
        <time>2014-03-30T13:15:28Z</time>
      </trkpt>
      <trkpt lat="45.57304" lon="5.99589">
        <ele>665.85</ele>
        <time>2014-03-30T13:15:31Z</time>
      </trkpt>
      <trkpt lat="45.57302" lon="5.99583">
        <ele>665.37</ele>
        <time>2014-03-30T13:15:32Z</time>
      </trkpt>
      <trkpt lat="45.573" lon="5.99579">
        <ele>665.85</ele>
        <time>2014-03-30T13:15:33Z</time>
      </trkpt>
      <trkpt lat="45.57292" lon="5.99567">
        <ele>665.85</ele>
        <time>2014-03-30T13:15:42Z</time>
      </trkpt>
      <trkpt lat="45.57288" lon="5.99557">
        <ele>666.33</ele>
        <time>2014-03-30T13:15:48Z</time>
      </trkpt>
      <trkpt lat="45.57287" lon="5.99554">
        <ele>666.33</ele>
        <time>2014-03-30T13:15:49Z</time>
      </trkpt>
      <trkpt lat="45.57286" lon="5.99552">
        <ele>667.29</ele>
        <time>2014-03-30T13:15:50Z</time>
      </trkpt>
      <trkpt lat="45.57285" lon="5.99549">
        <ele>667.77</ele>
        <time>2014-03-30T13:15:51Z</time>
      </trkpt>
      <trkpt lat="45.57284" lon="5.99546">
        <ele>667.29</ele>
        <time>2014-03-30T13:15:52Z</time>
      </trkpt>
      <trkpt lat="45.57284" lon="5.99542">
        <ele>667.77</ele>
        <time>2014-03-30T13:15:53Z</time>
      </trkpt>
      <trkpt lat="45.57284" lon="5.99537">
        <ele>666.81</ele>
        <time>2014-03-30T13:15:54Z</time>
      </trkpt>
      <trkpt lat="45.57272" lon="5.99495">
        <ele>665.85</ele>
        <time>2014-03-30T13:16:03Z</time>
      </trkpt>
      <trkpt lat="45.57258" lon="5.9947">
        <ele>668.25</ele>
        <time>2014-03-30T13:16:11Z</time>
      </trkpt>
      <trkpt lat="45.5723" lon="5.99433">
        <ele>666.33</ele>
        <time>2014-03-30T13:16:23Z</time>
      </trkpt>
      <trkpt lat="45.57206" lon="5.99396">
        <ele>663.45</ele>
        <time>2014-03-30T13:16:32Z</time>
      </trkpt>
      <trkpt lat="45.5717" lon="5.99341">
        <ele>660.56</ele>
        <time>2014-03-30T13:16:42Z</time>
      </trkpt>
      <trkpt lat="45.57166" lon="5.99338">
        <ele>660.56</ele>
        <time>2014-03-30T13:16:43Z</time>
      </trkpt>
      <trkpt lat="45.57162" lon="5.99337">
        <ele>659.6</ele>
        <time>2014-03-30T13:16:44Z</time>
      </trkpt>
      <trkpt lat="45.57158" lon="5.99337">
        <ele>659.6</ele>
        <time>2014-03-30T13:16:45Z</time>
      </trkpt>
      <trkpt lat="45.57149" lon="5.99334">
        <ele>660.08</ele>
        <time>2014-03-30T13:16:47Z</time>
      </trkpt>
      <trkpt lat="45.57144" lon="5.99332">
        <ele>658.64</ele>
        <time>2014-03-30T13:16:48Z</time>
      </trkpt>
      <trkpt lat="45.57139" lon="5.9933">
        <ele>659.12</ele>
        <time>2014-03-30T13:16:49Z</time>
      </trkpt>
      <trkpt lat="45.57126" lon="5.99327">
        <ele>658.64</ele>
        <time>2014-03-30T13:16:52Z</time>
      </trkpt>
      <trkpt lat="45.57121" lon="5.99327">
        <ele>659.12</ele>
        <time>2014-03-30T13:16:53Z</time>
      </trkpt>
      <trkpt lat="45.57116" lon="5.99327">
        <ele>658.64</ele>
        <time>2014-03-30T13:16:54Z</time>
      </trkpt>
      <trkpt lat="45.57092" lon="5.99332">
        <ele>657.68</ele>
        <time>2014-03-30T13:17:01Z</time>
      </trkpt>
      <trkpt lat="45.57065" lon="5.99338">
        <ele>658.64</ele>
        <time>2014-03-30T13:17:07Z</time>
      </trkpt>
      <trkpt lat="45.57062" lon="5.99337">
        <ele>658.64</ele>
        <time>2014-03-30T13:17:08Z</time>
      </trkpt>
      <trkpt lat="45.57058" lon="5.99336">
        <ele>658.64</ele>
        <time>2014-03-30T13:17:09Z</time>
      </trkpt>
      <trkpt lat="45.57055" lon="5.99334">
        <ele>658.16</ele>
        <time>2014-03-30T13:17:10Z</time>
      </trkpt>
      <trkpt lat="45.57052" lon="5.99332">
        <ele>658.64</ele>
        <time>2014-03-30T13:17:11Z</time>
      </trkpt>
      <trkpt lat="45.57048" lon="5.99328">
        <ele>658.64</ele>
        <time>2014-03-30T13:17:12Z</time>
      </trkpt>
      <trkpt lat="45.57017" lon="5.99305">
        <ele>659.12</ele>
        <time>2014-03-30T13:17:22Z</time>
      </trkpt>
      <trkpt lat="45.56972" lon="5.99283">
        <ele>660.08</ele>
        <time>2014-03-30T13:17:33Z</time>
      </trkpt>
      <trkpt lat="45.5694" lon="5.99271">
        <ele>662.01</ele>
        <time>2014-03-30T13:17:44Z</time>
      </trkpt>
      <trkpt lat="45.56919" lon="5.99272">
        <ele>661.04</ele>
        <time>2014-03-30T13:17:52Z</time>
      </trkpt>
      <trkpt lat="45.56881" lon="5.99321">
        <ele>660.08</ele>
        <time>2014-03-30T13:18:04Z</time>
      </trkpt>
      <trkpt lat="45.56878" lon="5.99323">
        <ele>659.12</ele>
        <time>2014-03-30T13:18:15Z</time>
      </trkpt>
      <trkpt lat="45.56877" lon="5.99323">
        <ele>659.6</ele>
        <time>2014-03-30T13:18:29Z</time>
      </trkpt>
      <trkpt lat="45.56869" lon="5.99326">
        <ele>658.64</ele>
        <time>2014-03-30T13:18:51Z</time>
      </trkpt>
      <trkpt lat="45.56867" lon="5.99326">
        <ele>659.12</ele>
        <time>2014-03-30T13:18:52Z</time>
      </trkpt>
      <trkpt lat="45.56865" lon="5.99326">
        <ele>659.12</ele>
        <time>2014-03-30T13:18:53Z</time>
      </trkpt>
      <trkpt lat="45.56862" lon="5.99327">
        <ele>658.16</ele>
        <time>2014-03-30T13:18:54Z</time>
      </trkpt>
      <trkpt lat="45.5686" lon="5.99327">
        <ele>659.12</ele>
        <time>2014-03-30T13:18:55Z</time>
      </trkpt>
      <trkpt lat="45.56857" lon="5.99327">
        <ele>658.64</ele>
        <time>2014-03-30T13:18:56Z</time>
      </trkpt>
      <trkpt lat="45.56803" lon="5.99335">
        <ele>659.12</ele>
        <time>2014-03-30T13:19:10Z</time>
      </trkpt>
      <trkpt lat="45.56749" lon="5.9934">
        <ele>661.04</ele>
        <time>2014-03-30T13:19:23Z</time>
      </trkpt>
      <trkpt lat="45.567" lon="5.99343">
        <ele>662.97</ele>
        <time>2014-03-30T13:19:37Z</time>
      </trkpt>
      <trkpt lat="45.56669" lon="5.99342">
        <ele>665.85</ele>
        <time>2014-03-30T13:19:49Z</time>
      </trkpt>
      <trkpt lat="45.56637" lon="5.9934">
        <ele>669.22</ele>
        <time>2014-03-30T13:20:03Z</time>
      </trkpt>
      <trkpt lat="45.56599" lon="5.99339">
        <ele>670.66</ele>
        <time>2014-03-30T13:20:17Z</time>
      </trkpt>
      <trkpt lat="45.56569" lon="5.99334">
        <ele>672.58</ele>
        <time>2014-03-30T13:20:29Z</time>
      </trkpt>
      <trkpt lat="45.56537" lon="5.99325">
        <ele>674.98</ele>
        <time>2014-03-30T13:20:43Z</time>
      </trkpt>
      <trkpt lat="45.56511" lon="5.99329">
        <ele>678.35</ele>
        <time>2014-03-30T13:20:55Z</time>
      </trkpt>
      <trkpt lat="45.56482" lon="5.99337">
        <ele>676.91</ele>
        <time>2014-03-30T13:21:06Z</time>
      </trkpt>
      <trkpt lat="45.56478" lon="5.99339">
        <ele>676.91</ele>
        <time>2014-03-30T13:21:07Z</time>
      </trkpt>
      <trkpt lat="45.5647" lon="5.99346">
        <ele>676.42</ele>
        <time>2014-03-30T13:21:09Z</time>
      </trkpt>
      <trkpt lat="45.56458" lon="5.99357">
        <ele>676.42</ele>
        <time>2014-03-30T13:21:12Z</time>
      </trkpt>
      <trkpt lat="45.56455" lon="5.99359">
        <ele>676.91</ele>
        <time>2014-03-30T13:21:13Z</time>
      </trkpt>
      <trkpt lat="45.56452" lon="5.9936">
        <ele>676.91</ele>
        <time>2014-03-30T13:21:14Z</time>
      </trkpt>
      <trkpt lat="45.5643" lon="5.99373">
        <ele>680.27</ele>
        <time>2014-03-30T13:21:23Z</time>
      </trkpt>
      <trkpt lat="45.56405" lon="5.99379">
        <ele>678.35</ele>
        <time>2014-03-30T13:21:33Z</time>
      </trkpt>
      <trkpt lat="45.56397" lon="5.99383">
        <ele>677.39</ele>
        <time>2014-03-30T13:21:35Z</time>
      </trkpt>
      <trkpt lat="45.56393" lon="5.99386">
        <ele>677.87</ele>
        <time>2014-03-30T13:21:36Z</time>
      </trkpt>
      <trkpt lat="45.56381" lon="5.99395">
        <ele>678.35</ele>
        <time>2014-03-30T13:21:45Z</time>
      </trkpt>
      <trkpt lat="45.56381" lon="5.99395">
        <ele>677.39</ele>
        <time>2014-03-30T13:22:14Z</time>
      </trkpt>
      <trkpt lat="45.56382" lon="5.99395">
        <ele>677.87</ele>
        <time>2014-03-30T13:22:20Z</time>
      </trkpt>
      <trkpt lat="45.56381" lon="5.99395">
        <ele>677.39</ele>
        <time>2014-03-30T13:22:21Z</time>
      </trkpt>
      <trkpt lat="45.5635" lon="5.99416">
        <ele>676.91</ele>
        <time>2014-03-30T13:22:33Z</time>
      </trkpt>
      <trkpt lat="45.5631" lon="5.99448">
        <ele>674.02</ele>
        <time>2014-03-30T13:22:43Z</time>
      </trkpt>
      <trkpt lat="45.56304" lon="5.99451">
        <ele>673.06</ele>
        <time>2014-03-30T13:22:44Z</time>
      </trkpt>
      <trkpt lat="45.56294" lon="5.99456">
        <ele>671.14</ele>
        <time>2014-03-30T13:22:46Z</time>
      </trkpt>
      <trkpt lat="45.56289" lon="5.99458">
        <ele>670.66</ele>
        <time>2014-03-30T13:22:47Z</time>
      </trkpt>
      <trkpt lat="45.56285" lon="5.9946">
        <ele>670.18</ele>
        <time>2014-03-30T13:22:48Z</time>
      </trkpt>
      <trkpt lat="45.56281" lon="5.99462">
        <ele>669.7</ele>
        <time>2014-03-30T13:22:49Z</time>
      </trkpt>
      <trkpt lat="45.56277" lon="5.99464">
        <ele>669.22</ele>
        <time>2014-03-30T13:22:50Z</time>
      </trkpt>
      <trkpt lat="45.56263" lon="5.99473">
        <ele>667.29</ele>
        <time>2014-03-30T13:22:55Z</time>
      </trkpt>
      <trkpt lat="45.56255" lon="5.99476">
        <ele>665.85</ele>
        <time>2014-03-30T13:23:03Z</time>
      </trkpt>
      <trkpt lat="45.56249" lon="5.9948">
        <ele>665.85</ele>
        <time>2014-03-30T13:23:06Z</time>
      </trkpt>
      <trkpt lat="45.56247" lon="5.99482">
        <ele>665.37</ele>
        <time>2014-03-30T13:23:07Z</time>
      </trkpt>
      <trkpt lat="45.56222" lon="5.99499">
        <ele>662.49</ele>
        <time>2014-03-30T13:23:16Z</time>
      </trkpt>
      <trkpt lat="45.56212" lon="5.99508">
        <ele>659.12</ele>
        <time>2014-03-30T13:23:20Z</time>
      </trkpt>
      <trkpt lat="45.56207" lon="5.9951">
        <ele>657.2</ele>
        <time>2014-03-30T13:23:31Z</time>
      </trkpt>
      <trkpt lat="45.56199" lon="5.99517">
        <ele>655.76</ele>
        <time>2014-03-30T13:23:44Z</time>
      </trkpt>
      <trkpt lat="45.56199" lon="5.99517">
        <ele>655.28</ele>
        <time>2014-03-30T13:24:08Z</time>
      </trkpt>
      <trkpt lat="45.56198" lon="5.99519">
        <ele>655.28</ele>
        <time>2014-03-30T13:24:15Z</time>
      </trkpt>
      <trkpt lat="45.56197" lon="5.99523">
        <ele>655.28</ele>
        <time>2014-03-30T13:24:16Z</time>
      </trkpt>
      <trkpt lat="45.56198" lon="5.99527">
        <ele>654.31</ele>
        <time>2014-03-30T13:24:17Z</time>
      </trkpt>
      <trkpt lat="45.56198" lon="5.99532">
        <ele>654.31</ele>
        <time>2014-03-30T13:24:18Z</time>
      </trkpt>
      <trkpt lat="45.56198" lon="5.99537">
        <ele>651.91</ele>
        <time>2014-03-30T13:24:19Z</time>
      </trkpt>
      <trkpt lat="45.56199" lon="5.99543">
        <ele>651.91</ele>
        <time>2014-03-30T13:24:20Z</time>
      </trkpt>
      <trkpt lat="45.562" lon="5.9959">
        <ele>648.55</ele>
        <time>2014-03-30T13:24:29Z</time>
      </trkpt>
      <trkpt lat="45.56196" lon="5.99604">
        <ele>645.66</ele>
        <time>2014-03-30T13:24:31Z</time>
      </trkpt>
      <trkpt lat="45.56186" lon="5.99649">
        <ele>642.3</ele>
        <time>2014-03-30T13:24:37Z</time>
      </trkpt>
      <trkpt lat="45.56183" lon="5.99656">
        <ele>640.86</ele>
        <time>2014-03-30T13:24:38Z</time>
      </trkpt>
      <trkpt lat="45.56178" lon="5.99662">
        <ele>639.41</ele>
        <time>2014-03-30T13:24:39Z</time>
      </trkpt>
      <trkpt lat="45.56173" lon="5.99668">
        <ele>637.97</ele>
        <time>2014-03-30T13:24:40Z</time>
      </trkpt>
      <trkpt lat="45.56162" lon="5.99678">
        <ele>635.09</ele>
        <time>2014-03-30T13:24:42Z</time>
      </trkpt>
      <trkpt lat="45.56154" lon="5.99682">
        <ele>634.13</ele>
        <time>2014-03-30T13:24:43Z</time>
      </trkpt>
      <trkpt lat="45.5615" lon="5.99685">
        <ele>632.2</ele>
        <time>2014-03-30T13:24:44Z</time>
      </trkpt>
      <trkpt lat="45.56134" lon="5.99691">
        <ele>629.8</ele>
        <time>2014-03-30T13:24:46Z</time>
      </trkpt>
      <trkpt lat="45.56124" lon="5.997">
        <ele>628.36</ele>
        <time>2014-03-30T13:24:48Z</time>
      </trkpt>
      <trkpt lat="45.56121" lon="5.99704">
        <ele>626.92</ele>
        <time>2014-03-30T13:24:49Z</time>
      </trkpt>
      <trkpt lat="45.56118" lon="5.9971">
        <ele>626.44</ele>
        <time>2014-03-30T13:24:50Z</time>
      </trkpt>
      <trkpt lat="45.56115" lon="5.99716">
        <ele>625.96</ele>
        <time>2014-03-30T13:24:51Z</time>
      </trkpt>
      <trkpt lat="45.56112" lon="5.99722">
        <ele>625.96</ele>
        <time>2014-03-30T13:24:52Z</time>
      </trkpt>
      <trkpt lat="45.56109" lon="5.99727">
        <ele>625.96</ele>
        <time>2014-03-30T13:24:53Z</time>
      </trkpt>
      <trkpt lat="45.56104" lon="5.99732">
        <ele>624.99</ele>
        <time>2014-03-30T13:24:54Z</time>
      </trkpt>
      <trkpt lat="45.56098" lon="5.99736">
        <ele>624.03</ele>
        <time>2014-03-30T13:24:55Z</time>
      </trkpt>
      <trkpt lat="45.56091" lon="5.99739">
        <ele>623.07</ele>
        <time>2014-03-30T13:24:56Z</time>
      </trkpt>
      <trkpt lat="45.56084" lon="5.99741">
        <ele>623.07</ele>
        <time>2014-03-30T13:24:57Z</time>
      </trkpt>
      <trkpt lat="45.56082" lon="5.99735">
        <ele>623.07</ele>
        <time>2014-03-30T13:24:58Z</time>
      </trkpt>
      <trkpt lat="45.5608" lon="5.99729">
        <ele>623.55</ele>
        <time>2014-03-30T13:24:59Z</time>
      </trkpt>
      <trkpt lat="45.56076" lon="5.99713">
        <ele>625.96</ele>
        <time>2014-03-30T13:25:03Z</time>
      </trkpt>
      <trkpt lat="45.56064" lon="5.99705">
        <ele>627.4</ele>
        <time>2014-03-30T13:25:10Z</time>
      </trkpt>
      <trkpt lat="45.56063" lon="5.99705">
        <ele>628.36</ele>
        <time>2014-03-30T13:25:11Z</time>
      </trkpt>
      <trkpt lat="45.56061" lon="5.99706">
        <ele>628.36</ele>
        <time>2014-03-30T13:25:12Z</time>
      </trkpt>
      <trkpt lat="45.5606" lon="5.99704">
        <ele>628.84</ele>
        <time>2014-03-30T13:25:13Z</time>
      </trkpt>
      <trkpt lat="45.56058" lon="5.99702">
        <ele>629.32</ele>
        <time>2014-03-30T13:25:14Z</time>
      </trkpt>
      <trkpt lat="45.56057" lon="5.99701">
        <ele>629.32</ele>
        <time>2014-03-30T13:25:15Z</time>
      </trkpt>
      <trkpt lat="45.56055" lon="5.99701">
        <ele>629.8</ele>
        <time>2014-03-30T13:25:17Z</time>
      </trkpt>
      <trkpt lat="45.56054" lon="5.99703">
        <ele>629.8</ele>
        <time>2014-03-30T13:25:18Z</time>
      </trkpt>
      <trkpt lat="45.56052" lon="5.99704">
        <ele>629.32</ele>
        <time>2014-03-30T13:25:19Z</time>
      </trkpt>
      <trkpt lat="45.56051" lon="5.99707">
        <ele>628.36</ele>
        <time>2014-03-30T13:25:20Z</time>
      </trkpt>
      <trkpt lat="45.56049" lon="5.99712">
        <ele>628.36</ele>
        <time>2014-03-30T13:25:21Z</time>
      </trkpt>
      <trkpt lat="45.56048" lon="5.99717">
        <ele>627.88</ele>
        <time>2014-03-30T13:25:22Z</time>
      </trkpt>
      <trkpt lat="45.56046" lon="5.99722">
        <ele>627.4</ele>
        <time>2014-03-30T13:25:23Z</time>
      </trkpt>
      <trkpt lat="45.56044" lon="5.99726">
        <ele>627.4</ele>
        <time>2014-03-30T13:25:24Z</time>
      </trkpt>
      <trkpt lat="45.56042" lon="5.99731">
        <ele>627.88</ele>
        <time>2014-03-30T13:25:25Z</time>
      </trkpt>
      <trkpt lat="45.56039" lon="5.99735">
        <ele>627.88</ele>
        <time>2014-03-30T13:25:26Z</time>
      </trkpt>
      <trkpt lat="45.56036" lon="5.99738">
        <ele>627.88</ele>
        <time>2014-03-30T13:25:27Z</time>
      </trkpt>
      <trkpt lat="45.56032" lon="5.9974">
        <ele>627.88</ele>
        <time>2014-03-30T13:25:28Z</time>
      </trkpt>
      <trkpt lat="45.56028" lon="5.99742">
        <ele>627.4</ele>
        <time>2014-03-30T13:25:29Z</time>
      </trkpt>
      <trkpt lat="45.56006" lon="5.99749">
        <ele>624.03</ele>
        <time>2014-03-30T13:25:34Z</time>
      </trkpt>
      <trkpt lat="45.56003" lon="5.99749">
        <ele>624.03</ele>
        <time>2014-03-30T13:25:35Z</time>
      </trkpt>
      <trkpt lat="45.55994" lon="5.99752">
        <ele>623.55</ele>
        <time>2014-03-30T13:25:39Z</time>
      </trkpt>
      <trkpt lat="45.55989" lon="5.99751">
        <ele>622.59</ele>
        <time>2014-03-30T13:25:42Z</time>
      </trkpt>
      <trkpt lat="45.55987" lon="5.9975">
        <ele>623.07</ele>
        <time>2014-03-30T13:25:43Z</time>
      </trkpt>
      <trkpt lat="45.55983" lon="5.99749">
        <ele>622.11</ele>
        <time>2014-03-30T13:25:44Z</time>
      </trkpt>
      <trkpt lat="45.55939" lon="5.99741">
        <ele>619.23</ele>
        <time>2014-03-30T13:25:55Z</time>
      </trkpt>
      <trkpt lat="45.55924" lon="5.99736">
        <ele>618.26</ele>
        <time>2014-03-30T13:25:58Z</time>
      </trkpt>
      <trkpt lat="45.55896" lon="5.99731">
        <ele>615.86</ele>
        <time>2014-03-30T13:26:03Z</time>
      </trkpt>
      <trkpt lat="45.55885" lon="5.9973">
        <ele>615.38</ele>
        <time>2014-03-30T13:26:05Z</time>
      </trkpt>
      <trkpt lat="45.55868" lon="5.99727">
        <ele>615.38</ele>
        <time>2014-03-30T13:26:08Z</time>
      </trkpt>
      <trkpt lat="45.55863" lon="5.99726">
        <ele>614.9</ele>
        <time>2014-03-30T13:26:09Z</time>
      </trkpt>
      <trkpt lat="45.55859" lon="5.99726">
        <ele>615.38</ele>
        <time>2014-03-30T13:26:10Z</time>
      </trkpt>
      <trkpt lat="45.55854" lon="5.99726">
        <ele>615.38</ele>
        <time>2014-03-30T13:26:11Z</time>
      </trkpt>
      <trkpt lat="45.5585" lon="5.99725">
        <ele>615.38</ele>
        <time>2014-03-30T13:26:12Z</time>
      </trkpt>
      <trkpt lat="45.55846" lon="5.99725">
        <ele>616.34</ele>
        <time>2014-03-30T13:26:13Z</time>
      </trkpt>
      <trkpt lat="45.55843" lon="5.99726">
        <ele>616.34</ele>
        <time>2014-03-30T13:26:14Z</time>
      </trkpt>
      <trkpt lat="45.55838" lon="5.99726">
        <ele>616.34</ele>
        <time>2014-03-30T13:26:15Z</time>
      </trkpt>
      <trkpt lat="45.55805" lon="5.99728">
        <ele>617.78</ele>
        <time>2014-03-30T13:26:25Z</time>
      </trkpt>
      <trkpt lat="45.55776" lon="5.99732">
        <ele>619.23</ele>
        <time>2014-03-30T13:26:35Z</time>
      </trkpt>
      <trkpt lat="45.55751" lon="5.9975">
        <ele>620.67</ele>
        <time>2014-03-30T13:26:46Z</time>
      </trkpt>
      <trkpt lat="45.5575" lon="5.99771">
        <ele>622.59</ele>
        <time>2014-03-30T13:26:55Z</time>
      </trkpt>
      <trkpt lat="45.55751" lon="5.99772">
        <ele>623.55</ele>
        <time>2014-03-30T13:26:56Z</time>
      </trkpt>
      <trkpt lat="45.55753" lon="5.99773">
        <ele>623.07</ele>
        <time>2014-03-30T13:26:57Z</time>
      </trkpt>
      <trkpt lat="45.55756" lon="5.99779">
        <ele>623.55</ele>
        <time>2014-03-30T13:27:02Z</time>
      </trkpt>
      <trkpt lat="45.55756" lon="5.99781">
        <ele>624.03</ele>
        <time>2014-03-30T13:27:05Z</time>
      </trkpt>
      <trkpt lat="45.55753" lon="5.99807">
        <ele>626.44</ele>
        <time>2014-03-30T13:27:17Z</time>
      </trkpt>
      <trkpt lat="45.5574" lon="5.99829">
        <ele>627.88</ele>
        <time>2014-03-30T13:27:28Z</time>
      </trkpt>
      <trkpt lat="45.55718" lon="5.99845">
        <ele>630.28</ele>
        <time>2014-03-30T13:27:41Z</time>
      </trkpt>
      <trkpt lat="45.5569" lon="5.99845">
        <ele>632.68</ele>
        <time>2014-03-30T13:27:55Z</time>
      </trkpt>
      <trkpt lat="45.5566" lon="5.99834">
        <ele>635.57</ele>
        <time>2014-03-30T13:28:10Z</time>
      </trkpt>
      <trkpt lat="45.55657" lon="5.99833">
        <ele>635.57</ele>
        <time>2014-03-30T13:28:12Z</time>
      </trkpt>
      <trkpt lat="45.55656" lon="5.99833">
        <ele>636.05</ele>
        <time>2014-03-30T13:28:13Z</time>
      </trkpt>
      <trkpt lat="45.55655" lon="5.99834">
        <ele>636.05</ele>
        <time>2014-03-30T13:28:14Z</time>
      </trkpt>
      <trkpt lat="45.55653" lon="5.99836">
        <ele>636.05</ele>
        <time>2014-03-30T13:28:15Z</time>
      </trkpt>
      <trkpt lat="45.55652" lon="5.99838">
        <ele>636.05</ele>
        <time>2014-03-30T13:28:16Z</time>
      </trkpt>
      <trkpt lat="45.55654" lon="5.99844">
        <ele>637.49</ele>
        <time>2014-03-30T13:28:22Z</time>
      </trkpt>
      <trkpt lat="45.55671" lon="5.99851">
        <ele>640.38</ele>
        <time>2014-03-30T13:28:33Z</time>
      </trkpt>
      <trkpt lat="45.55675" lon="5.99854">
        <ele>641.34</ele>
        <time>2014-03-30T13:28:38Z</time>
      </trkpt>
      <trkpt lat="45.55689" lon="5.99866">
        <ele>644.7</ele>
        <time>2014-03-30T13:28:51Z</time>
      </trkpt>
      <trkpt lat="45.55709" lon="5.99888">
        <ele>647.1</ele>
        <time>2014-03-30T13:29:03Z</time>
      </trkpt>
      <trkpt lat="45.55722" lon="5.99901">
        <ele>649.51</ele>
        <time>2014-03-30T13:29:15Z</time>
      </trkpt>
      <trkpt lat="45.5574" lon="5.99908">
        <ele>652.39</ele>
        <time>2014-03-30T13:29:29Z</time>
      </trkpt>
      <trkpt lat="45.55763" lon="5.99913">
        <ele>654.8</ele>
        <time>2014-03-30T13:29:43Z</time>
      </trkpt>
      <trkpt lat="45.55767" lon="5.99912">
        <ele>656.24</ele>
        <time>2014-03-30T13:29:48Z</time>
      </trkpt>
      <trkpt lat="45.55795" lon="5.99922">
        <ele>659.12</ele>
        <time>2014-03-30T13:30:03Z</time>
      </trkpt>
      <trkpt lat="45.5582" lon="5.99931">
        <ele>661.52</ele>
        <time>2014-03-30T13:30:18Z</time>
      </trkpt>
      <trkpt lat="45.55836" lon="5.99937">
        <ele>663.93</ele>
        <time>2014-03-30T13:30:30Z</time>
      </trkpt>
      <trkpt lat="45.55846" lon="5.9994">
        <ele>664.89</ele>
        <time>2014-03-30T13:30:35Z</time>
      </trkpt>
      <trkpt lat="45.55869" lon="5.99947">
        <ele>667.29</ele>
        <time>2014-03-30T13:30:48Z</time>
      </trkpt>
      <trkpt lat="45.55888" lon="5.99951">
        <ele>670.18</ele>
        <time>2014-03-30T13:31:01Z</time>
      </trkpt>
      <trkpt lat="45.55912" lon="5.9995">
        <ele>672.1</ele>
        <time>2014-03-30T13:31:14Z</time>
      </trkpt>
      <trkpt lat="45.55934" lon="5.9995">
        <ele>674.02</ele>
        <time>2014-03-30T13:31:25Z</time>
      </trkpt>
      <trkpt lat="45.55957" lon="5.99944">
        <ele>676.91</ele>
        <time>2014-03-30T13:31:39Z</time>
      </trkpt>
      <trkpt lat="45.56033" lon="5.99943">
        <ele>679.31</ele>
        <time>2014-03-30T13:31:53Z</time>
      </trkpt>
      <trkpt lat="45.56054" lon="5.99936">
        <ele>682.19</ele>
        <time>2014-03-30T13:32:05Z</time>
      </trkpt>
      <trkpt lat="45.56074" lon="5.99924">
        <ele>684.12</ele>
        <time>2014-03-30T13:32:17Z</time>
      </trkpt>
      <trkpt lat="45.56079" lon="5.99926">
        <ele>685.08</ele>
        <time>2014-03-30T13:32:21Z</time>
      </trkpt>
      <trkpt lat="45.56072" lon="5.99938">
        <ele>686.52</ele>
        <time>2014-03-30T13:32:28Z</time>
      </trkpt>
      <trkpt lat="45.56058" lon="5.99953">
        <ele>687.96</ele>
        <time>2014-03-30T13:32:38Z</time>
      </trkpt>
      <trkpt lat="45.56035" lon="5.99988">
        <ele>691.33</ele>
        <time>2014-03-30T13:32:55Z</time>
      </trkpt>
      <trkpt lat="45.56016" lon="6.00017">
        <ele>694.21</ele>
        <time>2014-03-30T13:33:10Z</time>
      </trkpt>
      <trkpt lat="45.55997" lon="6.00039">
        <ele>697.57</ele>
        <time>2014-03-30T13:33:24Z</time>
      </trkpt>
      <trkpt lat="45.55983" lon="6.00054">
        <ele>699.98</ele>
        <time>2014-03-30T13:33:35Z</time>
      </trkpt>
      <trkpt lat="45.55982" lon="6.00055">
        <ele>700.46</ele>
        <time>2014-03-30T13:33:55Z</time>
      </trkpt>
      <trkpt lat="45.55982" lon="6.00056">
        <ele>700.46</ele>
        <time>2014-03-30T13:34:18Z</time>
      </trkpt>
      <trkpt lat="45.5598" lon="6.00058">
        <ele>700.94</ele>
        <time>2014-03-30T13:34:28Z</time>
      </trkpt>
      <trkpt lat="45.55974" lon="6.00063">
        <ele>701.42</ele>
        <time>2014-03-30T13:34:32Z</time>
      </trkpt>
      <trkpt lat="45.55949" lon="6.00069">
        <ele>705.26</ele>
        <time>2014-03-30T13:34:46Z</time>
      </trkpt>
      <trkpt lat="45.55948" lon="6.00063">
        <ele>706.23</ele>
        <time>2014-03-30T13:34:53Z</time>
      </trkpt>
      <trkpt lat="45.55952" lon="6.00063">
        <ele>706.23</ele>
        <time>2014-03-30T13:34:54Z</time>
      </trkpt>
      <trkpt lat="45.55955" lon="6.00064">
        <ele>706.71</ele>
        <time>2014-03-30T13:34:56Z</time>
      </trkpt>
      <trkpt lat="45.55983" lon="6.00065">
        <ele>710.07</ele>
        <time>2014-03-30T13:35:08Z</time>
      </trkpt>
      <trkpt lat="45.56005" lon="6.00058">
        <ele>711.99</ele>
        <time>2014-03-30T13:35:23Z</time>
      </trkpt>
      <trkpt lat="45.5602" lon="6.00037">
        <ele>715.36</ele>
        <time>2014-03-30T13:35:35Z</time>
      </trkpt>
      <trkpt lat="45.56023" lon="6.00033">
        <ele>715.36</ele>
        <time>2014-03-30T13:35:38Z</time>
      </trkpt>
      <trkpt lat="45.56052" lon="6.00013">
        <ele>718.24</ele>
        <time>2014-03-30T13:35:53Z</time>
      </trkpt>
      <trkpt lat="45.56071" lon="6.0001">
        <ele>720.65</ele>
        <time>2014-03-30T13:36:04Z</time>
      </trkpt>
      <trkpt lat="45.56075" lon="6.00008">
        <ele>721.13</ele>
        <time>2014-03-30T13:36:07Z</time>
      </trkpt>
      <trkpt lat="45.56094" lon="6.00008">
        <ele>724.49</ele>
        <time>2014-03-30T13:36:20Z</time>
      </trkpt>
      <trkpt lat="45.56136" lon="5.99999">
        <ele>726.41</ele>
        <time>2014-03-30T13:36:33Z</time>
      </trkpt>
      <trkpt lat="45.56158" lon="5.99974">
        <ele>729.78</ele>
        <time>2014-03-30T13:36:48Z</time>
      </trkpt>
      <trkpt lat="45.5617" lon="5.99952">
        <ele>732.66</ele>
        <time>2014-03-30T13:37:00Z</time>
      </trkpt>
      <trkpt lat="45.56187" lon="5.99924">
        <ele>735.07</ele>
        <time>2014-03-30T13:37:15Z</time>
      </trkpt>
      <trkpt lat="45.56192" lon="5.99912">
        <ele>735.55</ele>
        <time>2014-03-30T13:37:21Z</time>
      </trkpt>
      <trkpt lat="45.56204" lon="5.9989">
        <ele>738.43</ele>
        <time>2014-03-30T13:37:33Z</time>
      </trkpt>
      <trkpt lat="45.56207" lon="5.99888">
        <ele>739.39</ele>
        <time>2014-03-30T13:37:35Z</time>
      </trkpt>
      <trkpt lat="45.56223" lon="5.99866">
        <ele>742.28</ele>
        <time>2014-03-30T13:37:49Z</time>
      </trkpt>
      <trkpt lat="45.56236" lon="5.99835">
        <ele>744.2</ele>
        <time>2014-03-30T13:38:03Z</time>
      </trkpt>
      <trkpt lat="45.56253" lon="5.99803">
        <ele>748.04</ele>
        <time>2014-03-30T13:38:18Z</time>
      </trkpt>
      <trkpt lat="45.56271" lon="5.9979">
        <ele>749.97</ele>
        <time>2014-03-30T13:38:29Z</time>
      </trkpt>
      <trkpt lat="45.563" lon="5.998">
        <ele>752.37</ele>
        <time>2014-03-30T13:38:44Z</time>
      </trkpt>
      <trkpt lat="45.56329" lon="5.99833">
        <ele>753.33</ele>
        <time>2014-03-30T13:38:59Z</time>
      </trkpt>
      <trkpt lat="45.56364" lon="5.99846">
        <ele>755.73</ele>
        <time>2014-03-30T13:39:13Z</time>
      </trkpt>
      <trkpt lat="45.56376" lon="5.9986">
        <ele>757.66</ele>
        <time>2014-03-30T13:39:22Z</time>
      </trkpt>
      <trkpt lat="45.56368" lon="5.99867">
        <ele>758.14</ele>
        <time>2014-03-30T13:39:26Z</time>
      </trkpt>
      <trkpt lat="45.56332" lon="5.99864">
        <ele>761.02</ele>
        <time>2014-03-30T13:39:40Z</time>
      </trkpt>
      <trkpt lat="45.56298" lon="5.99867">
        <ele>763.9</ele>
        <time>2014-03-30T13:39:55Z</time>
      </trkpt>
      <trkpt lat="45.56271" lon="5.99866">
        <ele>767.27</ele>
        <time>2014-03-30T13:40:08Z</time>
      </trkpt>
      <trkpt lat="45.56248" lon="5.9989">
        <ele>769.19</ele>
        <time>2014-03-30T13:40:21Z</time>
      </trkpt>
      <trkpt lat="45.56228" lon="5.99932">
        <ele>768.71</ele>
        <time>2014-03-30T13:40:36Z</time>
      </trkpt>
      <trkpt lat="45.56224" lon="5.99949">
        <ele>768.71</ele>
        <time>2014-03-30T13:40:48Z</time>
      </trkpt>
      <trkpt lat="45.56224" lon="5.99949">
        <ele>768.71</ele>
        <time>2014-03-30T13:41:13Z</time>
      </trkpt>
      <trkpt lat="45.56224" lon="5.99949">
        <ele>768.71</ele>
        <time>2014-03-30T13:41:54Z</time>
      </trkpt>
      <trkpt lat="45.56224" lon="5.99949">
        <ele>768.71</ele>
        <time>2014-03-30T13:42:40Z</time>
      </trkpt>
      <trkpt lat="45.56224" lon="5.9995">
        <ele>768.71</ele>
        <time>2014-03-30T13:43:21Z</time>
      </trkpt>
      <trkpt lat="45.56224" lon="5.99949">
        <ele>769.67</ele>
        <time>2014-03-30T13:43:56Z</time>
      </trkpt>
      <trkpt lat="45.56224" lon="5.99949">
        <ele>769.67</ele>
        <time>2014-03-30T13:44:17Z</time>
      </trkpt>
      <trkpt lat="45.56224" lon="5.99949">
        <ele>769.19</ele>
        <time>2014-03-30T13:44:56Z</time>
      </trkpt>
      <trkpt lat="45.56224" lon="5.99949">
        <ele>770.15</ele>
        <time>2014-03-30T13:45:40Z</time>
      </trkpt>
      <trkpt lat="45.56224" lon="5.99949">
        <ele>769.67</ele>
        <time>2014-03-30T13:46:28Z</time>
      </trkpt>
      <trkpt lat="45.56224" lon="5.9995">
        <ele>769.67</ele>
        <time>2014-03-30T13:46:52Z</time>
      </trkpt>
      <trkpt lat="45.56238" lon="5.99911">
        <ele>770.63</ele>
        <time>2014-03-30T13:47:03Z</time>
      </trkpt>
      <trkpt lat="45.56248" lon="5.99896">
        <ele>770.63</ele>
        <time>2014-03-30T13:47:08Z</time>
      </trkpt>
      <trkpt lat="45.56262" lon="5.99873">
        <ele>770.15</ele>
        <time>2014-03-30T13:47:19Z</time>
      </trkpt>
      <trkpt lat="45.56289" lon="5.99867">
        <ele>767.27</ele>
        <time>2014-03-30T13:47:29Z</time>
      </trkpt>
      <trkpt lat="45.56315" lon="5.99874">
        <ele>766.79</ele>
        <time>2014-03-30T13:47:40Z</time>
      </trkpt>
      <trkpt lat="45.56321" lon="5.99875">
        <ele>767.27</ele>
        <time>2014-03-30T13:47:54Z</time>
      </trkpt>
      <trkpt lat="45.56362" lon="5.99885">
        <ele>766.79</ele>
        <time>2014-03-30T13:48:07Z</time>
      </trkpt>
      <trkpt lat="45.56366" lon="5.99885">
        <ele>766.31</ele>
        <time>2014-03-30T13:48:08Z</time>
      </trkpt>
      <trkpt lat="45.5637" lon="5.99886">
        <ele>766.31</ele>
        <time>2014-03-30T13:48:09Z</time>
      </trkpt>
      <trkpt lat="45.56409" lon="5.99904">
        <ele>766.79</ele>
        <time>2014-03-30T13:48:19Z</time>
      </trkpt>
      <trkpt lat="45.56442" lon="5.99937">
        <ele>768.23</ele>
        <time>2014-03-30T13:48:31Z</time>
      </trkpt>
      <trkpt lat="45.56461" lon="5.99975">
        <ele>771.6</ele>
        <time>2014-03-30T13:48:46Z</time>
      </trkpt>
      <trkpt lat="45.56472" lon="6.00008">
        <ele>774</ele>
        <time>2014-03-30T13:48:59Z</time>
      </trkpt>
      <trkpt lat="45.56477" lon="6.00044">
        <ele>776.4</ele>
        <time>2014-03-30T13:49:14Z</time>
      </trkpt>
      <trkpt lat="45.56478" lon="6.00059">
        <ele>777.36</ele>
        <time>2014-03-30T13:49:21Z</time>
      </trkpt>
      <trkpt lat="45.56481" lon="6.00069">
        <ele>778.81</ele>
        <time>2014-03-30T13:49:26Z</time>
      </trkpt>
      <trkpt lat="45.56492" lon="6.00104">
        <ele>780.73</ele>
        <time>2014-03-30T13:49:42Z</time>
      </trkpt>
      <trkpt lat="45.56499" lon="6.00127">
        <ele>783.13</ele>
        <time>2014-03-30T13:49:54Z</time>
      </trkpt>
      <trkpt lat="45.56509" lon="6.0015">
        <ele>786.02</ele>
        <time>2014-03-30T13:50:09Z</time>
      </trkpt>
      <trkpt lat="45.56517" lon="6.00168">
        <ele>788.9</ele>
        <time>2014-03-30T13:50:22Z</time>
      </trkpt>
      <trkpt lat="45.56525" lon="6.00196">
        <ele>791.78</ele>
        <time>2014-03-30T13:50:37Z</time>
      </trkpt>
      <trkpt lat="45.5653" lon="6.0022">
        <ele>793.22</ele>
        <time>2014-03-30T13:50:48Z</time>
      </trkpt>
      <trkpt lat="45.56551" lon="6.00246">
        <ele>794.19</ele>
        <time>2014-03-30T13:51:02Z</time>
      </trkpt>
      <trkpt lat="45.56577" lon="6.00256">
        <ele>795.15</ele>
        <time>2014-03-30T13:51:14Z</time>
      </trkpt>
      <trkpt lat="45.56598" lon="6.00276">
        <ele>794.67</ele>
        <time>2014-03-30T13:51:24Z</time>
      </trkpt>
      <trkpt lat="45.56623" lon="6.00275">
        <ele>792.74</ele>
        <time>2014-03-30T13:51:30Z</time>
      </trkpt>
      <trkpt lat="45.56629" lon="6.00273">
        <ele>792.26</ele>
        <time>2014-03-30T13:51:31Z</time>
      </trkpt>
      <trkpt lat="45.56635" lon="6.0027">
        <ele>792.26</ele>
        <time>2014-03-30T13:51:32Z</time>
      </trkpt>
      <trkpt lat="45.56645" lon="6.00264">
        <ele>790.82</ele>
        <time>2014-03-30T13:51:34Z</time>
      </trkpt>
      <trkpt lat="45.56651" lon="6.00262">
        <ele>790.82</ele>
        <time>2014-03-30T13:51:35Z</time>
      </trkpt>
      <trkpt lat="45.56666" lon="6.00253">
        <ele>790.34</ele>
        <time>2014-03-30T13:51:38Z</time>
      </trkpt>
      <trkpt lat="45.56671" lon="6.00251">
        <ele>789.86</ele>
        <time>2014-03-30T13:51:39Z</time>
      </trkpt>
      <trkpt lat="45.567" lon="6.00248">
        <ele>789.38</ele>
        <time>2014-03-30T13:51:47Z</time>
      </trkpt>
      <trkpt lat="45.56712" lon="6.00252">
        <ele>787.46</ele>
        <time>2014-03-30T13:51:51Z</time>
      </trkpt>
      <trkpt lat="45.56715" lon="6.00256">
        <ele>786.98</ele>
        <time>2014-03-30T13:51:52Z</time>
      </trkpt>
      <trkpt lat="45.56718" lon="6.00259">
        <ele>786.02</ele>
        <time>2014-03-30T13:51:53Z</time>
      </trkpt>
      <trkpt lat="45.56721" lon="6.0026">
        <ele>785.53</ele>
        <time>2014-03-30T13:51:54Z</time>
      </trkpt>
      <trkpt lat="45.56725" lon="6.00261">
        <ele>784.57</ele>
        <time>2014-03-30T13:51:55Z</time>
      </trkpt>
      <trkpt lat="45.56728" lon="6.00263">
        <ele>784.09</ele>
        <time>2014-03-30T13:51:56Z</time>
      </trkpt>
      <trkpt lat="45.56732" lon="6.00266">
        <ele>783.13</ele>
        <time>2014-03-30T13:51:57Z</time>
      </trkpt>
      <trkpt lat="45.56735" lon="6.00269">
        <ele>782.65</ele>
        <time>2014-03-30T13:51:58Z</time>
      </trkpt>
      <trkpt lat="45.56737" lon="6.00271">
        <ele>781.69</ele>
        <time>2014-03-30T13:51:59Z</time>
      </trkpt>
      <trkpt lat="45.56745" lon="6.00282">
        <ele>779.77</ele>
        <time>2014-03-30T13:52:03Z</time>
      </trkpt>
      <trkpt lat="45.56746" lon="6.00286">
        <ele>778.32</ele>
        <time>2014-03-30T13:52:04Z</time>
      </trkpt>
      <trkpt lat="45.56743" lon="6.00308">
        <ele>775.44</ele>
        <time>2014-03-30T13:52:09Z</time>
      </trkpt>
      <trkpt lat="45.5674" lon="6.00321">
        <ele>774</ele>
        <time>2014-03-30T13:52:12Z</time>
      </trkpt>
      <trkpt lat="45.56739" lon="6.00325">
        <ele>773.04</ele>
        <time>2014-03-30T13:52:13Z</time>
      </trkpt>
      <trkpt lat="45.56737" lon="6.00348">
        <ele>769.67</ele>
        <time>2014-03-30T13:52:18Z</time>
      </trkpt>
      <trkpt lat="45.56737" lon="6.00354">
        <ele>768.71</ele>
        <time>2014-03-30T13:52:20Z</time>
      </trkpt>
      <trkpt lat="45.56738" lon="6.00356">
        <ele>768.71</ele>
        <time>2014-03-30T13:52:21Z</time>
      </trkpt>
      <trkpt lat="45.56739" lon="6.00358">
        <ele>767.75</ele>
        <time>2014-03-30T13:52:22Z</time>
      </trkpt>
      <trkpt lat="45.5674" lon="6.00358">
        <ele>767.27</ele>
        <time>2014-03-30T13:52:23Z</time>
      </trkpt>
      <trkpt lat="45.56745" lon="6.00354">
        <ele>763.9</ele>
        <time>2014-03-30T13:52:27Z</time>
      </trkpt>
      <trkpt lat="45.56746" lon="6.00353">
        <ele>763.9</ele>
        <time>2014-03-30T13:52:28Z</time>
      </trkpt>
      <trkpt lat="45.56751" lon="6.00351">
        <ele>762.46</ele>
        <time>2014-03-30T13:52:30Z</time>
      </trkpt>
      <trkpt lat="45.56755" lon="6.00351">
        <ele>761.5</ele>
        <time>2014-03-30T13:52:32Z</time>
      </trkpt>
      <trkpt lat="45.5676" lon="6.00356">
        <ele>760.54</ele>
        <time>2014-03-30T13:52:34Z</time>
      </trkpt>
      <trkpt lat="45.56767" lon="6.00363">
        <ele>758.62</ele>
        <time>2014-03-30T13:52:37Z</time>
      </trkpt>
      <trkpt lat="45.56777" lon="6.00373">
        <ele>755.25</ele>
        <time>2014-03-30T13:52:41Z</time>
      </trkpt>
      <trkpt lat="45.56793" lon="6.00399">
        <ele>752.37</ele>
        <time>2014-03-30T13:52:46Z</time>
      </trkpt>
      <trkpt lat="45.56796" lon="6.00405">
        <ele>752.37</ele>
        <time>2014-03-30T13:52:47Z</time>
      </trkpt>
      <trkpt lat="45.56797" lon="6.00412">
        <ele>751.41</ele>
        <time>2014-03-30T13:52:48Z</time>
      </trkpt>
      <trkpt lat="45.56799" lon="6.00427">
        <ele>750.93</ele>
        <time>2014-03-30T13:52:50Z</time>
      </trkpt>
      <trkpt lat="45.56799" lon="6.00434">
        <ele>749.97</ele>
        <time>2014-03-30T13:52:51Z</time>
      </trkpt>
      <trkpt lat="45.56798" lon="6.00441">
        <ele>749.49</ele>
        <time>2014-03-30T13:52:52Z</time>
      </trkpt>
      <trkpt lat="45.56796" lon="6.00468">
        <ele>745.64</ele>
        <time>2014-03-30T13:52:58Z</time>
      </trkpt>
      <trkpt lat="45.56796" lon="6.00474">
        <ele>745.16</ele>
        <time>2014-03-30T13:52:59Z</time>
      </trkpt>
      <trkpt lat="45.56798" lon="6.00479">
        <ele>743.72</ele>
        <time>2014-03-30T13:53:00Z</time>
      </trkpt>
      <trkpt lat="45.56801" lon="6.00483">
        <ele>743.24</ele>
        <time>2014-03-30T13:53:01Z</time>
      </trkpt>
      <trkpt lat="45.56805" lon="6.00486">
        <ele>742.28</ele>
        <time>2014-03-30T13:53:02Z</time>
      </trkpt>
      <trkpt lat="45.56809" lon="6.0049">
        <ele>742.28</ele>
        <time>2014-03-30T13:53:03Z</time>
      </trkpt>
      <trkpt lat="45.56814" lon="6.00494">
        <ele>740.83</ele>
        <time>2014-03-30T13:53:04Z</time>
      </trkpt>
      <trkpt lat="45.56819" lon="6.00498">
        <ele>740.35</ele>
        <time>2014-03-30T13:53:05Z</time>
      </trkpt>
      <trkpt lat="45.56869" lon="6.00541">
        <ele>737.47</ele>
        <time>2014-03-30T13:53:16Z</time>
      </trkpt>
      <trkpt lat="45.56873" lon="6.00544">
        <ele>737.47</ele>
        <time>2014-03-30T13:53:17Z</time>
      </trkpt>
      <trkpt lat="45.56876" lon="6.00547">
        <ele>737.47</ele>
        <time>2014-03-30T13:53:18Z</time>
      </trkpt>
      <trkpt lat="45.56886" lon="6.0056">
        <ele>736.51</ele>
        <time>2014-03-30T13:53:22Z</time>
      </trkpt>
      <trkpt lat="45.56885" lon="6.00564">
        <ele>736.51</ele>
        <time>2014-03-30T13:53:23Z</time>
      </trkpt>
      <trkpt lat="45.56884" lon="6.00566">
        <ele>736.03</ele>
        <time>2014-03-30T13:53:24Z</time>
      </trkpt>
      <trkpt lat="45.56884" lon="6.0057">
        <ele>735.07</ele>
        <time>2014-03-30T13:53:25Z</time>
      </trkpt>
      <trkpt lat="45.56882" lon="6.00573">
        <ele>734.58</ele>
        <time>2014-03-30T13:53:26Z</time>
      </trkpt>
      <trkpt lat="45.5688" lon="6.00575">
        <ele>734.1</ele>
        <time>2014-03-30T13:53:27Z</time>
      </trkpt>
      <trkpt lat="45.56878" lon="6.00577">
        <ele>733.62</ele>
        <time>2014-03-30T13:53:28Z</time>
      </trkpt>
      <trkpt lat="45.56877" lon="6.00578">
        <ele>733.62</ele>
        <time>2014-03-30T13:53:29Z</time>
      </trkpt>
      <trkpt lat="45.56876" lon="6.00579">
        <ele>733.14</ele>
        <time>2014-03-30T13:53:43Z</time>
      </trkpt>
      <trkpt lat="45.56876" lon="6.00579">
        <ele>733.62</ele>
        <time>2014-03-30T13:53:46Z</time>
      </trkpt>
      <trkpt lat="45.56875" lon="6.00579">
        <ele>733.14</ele>
        <time>2014-03-30T13:53:47Z</time>
      </trkpt>
      <trkpt lat="45.56873" lon="6.0058">
        <ele>733.14</ele>
        <time>2014-03-30T13:53:48Z</time>
      </trkpt>
      <trkpt lat="45.56854" lon="6.00596">
        <ele>731.22</ele>
        <time>2014-03-30T13:53:54Z</time>
      </trkpt>
      <trkpt lat="45.56847" lon="6.00599">
        <ele>729.78</ele>
        <time>2014-03-30T13:53:56Z</time>
      </trkpt>
      <trkpt lat="45.56844" lon="6.006">
        <ele>729.3</ele>
        <time>2014-03-30T13:53:57Z</time>
      </trkpt>
      <trkpt lat="45.56816" lon="6.00602">
        <ele>726.41</ele>
        <time>2014-03-30T13:54:02Z</time>
      </trkpt>
      <trkpt lat="45.56796" lon="6.00603">
        <ele>725.45</ele>
        <time>2014-03-30T13:54:05Z</time>
      </trkpt>
      <trkpt lat="45.56762" lon="6.00613">
        <ele>724.49</ele>
        <time>2014-03-30T13:54:10Z</time>
      </trkpt>
      <trkpt lat="45.56756" lon="6.00616">
        <ele>724.01</ele>
        <time>2014-03-30T13:54:11Z</time>
      </trkpt>
      <trkpt lat="45.56751" lon="6.00621">
        <ele>724.49</ele>
        <time>2014-03-30T13:54:12Z</time>
      </trkpt>
      <trkpt lat="45.56745" lon="6.00625">
        <ele>724.49</ele>
        <time>2014-03-30T13:54:13Z</time>
      </trkpt>
      <trkpt lat="45.5674" lon="6.0063">
        <ele>724.49</ele>
        <time>2014-03-30T13:54:14Z</time>
      </trkpt>
      <trkpt lat="45.56686" lon="6.00689">
        <ele>723.53</ele>
        <time>2014-03-30T13:54:27Z</time>
      </trkpt>
      <trkpt lat="45.5666" lon="6.00721">
        <ele>722.09</ele>
        <time>2014-03-30T13:54:33Z</time>
      </trkpt>
      <trkpt lat="45.56657" lon="6.00726">
        <ele>721.61</ele>
        <time>2014-03-30T13:54:34Z</time>
      </trkpt>
      <trkpt lat="45.56655" lon="6.00731">
        <ele>722.09</ele>
        <time>2014-03-30T13:54:35Z</time>
      </trkpt>
      <trkpt lat="45.56654" lon="6.00736">
        <ele>721.61</ele>
        <time>2014-03-30T13:54:36Z</time>
      </trkpt>
      <trkpt lat="45.56654" lon="6.00741">
        <ele>721.61</ele>
        <time>2014-03-30T13:54:37Z</time>
      </trkpt>
      <trkpt lat="45.56655" lon="6.00747">
        <ele>720.65</ele>
        <time>2014-03-30T13:54:38Z</time>
      </trkpt>
      <trkpt lat="45.56657" lon="6.00753">
        <ele>719.68</ele>
        <time>2014-03-30T13:54:39Z</time>
      </trkpt>
      <trkpt lat="45.56661" lon="6.00774">
        <ele>718.72</ele>
        <time>2014-03-30T13:54:42Z</time>
      </trkpt>
      <trkpt lat="45.56664" lon="6.00789">
        <ele>716.8</ele>
        <time>2014-03-30T13:54:44Z</time>
      </trkpt>
      <trkpt lat="45.56664" lon="6.00796">
        <ele>716.32</ele>
        <time>2014-03-30T13:54:45Z</time>
      </trkpt>
      <trkpt lat="45.56664" lon="6.00802">
        <ele>715.36</ele>
        <time>2014-03-30T13:54:46Z</time>
      </trkpt>
      <trkpt lat="45.56663" lon="6.00806">
        <ele>715.36</ele>
        <time>2014-03-30T13:54:47Z</time>
      </trkpt>
      <trkpt lat="45.56662" lon="6.00809">
        <ele>714.4</ele>
        <time>2014-03-30T13:54:48Z</time>
      </trkpt>
      <trkpt lat="45.56662" lon="6.00812">
        <ele>714.88</ele>
        <time>2014-03-30T13:54:49Z</time>
      </trkpt>
      <trkpt lat="45.56662" lon="6.00818">
        <ele>714.4</ele>
        <time>2014-03-30T13:54:55Z</time>
      </trkpt>
      <trkpt lat="45.56663" lon="6.0082">
        <ele>713.44</ele>
        <time>2014-03-30T13:54:56Z</time>
      </trkpt>
      <trkpt lat="45.56665" lon="6.00822">
        <ele>713.44</ele>
        <time>2014-03-30T13:54:57Z</time>
      </trkpt>
      <trkpt lat="45.56698" lon="6.0083">
        <ele>712.95</ele>
        <time>2014-03-30T13:55:09Z</time>
      </trkpt>
      <trkpt lat="45.56727" lon="6.00833">
        <ele>712.95</ele>
        <time>2014-03-30T13:55:19Z</time>
      </trkpt>
      <trkpt lat="45.56728" lon="6.00831">
        <ele>712.95</ele>
        <time>2014-03-30T13:55:20Z</time>
      </trkpt>
      <trkpt lat="45.56727" lon="6.00829">
        <ele>712.95</ele>
        <time>2014-03-30T13:55:31Z</time>
      </trkpt>
      <trkpt lat="45.56727" lon="6.00829">
        <ele>713.44</ele>
        <time>2014-03-30T13:55:45Z</time>
      </trkpt>
      <trkpt lat="45.56728" lon="6.00828">
        <ele>713.92</ele>
        <time>2014-03-30T13:56:30Z</time>
      </trkpt>
      <trkpt lat="45.56728" lon="6.00828">
        <ele>712.95</ele>
        <time>2014-03-30T13:56:58Z</time>
      </trkpt>
      <trkpt lat="45.56727" lon="6.00829">
        <ele>713.92</ele>
        <time>2014-03-30T13:56:59Z</time>
      </trkpt>
      <trkpt lat="45.56724" lon="6.00828">
        <ele>713.92</ele>
        <time>2014-03-30T13:57:02Z</time>
      </trkpt>
      <trkpt lat="45.56712" lon="6.00827">
        <ele>712.95</ele>
        <time>2014-03-30T13:57:10Z</time>
      </trkpt>
      <trkpt lat="45.56669" lon="6.00824">
        <ele>712.95</ele>
        <time>2014-03-30T13:57:26Z</time>
      </trkpt>
      <trkpt lat="45.56644" lon="6.00842">
        <ele>712.47</ele>
        <time>2014-03-30T13:57:34Z</time>
      </trkpt>
      <trkpt lat="45.56626" lon="6.00883">
        <ele>711.51</ele>
        <time>2014-03-30T13:57:42Z</time>
      </trkpt>
      <trkpt lat="45.56577" lon="6.00972">
        <ele>709.11</ele>
        <time>2014-03-30T13:57:57Z</time>
      </trkpt>
      <trkpt lat="45.56575" lon="6.00979">
        <ele>708.63</ele>
        <time>2014-03-30T13:57:58Z</time>
      </trkpt>
      <trkpt lat="45.56564" lon="6.01018">
        <ele>708.63</ele>
        <time>2014-03-30T13:58:03Z</time>
      </trkpt>
      <trkpt lat="45.56561" lon="6.01025">
        <ele>708.15</ele>
        <time>2014-03-30T13:58:04Z</time>
      </trkpt>
      <trkpt lat="45.56534" lon="6.01074">
        <ele>708.63</ele>
        <time>2014-03-30T13:58:15Z</time>
      </trkpt>
      <trkpt lat="45.56516" lon="6.01111">
        <ele>709.59</ele>
        <time>2014-03-30T13:58:26Z</time>
      </trkpt>
      <trkpt lat="45.56507" lon="6.01143">
        <ele>710.07</ele>
        <time>2014-03-30T13:58:37Z</time>
      </trkpt>
      <trkpt lat="45.56504" lon="6.01144">
        <ele>710.55</ele>
        <time>2014-03-30T13:58:38Z</time>
      </trkpt>
      <trkpt lat="45.56502" lon="6.01144">
        <ele>710.55</ele>
        <time>2014-03-30T13:58:39Z</time>
      </trkpt>
      <trkpt lat="45.565" lon="6.01144">
        <ele>711.03</ele>
        <time>2014-03-30T13:58:40Z</time>
      </trkpt>
      <trkpt lat="45.56498" lon="6.01144">
        <ele>711.03</ele>
        <time>2014-03-30T13:58:41Z</time>
      </trkpt>
      <trkpt lat="45.56496" lon="6.01144">
        <ele>711.03</ele>
        <time>2014-03-30T13:58:42Z</time>
      </trkpt>
      <trkpt lat="45.56469" lon="6.01135">
        <ele>713.92</ele>
        <time>2014-03-30T13:58:56Z</time>
      </trkpt>
      <trkpt lat="45.56465" lon="6.0113">
        <ele>714.4</ele>
        <time>2014-03-30T13:58:59Z</time>
      </trkpt>
      <trkpt lat="45.5645" lon="6.01105">
        <ele>717.76</ele>
        <time>2014-03-30T13:59:13Z</time>
      </trkpt>
      <trkpt lat="45.56434" lon="6.01079">
        <ele>720.16</ele>
        <time>2014-03-30T13:59:28Z</time>
      </trkpt>
      <trkpt lat="45.56416" lon="6.01056">
        <ele>723.05</ele>
        <time>2014-03-30T13:59:44Z</time>
      </trkpt>
      <trkpt lat="45.56415" lon="6.01053">
        <ele>723.53</ele>
        <time>2014-03-30T13:59:46Z</time>
      </trkpt>
      <trkpt lat="45.56414" lon="6.01052">
        <ele>723.53</ele>
        <time>2014-03-30T13:59:47Z</time>
      </trkpt>
      <trkpt lat="45.56411" lon="6.01047">
        <ele>724.01</ele>
        <time>2014-03-30T13:59:51Z</time>
      </trkpt>
      <trkpt lat="45.56409" lon="6.0104">
        <ele>724.49</ele>
        <time>2014-03-30T14:00:04Z</time>
      </trkpt>
      <trkpt lat="45.564" lon="6.01029">
        <ele>725.93</ele>
        <time>2014-03-30T14:00:18Z</time>
      </trkpt>
      <trkpt lat="45.56387" lon="6.01033">
        <ele>728.82</ele>
        <time>2014-03-30T14:00:30Z</time>
      </trkpt>
      <trkpt lat="45.56373" lon="6.01041">
        <ele>732.18</ele>
        <time>2014-03-30T14:00:42Z</time>
      </trkpt>
      <trkpt lat="45.5636" lon="6.01045">
        <ele>735.55</ele>
        <time>2014-03-30T14:00:53Z</time>
      </trkpt>
      <trkpt lat="45.56359" lon="6.01046">
        <ele>735.07</ele>
        <time>2014-03-30T14:00:54Z</time>
      </trkpt>
      <trkpt lat="45.56343" lon="6.01055">
        <ele>738.43</ele>
        <time>2014-03-30T14:01:06Z</time>
      </trkpt>
      <trkpt lat="45.56321" lon="6.01058">
        <ele>741.31</ele>
        <time>2014-03-30T14:01:20Z</time>
      </trkpt>
      <trkpt lat="45.56298" lon="6.01062">
        <ele>743.72</ele>
        <time>2014-03-30T14:01:35Z</time>
      </trkpt>
      <trkpt lat="45.56295" lon="6.01063">
        <ele>744.2</ele>
        <time>2014-03-30T14:01:38Z</time>
      </trkpt>
      <trkpt lat="45.56286" lon="6.01067">
        <ele>743.24</ele>
        <time>2014-03-30T14:01:52Z</time>
      </trkpt>
      <trkpt lat="45.56284" lon="6.01069">
        <ele>743.24</ele>
        <time>2014-03-30T14:02:15Z</time>
      </trkpt>
      <trkpt lat="45.56282" lon="6.0107">
        <ele>743.24</ele>
        <time>2014-03-30T14:02:16Z</time>
      </trkpt>
      <trkpt lat="45.56279" lon="6.01071">
        <ele>743.24</ele>
        <time>2014-03-30T14:02:17Z</time>
      </trkpt>
      <trkpt lat="45.56276" lon="6.01072">
        <ele>743.24</ele>
        <time>2014-03-30T14:02:18Z</time>
      </trkpt>
      <trkpt lat="45.56274" lon="6.01072">
        <ele>743.24</ele>
        <time>2014-03-30T14:02:19Z</time>
      </trkpt>
      <trkpt lat="45.56271" lon="6.01071">
        <ele>742.28</ele>
        <time>2014-03-30T14:02:20Z</time>
      </trkpt>
      <trkpt lat="45.56268" lon="6.0107">
        <ele>742.76</ele>
        <time>2014-03-30T14:02:21Z</time>
      </trkpt>
      <trkpt lat="45.56247" lon="6.01048">
        <ele>745.64</ele>
        <time>2014-03-30T14:02:32Z</time>
      </trkpt>
      <trkpt lat="45.56234" lon="6.01016">
        <ele>748.52</ele>
        <time>2014-03-30T14:02:45Z</time>
      </trkpt>
      <trkpt lat="45.56228" lon="6.00978">
        <ele>751.89</ele>
        <time>2014-03-30T14:02:58Z</time>
      </trkpt>
      <trkpt lat="45.56204" lon="6.00953">
        <ele>754.77</ele>
        <time>2014-03-30T14:03:13Z</time>
      </trkpt>
      <trkpt lat="45.56174" lon="6.00932">
        <ele>758.14</ele>
        <time>2014-03-30T14:03:29Z</time>
      </trkpt>
      <trkpt lat="45.56144" lon="6.00921">
        <ele>761.5</ele>
        <time>2014-03-30T14:03:45Z</time>
      </trkpt>
      <trkpt lat="45.56112" lon="6.00933">
        <ele>764.39</ele>
        <time>2014-03-30T14:04:01Z</time>
      </trkpt>
      <trkpt lat="45.56086" lon="6.00945">
        <ele>767.27</ele>
        <time>2014-03-30T14:04:15Z</time>
      </trkpt>
      <trkpt lat="45.56059" lon="6.0096">
        <ele>770.63</ele>
        <time>2014-03-30T14:04:29Z</time>
      </trkpt>
      <trkpt lat="45.56041" lon="6.00987">
        <ele>773.04</ele>
        <time>2014-03-30T14:04:42Z</time>
      </trkpt>
      <trkpt lat="45.56026" lon="6.01023">
        <ele>775.92</ele>
        <time>2014-03-30T14:04:57Z</time>
      </trkpt>
      <trkpt lat="45.56005" lon="6.01057">
        <ele>779.29</ele>
        <time>2014-03-30T14:05:12Z</time>
      </trkpt>
      <trkpt lat="45.55984" lon="6.01078">
        <ele>782.65</ele>
        <time>2014-03-30T14:05:24Z</time>
      </trkpt>
      <trkpt lat="45.55965" lon="6.0111">
        <ele>785.53</ele>
        <time>2014-03-30T14:05:38Z</time>
      </trkpt>
      <trkpt lat="45.55947" lon="6.01146">
        <ele>788.42</ele>
        <time>2014-03-30T14:05:52Z</time>
      </trkpt>
      <trkpt lat="45.55944" lon="6.0115">
        <ele>789.38</ele>
        <time>2014-03-30T14:05:54Z</time>
      </trkpt>
      <trkpt lat="45.5592" lon="6.01183">
        <ele>792.26</ele>
        <time>2014-03-30T14:06:09Z</time>
      </trkpt>
      <trkpt lat="45.55901" lon="6.01211">
        <ele>794.67</ele>
        <time>2014-03-30T14:06:22Z</time>
      </trkpt>
      <trkpt lat="45.55874" lon="6.01218">
        <ele>797.55</ele>
        <time>2014-03-30T14:06:36Z</time>
      </trkpt>
      <trkpt lat="45.55845" lon="6.01213">
        <ele>800.44</ele>
        <time>2014-03-30T14:06:51Z</time>
      </trkpt>
      <trkpt lat="45.55818" lon="6.01183">
        <ele>803.32</ele>
        <time>2014-03-30T14:07:07Z</time>
      </trkpt>
      <trkpt lat="45.55796" lon="6.01158">
        <ele>805.24</ele>
        <time>2014-03-30T14:07:21Z</time>
      </trkpt>
      <trkpt lat="45.55783" lon="6.01141">
        <ele>807.16</ele>
        <time>2014-03-30T14:07:34Z</time>
      </trkpt>
      <trkpt lat="45.55783" lon="6.01141">
        <ele>806.2</ele>
        <time>2014-03-30T14:08:08Z</time>
      </trkpt>
      <trkpt lat="45.55783" lon="6.0114">
        <ele>806.68</ele>
        <time>2014-03-30T14:08:43Z</time>
      </trkpt>
      <trkpt lat="45.55783" lon="6.01141">
        <ele>806.2</ele>
        <time>2014-03-30T14:09:17Z</time>
      </trkpt>
      <trkpt lat="45.55783" lon="6.01144">
        <ele>806.68</ele>
        <time>2014-03-30T14:09:39Z</time>
      </trkpt>
      <trkpt lat="45.55772" lon="6.01159">
        <ele>809.09</ele>
        <time>2014-03-30T14:09:52Z</time>
      </trkpt>
      <trkpt lat="45.55771" lon="6.01159">
        <ele>809.57</ele>
        <time>2014-03-30T14:09:53Z</time>
      </trkpt>
      <trkpt lat="45.55768" lon="6.01158">
        <ele>809.57</ele>
        <time>2014-03-30T14:09:56Z</time>
      </trkpt>
      <trkpt lat="45.55763" lon="6.01145">
        <ele>813.41</ele>
        <time>2014-03-30T14:10:09Z</time>
      </trkpt>
      <trkpt lat="45.55757" lon="6.01135">
        <ele>815.34</ele>
        <time>2014-03-30T14:10:13Z</time>
      </trkpt>
      <trkpt lat="45.55746" lon="6.01126">
        <ele>818.7</ele>
        <time>2014-03-30T14:10:29Z</time>
      </trkpt>
      <trkpt lat="45.55745" lon="6.01125">
        <ele>818.7</ele>
        <time>2014-03-30T14:10:31Z</time>
      </trkpt>
      <trkpt lat="45.5573" lon="6.01107">
        <ele>821.1</ele>
        <time>2014-03-30T14:10:45Z</time>
      </trkpt>
      <trkpt lat="45.55724" lon="6.01097">
        <ele>823.03</ele>
        <time>2014-03-30T14:10:54Z</time>
      </trkpt>
      <trkpt lat="45.55711" lon="6.01085">
        <ele>826.39</ele>
        <time>2014-03-30T14:11:07Z</time>
      </trkpt>
      <trkpt lat="45.55708" lon="6.01078">
        <ele>826.87</ele>
        <time>2014-03-30T14:11:13Z</time>
      </trkpt>
      <trkpt lat="45.55704" lon="6.01063">
        <ele>828.79</ele>
        <time>2014-03-30T14:11:24Z</time>
      </trkpt>
      <trkpt lat="45.55703" lon="6.01056">
        <ele>829.76</ele>
        <time>2014-03-30T14:11:28Z</time>
      </trkpt>
      <trkpt lat="45.55699" lon="6.01022">
        <ele>830.24</ele>
        <time>2014-03-30T14:11:43Z</time>
      </trkpt>
      <trkpt lat="45.55698" lon="6.0099">
        <ele>832.64</ele>
        <time>2014-03-30T14:11:58Z</time>
      </trkpt>
      <trkpt lat="45.55697" lon="6.00981">
        <ele>834.08</ele>
        <time>2014-03-30T14:12:02Z</time>
      </trkpt>
      <trkpt lat="45.55685" lon="6.00938">
        <ele>835.04</ele>
        <time>2014-03-30T14:12:17Z</time>
      </trkpt>
      <trkpt lat="45.55651" lon="6.00915">
        <ele>833.6</ele>
        <time>2014-03-30T14:12:30Z</time>
      </trkpt>
      <trkpt lat="45.55626" lon="6.00886">
        <ele>833.6</ele>
        <time>2014-03-30T14:12:39Z</time>
      </trkpt>
      <trkpt lat="45.55623" lon="6.00881">
        <ele>833.6</ele>
        <time>2014-03-30T14:12:40Z</time>
      </trkpt>
      <trkpt lat="45.55619" lon="6.00876">
        <ele>832.64</ele>
        <time>2014-03-30T14:12:41Z</time>
      </trkpt>
      <trkpt lat="45.55608" lon="6.0086">
        <ele>831.2</ele>
        <time>2014-03-30T14:12:44Z</time>
      </trkpt>
      <trkpt lat="45.55604" lon="6.00854">
        <ele>830.72</ele>
        <time>2014-03-30T14:12:45Z</time>
      </trkpt>
      <trkpt lat="45.55601" lon="6.00847">
        <ele>830.72</ele>
        <time>2014-03-30T14:12:46Z</time>
      </trkpt>
      <trkpt lat="45.55598" lon="6.00839">
        <ele>830.72</ele>
        <time>2014-03-30T14:12:47Z</time>
      </trkpt>
      <trkpt lat="45.55596" lon="6.00832">
        <ele>830.24</ele>
        <time>2014-03-30T14:12:48Z</time>
      </trkpt>
      <trkpt lat="45.55586" lon="6.00799">
        <ele>829.27</ele>
        <time>2014-03-30T14:12:52Z</time>
      </trkpt>
      <trkpt lat="45.55582" lon="6.00792">
        <ele>829.76</ele>
        <time>2014-03-30T14:12:53Z</time>
      </trkpt>
      <trkpt lat="45.55559" lon="6.00729">
        <ele>827.35</ele>
        <time>2014-03-30T14:13:04Z</time>
      </trkpt>
      <trkpt lat="45.55555" lon="6.0071">
        <ele>825.91</ele>
        <time>2014-03-30T14:13:07Z</time>
      </trkpt>
      <trkpt lat="45.55553" lon="6.00703">
        <ele>825.91</ele>
        <time>2014-03-30T14:13:08Z</time>
      </trkpt>
      <trkpt lat="45.5555" lon="6.00696">
        <ele>825.91</ele>
        <time>2014-03-30T14:13:09Z</time>
      </trkpt>
      <trkpt lat="45.55545" lon="6.00691">
        <ele>824.47</ele>
        <time>2014-03-30T14:13:10Z</time>
      </trkpt>
      <trkpt lat="45.55541" lon="6.00686">
        <ele>823.99</ele>
        <time>2014-03-30T14:13:11Z</time>
      </trkpt>
      <trkpt lat="45.55535" lon="6.00681">
        <ele>823.51</ele>
        <time>2014-03-30T14:13:12Z</time>
      </trkpt>
      <trkpt lat="45.55529" lon="6.00677">
        <ele>823.51</ele>
        <time>2014-03-30T14:13:13Z</time>
      </trkpt>
      <trkpt lat="45.55513" lon="6.00669">
        <ele>821.1</ele>
        <time>2014-03-30T14:13:16Z</time>
      </trkpt>
      <trkpt lat="45.55508" lon="6.00669">
        <ele>820.62</ele>
        <time>2014-03-30T14:13:17Z</time>
      </trkpt>
      <trkpt lat="45.55505" lon="6.0067">
        <ele>820.14</ele>
        <time>2014-03-30T14:13:18Z</time>
      </trkpt>
      <trkpt lat="45.55502" lon="6.00673">
        <ele>819.66</ele>
        <time>2014-03-30T14:13:19Z</time>
      </trkpt>
      <trkpt lat="45.55499" lon="6.00676">
        <ele>819.18</ele>
        <time>2014-03-30T14:13:20Z</time>
      </trkpt>
      <trkpt lat="45.55491" lon="6.00684">
        <ele>817.74</ele>
        <time>2014-03-30T14:13:23Z</time>
      </trkpt>
      <trkpt lat="45.5548" lon="6.00695">
        <ele>815.82</ele>
        <time>2014-03-30T14:13:27Z</time>
      </trkpt>
      <trkpt lat="45.55474" lon="6.00707">
        <ele>813.89</ele>
        <time>2014-03-30T14:13:31Z</time>
      </trkpt>
      <trkpt lat="45.55474" lon="6.0071">
        <ele>813.89</ele>
        <time>2014-03-30T14:13:32Z</time>
      </trkpt>
      <trkpt lat="45.55474" lon="6.00713">
        <ele>813.41</ele>
        <time>2014-03-30T14:13:33Z</time>
      </trkpt>
      <trkpt lat="45.55475" lon="6.00727">
        <ele>812.93</ele>
        <time>2014-03-30T14:13:38Z</time>
      </trkpt>
      <trkpt lat="45.5547" lon="6.00775">
        <ele>809.57</ele>
        <time>2014-03-30T14:13:47Z</time>
      </trkpt>
      <trkpt lat="45.55468" lon="6.00782">
        <ele>809.57</ele>
        <time>2014-03-30T14:13:48Z</time>
      </trkpt>
      <trkpt lat="45.55466" lon="6.00788">
        <ele>809.09</ele>
        <time>2014-03-30T14:13:49Z</time>
      </trkpt>
      <trkpt lat="45.55463" lon="6.00806">
        <ele>807.64</ele>
        <time>2014-03-30T14:13:52Z</time>
      </trkpt>
      <trkpt lat="45.55459" lon="6.00818">
        <ele>806.68</ele>
        <time>2014-03-30T14:14:00Z</time>
      </trkpt>
      <trkpt lat="45.55459" lon="6.0082">
        <ele>806.68</ele>
        <time>2014-03-30T14:14:04Z</time>
      </trkpt>
      <trkpt lat="45.55458" lon="6.00823">
        <ele>806.2</ele>
        <time>2014-03-30T14:14:05Z</time>
      </trkpt>
      <trkpt lat="45.55451" lon="6.00847">
        <ele>802.84</ele>
        <time>2014-03-30T14:14:10Z</time>
      </trkpt>
      <trkpt lat="45.55452" lon="6.00853">
        <ele>802.36</ele>
        <time>2014-03-30T14:14:11Z</time>
      </trkpt>
      <trkpt lat="45.55453" lon="6.00859">
        <ele>801.88</ele>
        <time>2014-03-30T14:14:12Z</time>
      </trkpt>
      <trkpt lat="45.55455" lon="6.00872">
        <ele>800.92</ele>
        <time>2014-03-30T14:14:14Z</time>
      </trkpt>
      <trkpt lat="45.55459" lon="6.00895">
        <ele>797.07</ele>
        <time>2014-03-30T14:14:19Z</time>
      </trkpt>
      <trkpt lat="45.55463" lon="6.00904">
        <ele>795.15</ele>
        <time>2014-03-30T14:14:21Z</time>
      </trkpt>
      <trkpt lat="45.55473" lon="6.0092">
        <ele>792.26</ele>
        <time>2014-03-30T14:14:24Z</time>
      </trkpt>
      <trkpt lat="45.55477" lon="6.00925">
        <ele>791.78</ele>
        <time>2014-03-30T14:14:25Z</time>
      </trkpt>
      <trkpt lat="45.55481" lon="6.0093">
        <ele>791.3</ele>
        <time>2014-03-30T14:14:26Z</time>
      </trkpt>
      <trkpt lat="45.55484" lon="6.00935">
        <ele>790.34</ele>
        <time>2014-03-30T14:14:27Z</time>
      </trkpt>
      <trkpt lat="45.55487" lon="6.00939">
        <ele>789.38</ele>
        <time>2014-03-30T14:14:28Z</time>
      </trkpt>
      <trkpt lat="45.55489" lon="6.00944">
        <ele>788.9</ele>
        <time>2014-03-30T14:14:29Z</time>
      </trkpt>
      <trkpt lat="45.55491" lon="6.00948">
        <ele>787.94</ele>
        <time>2014-03-30T14:14:30Z</time>
      </trkpt>
      <trkpt lat="45.55492" lon="6.00953">
        <ele>787.94</ele>
        <time>2014-03-30T14:14:31Z</time>
      </trkpt>
      <trkpt lat="45.55493" lon="6.00957">
        <ele>786.5</ele>
        <time>2014-03-30T14:14:32Z</time>
      </trkpt>
      <trkpt lat="45.55494" lon="6.00961">
        <ele>786.02</ele>
        <time>2014-03-30T14:14:33Z</time>
      </trkpt>
      <trkpt lat="45.55496" lon="6.00965">
        <ele>785.53</ele>
        <time>2014-03-30T14:14:34Z</time>
      </trkpt>
      <trkpt lat="45.55498" lon="6.00969">
        <ele>784.57</ele>
        <time>2014-03-30T14:14:35Z</time>
      </trkpt>
      <trkpt lat="45.55499" lon="6.00973">
        <ele>784.09</ele>
        <time>2014-03-30T14:14:36Z</time>
      </trkpt>
      <trkpt lat="45.55499" lon="6.00977">
        <ele>783.61</ele>
        <time>2014-03-30T14:14:37Z</time>
      </trkpt>
      <trkpt lat="45.55501" lon="6.00986">
        <ele>782.65</ele>
        <time>2014-03-30T14:14:39Z</time>
      </trkpt>
      <trkpt lat="45.55502" lon="6.00991">
        <ele>781.69</ele>
        <time>2014-03-30T14:14:40Z</time>
      </trkpt>
      <trkpt lat="45.55516" lon="6.01019">
        <ele>778.32</ele>
        <time>2014-03-30T14:14:46Z</time>
      </trkpt>
      <trkpt lat="45.55525" lon="6.01039">
        <ele>775.44</ele>
        <time>2014-03-30T14:14:51Z</time>
      </trkpt>
      <trkpt lat="45.55526" lon="6.01042">
        <ele>774.96</ele>
        <time>2014-03-30T14:14:52Z</time>
      </trkpt>
      <trkpt lat="45.55527" lon="6.01045">
        <ele>774</ele>
        <time>2014-03-30T14:14:53Z</time>
      </trkpt>
      <trkpt lat="45.55526" lon="6.01048">
        <ele>773.52</ele>
        <time>2014-03-30T14:14:54Z</time>
      </trkpt>
      <trkpt lat="45.55525" lon="6.01051">
        <ele>772.56</ele>
        <time>2014-03-30T14:14:55Z</time>
      </trkpt>
      <trkpt lat="45.55521" lon="6.01052">
        <ele>772.08</ele>
        <time>2014-03-30T14:14:56Z</time>
      </trkpt>
      <trkpt lat="45.55517" lon="6.0105">
        <ele>771.11</ele>
        <time>2014-03-30T14:14:57Z</time>
      </trkpt>
      <trkpt lat="45.55513" lon="6.01047">
        <ele>770.63</ele>
        <time>2014-03-30T14:14:58Z</time>
      </trkpt>
      <trkpt lat="45.55509" lon="6.01044">
        <ele>770.15</ele>
        <time>2014-03-30T14:14:59Z</time>
      </trkpt>
      <trkpt lat="45.55505" lon="6.01042">
        <ele>770.15</ele>
        <time>2014-03-30T14:15:00Z</time>
      </trkpt>
      <trkpt lat="45.55502" lon="6.01039">
        <ele>769.67</ele>
        <time>2014-03-30T14:15:01Z</time>
      </trkpt>
      <trkpt lat="45.55498" lon="6.01036">
        <ele>768.71</ele>
        <time>2014-03-30T14:15:02Z</time>
      </trkpt>
      <trkpt lat="45.55493" lon="6.01032">
        <ele>768.71</ele>
        <time>2014-03-30T14:15:03Z</time>
      </trkpt>
      <trkpt lat="45.55489" lon="6.01029">
        <ele>767.75</ele>
        <time>2014-03-30T14:15:04Z</time>
      </trkpt>
      <trkpt lat="45.55485" lon="6.01026">
        <ele>767.27</ele>
        <time>2014-03-30T14:15:05Z</time>
      </trkpt>
      <trkpt lat="45.55481" lon="6.01021">
        <ele>766.79</ele>
        <time>2014-03-30T14:15:06Z</time>
      </trkpt>
      <trkpt lat="45.55478" lon="6.01016">
        <ele>766.31</ele>
        <time>2014-03-30T14:15:07Z</time>
      </trkpt>
      <trkpt lat="45.55474" lon="6.0101">
        <ele>764.87</ele>
        <time>2014-03-30T14:15:08Z</time>
      </trkpt>
      <trkpt lat="45.55469" lon="6.01005">
        <ele>763.9</ele>
        <time>2014-03-30T14:15:09Z</time>
      </trkpt>
      <trkpt lat="45.55455" lon="6.0099">
        <ele>761.5</ele>
        <time>2014-03-30T14:15:13Z</time>
      </trkpt>
      <trkpt lat="45.55455" lon="6.00992">
        <ele>761.02</ele>
        <time>2014-03-30T14:15:14Z</time>
      </trkpt>
      <trkpt lat="45.55455" lon="6.00996">
        <ele>760.06</ele>
        <time>2014-03-30T14:15:15Z</time>
      </trkpt>
      <trkpt lat="45.55459" lon="6.01008">
        <ele>758.62</ele>
        <time>2014-03-30T14:15:17Z</time>
      </trkpt>
      <trkpt lat="45.55462" lon="6.01015">
        <ele>758.62</ele>
        <time>2014-03-30T14:15:18Z</time>
      </trkpt>
      <trkpt lat="45.55464" lon="6.01022">
        <ele>757.66</ele>
        <time>2014-03-30T14:15:19Z</time>
      </trkpt>
      <trkpt lat="45.5547" lon="6.01036">
        <ele>757.18</ele>
        <time>2014-03-30T14:15:21Z</time>
      </trkpt>
      <trkpt lat="45.55472" lon="6.01043">
        <ele>756.69</ele>
        <time>2014-03-30T14:15:22Z</time>
      </trkpt>
      <trkpt lat="45.55478" lon="6.01058">
        <ele>754.29</ele>
        <time>2014-03-30T14:15:30Z</time>
      </trkpt>
      <trkpt lat="45.55476" lon="6.01058">
        <ele>753.81</ele>
        <time>2014-03-30T14:15:33Z</time>
      </trkpt>
      <trkpt lat="45.5547" lon="6.01057">
        <ele>752.37</ele>
        <time>2014-03-30T14:15:38Z</time>
      </trkpt>
      <trkpt lat="45.55464" lon="6.01052">
        <ele>751.41</ele>
        <time>2014-03-30T14:15:40Z</time>
      </trkpt>
      <trkpt lat="45.55455" lon="6.01039">
        <ele>748.52</ele>
        <time>2014-03-30T14:15:48Z</time>
      </trkpt>
      <trkpt lat="45.55456" lon="6.01041">
        <ele>748.04</ele>
        <time>2014-03-30T14:15:49Z</time>
      </trkpt>
      <trkpt lat="45.55456" lon="6.01049">
        <ele>747.56</ele>
        <time>2014-03-30T14:15:55Z</time>
      </trkpt>
      <trkpt lat="45.55455" lon="6.0105">
        <ele>746.6</ele>
        <time>2014-03-30T14:16:03Z</time>
      </trkpt>
      <trkpt lat="45.55453" lon="6.0105">
        <ele>745.16</ele>
        <time>2014-03-30T14:16:05Z</time>
      </trkpt>
      <trkpt lat="45.55452" lon="6.01049">
        <ele>745.16</ele>
        <time>2014-03-30T14:16:06Z</time>
      </trkpt>
      <trkpt lat="45.5543" lon="6.01028">
        <ele>742.28</ele>
        <time>2014-03-30T14:16:15Z</time>
      </trkpt>
      <trkpt lat="45.55427" lon="6.01025">
        <ele>741.79</ele>
        <time>2014-03-30T14:16:16Z</time>
      </trkpt>
      <trkpt lat="45.55414" lon="6.01014">
        <ele>739.87</ele>
        <time>2014-03-30T14:16:24Z</time>
      </trkpt>
      <trkpt lat="45.55411" lon="6.01013">
        <ele>737.95</ele>
        <time>2014-03-30T14:16:29Z</time>
      </trkpt>
      <trkpt lat="45.55407" lon="6.01011">
        <ele>736.51</ele>
        <time>2014-03-30T14:16:36Z</time>
      </trkpt>
      <trkpt lat="45.55401" lon="6.01012">
        <ele>733.62</ele>
        <time>2014-03-30T14:16:40Z</time>
      </trkpt>
      <trkpt lat="45.55398" lon="6.01018">
        <ele>731.22</ele>
        <time>2014-03-30T14:16:43Z</time>
      </trkpt>
      <trkpt lat="45.55395" lon="6.0103">
        <ele>727.86</ele>
        <time>2014-03-30T14:16:47Z</time>
      </trkpt>
      <trkpt lat="45.55399" lon="6.0104">
        <ele>724.97</ele>
        <time>2014-03-30T14:16:50Z</time>
      </trkpt>
      <trkpt lat="45.55403" lon="6.0106">
        <ele>722.09</ele>
        <time>2014-03-30T14:16:53Z</time>
      </trkpt>
      <trkpt lat="45.55406" lon="6.01082">
        <ele>718.24</ele>
        <time>2014-03-30T14:16:56Z</time>
      </trkpt>
      <trkpt lat="45.5541" lon="6.01112">
        <ele>714.88</ele>
        <time>2014-03-30T14:17:00Z</time>
      </trkpt>
      <trkpt lat="45.55413" lon="6.01129">
        <ele>711.51</ele>
        <time>2014-03-30T14:17:03Z</time>
      </trkpt>
      <trkpt lat="45.55416" lon="6.01154">
        <ele>707.19</ele>
        <time>2014-03-30T14:17:08Z</time>
      </trkpt>
      <trkpt lat="45.55414" lon="6.01165">
        <ele>704.3</ele>
        <time>2014-03-30T14:17:11Z</time>
      </trkpt>
      <trkpt lat="45.55413" lon="6.01165">
        <ele>704.3</ele>
        <time>2014-03-30T14:17:12Z</time>
      </trkpt>
      <trkpt lat="45.55409" lon="6.01168">
        <ele>700.94</ele>
        <time>2014-03-30T14:17:15Z</time>
      </trkpt>
      <trkpt lat="45.55396" lon="6.01161">
        <ele>697.57</ele>
        <time>2014-03-30T14:17:22Z</time>
      </trkpt>
      <trkpt lat="45.55394" lon="6.01156">
        <ele>693.73</ele>
        <time>2014-03-30T14:17:26Z</time>
      </trkpt>
      <trkpt lat="45.55388" lon="6.0115">
        <ele>689.88</ele>
        <time>2014-03-30T14:17:30Z</time>
      </trkpt>
      <trkpt lat="45.55383" lon="6.01146">
        <ele>688.44</ele>
        <time>2014-03-30T14:17:32Z</time>
      </trkpt>
      <trkpt lat="45.55377" lon="6.01142">
        <ele>687.48</ele>
        <time>2014-03-30T14:17:34Z</time>
      </trkpt>
      <trkpt lat="45.55367" lon="6.01139">
        <ele>684.6</ele>
        <time>2014-03-30T14:17:38Z</time>
      </trkpt>
      <trkpt lat="45.55367" lon="6.01142">
        <ele>682.67</ele>
        <time>2014-03-30T14:17:40Z</time>
      </trkpt>
      <trkpt lat="45.55364" lon="6.01148">
        <ele>679.31</ele>
        <time>2014-03-30T14:17:44Z</time>
      </trkpt>
      <trkpt lat="45.55365" lon="6.01159">
        <ele>677.39</ele>
        <time>2014-03-30T14:17:47Z</time>
      </trkpt>
      <trkpt lat="45.55365" lon="6.01162">
        <ele>675.46</ele>
        <time>2014-03-30T14:17:54Z</time>
      </trkpt>
      <trkpt lat="45.55368" lon="6.01173">
        <ele>673.06</ele>
        <time>2014-03-30T14:18:01Z</time>
      </trkpt>
      <trkpt lat="45.5537" lon="6.01179">
        <ele>670.66</ele>
        <time>2014-03-30T14:18:10Z</time>
      </trkpt>
      <trkpt lat="45.55372" lon="6.01186">
        <ele>668.25</ele>
        <time>2014-03-30T14:18:14Z</time>
      </trkpt>
      <trkpt lat="45.55375" lon="6.01196">
        <ele>664.41</ele>
        <time>2014-03-30T14:18:20Z</time>
      </trkpt>
      <trkpt lat="45.55375" lon="6.01199">
        <ele>663.93</ele>
        <time>2014-03-30T14:18:21Z</time>
      </trkpt>
      <trkpt lat="45.55369" lon="6.01195">
        <ele>660.56</ele>
        <time>2014-03-30T14:18:25Z</time>
      </trkpt>
      <trkpt lat="45.55364" lon="6.01193">
        <ele>657.2</ele>
        <time>2014-03-30T14:18:28Z</time>
      </trkpt>
      <trkpt lat="45.55356" lon="6.01201">
        <ele>653.35</ele>
        <time>2014-03-30T14:18:32Z</time>
      </trkpt>
      <trkpt lat="45.55356" lon="6.01205">
        <ele>651.91</ele>
        <time>2014-03-30T14:18:34Z</time>
      </trkpt>
      <trkpt lat="45.55358" lon="6.0122">
        <ele>647.59</ele>
        <time>2014-03-30T14:18:38Z</time>
      </trkpt>
      <trkpt lat="45.55359" lon="6.01226">
        <ele>646.62</ele>
        <time>2014-03-30T14:18:40Z</time>
      </trkpt>
      <trkpt lat="45.5539" lon="6.01273">
        <ele>642.78</ele>
        <time>2014-03-30T14:18:53Z</time>
      </trkpt>
      <trkpt lat="45.5543" lon="6.01313">
        <ele>640.38</ele>
        <time>2014-03-30T14:19:03Z</time>
      </trkpt>
      <trkpt lat="45.55443" lon="6.01333">
        <ele>638.45</ele>
        <time>2014-03-30T14:19:07Z</time>
      </trkpt>
      <trkpt lat="45.55471" lon="6.01367">
        <ele>635.09</ele>
        <time>2014-03-30T14:19:18Z</time>
      </trkpt>
      <trkpt lat="45.55494" lon="6.01391">
        <ele>632.2</ele>
        <time>2014-03-30T14:19:25Z</time>
      </trkpt>
      <trkpt lat="45.55482" lon="6.01396">
        <ele>632.68</ele>
        <time>2014-03-30T14:19:36Z</time>
      </trkpt>
      <trkpt lat="45.55478" lon="6.0139">
        <ele>632.2</ele>
        <time>2014-03-30T14:19:59Z</time>
      </trkpt>
      <trkpt lat="45.55464" lon="6.01376">
        <ele>630.76</ele>
        <time>2014-03-30T14:20:06Z</time>
      </trkpt>
      <trkpt lat="45.5546" lon="6.01373">
        <ele>629.8</ele>
        <time>2014-03-30T14:20:07Z</time>
      </trkpt>
      <trkpt lat="45.55458" lon="6.01372">
        <ele>628.84</ele>
        <time>2014-03-30T14:20:08Z</time>
      </trkpt>
      <trkpt lat="45.55446" lon="6.0137">
        <ele>625.47</ele>
        <time>2014-03-30T14:20:11Z</time>
      </trkpt>
      <trkpt lat="45.55436" lon="6.01367">
        <ele>623.55</ele>
        <time>2014-03-30T14:20:13Z</time>
      </trkpt>
      <trkpt lat="45.5542" lon="6.01363">
        <ele>621.63</ele>
        <time>2014-03-30T14:20:16Z</time>
      </trkpt>
      <trkpt lat="45.55412" lon="6.01362">
        <ele>620.19</ele>
        <time>2014-03-30T14:20:17Z</time>
      </trkpt>
      <trkpt lat="45.55407" lon="6.01362">
        <ele>619.71</ele>
        <time>2014-03-30T14:20:18Z</time>
      </trkpt>
      <trkpt lat="45.55379" lon="6.01353">
        <ele>617.78</ele>
        <time>2014-03-30T14:20:20Z</time>
      </trkpt>
      <trkpt lat="45.55367" lon="6.01354">
        <ele>614.9</ele>
        <time>2014-03-30T14:20:22Z</time>
      </trkpt>
      <trkpt lat="45.55361" lon="6.01356">
        <ele>614.9</ele>
        <time>2014-03-30T14:20:23Z</time>
      </trkpt>
      <trkpt lat="45.55354" lon="6.0136">
        <ele>612.98</ele>
        <time>2014-03-30T14:20:25Z</time>
      </trkpt>
      <trkpt lat="45.55353" lon="6.01364">
        <ele>612.5</ele>
        <time>2014-03-30T14:20:26Z</time>
      </trkpt>
      <trkpt lat="45.55353" lon="6.0137">
        <ele>611.54</ele>
        <time>2014-03-30T14:20:27Z</time>
      </trkpt>
      <trkpt lat="45.55353" lon="6.01378">
        <ele>611.06</ele>
        <time>2014-03-30T14:20:28Z</time>
      </trkpt>
      <trkpt lat="45.55352" lon="6.01387">
        <ele>610.09</ele>
        <time>2014-03-30T14:20:29Z</time>
      </trkpt>
      <trkpt lat="45.55351" lon="6.01396">
        <ele>609.61</ele>
        <time>2014-03-30T14:20:30Z</time>
      </trkpt>
      <trkpt lat="45.5534" lon="6.01436">
        <ele>606.25</ele>
        <time>2014-03-30T14:20:34Z</time>
      </trkpt>
      <trkpt lat="45.55336" lon="6.01447">
        <ele>606.25</ele>
        <time>2014-03-30T14:20:35Z</time>
      </trkpt>
      <trkpt lat="45.55319" lon="6.01491">
        <ele>602.88</ele>
        <time>2014-03-30T14:20:39Z</time>
      </trkpt>
      <trkpt lat="45.55281" lon="6.01563">
        <ele>601.92</ele>
        <time>2014-03-30T14:20:47Z</time>
      </trkpt>
      <trkpt lat="45.55276" lon="6.01565">
        <ele>602.4</ele>
        <time>2014-03-30T14:20:48Z</time>
      </trkpt>
      <trkpt lat="45.55264" lon="6.01566">
        <ele>601.92</ele>
        <time>2014-03-30T14:20:50Z</time>
      </trkpt>
      <trkpt lat="45.55234" lon="6.01577">
        <ele>602.88</ele>
        <time>2014-03-30T14:20:55Z</time>
      </trkpt>
      <trkpt lat="45.55228" lon="6.01577">
        <ele>602.88</ele>
        <time>2014-03-30T14:20:56Z</time>
      </trkpt>
      <trkpt lat="45.55223" lon="6.01576">
        <ele>603.36</ele>
        <time>2014-03-30T14:20:57Z</time>
      </trkpt>
      <trkpt lat="45.55173" lon="6.01564">
        <ele>603.36</ele>
        <time>2014-03-30T14:21:07Z</time>
      </trkpt>
      <trkpt lat="45.55107" lon="6.01535">
        <ele>603.85</ele>
        <time>2014-03-30T14:21:21Z</time>
      </trkpt>
      <trkpt lat="45.55103" lon="6.01531">
        <ele>603.36</ele>
        <time>2014-03-30T14:21:22Z</time>
      </trkpt>
      <trkpt lat="45.551" lon="6.01524">
        <ele>602.88</ele>
        <time>2014-03-30T14:21:23Z</time>
      </trkpt>
      <trkpt lat="45.55098" lon="6.01517">
        <ele>602.4</ele>
        <time>2014-03-30T14:21:24Z</time>
      </trkpt>
      <trkpt lat="45.55097" lon="6.01509">
        <ele>601.92</ele>
        <time>2014-03-30T14:21:25Z</time>
      </trkpt>
      <trkpt lat="45.55097" lon="6.015">
        <ele>601.44</ele>
        <time>2014-03-30T14:21:26Z</time>
      </trkpt>
      <trkpt lat="45.55097" lon="6.01491">
        <ele>600.48</ele>
        <time>2014-03-30T14:21:27Z</time>
      </trkpt>
      <trkpt lat="45.55097" lon="6.01482">
        <ele>600.48</ele>
        <time>2014-03-30T14:21:28Z</time>
      </trkpt>
      <trkpt lat="45.55095" lon="6.01473">
        <ele>599.52</ele>
        <time>2014-03-30T14:21:29Z</time>
      </trkpt>
      <trkpt lat="45.5509" lon="6.01455">
        <ele>599.04</ele>
        <time>2014-03-30T14:21:31Z</time>
      </trkpt>
      <trkpt lat="45.55076" lon="6.01415">
        <ele>598.08</ele>
        <time>2014-03-30T14:21:36Z</time>
      </trkpt>
      <trkpt lat="45.55059" lon="6.0138">
        <ele>597.12</ele>
        <time>2014-03-30T14:21:41Z</time>
      </trkpt>
      <trkpt lat="45.55048" lon="6.0136">
        <ele>595.67</ele>
        <time>2014-03-30T14:21:44Z</time>
      </trkpt>
      <trkpt lat="45.55039" lon="6.01335">
        <ele>595.19</ele>
        <time>2014-03-30T14:21:48Z</time>
      </trkpt>
      <trkpt lat="45.55034" lon="6.01305">
        <ele>593.27</ele>
        <time>2014-03-30T14:21:52Z</time>
      </trkpt>
      <trkpt lat="45.55032" lon="6.01284">
        <ele>591.83</ele>
        <time>2014-03-30T14:21:55Z</time>
      </trkpt>
      <trkpt lat="45.55031" lon="6.01279">
        <ele>591.83</ele>
        <time>2014-03-30T14:21:56Z</time>
      </trkpt>
      <trkpt lat="45.55024" lon="6.01237">
        <ele>590.87</ele>
        <time>2014-03-30T14:22:04Z</time>
      </trkpt>
      <trkpt lat="45.55022" lon="6.01216">
        <ele>590.39</ele>
        <time>2014-03-30T14:22:07Z</time>
      </trkpt>
      <trkpt lat="45.5502" lon="6.0121">
        <ele>589.91</ele>
        <time>2014-03-30T14:22:08Z</time>
      </trkpt>
      <trkpt lat="45.55019" lon="6.01204">
        <ele>589.43</ele>
        <time>2014-03-30T14:22:09Z</time>
      </trkpt>
      <trkpt lat="45.55017" lon="6.01197">
        <ele>589.43</ele>
        <time>2014-03-30T14:22:10Z</time>
      </trkpt>
      <trkpt lat="45.55015" lon="6.01191">
        <ele>589.43</ele>
        <time>2014-03-30T14:22:11Z</time>
      </trkpt>
      <trkpt lat="45.54999" lon="6.01141">
        <ele>588.46</ele>
        <time>2014-03-30T14:22:18Z</time>
      </trkpt>
      <trkpt lat="45.5499" lon="6.01102">
        <ele>587.5</ele>
        <time>2014-03-30T14:22:24Z</time>
      </trkpt>
      <trkpt lat="45.54988" lon="6.01097">
        <ele>587.5</ele>
        <time>2014-03-30T14:22:25Z</time>
      </trkpt>
      <trkpt lat="45.54974" lon="6.01069">
        <ele>589.43</ele>
        <time>2014-03-30T14:22:34Z</time>
      </trkpt>
      <trkpt lat="45.54958" lon="6.01047">
        <ele>590.39</ele>
        <time>2014-03-30T14:22:46Z</time>
      </trkpt>
      <trkpt lat="45.54948" lon="6.01036">
        <ele>590.87</ele>
        <time>2014-03-30T14:22:52Z</time>
      </trkpt>
      <trkpt lat="45.54915" lon="6.00993">
        <ele>591.83</ele>
        <time>2014-03-30T14:23:07Z</time>
      </trkpt>
      <trkpt lat="45.54911" lon="6.00987">
        <ele>590.87</ele>
        <time>2014-03-30T14:23:09Z</time>
      </trkpt>
      <trkpt lat="45.54881" lon="6.00972">
        <ele>591.35</ele>
        <time>2014-03-30T14:23:16Z</time>
      </trkpt>
      <trkpt lat="45.54833" lon="6.00966">
        <ele>592.31</ele>
        <time>2014-03-30T14:23:30Z</time>
      </trkpt>
      <trkpt lat="45.54818" lon="6.00937">
        <ele>588.46</ele>
        <time>2014-03-30T14:23:39Z</time>
      </trkpt>
      <trkpt lat="45.54772" lon="6.00909">
        <ele>588.46</ele>
        <time>2014-03-30T14:23:52Z</time>
      </trkpt>
      <trkpt lat="45.54735" lon="6.00849">
        <ele>585.58</ele>
        <time>2014-03-30T14:24:04Z</time>
      </trkpt>
      <trkpt lat="45.54722" lon="6.00844">
        <ele>587.02</ele>
        <time>2014-03-30T14:24:16Z</time>
      </trkpt>
      <trkpt lat="45.54722" lon="6.00843">
        <ele>586.54</ele>
        <time>2014-03-30T14:24:17Z</time>
      </trkpt>
      <trkpt lat="45.54718" lon="6.00838">
        <ele>585.1</ele>
        <time>2014-03-30T14:24:20Z</time>
      </trkpt>
      <trkpt lat="45.54716" lon="6.00838">
        <ele>585.1</ele>
        <time>2014-03-30T14:24:22Z</time>
      </trkpt>
      <trkpt lat="45.54685" lon="6.00847">
        <ele>581.73</ele>
        <time>2014-03-30T14:24:39Z</time>
      </trkpt>
      <trkpt lat="45.54672" lon="6.00871">
        <ele>579.33</ele>
        <time>2014-03-30T14:24:43Z</time>
      </trkpt>
      <trkpt lat="45.54667" lon="6.00861">
        <ele>574.53</ele>
        <time>2014-03-30T14:24:48Z</time>
      </trkpt>
      <trkpt lat="45.54653" lon="6.00805">
        <ele>571.64</ele>
        <time>2014-03-30T14:24:54Z</time>
      </trkpt>
      <trkpt lat="45.54636" lon="6.00801">
        <ele>567.8</ele>
        <time>2014-03-30T14:24:58Z</time>
      </trkpt>
      <trkpt lat="45.54625" lon="6.00794">
        <ele>565.87</ele>
        <time>2014-03-30T14:25:00Z</time>
      </trkpt>
      <trkpt lat="45.54622" lon="6.0079">
        <ele>563.95</ele>
        <time>2014-03-30T14:25:02Z</time>
      </trkpt>
      <trkpt lat="45.54607" lon="6.00773">
        <ele>561.07</ele>
        <time>2014-03-30T14:25:06Z</time>
      </trkpt>
      <trkpt lat="45.54604" lon="6.0077">
        <ele>560.11</ele>
        <time>2014-03-30T14:25:07Z</time>
      </trkpt>
      <trkpt lat="45.54586" lon="6.00776">
        <ele>556.26</ele>
        <time>2014-03-30T14:25:12Z</time>
      </trkpt>
      <trkpt lat="45.54572" lon="6.00782">
        <ele>552.41</ele>
        <time>2014-03-30T14:25:16Z</time>
      </trkpt>
      <trkpt lat="45.54561" lon="6.00782">
        <ele>548.57</ele>
        <time>2014-03-30T14:25:20Z</time>
      </trkpt>
      <trkpt lat="45.54558" lon="6.00778">
        <ele>547.61</ele>
        <time>2014-03-30T14:25:21Z</time>
      </trkpt>
      <trkpt lat="45.54557" lon="6.00778">
        <ele>547.13</ele>
        <time>2014-03-30T14:25:22Z</time>
      </trkpt>
      <trkpt lat="45.54522" lon="6.00847">
        <ele>546.17</ele>
        <time>2014-03-30T14:25:23Z</time>
      </trkpt>
      <trkpt lat="45.54511" lon="6.00851">
        <ele>543.76</ele>
        <time>2014-03-30T14:25:26Z</time>
      </trkpt>
      <trkpt lat="45.54501" lon="6.00856">
        <ele>540.4</ele>
        <time>2014-03-30T14:25:30Z</time>
      </trkpt>
      <trkpt lat="45.54474" lon="6.00857">
        <ele>538.48</ele>
        <time>2014-03-30T14:25:36Z</time>
      </trkpt>
      <trkpt lat="45.54469" lon="6.00895">
        <ele>534.63</ele>
        <time>2014-03-30T14:25:46Z</time>
      </trkpt>
      <trkpt lat="45.54459" lon="6.00908">
        <ele>533.67</ele>
        <time>2014-03-30T14:25:50Z</time>
      </trkpt>
      <trkpt lat="45.54455" lon="6.0091">
        <ele>532.71</ele>
        <time>2014-03-30T14:25:51Z</time>
      </trkpt>
      <trkpt lat="45.54441" lon="6.00913">
        <ele>530.79</ele>
        <time>2014-03-30T14:25:54Z</time>
      </trkpt>
      <trkpt lat="45.54437" lon="6.00913">
        <ele>530.79</ele>
        <time>2014-03-30T14:25:55Z</time>
      </trkpt>
      <trkpt lat="45.54432" lon="6.00914">
        <ele>529.82</ele>
        <time>2014-03-30T14:25:56Z</time>
      </trkpt>
      <trkpt lat="45.54428" lon="6.00915">
        <ele>529.34</ele>
        <time>2014-03-30T14:25:57Z</time>
      </trkpt>
      <trkpt lat="45.54424" lon="6.00917">
        <ele>528.38</ele>
        <time>2014-03-30T14:25:58Z</time>
      </trkpt>
      <trkpt lat="45.54419" lon="6.00921">
        <ele>527.42</ele>
        <time>2014-03-30T14:25:59Z</time>
      </trkpt>
      <trkpt lat="45.54414" lon="6.00925">
        <ele>525.98</ele>
        <time>2014-03-30T14:26:00Z</time>
      </trkpt>
      <trkpt lat="45.54405" lon="6.00931">
        <ele>524.54</ele>
        <time>2014-03-30T14:26:02Z</time>
      </trkpt>
      <trkpt lat="45.544" lon="6.00933">
        <ele>522.61</ele>
        <time>2014-03-30T14:26:03Z</time>
      </trkpt>
      <trkpt lat="45.54396" lon="6.00934">
        <ele>522.13</ele>
        <time>2014-03-30T14:26:04Z</time>
      </trkpt>
      <trkpt lat="45.54391" lon="6.00932">
        <ele>520.69</ele>
        <time>2014-03-30T14:26:05Z</time>
      </trkpt>
      <trkpt lat="45.54388" lon="6.00929">
        <ele>520.69</ele>
        <time>2014-03-30T14:26:06Z</time>
      </trkpt>
      <trkpt lat="45.54385" lon="6.00925">
        <ele>519.73</ele>
        <time>2014-03-30T14:26:07Z</time>
      </trkpt>
      <trkpt lat="45.5438" lon="6.00915">
        <ele>517.33</ele>
        <time>2014-03-30T14:26:10Z</time>
      </trkpt>
      <trkpt lat="45.54382" lon="6.00912">
        <ele>517.33</ele>
        <time>2014-03-30T14:26:11Z</time>
      </trkpt>
      <trkpt lat="45.54384" lon="6.00909">
        <ele>516.37</ele>
        <time>2014-03-30T14:26:12Z</time>
      </trkpt>
      <trkpt lat="45.54419" lon="6.00856">
        <ele>515.88</ele>
        <time>2014-03-30T14:26:22Z</time>
      </trkpt>
      <trkpt lat="45.54421" lon="6.00851">
        <ele>516.85</ele>
        <time>2014-03-30T14:26:23Z</time>
      </trkpt>
      <trkpt lat="45.54422" lon="6.00846">
        <ele>516.85</ele>
        <time>2014-03-30T14:26:24Z</time>
      </trkpt>
      <trkpt lat="45.54422" lon="6.00843">
        <ele>516.85</ele>
        <time>2014-03-30T14:26:25Z</time>
      </trkpt>
      <trkpt lat="45.54423" lon="6.00841">
        <ele>516.85</ele>
        <time>2014-03-30T14:26:35Z</time>
      </trkpt>
      <trkpt lat="45.54424" lon="6.00841">
        <ele>516.37</ele>
        <time>2014-03-30T14:26:48Z</time>
      </trkpt>
      <trkpt lat="45.54423" lon="6.00835">
        <ele>516.85</ele>
        <time>2014-03-30T14:27:08Z</time>
      </trkpt>
      <trkpt lat="45.54421" lon="6.00831">
        <ele>516.37</ele>
        <time>2014-03-30T14:27:09Z</time>
      </trkpt>
      <trkpt lat="45.5442" lon="6.00827">
        <ele>516.37</ele>
        <time>2014-03-30T14:27:10Z</time>
      </trkpt>
      <trkpt lat="45.54418" lon="6.00822">
        <ele>515.88</ele>
        <time>2014-03-30T14:27:11Z</time>
      </trkpt>
      <trkpt lat="45.54416" lon="6.00819">
        <ele>515.4</ele>
        <time>2014-03-30T14:27:12Z</time>
      </trkpt>
      <trkpt lat="45.54415" lon="6.00815">
        <ele>514.92</ele>
        <time>2014-03-30T14:27:13Z</time>
      </trkpt>
      <trkpt lat="45.54413" lon="6.0081">
        <ele>514.44</ele>
        <time>2014-03-30T14:27:14Z</time>
      </trkpt>
      <trkpt lat="45.54404" lon="6.00792">
        <ele>513</ele>
        <time>2014-03-30T14:27:18Z</time>
      </trkpt>
      <trkpt lat="45.54403" lon="6.00756">
        <ele>510.6</ele>
        <time>2014-03-30T14:27:25Z</time>
      </trkpt>
      <trkpt lat="45.54405" lon="6.00751">
        <ele>509.64</ele>
        <time>2014-03-30T14:27:26Z</time>
      </trkpt>
      <trkpt lat="45.54408" lon="6.00748">
        <ele>508.67</ele>
        <time>2014-03-30T14:27:27Z</time>
      </trkpt>
      <trkpt lat="45.54413" lon="6.00746">
        <ele>508.67</ele>
        <time>2014-03-30T14:27:28Z</time>
      </trkpt>
      <trkpt lat="45.54417" lon="6.00746">
        <ele>507.71</ele>
        <time>2014-03-30T14:27:29Z</time>
      </trkpt>
      <trkpt lat="45.54421" lon="6.00745">
        <ele>507.23</ele>
        <time>2014-03-30T14:27:30Z</time>
      </trkpt>
      <trkpt lat="45.54425" lon="6.00745">
        <ele>507.23</ele>
        <time>2014-03-30T14:27:31Z</time>
      </trkpt>
      <trkpt lat="45.54441" lon="6.00743">
        <ele>505.31</ele>
        <time>2014-03-30T14:27:35Z</time>
      </trkpt>
      <trkpt lat="45.54445" lon="6.00742">
        <ele>504.83</ele>
        <time>2014-03-30T14:27:36Z</time>
      </trkpt>
      <trkpt lat="45.5445" lon="6.00739">
        <ele>503.87</ele>
        <time>2014-03-30T14:27:37Z</time>
      </trkpt>
      <trkpt lat="45.54454" lon="6.00736">
        <ele>503.39</ele>
        <time>2014-03-30T14:27:38Z</time>
      </trkpt>
      <trkpt lat="45.54459" lon="6.00733">
        <ele>502.91</ele>
        <time>2014-03-30T14:27:39Z</time>
      </trkpt>
      <trkpt lat="45.54463" lon="6.00729">
        <ele>502.43</ele>
        <time>2014-03-30T14:27:40Z</time>
      </trkpt>
      <trkpt lat="45.54467" lon="6.00724">
        <ele>501.95</ele>
        <time>2014-03-30T14:27:41Z</time>
      </trkpt>
      <trkpt lat="45.54478" lon="6.00708">
        <ele>501.95</ele>
        <time>2014-03-30T14:27:44Z</time>
      </trkpt>
      <trkpt lat="45.54481" lon="6.00703">
        <ele>502.43</ele>
        <time>2014-03-30T14:27:45Z</time>
      </trkpt>
      <trkpt lat="45.54485" lon="6.00698">
        <ele>502.91</ele>
        <time>2014-03-30T14:27:46Z</time>
      </trkpt>
      <trkpt lat="45.54487" lon="6.00693">
        <ele>503.39</ele>
        <time>2014-03-30T14:27:47Z</time>
      </trkpt>
      <trkpt lat="45.54489" lon="6.00688">
        <ele>503.39</ele>
        <time>2014-03-30T14:27:48Z</time>
      </trkpt>
      <trkpt lat="45.54491" lon="6.00683">
        <ele>503.39</ele>
        <time>2014-03-30T14:27:49Z</time>
      </trkpt>
      <trkpt lat="45.54493" lon="6.00679">
        <ele>503.87</ele>
        <time>2014-03-30T14:27:50Z</time>
      </trkpt>
      <trkpt lat="45.54495" lon="6.00674">
        <ele>503.39</ele>
        <time>2014-03-30T14:27:51Z</time>
      </trkpt>
      <trkpt lat="45.54497" lon="6.00669">
        <ele>503.87</ele>
        <time>2014-03-30T14:27:52Z</time>
      </trkpt>
      <trkpt lat="45.54498" lon="6.00663">
        <ele>503.87</ele>
        <time>2014-03-30T14:27:53Z</time>
      </trkpt>
      <trkpt lat="45.54498" lon="6.00657">
        <ele>503.87</ele>
        <time>2014-03-30T14:27:54Z</time>
      </trkpt>
      <trkpt lat="45.54497" lon="6.00652">
        <ele>503.87</ele>
        <time>2014-03-30T14:27:55Z</time>
      </trkpt>
      <trkpt lat="45.5448" lon="6.00606">
        <ele>503.87</ele>
        <time>2014-03-30T14:28:05Z</time>
      </trkpt>
      <trkpt lat="45.5448" lon="6.00602">
        <ele>503.87</ele>
        <time>2014-03-30T14:28:06Z</time>
      </trkpt>
      <trkpt lat="45.54482" lon="6.00599">
        <ele>503.87</ele>
        <time>2014-03-30T14:28:07Z</time>
      </trkpt>
      <trkpt lat="45.54484" lon="6.00596">
        <ele>503.87</ele>
        <time>2014-03-30T14:28:08Z</time>
      </trkpt>
      <trkpt lat="45.54487" lon="6.00593">
        <ele>504.35</ele>
        <time>2014-03-30T14:28:09Z</time>
      </trkpt>
      <trkpt lat="45.54501" lon="6.00573">
        <ele>503.39</ele>
        <time>2014-03-30T14:28:14Z</time>
      </trkpt>
      <trkpt lat="45.54505" lon="6.00569">
        <ele>503.39</ele>
        <time>2014-03-30T14:28:15Z</time>
      </trkpt>
      <trkpt lat="45.5451" lon="6.00566">
        <ele>502.43</ele>
        <time>2014-03-30T14:28:16Z</time>
      </trkpt>
      <trkpt lat="45.54516" lon="6.00563">
        <ele>502.43</ele>
        <time>2014-03-30T14:28:17Z</time>
      </trkpt>
      <trkpt lat="45.54522" lon="6.00562">
        <ele>501.46</ele>
        <time>2014-03-30T14:28:18Z</time>
      </trkpt>
      <trkpt lat="45.54528" lon="6.00562">
        <ele>500.98</ele>
        <time>2014-03-30T14:28:19Z</time>
      </trkpt>
      <trkpt lat="45.54533" lon="6.00563">
        <ele>500.98</ele>
        <time>2014-03-30T14:28:20Z</time>
      </trkpt>
      <trkpt lat="45.54538" lon="6.00564">
        <ele>500.5</ele>
        <time>2014-03-30T14:28:21Z</time>
      </trkpt>
      <trkpt lat="45.54549" lon="6.00567">
        <ele>500.02</ele>
        <time>2014-03-30T14:28:23Z</time>
      </trkpt>
      <trkpt lat="45.54561" lon="6.00568">
        <ele>499.54</ele>
        <time>2014-03-30T14:28:27Z</time>
      </trkpt>
      <trkpt lat="45.54562" lon="6.00566">
        <ele>499.54</ele>
        <time>2014-03-30T14:28:28Z</time>
      </trkpt>
      <trkpt lat="45.54561" lon="6.00563">
        <ele>499.54</ele>
        <time>2014-03-30T14:28:29Z</time>
      </trkpt>
      <trkpt lat="45.54558" lon="6.00561">
        <ele>499.06</ele>
        <time>2014-03-30T14:28:30Z</time>
      </trkpt>
      <trkpt lat="45.54555" lon="6.00558">
        <ele>499.06</ele>
        <time>2014-03-30T14:28:31Z</time>
      </trkpt>
      <trkpt lat="45.54551" lon="6.00556">
        <ele>498.58</ele>
        <time>2014-03-30T14:28:32Z</time>
      </trkpt>
      <trkpt lat="45.54547" lon="6.00553">
        <ele>498.58</ele>
        <time>2014-03-30T14:28:33Z</time>
      </trkpt>
      <trkpt lat="45.54539" lon="6.00548">
        <ele>497.62</ele>
        <time>2014-03-30T14:28:35Z</time>
      </trkpt>
      <trkpt lat="45.54533" lon="6.00546">
        <ele>497.62</ele>
        <time>2014-03-30T14:28:36Z</time>
      </trkpt>
      <trkpt lat="45.54528" lon="6.00545">
        <ele>497.14</ele>
        <time>2014-03-30T14:28:37Z</time>
      </trkpt>
      <trkpt lat="45.54522" lon="6.00545">
        <ele>496.18</ele>
        <time>2014-03-30T14:28:38Z</time>
      </trkpt>
      <trkpt lat="45.54516" lon="6.00546">
        <ele>495.7</ele>
        <time>2014-03-30T14:28:39Z</time>
      </trkpt>
      <trkpt lat="45.5451" lon="6.00548">
        <ele>495.22</ele>
        <time>2014-03-30T14:28:40Z</time>
      </trkpt>
      <trkpt lat="45.54503" lon="6.00551">
        <ele>494.74</ele>
        <time>2014-03-30T14:28:41Z</time>
      </trkpt>
      <trkpt lat="45.54497" lon="6.00554">
        <ele>493.77</ele>
        <time>2014-03-30T14:28:42Z</time>
      </trkpt>
      <trkpt lat="45.54457" lon="6.00584">
        <ele>490.41</ele>
        <time>2014-03-30T14:28:48Z</time>
      </trkpt>
      <trkpt lat="45.54451" lon="6.00592">
        <ele>489.93</ele>
        <time>2014-03-30T14:28:49Z</time>
      </trkpt>
      <trkpt lat="45.54447" lon="6.00601">
        <ele>488.97</ele>
        <time>2014-03-30T14:28:50Z</time>
      </trkpt>
      <trkpt lat="45.54445" lon="6.00611">
        <ele>488.49</ele>
        <time>2014-03-30T14:28:51Z</time>
      </trkpt>
      <trkpt lat="45.54444" lon="6.00622">
        <ele>488.49</ele>
        <time>2014-03-30T14:28:52Z</time>
      </trkpt>
      <trkpt lat="45.54442" lon="6.00633">
        <ele>487.05</ele>
        <time>2014-03-30T14:28:53Z</time>
      </trkpt>
      <trkpt lat="45.5444" lon="6.00643">
        <ele>486.08</ele>
        <time>2014-03-30T14:28:54Z</time>
      </trkpt>
      <trkpt lat="45.54428" lon="6.00673">
        <ele>484.16</ele>
        <time>2014-03-30T14:28:57Z</time>
      </trkpt>
      <trkpt lat="45.5442" lon="6.00686">
        <ele>482.24</ele>
        <time>2014-03-30T14:28:59Z</time>
      </trkpt>
      <trkpt lat="45.54416" lon="6.00692">
        <ele>481.28</ele>
        <time>2014-03-30T14:29:00Z</time>
      </trkpt>
      <trkpt lat="45.54409" lon="6.00698">
        <ele>480.32</ele>
        <time>2014-03-30T14:29:01Z</time>
      </trkpt>
      <trkpt lat="45.54403" lon="6.00703">
        <ele>479.35</ele>
        <time>2014-03-30T14:29:02Z</time>
      </trkpt>
      <trkpt lat="45.54395" lon="6.00706">
        <ele>477.91</ele>
        <time>2014-03-30T14:29:03Z</time>
      </trkpt>
      <trkpt lat="45.54387" lon="6.0071">
        <ele>476.95</ele>
        <time>2014-03-30T14:29:04Z</time>
      </trkpt>
      <trkpt lat="45.54376" lon="6.00711">
        <ele>477.43</ele>
        <time>2014-03-30T14:29:05Z</time>
      </trkpt>
      <trkpt lat="45.54332" lon="6.007">
        <ele>474.07</ele>
        <time>2014-03-30T14:29:07Z</time>
      </trkpt>
      <trkpt lat="45.54306" lon="6.00704">
        <ele>472.63</ele>
        <time>2014-03-30T14:29:09Z</time>
      </trkpt>
      <trkpt lat="45.54295" lon="6.0071">
        <ele>471.66</ele>
        <time>2014-03-30T14:29:10Z</time>
      </trkpt>
      <trkpt lat="45.54288" lon="6.00715">
        <ele>471.66</ele>
        <time>2014-03-30T14:29:11Z</time>
      </trkpt>
      <trkpt lat="45.54281" lon="6.00719">
        <ele>471.18</ele>
        <time>2014-03-30T14:29:12Z</time>
      </trkpt>
      <trkpt lat="45.54274" lon="6.00721">
        <ele>469.74</ele>
        <time>2014-03-30T14:29:13Z</time>
      </trkpt>
      <trkpt lat="45.54269" lon="6.00719">
        <ele>469.26</ele>
        <time>2014-03-30T14:29:14Z</time>
      </trkpt>
      <trkpt lat="45.54268" lon="6.00707">
        <ele>468.3</ele>
        <time>2014-03-30T14:29:16Z</time>
      </trkpt>
      <trkpt lat="45.54271" lon="6.00703">
        <ele>467.82</ele>
        <time>2014-03-30T14:29:17Z</time>
      </trkpt>
      <trkpt lat="45.54277" lon="6.00696">
        <ele>467.82</ele>
        <time>2014-03-30T14:29:28Z</time>
      </trkpt>
      <trkpt lat="45.54276" lon="6.00694">
        <ele>467.34</ele>
        <time>2014-03-30T14:30:01Z</time>
      </trkpt>
      <trkpt lat="45.54276" lon="6.00694">
        <ele>466.86</ele>
        <time>2014-03-30T14:30:31Z</time>
      </trkpt>
      <trkpt lat="45.54276" lon="6.00694">
        <ele>467.34</ele>
        <time>2014-03-30T14:30:52Z</time>
      </trkpt>
      <trkpt lat="45.54276" lon="6.00694">
        <ele>467.34</ele>
        <time>2014-03-30T14:31:12Z</time>
      </trkpt>
      <trkpt lat="45.54277" lon="6.00694">
        <ele>466.86</ele>
        <time>2014-03-30T14:31:41Z</time>
      </trkpt>
      <trkpt lat="45.54277" lon="6.00694">
        <ele>466.38</ele>
        <time>2014-03-30T14:32:07Z</time>
      </trkpt>
      <trkpt lat="45.5428" lon="6.00687">
        <ele>466.38</ele>
        <time>2014-03-30T14:32:28Z</time>
      </trkpt>
      <trkpt lat="45.5429" lon="6.0067">
        <ele>465.9</ele>
        <time>2014-03-30T14:32:32Z</time>
      </trkpt>
      <trkpt lat="45.54294" lon="6.00666">
        <ele>464.93</ele>
        <time>2014-03-30T14:32:33Z</time>
      </trkpt>
      <trkpt lat="45.54298" lon="6.00661">
        <ele>464.45</ele>
        <time>2014-03-30T14:32:34Z</time>
      </trkpt>
      <trkpt lat="45.54304" lon="6.00658">
        <ele>464.45</ele>
        <time>2014-03-30T14:32:35Z</time>
      </trkpt>
      <trkpt lat="45.54309" lon="6.00655">
        <ele>463.97</ele>
        <time>2014-03-30T14:32:36Z</time>
      </trkpt>
      <trkpt lat="45.54314" lon="6.00651">
        <ele>463.97</ele>
        <time>2014-03-30T14:32:37Z</time>
      </trkpt>
      <trkpt lat="45.54317" lon="6.00645">
        <ele>463.97</ele>
        <time>2014-03-30T14:32:38Z</time>
      </trkpt>
      <trkpt lat="45.54318" lon="6.00638">
        <ele>463.49</ele>
        <time>2014-03-30T14:32:39Z</time>
      </trkpt>
      <trkpt lat="45.54315" lon="6.00634">
        <ele>463.01</ele>
        <time>2014-03-30T14:32:40Z</time>
      </trkpt>
      <trkpt lat="45.54309" lon="6.00632">
        <ele>462.53</ele>
        <time>2014-03-30T14:32:41Z</time>
      </trkpt>
      <trkpt lat="45.54302" lon="6.00633">
        <ele>462.05</ele>
        <time>2014-03-30T14:32:42Z</time>
      </trkpt>
      <trkpt lat="45.54294" lon="6.00635">
        <ele>461.57</ele>
        <time>2014-03-30T14:32:43Z</time>
      </trkpt>
      <trkpt lat="45.54287" lon="6.00637">
        <ele>460.61</ele>
        <time>2014-03-30T14:32:44Z</time>
      </trkpt>
      <trkpt lat="45.54264" lon="6.00641">
        <ele>458.69</ele>
        <time>2014-03-30T14:32:47Z</time>
      </trkpt>
      <trkpt lat="45.54255" lon="6.00642">
        <ele>458.21</ele>
        <time>2014-03-30T14:32:48Z</time>
      </trkpt>
      <trkpt lat="45.54247" lon="6.00645">
        <ele>457.72</ele>
        <time>2014-03-30T14:32:49Z</time>
      </trkpt>
      <trkpt lat="45.54239" lon="6.00649">
        <ele>457.24</ele>
        <time>2014-03-30T14:32:50Z</time>
      </trkpt>
      <trkpt lat="45.54231" lon="6.00653">
        <ele>455.8</ele>
        <time>2014-03-30T14:32:51Z</time>
      </trkpt>
      <trkpt lat="45.54224" lon="6.00656">
        <ele>455.8</ele>
        <time>2014-03-30T14:32:52Z</time>
      </trkpt>
      <trkpt lat="45.54218" lon="6.00657">
        <ele>454.84</ele>
        <time>2014-03-30T14:32:53Z</time>
      </trkpt>
      <trkpt lat="45.54213" lon="6.00657">
        <ele>454.84</ele>
        <time>2014-03-30T14:32:54Z</time>
      </trkpt>
      <trkpt lat="45.5421" lon="6.00655">
        <ele>454.36</ele>
        <time>2014-03-30T14:32:55Z</time>
      </trkpt>
      <trkpt lat="45.54208" lon="6.00652">
        <ele>454.36</ele>
        <time>2014-03-30T14:32:56Z</time>
      </trkpt>
      <trkpt lat="45.54206" lon="6.00647">
        <ele>453.88</ele>
        <time>2014-03-30T14:32:57Z</time>
      </trkpt>
      <trkpt lat="45.54203" lon="6.00641">
        <ele>451.96</ele>
        <time>2014-03-30T14:32:58Z</time>
      </trkpt>
      <trkpt lat="45.54202" lon="6.00633">
        <ele>451</ele>
        <time>2014-03-30T14:32:59Z</time>
      </trkpt>
      <trkpt lat="45.54201" lon="6.00623">
        <ele>450.52</ele>
        <time>2014-03-30T14:33:00Z</time>
      </trkpt>
      <trkpt lat="45.54201" lon="6.00613">
        <ele>449.07</ele>
        <time>2014-03-30T14:33:01Z</time>
      </trkpt>
      <trkpt lat="45.54204" lon="6.00578">
        <ele>445.71</ele>
        <time>2014-03-30T14:33:06Z</time>
      </trkpt>
      <trkpt lat="45.54204" lon="6.00576">
        <ele>445.71</ele>
        <time>2014-03-30T14:33:07Z</time>
      </trkpt>
      <trkpt lat="45.54203" lon="6.00572">
        <ele>445.23</ele>
        <time>2014-03-30T14:33:10Z</time>
      </trkpt>
      <trkpt lat="45.54201" lon="6.00571">
        <ele>445.23</ele>
        <time>2014-03-30T14:33:11Z</time>
      </trkpt>
      <trkpt lat="45.54198" lon="6.0057">
        <ele>444.75</ele>
        <time>2014-03-30T14:33:12Z</time>
      </trkpt>
      <trkpt lat="45.5417" lon="6.00555">
        <ele>441.38</ele>
        <time>2014-03-30T14:33:17Z</time>
      </trkpt>
      <trkpt lat="45.54158" lon="6.00547">
        <ele>440.42</ele>
        <time>2014-03-30T14:33:19Z</time>
      </trkpt>
      <trkpt lat="45.54142" lon="6.00534">
        <ele>437.54</ele>
        <time>2014-03-30T14:33:26Z</time>
      </trkpt>
      <trkpt lat="45.54135" lon="6.0053">
        <ele>437.54</ele>
        <time>2014-03-30T14:33:28Z</time>
      </trkpt>
      <trkpt lat="45.54125" lon="6.00527">
        <ele>436.58</ele>
        <time>2014-03-30T14:33:30Z</time>
      </trkpt>
      <trkpt lat="45.54113" lon="6.00522">
        <ele>435.61</ele>
        <time>2014-03-30T14:33:32Z</time>
      </trkpt>
      <trkpt lat="45.54102" lon="6.00519">
        <ele>434.65</ele>
        <time>2014-03-30T14:33:34Z</time>
      </trkpt>
      <trkpt lat="45.54097" lon="6.00516">
        <ele>433.69</ele>
        <time>2014-03-30T14:33:35Z</time>
      </trkpt>
      <trkpt lat="45.54094" lon="6.00511">
        <ele>433.69</ele>
        <time>2014-03-30T14:33:36Z</time>
      </trkpt>
      <trkpt lat="45.54094" lon="6.00505">
        <ele>433.21</ele>
        <time>2014-03-30T14:33:37Z</time>
      </trkpt>
      <trkpt lat="45.54095" lon="6.00488">
        <ele>431.29</ele>
        <time>2014-03-30T14:33:39Z</time>
      </trkpt>
      <trkpt lat="45.54095" lon="6.00479">
        <ele>430.81</ele>
        <time>2014-03-30T14:33:40Z</time>
      </trkpt>
      <trkpt lat="45.54094" lon="6.00449">
        <ele>429.37</ele>
        <time>2014-03-30T14:33:43Z</time>
      </trkpt>
      <trkpt lat="45.54096" lon="6.0044">
        <ele>427.92</ele>
        <time>2014-03-30T14:33:44Z</time>
      </trkpt>
      <trkpt lat="45.54098" lon="6.00432">
        <ele>427.44</ele>
        <time>2014-03-30T14:33:45Z</time>
      </trkpt>
      <trkpt lat="45.54102" lon="6.00425">
        <ele>426.96</ele>
        <time>2014-03-30T14:33:46Z</time>
      </trkpt>
      <trkpt lat="45.54107" lon="6.0042">
        <ele>426.48</ele>
        <time>2014-03-30T14:33:47Z</time>
      </trkpt>
      <trkpt lat="45.54113" lon="6.00414">
        <ele>426.48</ele>
        <time>2014-03-30T14:33:48Z</time>
      </trkpt>
      <trkpt lat="45.5413" lon="6.00398">
        <ele>425.04</ele>
        <time>2014-03-30T14:33:51Z</time>
      </trkpt>
      <trkpt lat="45.54135" lon="6.00391">
        <ele>424.56</ele>
        <time>2014-03-30T14:33:52Z</time>
      </trkpt>
      <trkpt lat="45.5414" lon="6.00385">
        <ele>423.6</ele>
        <time>2014-03-30T14:33:53Z</time>
      </trkpt>
      <trkpt lat="45.54144" lon="6.00377">
        <ele>422.16</ele>
        <time>2014-03-30T14:33:54Z</time>
      </trkpt>
      <trkpt lat="45.54147" lon="6.00369">
        <ele>421.68</ele>
        <time>2014-03-30T14:33:55Z</time>
      </trkpt>
      <trkpt lat="45.54156" lon="6.0035">
        <ele>419.75</ele>
        <time>2014-03-30T14:33:57Z</time>
      </trkpt>
      <trkpt lat="45.54166" lon="6.00324">
        <ele>417.83</ele>
        <time>2014-03-30T14:34:03Z</time>
      </trkpt>
      <trkpt lat="45.54165" lon="6.00322">
        <ele>417.83</ele>
        <time>2014-03-30T14:34:04Z</time>
      </trkpt>
      <trkpt lat="45.54159" lon="6.00315">
        <ele>416.87</ele>
        <time>2014-03-30T14:34:06Z</time>
      </trkpt>
      <trkpt lat="45.54154" lon="6.00309">
        <ele>415.91</ele>
        <time>2014-03-30T14:34:07Z</time>
      </trkpt>
      <trkpt lat="45.5415" lon="6.00302">
        <ele>416.39</ele>
        <time>2014-03-30T14:34:08Z</time>
      </trkpt>
      <trkpt lat="45.54147" lon="6.00293">
        <ele>415.43</ele>
        <time>2014-03-30T14:34:09Z</time>
      </trkpt>
      <trkpt lat="45.54144" lon="6.00284">
        <ele>415.43</ele>
        <time>2014-03-30T14:34:10Z</time>
      </trkpt>
      <trkpt lat="45.54141" lon="6.00277">
        <ele>414.95</ele>
        <time>2014-03-30T14:34:11Z</time>
      </trkpt>
      <trkpt lat="45.54138" lon="6.0027">
        <ele>413.98</ele>
        <time>2014-03-30T14:34:12Z</time>
      </trkpt>
      <trkpt lat="45.54133" lon="6.00263">
        <ele>413.5</ele>
        <time>2014-03-30T14:34:13Z</time>
      </trkpt>
      <trkpt lat="45.54126" lon="6.00257">
        <ele>413.02</ele>
        <time>2014-03-30T14:34:14Z</time>
      </trkpt>
      <trkpt lat="45.54119" lon="6.00252">
        <ele>411.58</ele>
        <time>2014-03-30T14:34:15Z</time>
      </trkpt>
      <trkpt lat="45.54112" lon="6.00248">
        <ele>410.62</ele>
        <time>2014-03-30T14:34:16Z</time>
      </trkpt>
      <trkpt lat="45.54104" lon="6.00243">
        <ele>409.18</ele>
        <time>2014-03-30T14:34:17Z</time>
      </trkpt>
      <trkpt lat="45.54096" lon="6.00238">
        <ele>408.7</ele>
        <time>2014-03-30T14:34:18Z</time>
      </trkpt>
      <trkpt lat="45.54081" lon="6.00228">
        <ele>407.74</ele>
        <time>2014-03-30T14:34:20Z</time>
      </trkpt>
      <trkpt lat="45.54075" lon="6.00221">
        <ele>408.22</ele>
        <time>2014-03-30T14:34:21Z</time>
      </trkpt>
      <trkpt lat="45.54069" lon="6.00214">
        <ele>407.74</ele>
        <time>2014-03-30T14:34:22Z</time>
      </trkpt>
      <trkpt lat="45.54052" lon="6.00188">
        <ele>404.85</ele>
        <time>2014-03-30T14:34:25Z</time>
      </trkpt>
      <trkpt lat="45.54038" lon="6.00173">
        <ele>402.45</ele>
        <time>2014-03-30T14:34:27Z</time>
      </trkpt>
      <trkpt lat="45.54031" lon="6.00167">
        <ele>402.93</ele>
        <time>2014-03-30T14:34:28Z</time>
      </trkpt>
      <trkpt lat="45.54011" lon="6.0015">
        <ele>401.01</ele>
        <time>2014-03-30T14:34:31Z</time>
      </trkpt>
      <trkpt lat="45.54007" lon="6.00144">
        <ele>399.57</ele>
        <time>2014-03-30T14:34:32Z</time>
      </trkpt>
      <trkpt lat="45.54003" lon="6.00136">
        <ele>399.08</ele>
        <time>2014-03-30T14:34:33Z</time>
      </trkpt>
      <trkpt lat="45.53991" lon="6.00099">
        <ele>395.72</ele>
        <time>2014-03-30T14:34:37Z</time>
      </trkpt>
      <trkpt lat="45.53988" lon="6.00089">
        <ele>394.76</ele>
        <time>2014-03-30T14:34:38Z</time>
      </trkpt>
      <trkpt lat="45.5398" lon="6.00058">
        <ele>392.84</ele>
        <time>2014-03-30T14:34:41Z</time>
      </trkpt>
      <trkpt lat="45.53962" lon="6.00018">
        <ele>389.95</ele>
        <time>2014-03-30T14:34:47Z</time>
      </trkpt>
      <trkpt lat="45.53958" lon="6.00012">
        <ele>389.47</ele>
        <time>2014-03-30T14:34:48Z</time>
      </trkpt>
      <trkpt lat="45.53954" lon="6.00005">
        <ele>388.99</ele>
        <time>2014-03-30T14:34:49Z</time>
      </trkpt>
      <trkpt lat="45.5395" lon="5.99997">
        <ele>388.99</ele>
        <time>2014-03-30T14:34:50Z</time>
      </trkpt>
      <trkpt lat="45.53944" lon="5.99983">
        <ele>387.55</ele>
        <time>2014-03-30T14:34:52Z</time>
      </trkpt>
      <trkpt lat="45.53942" lon="5.99978">
        <ele>386.59</ele>
        <time>2014-03-30T14:34:53Z</time>
      </trkpt>
      <trkpt lat="45.53931" lon="5.99944">
        <ele>383.22</ele>
        <time>2014-03-30T14:34:58Z</time>
      </trkpt>
      <trkpt lat="45.53916" lon="5.99932">
        <ele>380.34</ele>
        <time>2014-03-30T14:35:05Z</time>
      </trkpt>
      <trkpt lat="45.53914" lon="5.9993">
        <ele>379.86</ele>
        <time>2014-03-30T14:35:06Z</time>
      </trkpt>
      <trkpt lat="45.53904" lon="5.99919">
        <ele>376.49</ele>
        <time>2014-03-30T14:35:09Z</time>
      </trkpt>
      <trkpt lat="45.53902" lon="5.99916">
        <ele>376.01</ele>
        <time>2014-03-30T14:35:10Z</time>
      </trkpt>
      <trkpt lat="45.53897" lon="5.99912">
        <ele>375.53</ele>
        <time>2014-03-30T14:35:11Z</time>
      </trkpt>
      <trkpt lat="45.53887" lon="5.99903">
        <ele>374.09</ele>
        <time>2014-03-30T14:35:13Z</time>
      </trkpt>
      <trkpt lat="45.53867" lon="5.99879">
        <ele>372.65</ele>
        <time>2014-03-30T14:35:17Z</time>
      </trkpt>
      <trkpt lat="45.53862" lon="5.99872">
        <ele>372.17</ele>
        <time>2014-03-30T14:35:18Z</time>
      </trkpt>
      <trkpt lat="45.53858" lon="5.99868">
        <ele>371.69</ele>
        <time>2014-03-30T14:35:19Z</time>
      </trkpt>
      <trkpt lat="45.53858" lon="5.99865">
        <ele>371.21</ele>
        <time>2014-03-30T14:35:29Z</time>
      </trkpt>
      <trkpt lat="45.53865" lon="5.99852">
        <ele>369.76</ele>
        <time>2014-03-30T14:35:35Z</time>
      </trkpt>
      <trkpt lat="45.53861" lon="5.99836">
        <ele>368.32</ele>
        <time>2014-03-30T14:35:39Z</time>
      </trkpt>
      <trkpt lat="45.53859" lon="5.99831">
        <ele>367.84</ele>
        <time>2014-03-30T14:35:40Z</time>
      </trkpt>
      <trkpt lat="45.53855" lon="5.99806">
        <ele>366.4</ele>
        <time>2014-03-30T14:35:48Z</time>
      </trkpt>
      <trkpt lat="45.53856" lon="5.99803">
        <ele>366.88</ele>
        <time>2014-03-30T14:35:49Z</time>
      </trkpt>
      <trkpt lat="45.53858" lon="5.99801">
        <ele>366.88</ele>
        <time>2014-03-30T14:35:50Z</time>
      </trkpt>
      <trkpt lat="45.5386" lon="5.99798">
        <ele>366.88</ele>
        <time>2014-03-30T14:35:51Z</time>
      </trkpt>
      <trkpt lat="45.53861" lon="5.99795">
        <ele>366.4</ele>
        <time>2014-03-30T14:35:52Z</time>
      </trkpt>
      <trkpt lat="45.53862" lon="5.99791">
        <ele>366.4</ele>
        <time>2014-03-30T14:35:53Z</time>
      </trkpt>
      <trkpt lat="45.53864" lon="5.99787">
        <ele>366.4</ele>
        <time>2014-03-30T14:35:54Z</time>
      </trkpt>
      <trkpt lat="45.53865" lon="5.99784">
        <ele>366.88</ele>
        <time>2014-03-30T14:35:55Z</time>
      </trkpt>
      <trkpt lat="45.53866" lon="5.99781">
        <ele>367.36</ele>
        <time>2014-03-30T14:35:56Z</time>
      </trkpt>
      <trkpt lat="45.53867" lon="5.99778">
        <ele>367.84</ele>
        <time>2014-03-30T14:35:57Z</time>
      </trkpt>
      <trkpt lat="45.53878" lon="5.99761">
        <ele>370.24</ele>
        <time>2014-03-30T14:36:04Z</time>
      </trkpt>
      <trkpt lat="45.53881" lon="5.9976">
        <ele>369.76</ele>
        <time>2014-03-30T14:36:05Z</time>
      </trkpt>
      <trkpt lat="45.53884" lon="5.99758">
        <ele>370.73</ele>
        <time>2014-03-30T14:36:06Z</time>
      </trkpt>
      <trkpt lat="45.53887" lon="5.99756">
        <ele>370.24</ele>
        <time>2014-03-30T14:36:07Z</time>
      </trkpt>
      <trkpt lat="45.5389" lon="5.99753">
        <ele>370.24</ele>
        <time>2014-03-30T14:36:08Z</time>
      </trkpt>
      <trkpt lat="45.53891" lon="5.9975">
        <ele>370.24</ele>
        <time>2014-03-30T14:36:09Z</time>
      </trkpt>
      <trkpt lat="45.53893" lon="5.99746">
        <ele>370.24</ele>
        <time>2014-03-30T14:36:10Z</time>
      </trkpt>
      <trkpt lat="45.53894" lon="5.99743">
        <ele>370.24</ele>
        <time>2014-03-30T14:36:11Z</time>
      </trkpt>
      <trkpt lat="45.53896" lon="5.99732">
        <ele>370.24</ele>
        <time>2014-03-30T14:36:16Z</time>
      </trkpt>
      <trkpt lat="45.53897" lon="5.99729">
        <ele>370.24</ele>
        <time>2014-03-30T14:36:17Z</time>
      </trkpt>
      <trkpt lat="45.53898" lon="5.99724">
        <ele>370.24</ele>
        <time>2014-03-30T14:36:18Z</time>
      </trkpt>
      <trkpt lat="45.53898" lon="5.9972">
        <ele>369.28</ele>
        <time>2014-03-30T14:36:19Z</time>
      </trkpt>
      <trkpt lat="45.53899" lon="5.99714">
        <ele>369.28</ele>
        <time>2014-03-30T14:36:20Z</time>
      </trkpt>
      <trkpt lat="45.539" lon="5.99708">
        <ele>368.8</ele>
        <time>2014-03-30T14:36:21Z</time>
      </trkpt>
      <trkpt lat="45.53901" lon="5.99679">
        <ele>364.48</ele>
        <time>2014-03-30T14:36:25Z</time>
      </trkpt>
      <trkpt lat="45.53901" lon="5.99672">
        <ele>363.52</ele>
        <time>2014-03-30T14:36:26Z</time>
      </trkpt>
      <trkpt lat="45.53901" lon="5.99664">
        <ele>362.55</ele>
        <time>2014-03-30T14:36:27Z</time>
      </trkpt>
      <trkpt lat="45.53903" lon="5.99656">
        <ele>361.59</ele>
        <time>2014-03-30T14:36:28Z</time>
      </trkpt>
      <trkpt lat="45.53905" lon="5.99651">
        <ele>361.59</ele>
        <time>2014-03-30T14:36:29Z</time>
      </trkpt>
      <trkpt lat="45.53904" lon="5.99648">
        <ele>361.11</ele>
        <time>2014-03-30T14:36:30Z</time>
      </trkpt>
      <trkpt lat="45.53903" lon="5.99648">
        <ele>361.11</ele>
        <time>2014-03-30T14:36:31Z</time>
      </trkpt>
      <trkpt lat="45.53898" lon="5.99649">
        <ele>360.63</ele>
        <time>2014-03-30T14:36:33Z</time>
      </trkpt>
      <trkpt lat="45.53885" lon="5.99651">
        <ele>358.71</ele>
        <time>2014-03-30T14:36:36Z</time>
      </trkpt>
      <trkpt lat="45.5386" lon="5.99652">
        <ele>358.71</ele>
        <time>2014-03-30T14:36:42Z</time>
      </trkpt>
      <trkpt lat="45.53855" lon="5.9964">
        <ele>358.23</ele>
        <time>2014-03-30T14:36:46Z</time>
      </trkpt>
      <trkpt lat="45.53854" lon="5.9963">
        <ele>357.27</ele>
        <time>2014-03-30T14:36:48Z</time>
      </trkpt>
      <trkpt lat="45.53844" lon="5.99573">
        <ele>355.34</ele>
        <time>2014-03-30T14:36:56Z</time>
      </trkpt>
      <trkpt lat="45.53843" lon="5.99565">
        <ele>354.38</ele>
        <time>2014-03-30T14:36:57Z</time>
      </trkpt>
      <trkpt lat="45.53843" lon="5.99557">
        <ele>354.38</ele>
        <time>2014-03-30T14:36:58Z</time>
      </trkpt>
      <trkpt lat="45.53844" lon="5.99523">
        <ele>352.94</ele>
        <time>2014-03-30T14:37:02Z</time>
      </trkpt>
      <trkpt lat="45.53843" lon="5.99514">
        <ele>352.94</ele>
        <time>2014-03-30T14:37:03Z</time>
      </trkpt>
      <trkpt lat="45.53841" lon="5.99506">
        <ele>351.98</ele>
        <time>2014-03-30T14:37:04Z</time>
      </trkpt>
      <trkpt lat="45.53839" lon="5.99498">
        <ele>352.46</ele>
        <time>2014-03-30T14:37:05Z</time>
      </trkpt>
      <trkpt lat="45.53836" lon="5.9949">
        <ele>351.98</ele>
        <time>2014-03-30T14:37:06Z</time>
      </trkpt>
      <trkpt lat="45.53834" lon="5.99481">
        <ele>351.5</ele>
        <time>2014-03-30T14:37:07Z</time>
      </trkpt>
      <trkpt lat="45.53833" lon="5.99472">
        <ele>350.54</ele>
        <time>2014-03-30T14:37:08Z</time>
      </trkpt>
      <trkpt lat="45.53833" lon="5.99464">
        <ele>351.02</ele>
        <time>2014-03-30T14:37:09Z</time>
      </trkpt>
      <trkpt lat="45.53833" lon="5.99456">
        <ele>350.54</ele>
        <time>2014-03-30T14:37:10Z</time>
      </trkpt>
      <trkpt lat="45.53833" lon="5.99448">
        <ele>350.54</ele>
        <time>2014-03-30T14:37:11Z</time>
      </trkpt>
      <trkpt lat="45.53835" lon="5.99433">
        <ele>350.06</ele>
        <time>2014-03-30T14:37:13Z</time>
      </trkpt>
      <trkpt lat="45.53837" lon="5.99425">
        <ele>350.06</ele>
        <time>2014-03-30T14:37:14Z</time>
      </trkpt>
      <trkpt lat="45.53838" lon="5.99416">
        <ele>349.58</ele>
        <time>2014-03-30T14:37:15Z</time>
      </trkpt>
      <trkpt lat="45.53851" lon="5.99368">
        <ele>348.13</ele>
        <time>2014-03-30T14:37:21Z</time>
      </trkpt>
      <trkpt lat="45.53854" lon="5.9936">
        <ele>348.13</ele>
        <time>2014-03-30T14:37:22Z</time>
      </trkpt>
      <trkpt lat="45.53864" lon="5.99332">
        <ele>347.17</ele>
        <time>2014-03-30T14:37:26Z</time>
      </trkpt>
      <trkpt lat="45.53874" lon="5.99306">
        <ele>347.17</ele>
        <time>2014-03-30T14:37:34Z</time>
      </trkpt>
      <trkpt lat="45.53874" lon="5.99305">
        <ele>347.17</ele>
        <time>2014-03-30T14:37:50Z</time>
      </trkpt>
      <trkpt lat="45.53874" lon="5.99305">
        <ele>347.65</ele>
        <time>2014-03-30T14:38:08Z</time>
      </trkpt>
      <trkpt lat="45.53874" lon="5.99305">
        <ele>347.17</ele>
        <time>2014-03-30T14:38:18Z</time>
      </trkpt>
      <trkpt lat="45.53872" lon="5.99303">
        <ele>347.17</ele>
        <time>2014-03-30T14:38:19Z</time>
      </trkpt>
      <trkpt lat="45.5387" lon="5.99302">
        <ele>346.69</ele>
        <time>2014-03-30T14:38:20Z</time>
      </trkpt>
      <trkpt lat="45.53867" lon="5.99301">
        <ele>346.69</ele>
        <time>2014-03-30T14:38:21Z</time>
      </trkpt>
      <trkpt lat="45.53864" lon="5.993">
        <ele>346.69</ele>
        <time>2014-03-30T14:38:22Z</time>
      </trkpt>
      <trkpt lat="45.53861" lon="5.99298">
        <ele>346.69</ele>
        <time>2014-03-30T14:38:23Z</time>
      </trkpt>
      <trkpt lat="45.53858" lon="5.99294">
        <ele>346.69</ele>
        <time>2014-03-30T14:38:24Z</time>
      </trkpt>
      <trkpt lat="45.53856" lon="5.99289">
        <ele>346.21</ele>
        <time>2014-03-30T14:38:25Z</time>
      </trkpt>
      <trkpt lat="45.53854" lon="5.99284">
        <ele>345.73</ele>
        <time>2014-03-30T14:38:26Z</time>
      </trkpt>
      <trkpt lat="45.53828" lon="5.99213">
        <ele>342.37</ele>
        <time>2014-03-30T14:38:37Z</time>
      </trkpt>
      <trkpt lat="45.53823" lon="5.99196">
        <ele>341.41</ele>
        <time>2014-03-30T14:38:39Z</time>
      </trkpt>
      <trkpt lat="45.5381" lon="5.99141">
        <ele>340.44</ele>
        <time>2014-03-30T14:38:46Z</time>
      </trkpt>
      <trkpt lat="45.53808" lon="5.99135">
        <ele>339.96</ele>
        <time>2014-03-30T14:38:47Z</time>
      </trkpt>
      <trkpt lat="45.53804" lon="5.99131">
        <ele>340.44</ele>
        <time>2014-03-30T14:38:48Z</time>
      </trkpt>
      <trkpt lat="45.53798" lon="5.9913">
        <ele>339.96</ele>
        <time>2014-03-30T14:38:49Z</time>
      </trkpt>
      <trkpt lat="45.53793" lon="5.99132">
        <ele>339.96</ele>
        <time>2014-03-30T14:38:50Z</time>
      </trkpt>
      <trkpt lat="45.53788" lon="5.99135">
        <ele>340.92</ele>
        <time>2014-03-30T14:38:51Z</time>
      </trkpt>
      <trkpt lat="45.53764" lon="5.99149">
        <ele>340.44</ele>
        <time>2014-03-30T14:38:56Z</time>
      </trkpt>
      <trkpt lat="45.53682" lon="5.99196">
        <ele>339.48</ele>
        <time>2014-03-30T14:39:12Z</time>
      </trkpt>
      <trkpt lat="45.53662" lon="5.99205">
        <ele>339.48</ele>
        <time>2014-03-30T14:39:16Z</time>
      </trkpt>
      <trkpt lat="45.53658" lon="5.99204">
        <ele>339.48</ele>
        <time>2014-03-30T14:39:17Z</time>
      </trkpt>
      <trkpt lat="45.53655" lon="5.99201">
        <ele>339</ele>
        <time>2014-03-30T14:39:18Z</time>
      </trkpt>
      <trkpt lat="45.53652" lon="5.99195">
        <ele>338.52</ele>
        <time>2014-03-30T14:39:19Z</time>
      </trkpt>
      <trkpt lat="45.53651" lon="5.9919">
        <ele>338.04</ele>
        <time>2014-03-30T14:39:20Z</time>
      </trkpt>
      <trkpt lat="45.53651" lon="5.99185">
        <ele>338.04</ele>
        <time>2014-03-30T14:39:21Z</time>
      </trkpt>
      <trkpt lat="45.53651" lon="5.99181">
        <ele>338.52</ele>
        <time>2014-03-30T14:39:22Z</time>
      </trkpt>
      <trkpt lat="45.53651" lon="5.99177">
        <ele>338.52</ele>
        <time>2014-03-30T14:39:23Z</time>
      </trkpt>
      <trkpt lat="45.5365" lon="5.99174">
        <ele>338.52</ele>
        <time>2014-03-30T14:39:24Z</time>
      </trkpt>
      <trkpt lat="45.53649" lon="5.99171">
        <ele>338.52</ele>
        <time>2014-03-30T14:39:25Z</time>
      </trkpt>
      <trkpt lat="45.53647" lon="5.99167">
        <ele>338.52</ele>
        <time>2014-03-30T14:39:26Z</time>
      </trkpt>
      <trkpt lat="45.53645" lon="5.99164">
        <ele>338.52</ele>
        <time>2014-03-30T14:39:27Z</time>
      </trkpt>
      <trkpt lat="45.53643" lon="5.9916">
        <ele>338.04</ele>
        <time>2014-03-30T14:39:28Z</time>
      </trkpt>
      <trkpt lat="45.53642" lon="5.99157">
        <ele>338.52</ele>
        <time>2014-03-30T14:39:29Z</time>
      </trkpt>
      <trkpt lat="45.53613" lon="5.99129">
        <ele>340.92</ele>
        <time>2014-03-30T14:39:42Z</time>
      </trkpt>
      <trkpt lat="45.53573" lon="5.99114">
        <ele>341.89</ele>
        <time>2014-03-30T14:39:55Z</time>
      </trkpt>
      <trkpt lat="45.53524" lon="5.99099">
        <ele>344.29</ele>
        <time>2014-03-30T14:40:11Z</time>
      </trkpt>
      <trkpt lat="45.53486" lon="5.99086">
        <ele>347.17</ele>
        <time>2014-03-30T14:40:25Z</time>
      </trkpt>
      <trkpt lat="45.53456" lon="5.99064">
        <ele>349.58</ele>
        <time>2014-03-30T14:40:39Z</time>
      </trkpt>
      <trkpt lat="45.53431" lon="5.99051">
        <ele>352.46</ele>
        <time>2014-03-30T14:40:52Z</time>
      </trkpt>
      <trkpt lat="45.53434" lon="5.99049">
        <ele>352.46</ele>
        <time>2014-03-30T14:40:55Z</time>
      </trkpt>
      <trkpt lat="45.53441" lon="5.9905">
        <ele>352.46</ele>
        <time>2014-03-30T14:40:58Z</time>
      </trkpt>
      <trkpt lat="45.53457" lon="5.99038">
        <ele>353.9</ele>
        <time>2014-03-30T14:41:08Z</time>
      </trkpt>
      <trkpt lat="45.53458" lon="5.99038">
        <ele>354.38</ele>
        <time>2014-03-30T14:41:09Z</time>
      </trkpt>
      <trkpt lat="45.5347" lon="5.99041">
        <ele>356.79</ele>
        <time>2014-03-30T14:41:18Z</time>
      </trkpt>
      <trkpt lat="45.53471" lon="5.99042">
        <ele>356.79</ele>
        <time>2014-03-30T14:41:19Z</time>
      </trkpt>
      <trkpt lat="45.53472" lon="5.99042">
        <ele>356.79</ele>
        <time>2014-03-30T14:41:20Z</time>
      </trkpt>
      <trkpt lat="45.53474" lon="5.99042">
        <ele>357.27</ele>
        <time>2014-03-30T14:41:21Z</time>
      </trkpt>
      <trkpt lat="45.53476" lon="5.99042">
        <ele>357.27</ele>
        <time>2014-03-30T14:41:22Z</time>
      </trkpt>
      <trkpt lat="45.53478" lon="5.99042">
        <ele>357.75</ele>
        <time>2014-03-30T14:41:23Z</time>
      </trkpt>
      <trkpt lat="45.53501" lon="5.99037">
        <ele>361.11</ele>
        <time>2014-03-30T14:41:40Z</time>
      </trkpt>
      <trkpt lat="45.53516" lon="5.99029">
        <ele>364</ele>
        <time>2014-03-30T14:41:53Z</time>
      </trkpt>
      <trkpt lat="45.53527" lon="5.99024">
        <ele>366.88</ele>
        <time>2014-03-30T14:42:06Z</time>
      </trkpt>
      <trkpt lat="45.53531" lon="5.99012">
        <ele>370.24</ele>
        <time>2014-03-30T14:42:20Z</time>
      </trkpt>
      <trkpt lat="45.53525" lon="5.99002">
        <ele>372.17</ele>
        <time>2014-03-30T14:42:34Z</time>
      </trkpt>
      <trkpt lat="45.53523" lon="5.98997">
        <ele>373.13</ele>
        <time>2014-03-30T14:42:47Z</time>
      </trkpt>
      <trkpt lat="45.53522" lon="5.98996">
        <ele>373.61</ele>
        <time>2014-03-30T14:42:49Z</time>
      </trkpt>
      <trkpt lat="45.53521" lon="5.98995">
        <ele>374.57</ele>
        <time>2014-03-30T14:42:50Z</time>
      </trkpt>
      <trkpt lat="45.5352" lon="5.98994">
        <ele>374.57</ele>
        <time>2014-03-30T14:42:51Z</time>
      </trkpt>
      <trkpt lat="45.53519" lon="5.98993">
        <ele>375.05</ele>
        <time>2014-03-30T14:42:52Z</time>
      </trkpt>
      <trkpt lat="45.53514" lon="5.98982">
        <ele>377.45</ele>
        <time>2014-03-30T14:43:06Z</time>
      </trkpt>
      <trkpt lat="45.53512" lon="5.98967">
        <ele>379.38</ele>
        <time>2014-03-30T14:43:17Z</time>
      </trkpt>
      <trkpt lat="45.53508" lon="5.98952">
        <ele>379.86</ele>
        <time>2014-03-30T14:43:28Z</time>
      </trkpt>
      <trkpt lat="45.53497" lon="5.98905">
        <ele>379.86</ele>
        <time>2014-03-30T14:43:40Z</time>
      </trkpt>
      <trkpt lat="45.53486" lon="5.98841">
        <ele>376.97</ele>
        <time>2014-03-30T14:43:55Z</time>
      </trkpt>
      <trkpt lat="45.53486" lon="5.9884">
        <ele>376.97</ele>
        <time>2014-03-30T14:44:10Z</time>
      </trkpt>
      <trkpt lat="45.53487" lon="5.98839">
        <ele>376.97</ele>
        <time>2014-03-30T14:44:11Z</time>
      </trkpt>
      <trkpt lat="45.53489" lon="5.98837">
        <ele>376.01</ele>
        <time>2014-03-30T14:44:12Z</time>
      </trkpt>
      <trkpt lat="45.53492" lon="5.98834">
        <ele>376.01</ele>
        <time>2014-03-30T14:44:13Z</time>
      </trkpt>
      <trkpt lat="45.53495" lon="5.9883">
        <ele>375.53</ele>
        <time>2014-03-30T14:44:14Z</time>
      </trkpt>
      <trkpt lat="45.5351" lon="5.9881">
        <ele>375.05</ele>
        <time>2014-03-30T14:44:18Z</time>
      </trkpt>
      <trkpt lat="45.53519" lon="5.98799">
        <ele>374.57</ele>
        <time>2014-03-30T14:44:20Z</time>
      </trkpt>
      <trkpt lat="45.53561" lon="5.98764">
        <ele>371.69</ele>
        <time>2014-03-30T14:44:27Z</time>
      </trkpt>
      <trkpt lat="45.53592" lon="5.98744">
        <ele>371.69</ele>
        <time>2014-03-30T14:44:32Z</time>
      </trkpt>
      <trkpt lat="45.53619" lon="5.98715">
        <ele>372.65</ele>
        <time>2014-03-30T14:44:38Z</time>
      </trkpt>
      <trkpt lat="45.53625" lon="5.98703">
        <ele>372.65</ele>
        <time>2014-03-30T14:44:40Z</time>
      </trkpt>
      <trkpt lat="45.53634" lon="5.98689">
        <ele>373.61</ele>
        <time>2014-03-30T14:44:43Z</time>
      </trkpt>
      <trkpt lat="45.53637" lon="5.98684">
        <ele>374.09</ele>
        <time>2014-03-30T14:44:44Z</time>
      </trkpt>
      <trkpt lat="45.5364" lon="5.9868">
        <ele>373.61</ele>
        <time>2014-03-30T14:44:45Z</time>
      </trkpt>
      <trkpt lat="45.53643" lon="5.98676">
        <ele>374.09</ele>
        <time>2014-03-30T14:44:46Z</time>
      </trkpt>
      <trkpt lat="45.53647" lon="5.98672">
        <ele>374.09</ele>
        <time>2014-03-30T14:44:47Z</time>
      </trkpt>
      <trkpt lat="45.5365" lon="5.98669">
        <ele>374.09</ele>
        <time>2014-03-30T14:44:48Z</time>
      </trkpt>
      <trkpt lat="45.53654" lon="5.98667">
        <ele>375.05</ele>
        <time>2014-03-30T14:44:49Z</time>
      </trkpt>
      <trkpt lat="45.53689" lon="5.98629">
        <ele>375.53</ele>
        <time>2014-03-30T14:45:00Z</time>
      </trkpt>
      <trkpt lat="45.53693" lon="5.98626">
        <ele>375.05</ele>
        <time>2014-03-30T14:45:01Z</time>
      </trkpt>
      <trkpt lat="45.53727" lon="5.98609">
        <ele>376.01</ele>
        <time>2014-03-30T14:45:09Z</time>
      </trkpt>
      <trkpt lat="45.53781" lon="5.98582">
        <ele>376.49</ele>
        <time>2014-03-30T14:45:22Z</time>
      </trkpt>
      <trkpt lat="45.53784" lon="5.98578">
        <ele>376.97</ele>
        <time>2014-03-30T14:45:23Z</time>
      </trkpt>
      <trkpt lat="45.53785" lon="5.98572">
        <ele>376.97</ele>
        <time>2014-03-30T14:45:24Z</time>
      </trkpt>
      <trkpt lat="45.53785" lon="5.98565">
        <ele>376.97</ele>
        <time>2014-03-30T14:45:25Z</time>
      </trkpt>
      <trkpt lat="45.53785" lon="5.98559">
        <ele>376.97</ele>
        <time>2014-03-30T14:45:26Z</time>
      </trkpt>
      <trkpt lat="45.53784" lon="5.98546">
        <ele>376.97</ele>
        <time>2014-03-30T14:45:28Z</time>
      </trkpt>
      <trkpt lat="45.53785" lon="5.98539">
        <ele>376.97</ele>
        <time>2014-03-30T14:45:29Z</time>
      </trkpt>
      <trkpt lat="45.53786" lon="5.98532">
        <ele>376.97</ele>
        <time>2014-03-30T14:45:30Z</time>
      </trkpt>
      <trkpt lat="45.53788" lon="5.98526">
        <ele>376.97</ele>
        <time>2014-03-30T14:45:31Z</time>
      </trkpt>
      <trkpt lat="45.5379" lon="5.98521">
        <ele>376.49</ele>
        <time>2014-03-30T14:45:32Z</time>
      </trkpt>
      <trkpt lat="45.53794" lon="5.98515">
        <ele>376.49</ele>
        <time>2014-03-30T14:45:33Z</time>
      </trkpt>
      <trkpt lat="45.53822" lon="5.98477">
        <ele>375.05</ele>
        <time>2014-03-30T14:45:40Z</time>
      </trkpt>
      <trkpt lat="45.53825" lon="5.98471">
        <ele>375.05</ele>
        <time>2014-03-30T14:45:41Z</time>
      </trkpt>
      <trkpt lat="45.53827" lon="5.98464">
        <ele>375.05</ele>
        <time>2014-03-30T14:45:42Z</time>
      </trkpt>
      <trkpt lat="45.53829" lon="5.98457">
        <ele>375.05</ele>
        <time>2014-03-30T14:45:43Z</time>
      </trkpt>
      <trkpt lat="45.53829" lon="5.9845">
        <ele>375.05</ele>
        <time>2014-03-30T14:45:44Z</time>
      </trkpt>
      <trkpt lat="45.53829" lon="5.98442">
        <ele>375.53</ele>
        <time>2014-03-30T14:45:45Z</time>
      </trkpt>
      <trkpt lat="45.53828" lon="5.98435">
        <ele>375.53</ele>
        <time>2014-03-30T14:45:46Z</time>
      </trkpt>
      <trkpt lat="45.53818" lon="5.98398">
        <ele>378.9</ele>
        <time>2014-03-30T14:45:55Z</time>
      </trkpt>
      <trkpt lat="45.53818" lon="5.98395">
        <ele>378.9</ele>
        <time>2014-03-30T14:45:56Z</time>
      </trkpt>
      <trkpt lat="45.53798" lon="5.9837">
        <ele>382.26</ele>
        <time>2014-03-30T14:46:09Z</time>
      </trkpt>
      <trkpt lat="45.53762" lon="5.98356">
        <ele>383.22</ele>
        <time>2014-03-30T14:46:22Z</time>
      </trkpt>
      <trkpt lat="45.53753" lon="5.9836">
        <ele>383.7</ele>
        <time>2014-03-30T14:46:26Z</time>
      </trkpt>
      <trkpt lat="45.53732" lon="5.98357">
        <ele>384.66</ele>
        <time>2014-03-30T14:46:35Z</time>
      </trkpt>
      <trkpt lat="45.53729" lon="5.9836">
        <ele>384.66</ele>
        <time>2014-03-30T14:46:42Z</time>
      </trkpt>
      <trkpt lat="45.5372" lon="5.98362">
        <ele>385.15</ele>
        <time>2014-03-30T14:46:46Z</time>
      </trkpt>
      <trkpt lat="45.53713" lon="5.98373">
        <ele>386.59</ele>
        <time>2014-03-30T14:46:51Z</time>
      </trkpt>
      <trkpt lat="45.53703" lon="5.98376">
        <ele>386.59</ele>
        <time>2014-03-30T14:46:56Z</time>
      </trkpt>
      <trkpt lat="45.53667" lon="5.98376">
        <ele>383.7</ele>
        <time>2014-03-30T14:47:08Z</time>
      </trkpt>
      <trkpt lat="45.5366" lon="5.98376">
        <ele>381.78</ele>
        <time>2014-03-30T14:47:10Z</time>
      </trkpt>
      <trkpt lat="45.53644" lon="5.98381">
        <ele>379.86</ele>
        <time>2014-03-30T14:47:16Z</time>
      </trkpt>
      <trkpt lat="45.53619" lon="5.98386">
        <ele>376.49</ele>
        <time>2014-03-30T14:47:26Z</time>
      </trkpt>
      <trkpt lat="45.53575" lon="5.98382">
        <ele>378.9</ele>
        <time>2014-03-30T14:47:38Z</time>
      </trkpt>
      <trkpt lat="45.53544" lon="5.98391">
        <ele>380.82</ele>
        <time>2014-03-30T14:47:49Z</time>
      </trkpt>
      <trkpt lat="45.53503" lon="5.98396">
        <ele>378.9</ele>
        <time>2014-03-30T14:48:00Z</time>
      </trkpt>
      <trkpt lat="45.53463" lon="5.98394">
        <ele>377.45</ele>
        <time>2014-03-30T14:48:11Z</time>
      </trkpt>
      <trkpt lat="45.53456" lon="5.98392">
        <ele>377.94</ele>
        <time>2014-03-30T14:48:14Z</time>
      </trkpt>
      <trkpt lat="45.53428" lon="5.98392">
        <ele>375.05</ele>
        <time>2014-03-30T14:48:27Z</time>
      </trkpt>
      <trkpt lat="45.53423" lon="5.98376">
        <ele>372.17</ele>
        <time>2014-03-30T14:48:39Z</time>
      </trkpt>
      <trkpt lat="45.53414" lon="5.98377">
        <ele>370.24</ele>
        <time>2014-03-30T14:48:44Z</time>
      </trkpt>
      <trkpt lat="45.53407" lon="5.98384">
        <ele>370.73</ele>
        <time>2014-03-30T14:48:59Z</time>
      </trkpt>
      <trkpt lat="45.53405" lon="5.98383">
        <ele>369.28</ele>
        <time>2014-03-30T14:49:01Z</time>
      </trkpt>
      <trkpt lat="45.53409" lon="5.98367">
        <ele>365.44</ele>
        <time>2014-03-30T14:49:06Z</time>
      </trkpt>
      <trkpt lat="45.53418" lon="5.98357">
        <ele>363.52</ele>
        <time>2014-03-30T14:49:10Z</time>
      </trkpt>
      <trkpt lat="45.53445" lon="5.98334">
        <ele>359.19</ele>
        <time>2014-03-30T14:49:18Z</time>
      </trkpt>
      <trkpt lat="45.53447" lon="5.98333">
        <ele>358.23</ele>
        <time>2014-03-30T14:49:19Z</time>
      </trkpt>
      <trkpt lat="45.53461" lon="5.98317">
        <ele>354.86</ele>
        <time>2014-03-30T14:49:22Z</time>
      </trkpt>
      <trkpt lat="45.53463" lon="5.98316">
        <ele>354.86</ele>
        <time>2014-03-30T14:49:23Z</time>
      </trkpt>
      <trkpt lat="45.53474" lon="5.98291">
        <ele>352.46</ele>
        <time>2014-03-30T14:49:27Z</time>
      </trkpt>
      <trkpt lat="45.53447" lon="5.98263">
        <ele>350.54</ele>
        <time>2014-03-30T14:49:36Z</time>
      </trkpt>
      <trkpt lat="45.53384" lon="5.98272">
        <ele>351.02</ele>
        <time>2014-03-30T14:49:45Z</time>
      </trkpt>
      <trkpt lat="45.53375" lon="5.98261">
        <ele>351.02</ele>
        <time>2014-03-30T14:49:50Z</time>
      </trkpt>
      <trkpt lat="45.53376" lon="5.98255">
        <ele>351.5</ele>
        <time>2014-03-30T14:49:51Z</time>
      </trkpt>
      <trkpt lat="45.53377" lon="5.98249">
        <ele>351.02</ele>
        <time>2014-03-30T14:49:52Z</time>
      </trkpt>
      <trkpt lat="45.53378" lon="5.98243">
        <ele>351.02</ele>
        <time>2014-03-30T14:49:53Z</time>
      </trkpt>
      <trkpt lat="45.53381" lon="5.98234">
        <ele>350.54</ele>
        <time>2014-03-30T14:49:54Z</time>
      </trkpt>
      <trkpt lat="45.53382" lon="5.98228">
        <ele>351.02</ele>
        <time>2014-03-30T14:49:55Z</time>
      </trkpt>
      <trkpt lat="45.53384" lon="5.98208">
        <ele>350.54</ele>
        <time>2014-03-30T14:49:58Z</time>
      </trkpt>
      <trkpt lat="45.53389" lon="5.98167">
        <ele>350.06</ele>
        <time>2014-03-30T14:50:04Z</time>
      </trkpt>
      <trkpt lat="45.53391" lon="5.9816">
        <ele>349.58</ele>
        <time>2014-03-30T14:50:05Z</time>
      </trkpt>
      <trkpt lat="45.53393" lon="5.98154">
        <ele>349.58</ele>
        <time>2014-03-30T14:50:06Z</time>
      </trkpt>
      <trkpt lat="45.53397" lon="5.98147">
        <ele>349.1</ele>
        <time>2014-03-30T14:50:07Z</time>
      </trkpt>
      <trkpt lat="45.534" lon="5.98141">
        <ele>349.1</ele>
        <time>2014-03-30T14:50:08Z</time>
      </trkpt>
      <trkpt lat="45.53404" lon="5.98134">
        <ele>348.13</ele>
        <time>2014-03-30T14:50:09Z</time>
      </trkpt>
      <trkpt lat="45.53407" lon="5.98126">
        <ele>347.65</ele>
        <time>2014-03-30T14:50:10Z</time>
      </trkpt>
      <trkpt lat="45.53408" lon="5.98116">
        <ele>347.17</ele>
        <time>2014-03-30T14:50:11Z</time>
      </trkpt>
      <trkpt lat="45.53409" lon="5.98107">
        <ele>347.17</ele>
        <time>2014-03-30T14:50:12Z</time>
      </trkpt>
      <trkpt lat="45.53409" lon="5.98097">
        <ele>346.69</ele>
        <time>2014-03-30T14:50:13Z</time>
      </trkpt>
      <trkpt lat="45.53408" lon="5.98087">
        <ele>346.69</ele>
        <time>2014-03-30T14:50:14Z</time>
      </trkpt>
      <trkpt lat="45.53407" lon="5.98077">
        <ele>346.21</ele>
        <time>2014-03-30T14:50:15Z</time>
      </trkpt>
      <trkpt lat="45.53406" lon="5.98066">
        <ele>345.73</ele>
        <time>2014-03-30T14:50:16Z</time>
      </trkpt>
      <trkpt lat="45.53402" lon="5.98024">
        <ele>343.81</ele>
        <time>2014-03-30T14:50:20Z</time>
      </trkpt>
      <trkpt lat="45.53402" lon="5.98014">
        <ele>343.81</ele>
        <time>2014-03-30T14:50:21Z</time>
      </trkpt>
      <trkpt lat="45.53412" lon="5.97944">
        <ele>341.89</ele>
        <time>2014-03-30T14:50:28Z</time>
      </trkpt>
      <trkpt lat="45.53412" lon="5.97935">
        <ele>341.41</ele>
        <time>2014-03-30T14:50:29Z</time>
      </trkpt>
      <trkpt lat="45.5341" lon="5.97926">
        <ele>341.41</ele>
        <time>2014-03-30T14:50:30Z</time>
      </trkpt>
      <trkpt lat="45.53408" lon="5.97918">
        <ele>341.41</ele>
        <time>2014-03-30T14:50:31Z</time>
      </trkpt>
      <trkpt lat="45.53406" lon="5.97911">
        <ele>340.92</ele>
        <time>2014-03-30T14:50:32Z</time>
      </trkpt>
      <trkpt lat="45.53401" lon="5.97899">
        <ele>340.92</ele>
        <time>2014-03-30T14:50:34Z</time>
      </trkpt>
      <trkpt lat="45.5339" lon="5.97883">
        <ele>340.92</ele>
        <time>2014-03-30T14:50:37Z</time>
      </trkpt>
      <trkpt lat="45.53386" lon="5.97879">
        <ele>340.92</ele>
        <time>2014-03-30T14:50:38Z</time>
      </trkpt>
      <trkpt lat="45.53378" lon="5.9787">
        <ele>341.89</ele>
        <time>2014-03-30T14:50:40Z</time>
      </trkpt>
      <trkpt lat="45.53334" lon="5.97839">
        <ele>342.85</ele>
        <time>2014-03-30T14:50:52Z</time>
      </trkpt>
      <trkpt lat="45.53317" lon="5.97824">
        <ele>341.41</ele>
        <time>2014-03-30T14:50:56Z</time>
      </trkpt>
      <trkpt lat="45.53313" lon="5.97819">
        <ele>341.41</ele>
        <time>2014-03-30T14:50:57Z</time>
      </trkpt>
      <trkpt lat="45.53309" lon="5.97814">
        <ele>340.44</ele>
        <time>2014-03-30T14:50:58Z</time>
      </trkpt>
      <trkpt lat="45.53305" lon="5.97807">
        <ele>340.44</ele>
        <time>2014-03-30T14:50:59Z</time>
      </trkpt>
      <trkpt lat="45.53303" lon="5.978">
        <ele>339.96</ele>
        <time>2014-03-30T14:51:00Z</time>
      </trkpt>
      <trkpt lat="45.53301" lon="5.97793">
        <ele>339.96</ele>
        <time>2014-03-30T14:51:01Z</time>
      </trkpt>
      <trkpt lat="45.53299" lon="5.97785">
        <ele>339</ele>
        <time>2014-03-30T14:51:02Z</time>
      </trkpt>
      <trkpt lat="45.53297" lon="5.97778">
        <ele>339.48</ele>
        <time>2014-03-30T14:51:03Z</time>
      </trkpt>
      <trkpt lat="45.53294" lon="5.97763">
        <ele>338.52</ele>
        <time>2014-03-30T14:51:05Z</time>
      </trkpt>
      <trkpt lat="45.53292" lon="5.97756">
        <ele>338.52</ele>
        <time>2014-03-30T14:51:06Z</time>
      </trkpt>
      <trkpt lat="45.53289" lon="5.9775">
        <ele>338.04</ele>
        <time>2014-03-30T14:51:07Z</time>
      </trkpt>
      <trkpt lat="45.53285" lon="5.97746">
        <ele>338.04</ele>
        <time>2014-03-30T14:51:08Z</time>
      </trkpt>
      <trkpt lat="45.5328" lon="5.97744">
        <ele>338.52</ele>
        <time>2014-03-30T14:51:09Z</time>
      </trkpt>
      <trkpt lat="45.53276" lon="5.97743">
        <ele>338.52</ele>
        <time>2014-03-30T14:51:10Z</time>
      </trkpt>
      <trkpt lat="45.53272" lon="5.97744">
        <ele>339</ele>
        <time>2014-03-30T14:51:11Z</time>
      </trkpt>
      <trkpt lat="45.53264" lon="5.97744">
        <ele>339</ele>
        <time>2014-03-30T14:51:13Z</time>
      </trkpt>
      <trkpt lat="45.53258" lon="5.97743">
        <ele>338.04</ele>
        <time>2014-03-30T14:51:14Z</time>
      </trkpt>
      <trkpt lat="45.53253" lon="5.97741">
        <ele>338.52</ele>
        <time>2014-03-30T14:51:15Z</time>
      </trkpt>
      <trkpt lat="45.53249" lon="5.97737">
        <ele>338.52</ele>
        <time>2014-03-30T14:51:16Z</time>
      </trkpt>
      <trkpt lat="45.53245" lon="5.97732">
        <ele>338.52</ele>
        <time>2014-03-30T14:51:17Z</time>
      </trkpt>
      <trkpt lat="45.53239" lon="5.97722">
        <ele>338.04</ele>
        <time>2014-03-30T14:51:19Z</time>
      </trkpt>
      <trkpt lat="45.53228" lon="5.97683">
        <ele>338.52</ele>
        <time>2014-03-30T14:51:26Z</time>
      </trkpt>
      <trkpt lat="45.53215" lon="5.97616">
        <ele>338.04</ele>
        <time>2014-03-30T14:51:40Z</time>
      </trkpt>
      <trkpt lat="45.53216" lon="5.97615">
        <ele>338.04</ele>
        <time>2014-03-30T14:51:50Z</time>
      </trkpt>
      <trkpt lat="45.53215" lon="5.97616">
        <ele>337.56</ele>
        <time>2014-03-30T14:52:27Z</time>
      </trkpt>
      <trkpt lat="45.53215" lon="5.97612">
        <ele>337.56</ele>
        <time>2014-03-30T14:52:43Z</time>
      </trkpt>
      <trkpt lat="45.53215" lon="5.97608">
        <ele>338.04</ele>
        <time>2014-03-30T14:52:44Z</time>
      </trkpt>
      <trkpt lat="45.53215" lon="5.97604">
        <ele>337.56</ele>
        <time>2014-03-30T14:52:45Z</time>
      </trkpt>
      <trkpt lat="45.53198" lon="5.9753">
        <ele>339</ele>
        <time>2014-03-30T14:53:00Z</time>
      </trkpt>
      <trkpt lat="45.53194" lon="5.97513">
        <ele>339</ele>
        <time>2014-03-30T14:53:04Z</time>
      </trkpt>
      <trkpt lat="45.53197" lon="5.97509">
        <ele>339</ele>
        <time>2014-03-30T14:53:05Z</time>
      </trkpt>
      <trkpt lat="45.53199" lon="5.97506">
        <ele>339</ele>
        <time>2014-03-30T14:53:06Z</time>
      </trkpt>
      <trkpt lat="45.53202" lon="5.97504">
        <ele>339</ele>
        <time>2014-03-30T14:53:07Z</time>
      </trkpt>
      <trkpt lat="45.53205" lon="5.97502">
        <ele>339.48</ele>
        <time>2014-03-30T14:53:08Z</time>
      </trkpt>
      <trkpt lat="45.53233" lon="5.97478">
        <ele>341.89</ele>
        <time>2014-03-30T14:53:20Z</time>
      </trkpt>
      <trkpt lat="45.53287" lon="5.97446">
        <ele>341.41</ele>
        <time>2014-03-30T14:53:33Z</time>
      </trkpt>
      <trkpt lat="45.53359" lon="5.97408">
        <ele>340.92</ele>
        <time>2014-03-30T14:53:48Z</time>
      </trkpt>
      <trkpt lat="45.53386" lon="5.97394">
        <ele>340.44</ele>
        <time>2014-03-30T14:53:54Z</time>
      </trkpt>
      <trkpt lat="45.5339" lon="5.9739">
        <ele>340.92</ele>
        <time>2014-03-30T14:53:55Z</time>
      </trkpt>
      <trkpt lat="45.53425" lon="5.97354">
        <ele>342.85</ele>
        <time>2014-03-30T14:54:07Z</time>
      </trkpt>
      <trkpt lat="45.53452" lon="5.97316">
        <ele>345.73</ele>
        <time>2014-03-30T14:54:19Z</time>
      </trkpt>
      <trkpt lat="45.535" lon="5.97277">
        <ele>346.21</ele>
        <time>2014-03-30T14:54:34Z</time>
      </trkpt>
      <trkpt lat="45.53524" lon="5.97257">
        <ele>346.21</ele>
        <time>2014-03-30T14:54:45Z</time>
      </trkpt>
      <trkpt lat="45.5356" lon="5.97239">
        <ele>345.73</ele>
        <time>2014-03-30T14:54:58Z</time>
      </trkpt>
      <trkpt lat="45.5356" lon="5.9724">
        <ele>345.73</ele>
        <time>2014-03-30T14:55:11Z</time>
      </trkpt>
      <trkpt lat="45.5356" lon="5.9724">
        <ele>345.25</ele>
        <time>2014-03-30T14:55:41Z</time>
      </trkpt>
      <trkpt lat="45.5356" lon="5.9724">
        <ele>345.25</ele>
        <time>2014-03-30T14:56:14Z</time>
      </trkpt>
      <trkpt lat="45.53561" lon="5.97238">
        <ele>345.25</ele>
        <time>2014-03-30T14:56:17Z</time>
      </trkpt>
      <trkpt lat="45.53563" lon="5.97236">
        <ele>345.25</ele>
        <time>2014-03-30T14:56:18Z</time>
      </trkpt>
      <trkpt lat="45.53565" lon="5.97235">
        <ele>344.77</ele>
        <time>2014-03-30T14:56:19Z</time>
      </trkpt>
      <trkpt lat="45.53566" lon="5.97233">
        <ele>345.25</ele>
        <time>2014-03-30T14:56:20Z</time>
      </trkpt>
      <trkpt lat="45.53569" lon="5.97233">
        <ele>344.77</ele>
        <time>2014-03-30T14:56:21Z</time>
      </trkpt>
      <trkpt lat="45.53606" lon="5.97224">
        <ele>344.29</ele>
        <time>2014-03-30T14:56:33Z</time>
      </trkpt>
      <trkpt lat="45.53688" lon="5.97184">
        <ele>342.85</ele>
        <time>2014-03-30T14:56:52Z</time>
      </trkpt>
      <trkpt lat="45.53739" lon="5.97169">
        <ele>340.92</ele>
        <time>2014-03-30T14:57:02Z</time>
      </trkpt>
      <trkpt lat="45.53744" lon="5.97166">
        <ele>339.48</ele>
        <time>2014-03-30T14:57:03Z</time>
      </trkpt>
      <trkpt lat="45.53748" lon="5.97162">
        <ele>339.96</ele>
        <time>2014-03-30T14:57:04Z</time>
      </trkpt>
      <trkpt lat="45.53753" lon="5.97159">
        <ele>339.48</ele>
        <time>2014-03-30T14:57:05Z</time>
      </trkpt>
      <trkpt lat="45.53757" lon="5.97155">
        <ele>339.96</ele>
        <time>2014-03-30T14:57:06Z</time>
      </trkpt>
      <trkpt lat="45.53761" lon="5.97151">
        <ele>339</ele>
        <time>2014-03-30T14:57:07Z</time>
      </trkpt>
      <trkpt lat="45.53775" lon="5.97143">
        <ele>338.52</ele>
        <time>2014-03-30T14:57:10Z</time>
      </trkpt>
      <trkpt lat="45.5378" lon="5.97141">
        <ele>338.52</ele>
        <time>2014-03-30T14:57:11Z</time>
      </trkpt>
      <trkpt lat="45.53785" lon="5.97141">
        <ele>337.56</ele>
        <time>2014-03-30T14:57:12Z</time>
      </trkpt>
      <trkpt lat="45.5379" lon="5.97141">
        <ele>337.08</ele>
        <time>2014-03-30T14:57:13Z</time>
      </trkpt>
      <trkpt lat="45.53795" lon="5.97141">
        <ele>337.08</ele>
        <time>2014-03-30T14:57:14Z</time>
      </trkpt>
      <trkpt lat="45.53851" lon="5.97131">
        <ele>333.71</ele>
        <time>2014-03-30T14:57:24Z</time>
      </trkpt>
      <trkpt lat="45.53909" lon="5.97112">
        <ele>330.83</ele>
        <time>2014-03-30T14:57:34Z</time>
      </trkpt>
      <trkpt lat="45.53914" lon="5.9711">
        <ele>331.31</ele>
        <time>2014-03-30T14:57:35Z</time>
      </trkpt>
      <trkpt lat="45.53959" lon="5.97096">
        <ele>329.87</ele>
        <time>2014-03-30T14:57:43Z</time>
      </trkpt>
      <trkpt lat="45.53964" lon="5.97093">
        <ele>329.87</ele>
        <time>2014-03-30T14:57:44Z</time>
      </trkpt>
      <trkpt lat="45.53969" lon="5.97089">
        <ele>329.87</ele>
        <time>2014-03-30T14:57:45Z</time>
      </trkpt>
      <trkpt lat="45.54002" lon="5.97064">
        <ele>328.91</ele>
        <time>2014-03-30T14:57:52Z</time>
      </trkpt>
      <trkpt lat="45.54006" lon="5.97063">
        <ele>328.91</ele>
        <time>2014-03-30T14:57:53Z</time>
      </trkpt>
      <trkpt lat="45.54009" lon="5.97062">
        <ele>328.91</ele>
        <time>2014-03-30T14:57:54Z</time>
      </trkpt>
      <trkpt lat="45.54012" lon="5.97062">
        <ele>328.91</ele>
        <time>2014-03-30T14:57:55Z</time>
      </trkpt>
      <trkpt lat="45.54015" lon="5.97062">
        <ele>328.91</ele>
        <time>2014-03-30T14:57:56Z</time>
      </trkpt>
      <trkpt lat="45.54041" lon="5.97068">
        <ele>328.43</ele>
        <time>2014-03-30T14:58:02Z</time>
      </trkpt>
      <trkpt lat="45.54054" lon="5.97075">
        <ele>327.47</ele>
        <time>2014-03-30T14:58:05Z</time>
      </trkpt>
      <trkpt lat="45.54059" lon="5.97078">
        <ele>327.95</ele>
        <time>2014-03-30T14:58:06Z</time>
      </trkpt>
      <trkpt lat="45.54063" lon="5.97081">
        <ele>327.95</ele>
        <time>2014-03-30T14:58:07Z</time>
      </trkpt>
      <trkpt lat="45.54068" lon="5.97082">
        <ele>327.95</ele>
        <time>2014-03-30T14:58:08Z</time>
      </trkpt>
      <trkpt lat="45.54073" lon="5.97082">
        <ele>327.47</ele>
        <time>2014-03-30T14:58:09Z</time>
      </trkpt>
      <trkpt lat="45.54078" lon="5.97081">
        <ele>327.95</ele>
        <time>2014-03-30T14:58:10Z</time>
      </trkpt>
      <trkpt lat="45.54082" lon="5.9708">
        <ele>327.47</ele>
        <time>2014-03-30T14:58:11Z</time>
      </trkpt>
      <trkpt lat="45.54087" lon="5.97078">
        <ele>327.47</ele>
        <time>2014-03-30T14:58:12Z</time>
      </trkpt>
      <trkpt lat="45.54092" lon="5.97075">
        <ele>327.47</ele>
        <time>2014-03-30T14:58:13Z</time>
      </trkpt>
      <trkpt lat="45.54114" lon="5.97062">
        <ele>327.47</ele>
        <time>2014-03-30T14:58:18Z</time>
      </trkpt>
      <trkpt lat="45.54118" lon="5.97059">
        <ele>326.99</ele>
        <time>2014-03-30T14:58:19Z</time>
      </trkpt>
      <trkpt lat="45.54173" lon="5.9702">
        <ele>326.99</ele>
        <time>2014-03-30T14:58:31Z</time>
      </trkpt>
      <trkpt lat="45.54186" lon="5.97009">
        <ele>326.99</ele>
        <time>2014-03-30T14:58:34Z</time>
      </trkpt>
      <trkpt lat="45.5419" lon="5.97005">
        <ele>326.99</ele>
        <time>2014-03-30T14:58:35Z</time>
      </trkpt>
      <trkpt lat="45.54202" lon="5.96988">
        <ele>327.47</ele>
        <time>2014-03-30T14:58:40Z</time>
      </trkpt>
      <trkpt lat="45.54202" lon="5.96983">
        <ele>326.99</ele>
        <time>2014-03-30T14:58:41Z</time>
      </trkpt>
      <trkpt lat="45.542" lon="5.96979">
        <ele>327.47</ele>
        <time>2014-03-30T14:58:42Z</time>
      </trkpt>
      <trkpt lat="45.54198" lon="5.96974">
        <ele>327.47</ele>
        <time>2014-03-30T14:58:43Z</time>
      </trkpt>
      <trkpt lat="45.54195" lon="5.96969">
        <ele>327.47</ele>
        <time>2014-03-30T14:58:44Z</time>
      </trkpt>
      <trkpt lat="45.54193" lon="5.96964">
        <ele>327.47</ele>
        <time>2014-03-30T14:58:45Z</time>
      </trkpt>
      <trkpt lat="45.54148" lon="5.96894">
        <ele>328.43</ele>
        <time>2014-03-30T14:59:00Z</time>
      </trkpt>
      <trkpt lat="45.54144" lon="5.9689">
        <ele>328.43</ele>
        <time>2014-03-30T14:59:01Z</time>
      </trkpt>
      <trkpt lat="45.54135" lon="5.96883">
        <ele>328.43</ele>
        <time>2014-03-30T14:59:03Z</time>
      </trkpt>
      <trkpt lat="45.54105" lon="5.96865">
        <ele>328.43</ele>
        <time>2014-03-30T14:59:09Z</time>
      </trkpt>
      <trkpt lat="45.54102" lon="5.9686">
        <ele>327.95</ele>
        <time>2014-03-30T14:59:10Z</time>
      </trkpt>
      <trkpt lat="45.54102" lon="5.96854">
        <ele>328.43</ele>
        <time>2014-03-30T14:59:11Z</time>
      </trkpt>
      <trkpt lat="45.54102" lon="5.96848">
        <ele>327.95</ele>
        <time>2014-03-30T14:59:12Z</time>
      </trkpt>
      <trkpt lat="45.54101" lon="5.96842">
        <ele>328.43</ele>
        <time>2014-03-30T14:59:13Z</time>
      </trkpt>
      <trkpt lat="45.54099" lon="5.96785">
        <ele>329.39</ele>
        <time>2014-03-30T14:59:23Z</time>
      </trkpt>
      <trkpt lat="45.54102" lon="5.96762">
        <ele>329.87</ele>
        <time>2014-03-30T14:59:28Z</time>
      </trkpt>
      <trkpt lat="45.54104" lon="5.9676">
        <ele>330.83</ele>
        <time>2014-03-30T14:59:29Z</time>
      </trkpt>
      <trkpt lat="45.54108" lon="5.96759">
        <ele>330.35</ele>
        <time>2014-03-30T14:59:30Z</time>
      </trkpt>
      <trkpt lat="45.54116" lon="5.96759">
        <ele>330.35</ele>
        <time>2014-03-30T14:59:32Z</time>
      </trkpt>
      <trkpt lat="45.5412" lon="5.96758">
        <ele>329.87</ele>
        <time>2014-03-30T14:59:33Z</time>
      </trkpt>
      <trkpt lat="45.54125" lon="5.96757">
        <ele>329.39</ele>
        <time>2014-03-30T14:59:34Z</time>
      </trkpt>
      <trkpt lat="45.5413" lon="5.96756">
        <ele>329.87</ele>
        <time>2014-03-30T14:59:35Z</time>
      </trkpt>
      <trkpt lat="45.54135" lon="5.96754">
        <ele>329.39</ele>
        <time>2014-03-30T14:59:36Z</time>
      </trkpt>
      <trkpt lat="45.54195" lon="5.96735">
        <ele>325.54</ele>
        <time>2014-03-30T14:59:46Z</time>
      </trkpt>
      <trkpt lat="45.54201" lon="5.96733">
        <ele>326.02</ele>
        <time>2014-03-30T14:59:47Z</time>
      </trkpt>
      <trkpt lat="45.54207" lon="5.96732">
        <ele>326.02</ele>
        <time>2014-03-30T14:59:48Z</time>
      </trkpt>
      <trkpt lat="45.54245" lon="5.96717">
        <ele>324.58</ele>
        <time>2014-03-30T14:59:55Z</time>
      </trkpt>
      <trkpt lat="45.54324" lon="5.96688">
        <ele>322.18</ele>
        <time>2014-03-30T15:00:10Z</time>
      </trkpt>
      <trkpt lat="45.54388" lon="5.96652">
        <ele>321.22</ele>
        <time>2014-03-30T15:00:23Z</time>
      </trkpt>
      <trkpt lat="45.54424" lon="5.9663">
        <ele>321.7</ele>
        <time>2014-03-30T15:00:31Z</time>
      </trkpt>
      <trkpt lat="45.54479" lon="5.96607">
        <ele>321.7</ele>
        <time>2014-03-30T15:00:43Z</time>
      </trkpt>
      <trkpt lat="45.54551" lon="5.96595">
        <ele>320.26</ele>
        <time>2014-03-30T15:00:58Z</time>
      </trkpt>
      <trkpt lat="45.54573" lon="5.96589">
        <ele>320.74</ele>
        <time>2014-03-30T15:01:03Z</time>
      </trkpt>
      <trkpt lat="45.54615" lon="5.96556">
        <ele>322.18</ele>
        <time>2014-03-30T15:01:16Z</time>
      </trkpt>
      <trkpt lat="45.54639" lon="5.96532">
        <ele>324.1</ele>
        <time>2014-03-30T15:01:28Z</time>
      </trkpt>
      <trkpt lat="45.54666" lon="5.9651">
        <ele>326.5</ele>
        <time>2014-03-30T15:01:40Z</time>
      </trkpt>
      <trkpt lat="45.54695" lon="5.96485">
        <ele>329.39</ele>
        <time>2014-03-30T15:01:56Z</time>
      </trkpt>
      <trkpt lat="45.54699" lon="5.96448">
        <ele>331.79</ele>
        <time>2014-03-30T15:02:09Z</time>
      </trkpt>
      <trkpt lat="45.54709" lon="5.96396">
        <ele>330.35</ele>
        <time>2014-03-30T15:02:23Z</time>
      </trkpt>
      <trkpt lat="45.54739" lon="5.96349">
        <ele>327.47</ele>
        <time>2014-03-30T15:02:34Z</time>
      </trkpt>
      <trkpt lat="45.54746" lon="5.96344">
        <ele>326.5</ele>
        <time>2014-03-30T15:02:36Z</time>
      </trkpt>
      <trkpt lat="45.54767" lon="5.96336">
        <ele>325.06</ele>
        <time>2014-03-30T15:02:40Z</time>
      </trkpt>
      <trkpt lat="45.54803" lon="5.96319">
        <ele>323.14</ele>
        <time>2014-03-30T15:02:46Z</time>
      </trkpt>
      <trkpt lat="45.54807" lon="5.96314">
        <ele>322.18</ele>
        <time>2014-03-30T15:02:47Z</time>
      </trkpt>
      <trkpt lat="45.54812" lon="5.96309">
        <ele>321.7</ele>
        <time>2014-03-30T15:02:48Z</time>
      </trkpt>
      <trkpt lat="45.54815" lon="5.96303">
        <ele>321.7</ele>
        <time>2014-03-30T15:02:49Z</time>
      </trkpt>
      <trkpt lat="45.54819" lon="5.96297">
        <ele>321.22</ele>
        <time>2014-03-30T15:02:50Z</time>
      </trkpt>
      <trkpt lat="45.54823" lon="5.96292">
        <ele>320.74</ele>
        <time>2014-03-30T15:02:51Z</time>
      </trkpt>
      <trkpt lat="45.54827" lon="5.96285">
        <ele>320.74</ele>
        <time>2014-03-30T15:02:52Z</time>
      </trkpt>
      <trkpt lat="45.54837" lon="5.96263">
        <ele>318.81</ele>
        <time>2014-03-30T15:02:55Z</time>
      </trkpt>
      <trkpt lat="45.54847" lon="5.96238">
        <ele>316.89</ele>
        <time>2014-03-30T15:02:58Z</time>
      </trkpt>
      <trkpt lat="45.5485" lon="5.9623">
        <ele>316.41</ele>
        <time>2014-03-30T15:02:59Z</time>
      </trkpt>
      <trkpt lat="45.54854" lon="5.96221">
        <ele>314.97</ele>
        <time>2014-03-30T15:03:00Z</time>
      </trkpt>
      <trkpt lat="45.54869" lon="5.96186">
        <ele>311.6</ele>
        <time>2014-03-30T15:03:04Z</time>
      </trkpt>
      <trkpt lat="45.5488" lon="5.96161">
        <ele>309.68</ele>
        <time>2014-03-30T15:03:07Z</time>
      </trkpt>
      <trkpt lat="45.54892" lon="5.96127">
        <ele>306.32</ele>
        <time>2014-03-30T15:03:11Z</time>
      </trkpt>
      <trkpt lat="45.54895" lon="5.96117">
        <ele>305.84</ele>
        <time>2014-03-30T15:03:12Z</time>
      </trkpt>
      <trkpt lat="45.54896" lon="5.96107">
        <ele>305.84</ele>
        <time>2014-03-30T15:03:13Z</time>
      </trkpt>
      <trkpt lat="45.54897" lon="5.96097">
        <ele>304.88</ele>
        <time>2014-03-30T15:03:14Z</time>
      </trkpt>
      <trkpt lat="45.54897" lon="5.96087">
        <ele>304.39</ele>
        <time>2014-03-30T15:03:15Z</time>
      </trkpt>
      <trkpt lat="45.54897" lon="5.96077">
        <ele>303.91</ele>
        <time>2014-03-30T15:03:16Z</time>
      </trkpt>
      <trkpt lat="45.54897" lon="5.96053">
        <ele>302.95</ele>
        <time>2014-03-30T15:03:19Z</time>
      </trkpt>
      <trkpt lat="45.54899" lon="5.96048">
        <ele>302.47</ele>
        <time>2014-03-30T15:03:20Z</time>
      </trkpt>
      <trkpt lat="45.54901" lon="5.96046">
        <ele>302.47</ele>
        <time>2014-03-30T15:03:21Z</time>
      </trkpt>
      <trkpt lat="45.54903" lon="5.96047">
        <ele>302.95</ele>
        <time>2014-03-30T15:03:22Z</time>
      </trkpt>
      <trkpt lat="45.54907" lon="5.96049">
        <ele>302.47</ele>
        <time>2014-03-30T15:03:23Z</time>
      </trkpt>
      <trkpt lat="45.54909" lon="5.9605">
        <ele>302.95</ele>
        <time>2014-03-30T15:03:24Z</time>
      </trkpt>
      <trkpt lat="45.54912" lon="5.96052">
        <ele>302.47</ele>
        <time>2014-03-30T15:03:25Z</time>
      </trkpt>
      <trkpt lat="45.54915" lon="5.96054">
        <ele>302.47</ele>
        <time>2014-03-30T15:03:26Z</time>
      </trkpt>
      <trkpt lat="45.5496" lon="5.96079">
        <ele>302.47</ele>
        <time>2014-03-30T15:03:40Z</time>
      </trkpt>
      <trkpt lat="45.54998" lon="5.9609">
        <ele>300.55</ele>
        <time>2014-03-30T15:03:53Z</time>
      </trkpt>
      <trkpt lat="45.55" lon="5.96087">
        <ele>300.55</ele>
        <time>2014-03-30T15:03:54Z</time>
      </trkpt>
      <trkpt lat="45.55001" lon="5.96085">
        <ele>300.55</ele>
        <time>2014-03-30T15:03:55Z</time>
      </trkpt>
      <trkpt lat="45.55001" lon="5.96081">
        <ele>300.55</ele>
        <time>2014-03-30T15:03:56Z</time>
      </trkpt>
      <trkpt lat="45.55" lon="5.96078">
        <ele>300.55</ele>
        <time>2014-03-30T15:03:57Z</time>
      </trkpt>
      <trkpt lat="45.55" lon="5.96075">
        <ele>300.55</ele>
        <time>2014-03-30T15:03:58Z</time>
      </trkpt>
      <trkpt lat="45.54998" lon="5.96072">
        <ele>301.03</ele>
        <time>2014-03-30T15:03:59Z</time>
      </trkpt>
      <trkpt lat="45.54997" lon="5.9607">
        <ele>301.03</ele>
        <time>2014-03-30T15:04:00Z</time>
      </trkpt>
      <trkpt lat="45.54995" lon="5.96067">
        <ele>301.03</ele>
        <time>2014-03-30T15:04:01Z</time>
      </trkpt>
      <trkpt lat="45.54994" lon="5.96063">
        <ele>301.51</ele>
        <time>2014-03-30T15:04:02Z</time>
      </trkpt>
      <trkpt lat="45.54993" lon="5.9606">
        <ele>301.51</ele>
        <time>2014-03-30T15:04:03Z</time>
      </trkpt>
      <trkpt lat="45.5497" lon="5.9602">
        <ele>302.47</ele>
        <time>2014-03-30T15:04:17Z</time>
      </trkpt>
      <trkpt lat="45.54944" lon="5.9597">
        <ele>304.39</ele>
        <time>2014-03-30T15:04:33Z</time>
      </trkpt>
      <trkpt lat="45.54928" lon="5.95929">
        <ele>304.88</ele>
        <time>2014-03-30T15:04:49Z</time>
      </trkpt>
      <trkpt lat="45.54928" lon="5.95929">
        <ele>305.36</ele>
        <time>2014-03-30T15:05:13Z</time>
      </trkpt>
      <trkpt lat="45.54928" lon="5.95928">
        <ele>305.36</ele>
        <time>2014-03-30T15:05:37Z</time>
      </trkpt>
      <trkpt lat="45.5491" lon="5.95877">
        <ele>306.32</ele>
        <time>2014-03-30T15:05:49Z</time>
      </trkpt>
      <trkpt lat="45.54879" lon="5.95793">
        <ele>305.84</ele>
        <time>2014-03-30T15:06:04Z</time>
      </trkpt>
      <trkpt lat="45.54859" lon="5.95739">
        <ele>302.47</ele>
        <time>2014-03-30T15:06:11Z</time>
      </trkpt>
      <trkpt lat="45.54857" lon="5.9573">
        <ele>302.47</ele>
        <time>2014-03-30T15:06:12Z</time>
      </trkpt>
      <trkpt lat="45.54852" lon="5.95712">
        <ele>301.51</ele>
        <time>2014-03-30T15:06:14Z</time>
      </trkpt>
      <trkpt lat="45.5485" lon="5.95705">
        <ele>301.99</ele>
        <time>2014-03-30T15:06:15Z</time>
      </trkpt>
      <trkpt lat="45.54846" lon="5.95698">
        <ele>301.99</ele>
        <time>2014-03-30T15:06:16Z</time>
      </trkpt>
      <trkpt lat="45.54842" lon="5.95692">
        <ele>301.99</ele>
        <time>2014-03-30T15:06:17Z</time>
      </trkpt>
      <trkpt lat="45.54836" lon="5.95687">
        <ele>301.99</ele>
        <time>2014-03-30T15:06:18Z</time>
      </trkpt>
      <trkpt lat="45.5483" lon="5.95684">
        <ele>301.99</ele>
        <time>2014-03-30T15:06:19Z</time>
      </trkpt>
      <trkpt lat="45.54824" lon="5.95683">
        <ele>301.51</ele>
        <time>2014-03-30T15:06:20Z</time>
      </trkpt>
      <trkpt lat="45.54818" lon="5.95682">
        <ele>301.51</ele>
        <time>2014-03-30T15:06:21Z</time>
      </trkpt>
      <trkpt lat="45.54714" lon="5.95691">
        <ele>301.99</ele>
        <time>2014-03-30T15:06:38Z</time>
      </trkpt>
      <trkpt lat="45.54684" lon="5.9569">
        <ele>303.43</ele>
        <time>2014-03-30T15:06:44Z</time>
      </trkpt>
      <trkpt lat="45.5468" lon="5.95688">
        <ele>303.43</ele>
        <time>2014-03-30T15:06:45Z</time>
      </trkpt>
      <trkpt lat="45.54676" lon="5.95686">
        <ele>303.43</ele>
        <time>2014-03-30T15:06:46Z</time>
      </trkpt>
      <trkpt lat="45.54672" lon="5.95684">
        <ele>303.43</ele>
        <time>2014-03-30T15:06:47Z</time>
      </trkpt>
      <trkpt lat="45.54668" lon="5.95681">
        <ele>303.91</ele>
        <time>2014-03-30T15:06:48Z</time>
      </trkpt>
      <trkpt lat="45.54612" lon="5.95658">
        <ele>307.28</ele>
        <time>2014-03-30T15:07:04Z</time>
      </trkpt>
      <trkpt lat="45.54559" lon="5.95644">
        <ele>309.2</ele>
        <time>2014-03-30T15:07:20Z</time>
      </trkpt>
      <trkpt lat="45.54515" lon="5.95627">
        <ele>310.16</ele>
        <time>2014-03-30T15:07:33Z</time>
      </trkpt>
      <trkpt lat="45.54501" lon="5.95618">
        <ele>310.16</ele>
        <time>2014-03-30T15:07:37Z</time>
      </trkpt>
      <trkpt lat="45.54497" lon="5.95617">
        <ele>310.16</ele>
        <time>2014-03-30T15:07:38Z</time>
      </trkpt>
      <trkpt lat="45.54443" lon="5.95589">
        <ele>311.12</ele>
        <time>2014-03-30T15:07:52Z</time>
      </trkpt>
      <trkpt lat="45.54409" lon="5.95599">
        <ele>314.01</ele>
        <time>2014-03-30T15:08:04Z</time>
      </trkpt>
      <trkpt lat="45.54381" lon="5.95608">
        <ele>316.41</ele>
        <time>2014-03-30T15:08:18Z</time>
      </trkpt>
      <trkpt lat="45.54348" lon="5.95607">
        <ele>319.3</ele>
        <time>2014-03-30T15:08:34Z</time>
      </trkpt>
      <trkpt lat="45.54319" lon="5.95601">
        <ele>321.7</ele>
        <time>2014-03-30T15:08:49Z</time>
      </trkpt>
      <trkpt lat="45.54295" lon="5.95595">
        <ele>324.1</ele>
        <time>2014-03-30T15:09:02Z</time>
      </trkpt>
      <trkpt lat="45.54271" lon="5.95602">
        <ele>326.5</ele>
        <time>2014-03-30T15:09:14Z</time>
      </trkpt>
      <trkpt lat="45.54268" lon="5.95601">
        <ele>327.47</ele>
        <time>2014-03-30T15:09:18Z</time>
      </trkpt>
      <trkpt lat="45.54265" lon="5.9558">
        <ele>328.43</ele>
        <time>2014-03-30T15:09:27Z</time>
      </trkpt>
      <trkpt lat="45.54263" lon="5.95575">
        <ele>329.87</ele>
        <time>2014-03-30T15:09:29Z</time>
      </trkpt>
      <trkpt lat="45.54251" lon="5.95562">
        <ele>332.75</ele>
        <time>2014-03-30T15:09:38Z</time>
      </trkpt>
      <trkpt lat="45.54238" lon="5.95551">
        <ele>333.71</ele>
        <time>2014-03-30T15:09:49Z</time>
      </trkpt>
      <trkpt lat="45.54219" lon="5.95524">
        <ele>336.12</ele>
        <time>2014-03-30T15:10:04Z</time>
      </trkpt>
      <trkpt lat="45.54202" lon="5.95498">
        <ele>337.56</ele>
        <time>2014-03-30T15:10:15Z</time>
      </trkpt>
      <trkpt lat="45.54202" lon="5.9545">
        <ele>335.64</ele>
        <time>2014-03-30T15:10:28Z</time>
      </trkpt>
      <trkpt lat="45.54205" lon="5.95425">
        <ele>331.79</ele>
        <time>2014-03-30T15:10:33Z</time>
      </trkpt>
      <trkpt lat="45.54205" lon="5.95407">
        <ele>328.91</ele>
        <time>2014-03-30T15:10:37Z</time>
      </trkpt>
      <trkpt lat="45.54202" lon="5.95394">
        <ele>325.54</ele>
        <time>2014-03-30T15:10:41Z</time>
      </trkpt>
      <trkpt lat="45.54194" lon="5.95385">
        <ele>322.66</ele>
        <time>2014-03-30T15:10:45Z</time>
      </trkpt>
      <trkpt lat="45.54176" lon="5.95389">
        <ele>323.14</ele>
        <time>2014-03-30T15:10:46Z</time>
      </trkpt>
      <trkpt lat="45.5414" lon="5.95352">
        <ele>324.1</ele>
        <time>2014-03-30T15:11:00Z</time>
      </trkpt>
      <trkpt lat="45.5416" lon="5.95307">
        <ele>326.5</ele>
        <time>2014-03-30T15:11:12Z</time>
      </trkpt>
      <trkpt lat="45.54169" lon="5.95287">
        <ele>328.91</ele>
        <time>2014-03-30T15:11:21Z</time>
      </trkpt>
      <trkpt lat="45.54168" lon="5.95264">
        <ele>331.31</ele>
        <time>2014-03-30T15:11:30Z</time>
      </trkpt>
      <trkpt lat="45.54155" lon="5.95241">
        <ele>333.71</ele>
        <time>2014-03-30T15:11:41Z</time>
      </trkpt>
      <trkpt lat="45.54136" lon="5.95236">
        <ele>337.08</ele>
        <time>2014-03-30T15:11:55Z</time>
      </trkpt>
      <trkpt lat="45.54132" lon="5.95232">
        <ele>338.04</ele>
        <time>2014-03-30T15:11:59Z</time>
      </trkpt>
      <trkpt lat="45.54132" lon="5.95219">
        <ele>339</ele>
        <time>2014-03-30T15:12:05Z</time>
      </trkpt>
      <trkpt lat="45.54168" lon="5.95218">
        <ele>337.56</ele>
        <time>2014-03-30T15:12:19Z</time>
      </trkpt>
      <trkpt lat="45.54191" lon="5.95227">
        <ele>338.04</ele>
        <time>2014-03-30T15:12:23Z</time>
      </trkpt>
      <trkpt lat="45.54216" lon="5.9524">
        <ele>341.41</ele>
        <time>2014-03-30T15:12:37Z</time>
      </trkpt>
      <trkpt lat="45.54227" lon="5.95251">
        <ele>342.85</ele>
        <time>2014-03-30T15:12:45Z</time>
      </trkpt>
      <trkpt lat="45.54244" lon="5.95262">
        <ele>346.69</ele>
        <time>2014-03-30T15:12:56Z</time>
      </trkpt>
      <trkpt lat="45.54273" lon="5.95264">
        <ele>349.1</ele>
        <time>2014-03-30T15:13:12Z</time>
      </trkpt>
      <trkpt lat="45.54301" lon="5.95255">
        <ele>351.5</ele>
        <time>2014-03-30T15:13:28Z</time>
      </trkpt>
      <trkpt lat="45.54284" lon="5.95236">
        <ele>351.98</ele>
        <time>2014-03-30T15:13:39Z</time>
      </trkpt>
      <trkpt lat="45.54282" lon="5.95229">
        <ele>352.94</ele>
        <time>2014-03-30T15:13:42Z</time>
      </trkpt>
      <trkpt lat="45.54283" lon="5.95216">
        <ele>353.9</ele>
        <time>2014-03-30T15:13:48Z</time>
      </trkpt>
      <trkpt lat="45.54281" lon="5.95196">
        <ele>357.27</ele>
        <time>2014-03-30T15:14:00Z</time>
      </trkpt>
      <trkpt lat="45.54266" lon="5.95178">
        <ele>360.63</ele>
        <time>2014-03-30T15:14:13Z</time>
      </trkpt>
      <trkpt lat="45.5426" lon="5.95176">
        <ele>361.59</ele>
        <time>2014-03-30T15:14:17Z</time>
      </trkpt>
      <trkpt lat="45.54239" lon="5.95152">
        <ele>363.04</ele>
        <time>2014-03-30T15:14:33Z</time>
      </trkpt>
      <trkpt lat="45.54212" lon="5.95127">
        <ele>360.63</ele>
        <time>2014-03-30T15:14:45Z</time>
      </trkpt>
      <trkpt lat="45.54235" lon="5.95091">
        <ele>360.63</ele>
        <time>2014-03-30T15:14:58Z</time>
      </trkpt>
      <trkpt lat="45.54277" lon="5.95065">
        <ele>359.19</ele>
        <time>2014-03-30T15:15:12Z</time>
      </trkpt>
      <trkpt lat="45.54349" lon="5.95026">
        <ele>359.67</ele>
        <time>2014-03-30T15:15:25Z</time>
      </trkpt>
      <trkpt lat="45.54371" lon="5.95009">
        <ele>360.63</ele>
        <time>2014-03-30T15:15:37Z</time>
      </trkpt>
      <trkpt lat="45.5438" lon="5.94988">
        <ele>363.52</ele>
        <time>2014-03-30T15:15:49Z</time>
      </trkpt>
      <trkpt lat="45.54381" lon="5.94987">
        <ele>363.04</ele>
        <time>2014-03-30T15:15:50Z</time>
      </trkpt>
      <trkpt lat="45.54383" lon="5.94981">
        <ele>364</ele>
        <time>2014-03-30T15:15:53Z</time>
      </trkpt>
      <trkpt lat="45.54385" lon="5.94964">
        <ele>367.36</ele>
        <time>2014-03-30T15:16:06Z</time>
      </trkpt>
      <trkpt lat="45.54388" lon="5.94948">
        <ele>370.24</ele>
        <time>2014-03-30T15:16:19Z</time>
      </trkpt>
      <trkpt lat="45.5439" lon="5.94935">
        <ele>372.17</ele>
        <time>2014-03-30T15:16:35Z</time>
      </trkpt>
      <trkpt lat="45.54391" lon="5.94933">
        <ele>372.65</ele>
        <time>2014-03-30T15:16:39Z</time>
      </trkpt>
      <trkpt lat="45.54391" lon="5.94931">
        <ele>372.65</ele>
        <time>2014-03-30T15:16:40Z</time>
      </trkpt>
      <trkpt lat="45.54392" lon="5.9493">
        <ele>373.13</ele>
        <time>2014-03-30T15:16:41Z</time>
      </trkpt>
      <trkpt lat="45.54392" lon="5.94928">
        <ele>373.13</ele>
        <time>2014-03-30T15:16:42Z</time>
      </trkpt>
      <trkpt lat="45.54393" lon="5.94926">
        <ele>373.13</ele>
        <time>2014-03-30T15:16:43Z</time>
      </trkpt>
      <trkpt lat="45.54393" lon="5.94924">
        <ele>373.13</ele>
        <time>2014-03-30T15:16:44Z</time>
      </trkpt>
      <trkpt lat="45.54393" lon="5.94922">
        <ele>373.61</ele>
        <time>2014-03-30T15:16:45Z</time>
      </trkpt>
      <trkpt lat="45.54393" lon="5.9492">
        <ele>373.61</ele>
        <time>2014-03-30T15:16:46Z</time>
      </trkpt>
      <trkpt lat="45.544" lon="5.94897">
        <ele>376.49</ele>
        <time>2014-03-30T15:16:59Z</time>
      </trkpt>
      <trkpt lat="45.54406" lon="5.94867">
        <ele>379.38</ele>
        <time>2014-03-30T15:17:15Z</time>
      </trkpt>
      <trkpt lat="45.54411" lon="5.94839">
        <ele>381.3</ele>
        <time>2014-03-30T15:17:28Z</time>
      </trkpt>
      <trkpt lat="45.54411" lon="5.94836">
        <ele>381.78</ele>
        <time>2014-03-30T15:17:29Z</time>
      </trkpt>
      <trkpt lat="45.54411" lon="5.94834">
        <ele>381.78</ele>
        <time>2014-03-30T15:17:30Z</time>
      </trkpt>
      <trkpt lat="45.54411" lon="5.94833">
        <ele>382.74</ele>
        <time>2014-03-30T15:17:31Z</time>
      </trkpt>
      <trkpt lat="45.54412" lon="5.9483">
        <ele>382.74</ele>
        <time>2014-03-30T15:17:32Z</time>
      </trkpt>
      <trkpt lat="45.54412" lon="5.94819">
        <ele>385.15</ele>
        <time>2014-03-30T15:17:38Z</time>
      </trkpt>
      <trkpt lat="45.54412" lon="5.94817">
        <ele>385.63</ele>
        <time>2014-03-30T15:17:39Z</time>
      </trkpt>
      <trkpt lat="45.54411" lon="5.94815">
        <ele>386.11</ele>
        <time>2014-03-30T15:17:40Z</time>
      </trkpt>
      <trkpt lat="45.54411" lon="5.94813">
        <ele>386.11</ele>
        <time>2014-03-30T15:17:41Z</time>
      </trkpt>
      <trkpt lat="45.54403" lon="5.94765">
        <ele>384.66</ele>
        <time>2014-03-30T15:17:55Z</time>
      </trkpt>
      <trkpt lat="45.544" lon="5.94743">
        <ele>386.59</ele>
        <time>2014-03-30T15:18:00Z</time>
      </trkpt>
      <trkpt lat="45.54398" lon="5.9474">
        <ele>386.59</ele>
        <time>2014-03-30T15:18:01Z</time>
      </trkpt>
      <trkpt lat="45.54396" lon="5.94738">
        <ele>386.59</ele>
        <time>2014-03-30T15:18:02Z</time>
      </trkpt>
      <trkpt lat="45.54395" lon="5.94736">
        <ele>387.07</ele>
        <time>2014-03-30T15:18:03Z</time>
      </trkpt>
      <trkpt lat="45.54392" lon="5.94735">
        <ele>387.07</ele>
        <time>2014-03-30T15:18:04Z</time>
      </trkpt>
      <trkpt lat="45.54389" lon="5.94734">
        <ele>387.07</ele>
        <time>2014-03-30T15:18:05Z</time>
      </trkpt>
      <trkpt lat="45.54387" lon="5.94734">
        <ele>387.07</ele>
        <time>2014-03-30T15:18:06Z</time>
      </trkpt>
      <trkpt lat="45.54384" lon="5.94733">
        <ele>387.07</ele>
        <time>2014-03-30T15:18:07Z</time>
      </trkpt>
      <trkpt lat="45.54381" lon="5.94732">
        <ele>387.55</ele>
        <time>2014-03-30T15:18:08Z</time>
      </trkpt>
      <trkpt lat="45.54378" lon="5.94731">
        <ele>387.55</ele>
        <time>2014-03-30T15:18:09Z</time>
      </trkpt>
      <trkpt lat="45.54375" lon="5.94731">
        <ele>388.03</ele>
        <time>2014-03-30T15:18:10Z</time>
      </trkpt>
      <trkpt lat="45.54346" lon="5.94737">
        <ele>390.43</ele>
        <time>2014-03-30T15:18:22Z</time>
      </trkpt>
      <trkpt lat="45.54294" lon="5.94747">
        <ele>391.39</ele>
        <time>2014-03-30T15:18:39Z</time>
      </trkpt>
      <trkpt lat="45.54236" lon="5.94758">
        <ele>392.36</ele>
        <time>2014-03-30T15:18:55Z</time>
      </trkpt>
      <trkpt lat="45.54188" lon="5.94764">
        <ele>395.72</ele>
        <time>2014-03-30T15:19:10Z</time>
      </trkpt>
      <trkpt lat="45.54117" lon="5.94762">
        <ele>394.28</ele>
        <time>2014-03-30T15:19:29Z</time>
      </trkpt>
      <trkpt lat="45.54102" lon="5.94757">
        <ele>393.8</ele>
        <time>2014-03-30T15:19:39Z</time>
      </trkpt>
      <trkpt lat="45.54102" lon="5.94757">
        <ele>393.8</ele>
        <time>2014-03-30T15:20:05Z</time>
      </trkpt>
      <trkpt lat="45.54102" lon="5.94757">
        <ele>393.8</ele>
        <time>2014-03-30T15:20:41Z</time>
      </trkpt>
      <trkpt lat="45.54102" lon="5.94758">
        <ele>393.8</ele>
        <time>2014-03-30T15:21:15Z</time>
      </trkpt>
      <trkpt lat="45.54103" lon="5.94757">
        <ele>394.28</ele>
        <time>2014-03-30T15:21:44Z</time>
      </trkpt>
      <trkpt lat="45.54106" lon="5.94754">
        <ele>394.28</ele>
        <time>2014-03-30T15:21:50Z</time>
      </trkpt>
      <trkpt lat="45.54107" lon="5.94753">
        <ele>394.76</ele>
        <time>2014-03-30T15:21:51Z</time>
      </trkpt>
      <trkpt lat="45.54108" lon="5.94752">
        <ele>394.28</ele>
        <time>2014-03-30T15:21:52Z</time>
      </trkpt>
      <trkpt lat="45.54108" lon="5.9475">
        <ele>394.28</ele>
        <time>2014-03-30T15:21:53Z</time>
      </trkpt>
      <trkpt lat="45.54108" lon="5.94747">
        <ele>394.76</ele>
        <time>2014-03-30T15:21:54Z</time>
      </trkpt>
      <trkpt lat="45.54108" lon="5.94745">
        <ele>394.76</ele>
        <time>2014-03-30T15:21:55Z</time>
      </trkpt>
      <trkpt lat="45.54109" lon="5.94743">
        <ele>394.76</ele>
        <time>2014-03-30T15:21:56Z</time>
      </trkpt>
      <trkpt lat="45.54109" lon="5.9474">
        <ele>395.24</ele>
        <time>2014-03-30T15:21:57Z</time>
      </trkpt>
      <trkpt lat="45.5411" lon="5.94737">
        <ele>395.24</ele>
        <time>2014-03-30T15:21:58Z</time>
      </trkpt>
      <trkpt lat="45.54113" lon="5.94721">
        <ele>397.16</ele>
        <time>2014-03-30T15:22:05Z</time>
      </trkpt>
      <trkpt lat="45.54113" lon="5.94718">
        <ele>397.64</ele>
        <time>2014-03-30T15:22:06Z</time>
      </trkpt>
      <trkpt lat="45.54113" lon="5.94716">
        <ele>398.12</ele>
        <time>2014-03-30T15:22:07Z</time>
      </trkpt>
      <trkpt lat="45.54114" lon="5.94714">
        <ele>398.12</ele>
        <time>2014-03-30T15:22:08Z</time>
      </trkpt>
      <trkpt lat="45.54115" lon="5.94712">
        <ele>398.6</ele>
        <time>2014-03-30T15:22:09Z</time>
      </trkpt>
      <trkpt lat="45.54116" lon="5.94711">
        <ele>399.08</ele>
        <time>2014-03-30T15:22:10Z</time>
      </trkpt>
      <trkpt lat="45.54117" lon="5.94709">
        <ele>399.08</ele>
        <time>2014-03-30T15:22:11Z</time>
      </trkpt>
      <trkpt lat="45.54125" lon="5.94691">
        <ele>401.49</ele>
        <time>2014-03-30T15:22:22Z</time>
      </trkpt>
      <trkpt lat="45.54125" lon="5.9467">
        <ele>403.89</ele>
        <time>2014-03-30T15:22:33Z</time>
      </trkpt>
      <trkpt lat="45.54125" lon="5.94669">
        <ele>404.37</ele>
        <time>2014-03-30T15:22:34Z</time>
      </trkpt>
      <trkpt lat="45.54124" lon="5.94668">
        <ele>404.37</ele>
        <time>2014-03-30T15:22:35Z</time>
      </trkpt>
      <trkpt lat="45.54123" lon="5.94666">
        <ele>404.85</ele>
        <time>2014-03-30T15:22:36Z</time>
      </trkpt>
      <trkpt lat="45.54122" lon="5.94665">
        <ele>404.85</ele>
        <time>2014-03-30T15:22:37Z</time>
      </trkpt>
      <trkpt lat="45.54121" lon="5.94663">
        <ele>404.85</ele>
        <time>2014-03-30T15:22:38Z</time>
      </trkpt>
      <trkpt lat="45.5412" lon="5.94661">
        <ele>405.33</ele>
        <time>2014-03-30T15:22:39Z</time>
      </trkpt>
      <trkpt lat="45.54119" lon="5.9466">
        <ele>405.33</ele>
        <time>2014-03-30T15:22:40Z</time>
      </trkpt>
      <trkpt lat="45.54119" lon="5.94658">
        <ele>405.33</ele>
        <time>2014-03-30T15:22:41Z</time>
      </trkpt>
      <trkpt lat="45.54118" lon="5.94657">
        <ele>405.81</ele>
        <time>2014-03-30T15:22:42Z</time>
      </trkpt>
      <trkpt lat="45.54118" lon="5.94655">
        <ele>405.81</ele>
        <time>2014-03-30T15:22:43Z</time>
      </trkpt>
      <trkpt lat="45.54117" lon="5.94653">
        <ele>406.29</ele>
        <time>2014-03-30T15:22:44Z</time>
      </trkpt>
      <trkpt lat="45.54117" lon="5.94651">
        <ele>406.29</ele>
        <time>2014-03-30T15:22:45Z</time>
      </trkpt>
      <trkpt lat="45.54116" lon="5.94643">
        <ele>407.26</ele>
        <time>2014-03-30T15:22:49Z</time>
      </trkpt>
      <trkpt lat="45.54116" lon="5.9464">
        <ele>407.74</ele>
        <time>2014-03-30T15:22:51Z</time>
      </trkpt>
      <trkpt lat="45.54116" lon="5.94638">
        <ele>407.74</ele>
        <time>2014-03-30T15:22:52Z</time>
      </trkpt>
      <trkpt lat="45.54115" lon="5.94636">
        <ele>408.22</ele>
        <time>2014-03-30T15:22:53Z</time>
      </trkpt>
      <trkpt lat="45.54115" lon="5.94634">
        <ele>408.22</ele>
        <time>2014-03-30T15:22:54Z</time>
      </trkpt>
      <trkpt lat="45.54116" lon="5.94633">
        <ele>408.22</ele>
        <time>2014-03-30T15:22:55Z</time>
      </trkpt>
      <trkpt lat="45.54117" lon="5.94631">
        <ele>408.7</ele>
        <time>2014-03-30T15:22:56Z</time>
      </trkpt>
      <trkpt lat="45.54118" lon="5.9463">
        <ele>408.7</ele>
        <time>2014-03-30T15:22:57Z</time>
      </trkpt>
      <trkpt lat="45.54119" lon="5.94629">
        <ele>409.18</ele>
        <time>2014-03-30T15:22:58Z</time>
      </trkpt>
      <trkpt lat="45.54121" lon="5.94629">
        <ele>409.18</ele>
        <time>2014-03-30T15:22:59Z</time>
      </trkpt>
      <trkpt lat="45.54122" lon="5.94629">
        <ele>410.14</ele>
        <time>2014-03-30T15:23:00Z</time>
      </trkpt>
      <trkpt lat="45.54123" lon="5.94628">
        <ele>409.66</ele>
        <time>2014-03-30T15:23:01Z</time>
      </trkpt>
      <trkpt lat="45.54142" lon="5.94626">
        <ele>412.54</ele>
        <time>2014-03-30T15:23:15Z</time>
      </trkpt>
      <trkpt lat="45.54144" lon="5.94626">
        <ele>412.54</ele>
        <time>2014-03-30T15:23:16Z</time>
      </trkpt>
      <trkpt lat="45.54145" lon="5.94627">
        <ele>413.02</ele>
        <time>2014-03-30T15:23:17Z</time>
      </trkpt>
      <trkpt lat="45.5417" lon="5.94625">
        <ele>414.95</ele>
        <time>2014-03-30T15:23:32Z</time>
      </trkpt>
      <trkpt lat="45.54174" lon="5.94618">
        <ele>415.43</ele>
        <time>2014-03-30T15:23:36Z</time>
      </trkpt>
      <trkpt lat="45.54174" lon="5.94616">
        <ele>415.91</ele>
        <time>2014-03-30T15:23:37Z</time>
      </trkpt>
      <trkpt lat="45.54175" lon="5.94614">
        <ele>415.91</ele>
        <time>2014-03-30T15:23:38Z</time>
      </trkpt>
      <trkpt lat="45.54186" lon="5.94591">
        <ele>418.79</ele>
        <time>2014-03-30T15:23:52Z</time>
      </trkpt>
      <trkpt lat="45.54192" lon="5.94572">
        <ele>421.68</ele>
        <time>2014-03-30T15:24:04Z</time>
      </trkpt>
      <trkpt lat="45.54195" lon="5.94564">
        <ele>422.64</ele>
        <time>2014-03-30T15:24:10Z</time>
      </trkpt>
      <trkpt lat="45.54196" lon="5.9456">
        <ele>424.08</ele>
        <time>2014-03-30T15:24:12Z</time>
      </trkpt>
      <trkpt lat="45.54192" lon="5.94547">
        <ele>425.04</ele>
        <time>2014-03-30T15:24:24Z</time>
      </trkpt>
      <trkpt lat="45.54185" lon="5.94533">
        <ele>427.92</ele>
        <time>2014-03-30T15:24:40Z</time>
      </trkpt>
      <trkpt lat="45.54184" lon="5.94532">
        <ele>427.92</ele>
        <time>2014-03-30T15:24:41Z</time>
      </trkpt>
      <trkpt lat="45.54176" lon="5.9452">
        <ele>431.29</ele>
        <time>2014-03-30T15:24:56Z</time>
      </trkpt>
      <trkpt lat="45.5417" lon="5.94514">
        <ele>433.21</ele>
        <time>2014-03-30T15:25:13Z</time>
      </trkpt>
      <trkpt lat="45.54168" lon="5.94512">
        <ele>433.69</ele>
        <time>2014-03-30T15:25:16Z</time>
      </trkpt>
      <trkpt lat="45.54167" lon="5.94511">
        <ele>434.17</ele>
        <time>2014-03-30T15:25:17Z</time>
      </trkpt>
      <trkpt lat="45.54166" lon="5.94511">
        <ele>434.17</ele>
        <time>2014-03-30T15:25:18Z</time>
      </trkpt>
      <trkpt lat="45.54151" lon="5.94507">
        <ele>436.1</ele>
        <time>2014-03-30T15:25:28Z</time>
      </trkpt>
      <trkpt lat="45.54149" lon="5.94507">
        <ele>436.58</ele>
        <time>2014-03-30T15:25:29Z</time>
      </trkpt>
      <trkpt lat="45.54148" lon="5.94506">
        <ele>437.06</ele>
        <time>2014-03-30T15:25:30Z</time>
      </trkpt>
      <trkpt lat="45.54146" lon="5.94506">
        <ele>437.06</ele>
        <time>2014-03-30T15:25:31Z</time>
      </trkpt>
      <trkpt lat="45.54145" lon="5.94506">
        <ele>436.58</ele>
        <time>2014-03-30T15:25:32Z</time>
      </trkpt>
      <trkpt lat="45.54143" lon="5.94505">
        <ele>437.06</ele>
        <time>2014-03-30T15:25:33Z</time>
      </trkpt>
      <trkpt lat="45.54142" lon="5.94505">
        <ele>437.06</ele>
        <time>2014-03-30T15:25:34Z</time>
      </trkpt>
      <trkpt lat="45.54115" lon="5.94483">
        <ele>438.98</ele>
        <time>2014-03-30T15:25:50Z</time>
      </trkpt>
      <trkpt lat="45.54097" lon="5.94475">
        <ele>441.86</ele>
        <time>2014-03-30T15:26:03Z</time>
      </trkpt>
      <trkpt lat="45.5408" lon="5.94463">
        <ele>443.31</ele>
        <time>2014-03-30T15:26:15Z</time>
      </trkpt>
      <trkpt lat="45.54062" lon="5.94457">
        <ele>446.19</ele>
        <time>2014-03-30T15:26:28Z</time>
      </trkpt>
      <trkpt lat="45.54042" lon="5.94454">
        <ele>449.07</ele>
        <time>2014-03-30T15:26:43Z</time>
      </trkpt>
      <trkpt lat="45.5402" lon="5.94448">
        <ele>451.48</ele>
        <time>2014-03-30T15:27:00Z</time>
      </trkpt>
      <trkpt lat="45.54007" lon="5.94436">
        <ele>454.36</ele>
        <time>2014-03-30T15:27:12Z</time>
      </trkpt>
      <trkpt lat="45.53994" lon="5.94415">
        <ele>457.72</ele>
        <time>2014-03-30T15:27:28Z</time>
      </trkpt>
      <trkpt lat="45.53996" lon="5.94388">
        <ele>460.61</ele>
        <time>2014-03-30T15:27:42Z</time>
      </trkpt>
      <trkpt lat="45.54006" lon="5.94365">
        <ele>463.49</ele>
        <time>2014-03-30T15:27:58Z</time>
      </trkpt>
      <trkpt lat="45.54018" lon="5.94353">
        <ele>466.38</ele>
        <time>2014-03-30T15:28:12Z</time>
      </trkpt>
      <trkpt lat="45.54024" lon="5.94341">
        <ele>469.26</ele>
        <time>2014-03-30T15:28:25Z</time>
      </trkpt>
      <trkpt lat="45.54024" lon="5.9433">
        <ele>471.18</ele>
        <time>2014-03-30T15:28:38Z</time>
      </trkpt>
      <trkpt lat="45.54023" lon="5.94328">
        <ele>471.66</ele>
        <time>2014-03-30T15:28:44Z</time>
      </trkpt>
      <trkpt lat="45.54002" lon="5.94317">
        <ele>475.03</ele>
        <time>2014-03-30T15:28:59Z</time>
      </trkpt>
      <trkpt lat="45.53978" lon="5.94312">
        <ele>476.95</ele>
        <time>2014-03-30T15:29:13Z</time>
      </trkpt>
      <trkpt lat="45.53954" lon="5.94294">
        <ele>478.39</ele>
        <time>2014-03-30T15:29:28Z</time>
      </trkpt>
      <trkpt lat="45.53935" lon="5.94237">
        <ele>477.43</ele>
        <time>2014-03-30T15:29:42Z</time>
      </trkpt>
      <trkpt lat="45.53935" lon="5.94236">
        <ele>477.43</ele>
        <time>2014-03-30T15:29:56Z</time>
      </trkpt>
      <trkpt lat="45.53935" lon="5.94236">
        <ele>476.47</ele>
        <time>2014-03-30T15:30:39Z</time>
      </trkpt>
      <trkpt lat="45.53935" lon="5.94236">
        <ele>476.95</ele>
        <time>2014-03-30T15:31:23Z</time>
      </trkpt>
      <trkpt lat="45.53935" lon="5.94236">
        <ele>477.43</ele>
        <time>2014-03-30T15:32:04Z</time>
      </trkpt>
      <trkpt lat="45.53936" lon="5.94236">
        <ele>476.95</ele>
        <time>2014-03-30T15:32:43Z</time>
      </trkpt>
      <trkpt lat="45.53936" lon="5.94237">
        <ele>477.43</ele>
        <time>2014-03-30T15:33:18Z</time>
      </trkpt>
      <trkpt lat="45.53926" lon="5.94228">
        <ele>477.91</ele>
        <time>2014-03-30T15:33:30Z</time>
      </trkpt>
      <trkpt lat="45.53892" lon="5.94209">
        <ele>480.32</ele>
        <time>2014-03-30T15:33:49Z</time>
      </trkpt>
      <trkpt lat="45.53869" lon="5.94204">
        <ele>482.72</ele>
        <time>2014-03-30T15:34:03Z</time>
      </trkpt>
      <trkpt lat="45.53846" lon="5.94193">
        <ele>485.12</ele>
        <time>2014-03-30T15:34:17Z</time>
      </trkpt>
      <trkpt lat="45.5382" lon="5.94173">
        <ele>486.56</ele>
        <time>2014-03-30T15:34:34Z</time>
      </trkpt>
      <trkpt lat="45.53797" lon="5.9416">
        <ele>489.45</ele>
        <time>2014-03-30T15:34:49Z</time>
      </trkpt>
      <trkpt lat="45.53777" lon="5.94162">
        <ele>492.33</ele>
        <time>2014-03-30T15:35:02Z</time>
      </trkpt>
      <trkpt lat="45.5375" lon="5.94145">
        <ele>492.81</ele>
        <time>2014-03-30T15:35:17Z</time>
      </trkpt>
      <trkpt lat="45.53714" lon="5.94114">
        <ele>493.29</ele>
        <time>2014-03-30T15:35:32Z</time>
      </trkpt>
      <trkpt lat="45.53682" lon="5.94104">
        <ele>494.74</ele>
        <time>2014-03-30T15:35:46Z</time>
      </trkpt>
      <trkpt lat="45.5365" lon="5.94108">
        <ele>497.14</ele>
        <time>2014-03-30T15:36:00Z</time>
      </trkpt>
      <trkpt lat="45.53605" lon="5.94107">
        <ele>499.54</ele>
        <time>2014-03-30T15:36:18Z</time>
      </trkpt>
      <trkpt lat="45.53577" lon="5.94097">
        <ele>501.95</ele>
        <time>2014-03-30T15:36:32Z</time>
      </trkpt>
      <trkpt lat="45.53582" lon="5.94085">
        <ele>503.39</ele>
        <time>2014-03-30T15:36:39Z</time>
      </trkpt>
      <trkpt lat="45.53607" lon="5.94072">
        <ele>506.27</ele>
        <time>2014-03-30T15:36:54Z</time>
      </trkpt>
      <trkpt lat="45.53632" lon="5.9406">
        <ele>509.16</ele>
        <time>2014-03-30T15:37:09Z</time>
      </trkpt>
      <trkpt lat="45.53659" lon="5.94048">
        <ele>512.04</ele>
        <time>2014-03-30T15:37:25Z</time>
      </trkpt>
      <trkpt lat="45.53672" lon="5.94027">
        <ele>513.96</ele>
        <time>2014-03-30T15:37:37Z</time>
      </trkpt>
      <trkpt lat="45.5367" lon="5.94022">
        <ele>514.44</ele>
        <time>2014-03-30T15:37:39Z</time>
      </trkpt>
      <trkpt lat="45.53657" lon="5.94019">
        <ele>515.4</ele>
        <time>2014-03-30T15:37:45Z</time>
      </trkpt>
      <trkpt lat="45.53622" lon="5.94011">
        <ele>517.81</ele>
        <time>2014-03-30T15:38:03Z</time>
      </trkpt>
      <trkpt lat="45.53597" lon="5.93999">
        <ele>521.17</ele>
        <time>2014-03-30T15:38:17Z</time>
      </trkpt>
      <trkpt lat="45.53571" lon="5.93994">
        <ele>523.58</ele>
        <time>2014-03-30T15:38:32Z</time>
      </trkpt>
      <trkpt lat="45.53546" lon="5.93988">
        <ele>526.94</ele>
        <time>2014-03-30T15:38:46Z</time>
      </trkpt>
      <trkpt lat="45.53544" lon="5.93988">
        <ele>527.42</ele>
        <time>2014-03-30T15:38:47Z</time>
      </trkpt>
      <trkpt lat="45.53521" lon="5.93977">
        <ele>529.34</ele>
        <time>2014-03-30T15:39:01Z</time>
      </trkpt>
      <trkpt lat="45.53498" lon="5.93975">
        <ele>531.75</ele>
        <time>2014-03-30T15:39:15Z</time>
      </trkpt>
      <trkpt lat="45.53479" lon="5.93974">
        <ele>533.67</ele>
        <time>2014-03-30T15:39:29Z</time>
      </trkpt>
      <trkpt lat="45.53485" lon="5.93965">
        <ele>535.11</ele>
        <time>2014-03-30T15:39:35Z</time>
      </trkpt>
      <trkpt lat="45.53502" lon="5.93942">
        <ele>537.99</ele>
        <time>2014-03-30T15:39:51Z</time>
      </trkpt>
      <trkpt lat="45.53515" lon="5.93919">
        <ele>541.36</ele>
        <time>2014-03-30T15:40:06Z</time>
      </trkpt>
      <trkpt lat="45.53526" lon="5.93908">
        <ele>542.8</ele>
        <time>2014-03-30T15:40:15Z</time>
      </trkpt>
      <trkpt lat="45.53544" lon="5.93893">
        <ele>546.65</ele>
        <time>2014-03-30T15:40:31Z</time>
      </trkpt>
      <trkpt lat="45.53561" lon="5.93877">
        <ele>548.57</ele>
        <time>2014-03-30T15:40:47Z</time>
      </trkpt>
      <trkpt lat="45.53565" lon="5.93874">
        <ele>549.53</ele>
        <time>2014-03-30T15:40:50Z</time>
      </trkpt>
      <trkpt lat="45.53573" lon="5.9387">
        <ele>550.49</ele>
        <time>2014-03-30T15:40:57Z</time>
      </trkpt>
      <trkpt lat="45.53576" lon="5.93868">
        <ele>550.97</ele>
        <time>2014-03-30T15:41:00Z</time>
      </trkpt>
      <trkpt lat="45.53588" lon="5.93854">
        <ele>553.38</ele>
        <time>2014-03-30T15:41:14Z</time>
      </trkpt>
      <trkpt lat="45.53598" lon="5.93849">
        <ele>555.78</ele>
        <time>2014-03-30T15:41:23Z</time>
      </trkpt>
      <trkpt lat="45.53602" lon="5.93844">
        <ele>556.26</ele>
        <time>2014-03-30T15:41:38Z</time>
      </trkpt>
      <trkpt lat="45.53601" lon="5.9384">
        <ele>557.22</ele>
        <time>2014-03-30T15:41:49Z</time>
      </trkpt>
      <trkpt lat="45.53595" lon="5.93835">
        <ele>558.66</ele>
        <time>2014-03-30T15:41:53Z</time>
      </trkpt>
      <trkpt lat="45.53578" lon="5.93828">
        <ele>561.07</ele>
        <time>2014-03-30T15:42:05Z</time>
      </trkpt>
      <trkpt lat="45.5356" lon="5.93821">
        <ele>564.43</ele>
        <time>2014-03-30T15:42:20Z</time>
      </trkpt>
      <trkpt lat="45.53553" lon="5.93815">
        <ele>564.91</ele>
        <time>2014-03-30T15:42:32Z</time>
      </trkpt>
      <trkpt lat="45.53548" lon="5.93811">
        <ele>566.83</ele>
        <time>2014-03-30T15:42:45Z</time>
      </trkpt>
      <trkpt lat="45.53544" lon="5.93799">
        <ele>570.2</ele>
        <time>2014-03-30T15:43:01Z</time>
      </trkpt>
      <trkpt lat="45.53545" lon="5.93789">
        <ele>572.6</ele>
        <time>2014-03-30T15:43:15Z</time>
      </trkpt>
      <trkpt lat="45.53552" lon="5.93777">
        <ele>575.01</ele>
        <time>2014-03-30T15:43:29Z</time>
      </trkpt>
      <trkpt lat="45.53554" lon="5.93773">
        <ele>575.97</ele>
        <time>2014-03-30T15:43:45Z</time>
      </trkpt>
      <trkpt lat="45.53557" lon="5.93772">
        <ele>576.45</ele>
        <time>2014-03-30T15:43:57Z</time>
      </trkpt>
      <trkpt lat="45.53573" lon="5.93754">
        <ele>579.81</ele>
        <time>2014-03-30T15:44:12Z</time>
      </trkpt>
      <trkpt lat="45.53585" lon="5.93741">
        <ele>582.7</ele>
        <time>2014-03-30T15:44:24Z</time>
      </trkpt>
      <trkpt lat="45.53599" lon="5.93728">
        <ele>586.54</ele>
        <time>2014-03-30T15:44:39Z</time>
      </trkpt>
      <trkpt lat="45.53603" lon="5.93722">
        <ele>587.02</ele>
        <time>2014-03-30T15:44:44Z</time>
      </trkpt>
      <trkpt lat="45.53606" lon="5.93716">
        <ele>588.46</ele>
        <time>2014-03-30T15:44:49Z</time>
      </trkpt>
      <trkpt lat="45.53611" lon="5.93711">
        <ele>589.43</ele>
        <time>2014-03-30T15:44:55Z</time>
      </trkpt>
      <trkpt lat="45.53624" lon="5.93699">
        <ele>592.31</ele>
        <time>2014-03-30T15:45:10Z</time>
      </trkpt>
      <trkpt lat="45.53639" lon="5.93683">
        <ele>596.15</ele>
        <time>2014-03-30T15:45:29Z</time>
      </trkpt>
      <trkpt lat="45.53643" lon="5.93675">
        <ele>598.08</ele>
        <time>2014-03-30T15:45:35Z</time>
      </trkpt>
      <trkpt lat="45.53646" lon="5.93672">
        <ele>599.04</ele>
        <time>2014-03-30T15:45:38Z</time>
      </trkpt>
      <trkpt lat="45.53657" lon="5.93658">
        <ele>601.44</ele>
        <time>2014-03-30T15:45:51Z</time>
      </trkpt>
      <trkpt lat="45.53669" lon="5.93644">
        <ele>604.33</ele>
        <time>2014-03-30T15:46:06Z</time>
      </trkpt>
      <trkpt lat="45.53676" lon="5.93634">
        <ele>606.25</ele>
        <time>2014-03-30T15:46:19Z</time>
      </trkpt>
      <trkpt lat="45.53679" lon="5.93627">
        <ele>607.69</ele>
        <time>2014-03-30T15:46:31Z</time>
      </trkpt>
      <trkpt lat="45.53679" lon="5.93623">
        <ele>608.65</ele>
        <time>2014-03-30T15:46:44Z</time>
      </trkpt>
      <trkpt lat="45.5368" lon="5.93623">
        <ele>608.65</ele>
        <time>2014-03-30T15:46:55Z</time>
      </trkpt>
      <trkpt lat="45.53684" lon="5.93616">
        <ele>609.61</ele>
        <time>2014-03-30T15:47:00Z</time>
      </trkpt>
      <trkpt lat="45.53689" lon="5.93608">
        <ele>610.57</ele>
        <time>2014-03-30T15:47:06Z</time>
      </trkpt>
      <trkpt lat="45.53693" lon="5.93601">
        <ele>612.98</ele>
        <time>2014-03-30T15:47:11Z</time>
      </trkpt>
      <trkpt lat="45.53698" lon="5.93593">
        <ele>614.42</ele>
        <time>2014-03-30T15:47:16Z</time>
      </trkpt>
      <trkpt lat="45.53701" lon="5.93576">
        <ele>616.82</ele>
        <time>2014-03-30T15:47:25Z</time>
      </trkpt>
      <trkpt lat="45.537" lon="5.93568">
        <ele>617.78</ele>
        <time>2014-03-30T15:47:30Z</time>
      </trkpt>
      <trkpt lat="45.53694" lon="5.93548">
        <ele>620.19</ele>
        <time>2014-03-30T15:47:40Z</time>
      </trkpt>
      <trkpt lat="45.53695" lon="5.93543">
        <ele>620.67</ele>
        <time>2014-03-30T15:47:43Z</time>
      </trkpt>
      <trkpt lat="45.53701" lon="5.9354">
        <ele>621.15</ele>
        <time>2014-03-30T15:47:49Z</time>
      </trkpt>
      <trkpt lat="45.53707" lon="5.93543">
        <ele>622.11</ele>
        <time>2014-03-30T15:47:54Z</time>
      </trkpt>
      <trkpt lat="45.53708" lon="5.93543">
        <ele>622.59</ele>
        <time>2014-03-30T15:48:09Z</time>
      </trkpt>
      <trkpt lat="45.53708" lon="5.93543">
        <ele>618.26</ele>
        <time>2014-03-30T15:48:18Z</time>
      </trkpt>
      <trkpt lat="45.53708" lon="5.93543">
        <ele>619.71</ele>
        <time>2014-03-30T15:48:19Z</time>
      </trkpt>
      <trkpt lat="45.53708" lon="5.93543">
        <ele>622.59</ele>
        <time>2014-03-30T15:48:24Z</time>
      </trkpt>
      <trkpt lat="45.53707" lon="5.93541">
        <ele>622.59</ele>
        <time>2014-03-30T15:48:43Z</time>
      </trkpt>
      <trkpt lat="45.53707" lon="5.93541">
        <ele>622.11</ele>
        <time>2014-03-30T15:49:02Z</time>
      </trkpt>
      <trkpt lat="45.53705" lon="5.9354">
        <ele>622.59</ele>
        <time>2014-03-30T15:49:26Z</time>
      </trkpt>
      <trkpt lat="45.53704" lon="5.9354">
        <ele>622.59</ele>
        <time>2014-03-30T15:49:41Z</time>
      </trkpt>
      <trkpt lat="45.53685" lon="5.93533">
        <ele>620.19</ele>
        <time>2014-03-30T15:49:50Z</time>
      </trkpt>
      <trkpt lat="45.53682" lon="5.93521">
        <ele>616.34</ele>
        <time>2014-03-30T15:49:54Z</time>
      </trkpt>
      <trkpt lat="45.53681" lon="5.93516">
        <ele>613.46</ele>
        <time>2014-03-30T15:49:56Z</time>
      </trkpt>
      <trkpt lat="45.53681" lon="5.9351">
        <ele>611.06</ele>
        <time>2014-03-30T15:49:58Z</time>
      </trkpt>
      <trkpt lat="45.53681" lon="5.93508">
        <ele>609.13</ele>
        <time>2014-03-30T15:49:59Z</time>
      </trkpt>
      <trkpt lat="45.53694" lon="5.93477">
        <ele>606.25</ele>
        <time>2014-03-30T15:50:02Z</time>
      </trkpt>
      <trkpt lat="45.53696" lon="5.93467">
        <ele>604.33</ele>
        <time>2014-03-30T15:50:04Z</time>
      </trkpt>
      <trkpt lat="45.53699" lon="5.93451">
        <ele>599.52</ele>
        <time>2014-03-30T15:50:08Z</time>
      </trkpt>
      <trkpt lat="45.53711" lon="5.93444">
        <ele>598.56</ele>
        <time>2014-03-30T15:50:26Z</time>
      </trkpt>
      <trkpt lat="45.53714" lon="5.93447">
        <ele>595.19</ele>
        <time>2014-03-30T15:50:34Z</time>
      </trkpt>
      <trkpt lat="45.53719" lon="5.93447">
        <ele>594.23</ele>
        <time>2014-03-30T15:50:36Z</time>
      </trkpt>
      <trkpt lat="45.53732" lon="5.93449">
        <ele>590.87</ele>
        <time>2014-03-30T15:50:41Z</time>
      </trkpt>
      <trkpt lat="45.53738" lon="5.93453">
        <ele>588.95</ele>
        <time>2014-03-30T15:50:44Z</time>
      </trkpt>
      <trkpt lat="45.53743" lon="5.93456">
        <ele>587.02</ele>
        <time>2014-03-30T15:50:48Z</time>
      </trkpt>
      <trkpt lat="45.53746" lon="5.93459">
        <ele>585.58</ele>
        <time>2014-03-30T15:50:50Z</time>
      </trkpt>
      <trkpt lat="45.53753" lon="5.93459">
        <ele>583.18</ele>
        <time>2014-03-30T15:50:53Z</time>
      </trkpt>
      <trkpt lat="45.53766" lon="5.93459">
        <ele>578.85</ele>
        <time>2014-03-30T15:50:58Z</time>
      </trkpt>
      <trkpt lat="45.53776" lon="5.93462">
        <ele>575.97</ele>
        <time>2014-03-30T15:51:03Z</time>
      </trkpt>
      <trkpt lat="45.53782" lon="5.93462">
        <ele>574.53</ele>
        <time>2014-03-30T15:51:05Z</time>
      </trkpt>
      <trkpt lat="45.5379" lon="5.93461">
        <ele>572.6</ele>
        <time>2014-03-30T15:51:09Z</time>
      </trkpt>
      <trkpt lat="45.538" lon="5.93466">
        <ele>570.2</ele>
        <time>2014-03-30T15:51:14Z</time>
      </trkpt>
      <trkpt lat="45.53809" lon="5.93471">
        <ele>566.83</ele>
        <time>2014-03-30T15:51:18Z</time>
      </trkpt>
      <trkpt lat="45.5381" lon="5.9347">
        <ele>565.39</ele>
        <time>2014-03-30T15:51:20Z</time>
      </trkpt>
      <trkpt lat="45.53821" lon="5.93475">
        <ele>562.03</ele>
        <time>2014-03-30T15:51:24Z</time>
      </trkpt>
      <trkpt lat="45.53826" lon="5.93477">
        <ele>561.55</ele>
        <time>2014-03-30T15:51:25Z</time>
      </trkpt>
      <trkpt lat="45.53838" lon="5.9348">
        <ele>560.11</ele>
        <time>2014-03-30T15:51:28Z</time>
      </trkpt>
      <trkpt lat="45.53842" lon="5.9348">
        <ele>558.66</ele>
        <time>2014-03-30T15:51:29Z</time>
      </trkpt>
      <trkpt lat="45.53857" lon="5.93478">
        <ele>555.3</ele>
        <time>2014-03-30T15:51:33Z</time>
      </trkpt>
      <trkpt lat="45.53862" lon="5.93477">
        <ele>553.86</ele>
        <time>2014-03-30T15:51:35Z</time>
      </trkpt>
      <trkpt lat="45.5387" lon="5.93479">
        <ele>551.45</ele>
        <time>2014-03-30T15:51:37Z</time>
      </trkpt>
      <trkpt lat="45.53883" lon="5.93482">
        <ele>548.09</ele>
        <time>2014-03-30T15:51:41Z</time>
      </trkpt>
      <trkpt lat="45.53886" lon="5.9348">
        <ele>546.65</ele>
        <time>2014-03-30T15:51:42Z</time>
      </trkpt>
      <trkpt lat="45.53897" lon="5.93478">
        <ele>543.28</ele>
        <time>2014-03-30T15:51:45Z</time>
      </trkpt>
      <trkpt lat="45.539" lon="5.93478">
        <ele>542.8</ele>
        <time>2014-03-30T15:51:46Z</time>
      </trkpt>
      <trkpt lat="45.53906" lon="5.93475">
        <ele>538.96</ele>
        <time>2014-03-30T15:51:49Z</time>
      </trkpt>
      <trkpt lat="45.53921" lon="5.93476">
        <ele>536.07</ele>
        <time>2014-03-30T15:51:53Z</time>
      </trkpt>
      <trkpt lat="45.53942" lon="5.93484">
        <ele>532.71</ele>
        <time>2014-03-30T15:52:02Z</time>
      </trkpt>
      <trkpt lat="45.53958" lon="5.93485">
        <ele>529.82</ele>
        <time>2014-03-30T15:52:08Z</time>
      </trkpt>
      <trkpt lat="45.5397" lon="5.93489">
        <ele>526.46</ele>
        <time>2014-03-30T15:52:12Z</time>
      </trkpt>
      <trkpt lat="45.53985" lon="5.93491">
        <ele>522.61</ele>
        <time>2014-03-30T15:52:16Z</time>
      </trkpt>
      <trkpt lat="45.53998" lon="5.93494">
        <ele>519.73</ele>
        <time>2014-03-30T15:52:19Z</time>
      </trkpt>
      <trkpt lat="45.54002" lon="5.93497">
        <ele>518.77</ele>
        <time>2014-03-30T15:52:20Z</time>
      </trkpt>
      <trkpt lat="45.54015" lon="5.93506">
        <ele>515.4</ele>
        <time>2014-03-30T15:52:23Z</time>
      </trkpt>
      <trkpt lat="45.54034" lon="5.93519">
        <ele>512.04</ele>
        <time>2014-03-30T15:52:27Z</time>
      </trkpt>
      <trkpt lat="45.54044" lon="5.93526">
        <ele>510.6</ele>
        <time>2014-03-30T15:52:29Z</time>
      </trkpt>
      <trkpt lat="45.54048" lon="5.93531">
        <ele>510.12</ele>
        <time>2014-03-30T15:52:30Z</time>
      </trkpt>
      <trkpt lat="45.54053" lon="5.93535">
        <ele>509.16</ele>
        <time>2014-03-30T15:52:31Z</time>
      </trkpt>
      <trkpt lat="45.54057" lon="5.9354">
        <ele>508.67</ele>
        <time>2014-03-30T15:52:32Z</time>
      </trkpt>
      <trkpt lat="45.54059" lon="5.93544">
        <ele>507.71</ele>
        <time>2014-03-30T15:52:33Z</time>
      </trkpt>
      <trkpt lat="45.54062" lon="5.93551">
        <ele>506.75</ele>
        <time>2014-03-30T15:52:34Z</time>
      </trkpt>
      <trkpt lat="45.54065" lon="5.93564">
        <ele>506.27</ele>
        <time>2014-03-30T15:52:36Z</time>
      </trkpt>
      <trkpt lat="45.54078" lon="5.93588">
        <ele>502.91</ele>
        <time>2014-03-30T15:52:41Z</time>
      </trkpt>
      <trkpt lat="45.54083" lon="5.93592">
        <ele>501.95</ele>
        <time>2014-03-30T15:52:42Z</time>
      </trkpt>
      <trkpt lat="45.54087" lon="5.93597">
        <ele>501.46</ele>
        <time>2014-03-30T15:52:43Z</time>
      </trkpt>
      <trkpt lat="45.54098" lon="5.93605">
        <ele>499.06</ele>
        <time>2014-03-30T15:52:46Z</time>
      </trkpt>
      <trkpt lat="45.54106" lon="5.93597">
        <ele>495.7</ele>
        <time>2014-03-30T15:52:50Z</time>
      </trkpt>
      <trkpt lat="45.54107" lon="5.93594">
        <ele>494.74</ele>
        <time>2014-03-30T15:52:51Z</time>
      </trkpt>
      <trkpt lat="45.54107" lon="5.93584">
        <ele>492.81</ele>
        <time>2014-03-30T15:52:53Z</time>
      </trkpt>
      <trkpt lat="45.54107" lon="5.93578">
        <ele>491.85</ele>
        <time>2014-03-30T15:52:54Z</time>
      </trkpt>
      <trkpt lat="45.54107" lon="5.93573">
        <ele>492.33</ele>
        <time>2014-03-30T15:52:55Z</time>
      </trkpt>
      <trkpt lat="45.54107" lon="5.9357">
        <ele>491.37</ele>
        <time>2014-03-30T15:53:02Z</time>
      </trkpt>
      <trkpt lat="45.54105" lon="5.93561">
        <ele>489.93</ele>
        <time>2014-03-30T15:53:13Z</time>
      </trkpt>
      <trkpt lat="45.54103" lon="5.93556">
        <ele>489.45</ele>
        <time>2014-03-30T15:53:14Z</time>
      </trkpt>
      <trkpt lat="45.54092" lon="5.93542">
        <ele>490.41</ele>
        <time>2014-03-30T15:53:20Z</time>
      </trkpt>
      <trkpt lat="45.54091" lon="5.93542">
        <ele>490.41</ele>
        <time>2014-03-30T15:53:32Z</time>
      </trkpt>
      <trkpt lat="45.54084" lon="5.93535">
        <ele>490.89</ele>
        <time>2014-03-30T15:53:47Z</time>
      </trkpt>
      <trkpt lat="45.5406" lon="5.93507">
        <ele>492.81</ele>
        <time>2014-03-30T15:54:02Z</time>
      </trkpt>
      <trkpt lat="45.54031" lon="5.9347">
        <ele>495.7</ele>
        <time>2014-03-30T15:54:20Z</time>
      </trkpt>
      <trkpt lat="45.54002" lon="5.93436">
        <ele>496.66</ele>
        <time>2014-03-30T15:54:36Z</time>
      </trkpt>
      <trkpt lat="45.53982" lon="5.93408">
        <ele>500.02</ele>
        <time>2014-03-30T15:54:51Z</time>
      </trkpt>
      <trkpt lat="45.53967" lon="5.93373">
        <ele>502.43</ele>
        <time>2014-03-30T15:55:07Z</time>
      </trkpt>
      <trkpt lat="45.53962" lon="5.93334">
        <ele>503.39</ele>
        <time>2014-03-30T15:55:21Z</time>
      </trkpt>
      <trkpt lat="45.5398" lon="5.93278">
        <ele>505.31</ele>
        <time>2014-03-30T15:55:39Z</time>
      </trkpt>
      <trkpt lat="45.54007" lon="5.93254">
        <ele>508.19</ele>
        <time>2014-03-30T15:55:54Z</time>
      </trkpt>
      <trkpt lat="45.54038" lon="5.93243">
        <ele>511.08</ele>
        <time>2014-03-30T15:56:09Z</time>
      </trkpt>
      <trkpt lat="45.54068" lon="5.93244">
        <ele>513.48</ele>
        <time>2014-03-30T15:56:25Z</time>
      </trkpt>
      <trkpt lat="45.54056" lon="5.93219">
        <ele>514.92</ele>
        <time>2014-03-30T15:56:36Z</time>
      </trkpt>
      <trkpt lat="45.54024" lon="5.93211">
        <ele>517.81</ele>
        <time>2014-03-30T15:56:51Z</time>
      </trkpt>
      <trkpt lat="45.53997" lon="5.93201">
        <ele>520.69</ele>
        <time>2014-03-30T15:57:05Z</time>
      </trkpt>
      <trkpt lat="45.5397" lon="5.93189">
        <ele>523.58</ele>
        <time>2014-03-30T15:57:20Z</time>
      </trkpt>
      <trkpt lat="45.53942" lon="5.93164">
        <ele>525.98</ele>
        <time>2014-03-30T15:57:38Z</time>
      </trkpt>
      <trkpt lat="45.53917" lon="5.93142">
        <ele>528.86</ele>
        <time>2014-03-30T15:57:54Z</time>
      </trkpt>
      <trkpt lat="45.53896" lon="5.93121">
        <ele>531.27</ele>
        <time>2014-03-30T15:58:09Z</time>
      </trkpt>
      <trkpt lat="45.5387" lon="5.931">
        <ele>534.15</ele>
        <time>2014-03-30T15:58:26Z</time>
      </trkpt>
      <trkpt lat="45.53853" lon="5.93084">
        <ele>536.07</ele>
        <time>2014-03-30T15:58:38Z</time>
      </trkpt>
      <trkpt lat="45.5383" lon="5.93069">
        <ele>537.99</ele>
        <time>2014-03-30T15:58:53Z</time>
      </trkpt>
      <trkpt lat="45.53809" lon="5.93092">
        <ele>540.4</ele>
        <time>2014-03-30T15:59:08Z</time>
      </trkpt>
      <trkpt lat="45.53786" lon="5.93105">
        <ele>543.28</ele>
        <time>2014-03-30T15:59:23Z</time>
      </trkpt>
      <trkpt lat="45.53785" lon="5.93103">
        <ele>543.28</ele>
        <time>2014-03-30T15:59:24Z</time>
      </trkpt>
      <trkpt lat="45.53784" lon="5.931">
        <ele>543.28</ele>
        <time>2014-03-30T15:59:25Z</time>
      </trkpt>
      <trkpt lat="45.53783" lon="5.93098">
        <ele>543.76</ele>
        <time>2014-03-30T15:59:26Z</time>
      </trkpt>
      <trkpt lat="45.53783" lon="5.93095">
        <ele>543.28</ele>
        <time>2014-03-30T15:59:27Z</time>
      </trkpt>
      <trkpt lat="45.53783" lon="5.93092">
        <ele>543.76</ele>
        <time>2014-03-30T15:59:28Z</time>
      </trkpt>
      <trkpt lat="45.53784" lon="5.93089">
        <ele>543.76</ele>
        <time>2014-03-30T15:59:29Z</time>
      </trkpt>
      <trkpt lat="45.53785" lon="5.93087">
        <ele>543.76</ele>
        <time>2014-03-30T15:59:30Z</time>
      </trkpt>
      <trkpt lat="45.53787" lon="5.93085">
        <ele>543.76</ele>
        <time>2014-03-30T15:59:31Z</time>
      </trkpt>
      <trkpt lat="45.53788" lon="5.93083">
        <ele>544.24</ele>
        <time>2014-03-30T15:59:32Z</time>
      </trkpt>
      <trkpt lat="45.5379" lon="5.93081">
        <ele>544.24</ele>
        <time>2014-03-30T15:59:33Z</time>
      </trkpt>
      <trkpt lat="45.53791" lon="5.93079">
        <ele>544.24</ele>
        <time>2014-03-30T15:59:34Z</time>
      </trkpt>
      <trkpt lat="45.53808" lon="5.93036">
        <ele>546.17</ele>
        <time>2014-03-30T15:59:50Z</time>
      </trkpt>
      <trkpt lat="45.53827" lon="5.93004">
        <ele>548.09</ele>
        <time>2014-03-30T16:00:05Z</time>
      </trkpt>
      <trkpt lat="45.53858" lon="5.92986">
        <ele>550.97</ele>
        <time>2014-03-30T16:00:22Z</time>
      </trkpt>
      <trkpt lat="45.53891" lon="5.92974">
        <ele>553.86</ele>
        <time>2014-03-30T16:00:39Z</time>
      </trkpt>
      <trkpt lat="45.53923" lon="5.92977">
        <ele>556.26</ele>
        <time>2014-03-30T16:00:56Z</time>
      </trkpt>
      <trkpt lat="45.53956" lon="5.92968">
        <ele>558.66</ele>
        <time>2014-03-30T16:01:13Z</time>
      </trkpt>
      <trkpt lat="45.53992" lon="5.92963">
        <ele>560.59</ele>
        <time>2014-03-30T16:01:30Z</time>
      </trkpt>
      <trkpt lat="45.54025" lon="5.9296">
        <ele>563.47</ele>
        <time>2014-03-30T16:01:47Z</time>
      </trkpt>
      <trkpt lat="45.54028" lon="5.92955">
        <ele>563.47</ele>
        <time>2014-03-30T16:01:49Z</time>
      </trkpt>
      <trkpt lat="45.54019" lon="5.92918">
        <ele>565.39</ele>
        <time>2014-03-30T16:02:03Z</time>
      </trkpt>
      <trkpt lat="45.53986" lon="5.92909">
        <ele>567.32</ele>
        <time>2014-03-30T16:02:18Z</time>
      </trkpt>
      <trkpt lat="45.53956" lon="5.92902">
        <ele>570.68</ele>
        <time>2014-03-30T16:02:33Z</time>
      </trkpt>
      <trkpt lat="45.53921" lon="5.92888">
        <ele>573.56</ele>
        <time>2014-03-30T16:02:52Z</time>
      </trkpt>
      <trkpt lat="45.539" lon="5.92875">
        <ele>575.49</ele>
        <time>2014-03-30T16:03:05Z</time>
      </trkpt>
      <trkpt lat="45.53873" lon="5.92857">
        <ele>578.37</ele>
        <time>2014-03-30T16:03:21Z</time>
      </trkpt>
      <trkpt lat="45.53845" lon="5.92848">
        <ele>580.77</ele>
        <time>2014-03-30T16:03:37Z</time>
      </trkpt>
      <trkpt lat="45.53812" lon="5.92838">
        <ele>583.66</ele>
        <time>2014-03-30T16:03:55Z</time>
      </trkpt>
      <trkpt lat="45.53779" lon="5.9283">
        <ele>586.54</ele>
        <time>2014-03-30T16:04:13Z</time>
      </trkpt>
      <trkpt lat="45.5375" lon="5.92818">
        <ele>588.95</ele>
        <time>2014-03-30T16:04:29Z</time>
      </trkpt>
      <trkpt lat="45.53722" lon="5.92808">
        <ele>591.35</ele>
        <time>2014-03-30T16:04:45Z</time>
      </trkpt>
      <trkpt lat="45.53693" lon="5.92799">
        <ele>594.23</ele>
        <time>2014-03-30T16:05:00Z</time>
      </trkpt>
      <trkpt lat="45.53657" lon="5.92795">
        <ele>596.64</ele>
        <time>2014-03-30T16:05:17Z</time>
      </trkpt>
      <trkpt lat="45.53632" lon="5.92796">
        <ele>599.52</ele>
        <time>2014-03-30T16:05:30Z</time>
      </trkpt>
      <trkpt lat="45.5363" lon="5.92795">
        <ele>599.52</ele>
        <time>2014-03-30T16:05:31Z</time>
      </trkpt>
      <trkpt lat="45.53599" lon="5.92792">
        <ele>600.48</ele>
        <time>2014-03-30T16:05:46Z</time>
      </trkpt>
      <trkpt lat="45.53581" lon="5.92793">
        <ele>601.92</ele>
        <time>2014-03-30T16:05:54Z</time>
      </trkpt>
      <trkpt lat="45.53537" lon="5.92796">
        <ele>603.36</ele>
        <time>2014-03-30T16:06:10Z</time>
      </trkpt>
      <trkpt lat="45.53504" lon="5.92825">
        <ele>603.36</ele>
        <time>2014-03-30T16:06:23Z</time>
      </trkpt>
      <trkpt lat="45.53453" lon="5.92826">
        <ele>603.85</ele>
        <time>2014-03-30T16:06:39Z</time>
      </trkpt>
      <trkpt lat="45.53404" lon="5.92842">
        <ele>605.29</ele>
        <time>2014-03-30T16:06:54Z</time>
      </trkpt>
      <trkpt lat="45.53359" lon="5.92858">
        <ele>602.4</ele>
        <time>2014-03-30T16:07:06Z</time>
      </trkpt>
      <trkpt lat="45.53293" lon="5.92865">
        <ele>604.81</ele>
        <time>2014-03-30T16:07:20Z</time>
      </trkpt>
      <trkpt lat="45.53229" lon="5.92862">
        <ele>604.33</ele>
        <time>2014-03-30T16:07:35Z</time>
      </trkpt>
      <trkpt lat="45.53158" lon="5.92843">
        <ele>603.36</ele>
        <time>2014-03-30T16:07:49Z</time>
      </trkpt>
      <trkpt lat="45.53088" lon="5.92794">
        <ele>602.88</ele>
        <time>2014-03-30T16:08:04Z</time>
      </trkpt>
      <trkpt lat="45.5302" lon="5.92756">
        <ele>603.36</ele>
        <time>2014-03-30T16:08:19Z</time>
      </trkpt>
      <trkpt lat="45.52966" lon="5.92723">
        <ele>606.25</ele>
        <time>2014-03-30T16:08:35Z</time>
      </trkpt>
      <trkpt lat="45.52919" lon="5.92706">
        <ele>608.17</ele>
        <time>2014-03-30T16:08:51Z</time>
      </trkpt>
      <trkpt lat="45.52878" lon="5.92694">
        <ele>610.57</ele>
        <time>2014-03-30T16:09:07Z</time>
      </trkpt>
      <trkpt lat="45.52839" lon="5.9268">
        <ele>612.02</ele>
        <time>2014-03-30T16:09:22Z</time>
      </trkpt>
      <trkpt lat="45.52804" lon="5.92652">
        <ele>615.38</ele>
        <time>2014-03-30T16:09:39Z</time>
      </trkpt>
      <trkpt lat="45.52766" lon="5.92637">
        <ele>616.34</ele>
        <time>2014-03-30T16:09:55Z</time>
      </trkpt>
      <trkpt lat="45.52726" lon="5.92616">
        <ele>618.26</ele>
        <time>2014-03-30T16:10:11Z</time>
      </trkpt>
      <trkpt lat="45.52692" lon="5.92596">
        <ele>621.15</ele>
        <time>2014-03-30T16:10:26Z</time>
      </trkpt>
      <trkpt lat="45.52661" lon="5.92582">
        <ele>624.51</ele>
        <time>2014-03-30T16:10:42Z</time>
      </trkpt>
      <trkpt lat="45.52637" lon="5.92573">
        <ele>627.88</ele>
        <time>2014-03-30T16:10:56Z</time>
      </trkpt>
      <trkpt lat="45.52608" lon="5.9256">
        <ele>630.28</ele>
        <time>2014-03-30T16:11:13Z</time>
      </trkpt>
      <trkpt lat="45.52569" lon="5.92553">
        <ele>633.17</ele>
        <time>2014-03-30T16:11:32Z</time>
      </trkpt>
      <trkpt lat="45.52533" lon="5.9255">
        <ele>636.05</ele>
        <time>2014-03-30T16:11:50Z</time>
      </trkpt>
      <trkpt lat="45.52506" lon="5.92545">
        <ele>638.93</ele>
        <time>2014-03-30T16:12:04Z</time>
      </trkpt>
      <trkpt lat="45.52474" lon="5.92534">
        <ele>642.3</ele>
        <time>2014-03-30T16:12:21Z</time>
      </trkpt>
      <trkpt lat="45.52451" lon="5.92526">
        <ele>644.7</ele>
        <time>2014-03-30T16:12:34Z</time>
      </trkpt>
      <trkpt lat="45.52417" lon="5.92529">
        <ele>647.59</ele>
        <time>2014-03-30T16:12:51Z</time>
      </trkpt>
      <trkpt lat="45.52375" lon="5.92529">
        <ele>648.55</ele>
        <time>2014-03-30T16:13:08Z</time>
      </trkpt>
      <trkpt lat="45.52326" lon="5.92526">
        <ele>649.99</ele>
        <time>2014-03-30T16:13:25Z</time>
      </trkpt>
      <trkpt lat="45.52287" lon="5.92523">
        <ele>652.39</ele>
        <time>2014-03-30T16:13:40Z</time>
      </trkpt>
      <trkpt lat="45.52248" lon="5.92519">
        <ele>654.31</ele>
        <time>2014-03-30T16:13:57Z</time>
      </trkpt>
      <trkpt lat="45.52218" lon="5.9248">
        <ele>655.76</ele>
        <time>2014-03-30T16:14:13Z</time>
      </trkpt>
      <trkpt lat="45.52196" lon="5.92442">
        <ele>657.68</ele>
        <time>2014-03-30T16:14:29Z</time>
      </trkpt>
      <trkpt lat="45.52182" lon="5.92428">
        <ele>660.08</ele>
        <time>2014-03-30T16:14:38Z</time>
      </trkpt>
      <trkpt lat="45.52182" lon="5.92426">
        <ele>660.56</ele>
        <time>2014-03-30T16:14:39Z</time>
      </trkpt>
      <trkpt lat="45.52181" lon="5.92425">
        <ele>661.04</ele>
        <time>2014-03-30T16:14:40Z</time>
      </trkpt>
      <trkpt lat="45.5216" lon="5.92405">
        <ele>663.93</ele>
        <time>2014-03-30T16:14:56Z</time>
      </trkpt>
      <trkpt lat="45.52158" lon="5.92404">
        <ele>663.93</ele>
        <time>2014-03-30T16:14:57Z</time>
      </trkpt>
      <trkpt lat="45.52132" lon="5.92394">
        <ele>667.29</ele>
        <time>2014-03-30T16:15:14Z</time>
      </trkpt>
      <trkpt lat="45.52126" lon="5.9239">
        <ele>667.77</ele>
        <time>2014-03-30T16:15:18Z</time>
      </trkpt>
      <trkpt lat="45.52125" lon="5.9239">
        <ele>667.77</ele>
        <time>2014-03-30T16:15:19Z</time>
      </trkpt>
      <trkpt lat="45.52103" lon="5.9239">
        <ele>670.66</ele>
        <time>2014-03-30T16:15:34Z</time>
      </trkpt>
      <trkpt lat="45.52096" lon="5.92387">
        <ele>672.1</ele>
        <time>2014-03-30T16:15:39Z</time>
      </trkpt>
      <trkpt lat="45.52095" lon="5.92387">
        <ele>672.1</ele>
        <time>2014-03-30T16:15:40Z</time>
      </trkpt>
      <trkpt lat="45.52094" lon="5.92387">
        <ele>672.58</ele>
        <time>2014-03-30T16:15:41Z</time>
      </trkpt>
      <trkpt lat="45.52092" lon="5.92387">
        <ele>672.58</ele>
        <time>2014-03-30T16:15:42Z</time>
      </trkpt>
      <trkpt lat="45.52091" lon="5.92386">
        <ele>672.58</ele>
        <time>2014-03-30T16:15:43Z</time>
      </trkpt>
      <trkpt lat="45.52089" lon="5.92386">
        <ele>672.58</ele>
        <time>2014-03-30T16:15:44Z</time>
      </trkpt>
      <trkpt lat="45.52087" lon="5.92386">
        <ele>673.06</ele>
        <time>2014-03-30T16:15:45Z</time>
      </trkpt>
      <trkpt lat="45.52086" lon="5.92386">
        <ele>673.06</ele>
        <time>2014-03-30T16:15:46Z</time>
      </trkpt>
      <trkpt lat="45.52065" lon="5.92386">
        <ele>675.94</ele>
        <time>2014-03-30T16:16:01Z</time>
      </trkpt>
      <trkpt lat="45.52039" lon="5.92383">
        <ele>678.83</ele>
        <time>2014-03-30T16:16:18Z</time>
      </trkpt>
      <trkpt lat="45.52016" lon="5.92382">
        <ele>681.71</ele>
        <time>2014-03-30T16:16:33Z</time>
      </trkpt>
      <trkpt lat="45.51985" lon="5.92378">
        <ele>684.6</ele>
        <time>2014-03-30T16:16:51Z</time>
      </trkpt>
      <trkpt lat="45.51956" lon="5.92376">
        <ele>686.52</ele>
        <time>2014-03-30T16:17:06Z</time>
      </trkpt>
      <trkpt lat="45.51922" lon="5.92381">
        <ele>688.92</ele>
        <time>2014-03-30T16:17:23Z</time>
      </trkpt>
      <trkpt lat="45.51895" lon="5.92394">
        <ele>691.81</ele>
        <time>2014-03-30T16:17:38Z</time>
      </trkpt>
      <trkpt lat="45.51857" lon="5.92402">
        <ele>693.25</ele>
        <time>2014-03-30T16:17:56Z</time>
      </trkpt>
      <trkpt lat="45.51828" lon="5.92406">
        <ele>695.65</ele>
        <time>2014-03-30T16:18:10Z</time>
      </trkpt>
      <trkpt lat="45.51802" lon="5.92409">
        <ele>699.02</ele>
        <time>2014-03-30T16:18:23Z</time>
      </trkpt>
      <trkpt lat="45.51771" lon="5.92404">
        <ele>699.5</ele>
        <time>2014-03-30T16:18:38Z</time>
      </trkpt>
      <trkpt lat="45.51727" lon="5.92388">
        <ele>701.9</ele>
        <time>2014-03-30T16:18:57Z</time>
      </trkpt>
      <trkpt lat="45.51691" lon="5.9236">
        <ele>701.42</ele>
        <time>2014-03-30T16:19:12Z</time>
      </trkpt>
      <trkpt lat="45.51645" lon="5.92317">
        <ele>702.38</ele>
        <time>2014-03-30T16:19:28Z</time>
      </trkpt>
      <trkpt lat="45.51595" lon="5.92248">
        <ele>700.46</ele>
        <time>2014-03-30T16:19:44Z</time>
      </trkpt>
      <trkpt lat="45.51592" lon="5.92243">
        <ele>700.46</ele>
        <time>2014-03-30T16:19:45Z</time>
      </trkpt>
      <trkpt lat="45.51563" lon="5.92215">
        <ele>700.46</ele>
        <time>2014-03-30T16:19:52Z</time>
      </trkpt>
      <trkpt lat="45.51558" lon="5.92212">
        <ele>700.46</ele>
        <time>2014-03-30T16:19:53Z</time>
      </trkpt>
      <trkpt lat="45.51553" lon="5.92208">
        <ele>699.98</ele>
        <time>2014-03-30T16:19:54Z</time>
      </trkpt>
      <trkpt lat="45.51545" lon="5.92201">
        <ele>700.46</ele>
        <time>2014-03-30T16:19:56Z</time>
      </trkpt>
      <trkpt lat="45.51536" lon="5.92196">
        <ele>700.94</ele>
        <time>2014-03-30T16:19:58Z</time>
      </trkpt>
      <trkpt lat="45.51532" lon="5.92194">
        <ele>700.94</ele>
        <time>2014-03-30T16:19:59Z</time>
      </trkpt>
      <trkpt lat="45.51502" lon="5.92182">
        <ele>703.34</ele>
        <time>2014-03-30T16:20:10Z</time>
      </trkpt>
      <trkpt lat="45.51473" lon="5.92171">
        <ele>705.26</ele>
        <time>2014-03-30T16:20:23Z</time>
      </trkpt>
      <trkpt lat="45.51452" lon="5.92134">
        <ele>707.19</ele>
        <time>2014-03-30T16:20:37Z</time>
      </trkpt>
      <trkpt lat="45.51439" lon="5.92081">
        <ele>709.59</ele>
        <time>2014-03-30T16:20:52Z</time>
      </trkpt>
      <trkpt lat="45.5141" lon="5.92045">
        <ele>709.59</ele>
        <time>2014-03-30T16:21:08Z</time>
      </trkpt>
      <trkpt lat="45.51381" lon="5.92005">
        <ele>706.23</ele>
        <time>2014-03-30T16:21:17Z</time>
      </trkpt>
      <trkpt lat="45.5136" lon="5.91962">
        <ele>704.3</ele>
        <time>2014-03-30T16:21:23Z</time>
      </trkpt>
      <trkpt lat="45.51334" lon="5.91895">
        <ele>701.42</ele>
        <time>2014-03-30T16:21:29Z</time>
      </trkpt>
      <trkpt lat="45.51324" lon="5.91846">
        <ele>698.53</ele>
        <time>2014-03-30T16:21:33Z</time>
      </trkpt>
      <trkpt lat="45.51314" lon="5.91774">
        <ele>697.57</ele>
        <time>2014-03-30T16:21:39Z</time>
      </trkpt>
      <trkpt lat="45.51312" lon="5.91763">
        <ele>697.09</ele>
        <time>2014-03-30T16:21:40Z</time>
      </trkpt>
      <trkpt lat="45.51308" lon="5.91752">
        <ele>697.09</ele>
        <time>2014-03-30T16:21:41Z</time>
      </trkpt>
      <trkpt lat="45.51295" lon="5.91721">
        <ele>695.17</ele>
        <time>2014-03-30T16:21:44Z</time>
      </trkpt>
      <trkpt lat="45.51275" lon="5.91667">
        <ele>695.17</ele>
        <time>2014-03-30T16:21:49Z</time>
      </trkpt>
      <trkpt lat="45.51269" lon="5.91659">
        <ele>694.69</ele>
        <time>2014-03-30T16:21:50Z</time>
      </trkpt>
      <trkpt lat="45.51257" lon="5.91643">
        <ele>693.25</ele>
        <time>2014-03-30T16:21:52Z</time>
      </trkpt>
      <trkpt lat="45.51252" lon="5.91634">
        <ele>693.25</ele>
        <time>2014-03-30T16:21:53Z</time>
      </trkpt>
      <trkpt lat="45.51249" lon="5.91625">
        <ele>692.77</ele>
        <time>2014-03-30T16:21:54Z</time>
      </trkpt>
      <trkpt lat="45.51247" lon="5.91615">
        <ele>692.77</ele>
        <time>2014-03-30T16:21:55Z</time>
      </trkpt>
      <trkpt lat="45.51247" lon="5.91607">
        <ele>692.29</ele>
        <time>2014-03-30T16:21:56Z</time>
      </trkpt>
      <trkpt lat="45.5125" lon="5.91601">
        <ele>691.81</ele>
        <time>2014-03-30T16:21:57Z</time>
      </trkpt>
      <trkpt lat="45.51255" lon="5.91598">
        <ele>691.81</ele>
        <time>2014-03-30T16:21:58Z</time>
      </trkpt>
      <trkpt lat="45.51263" lon="5.91597">
        <ele>691.33</ele>
        <time>2014-03-30T16:21:59Z</time>
      </trkpt>
      <trkpt lat="45.51272" lon="5.91598">
        <ele>691.33</ele>
        <time>2014-03-30T16:22:00Z</time>
      </trkpt>
      <trkpt lat="45.51281" lon="5.91599">
        <ele>691.33</ele>
        <time>2014-03-30T16:22:01Z</time>
      </trkpt>
      <trkpt lat="45.51308" lon="5.91604">
        <ele>689.88</ele>
        <time>2014-03-30T16:22:04Z</time>
      </trkpt>
      <trkpt lat="45.51343" lon="5.9161">
        <ele>688.44</ele>
        <time>2014-03-30T16:22:08Z</time>
      </trkpt>
      <trkpt lat="45.51411" lon="5.91645">
        <ele>685.08</ele>
        <time>2014-03-30T16:22:17Z</time>
      </trkpt>
      <trkpt lat="45.51429" lon="5.91658">
        <ele>684.12</ele>
        <time>2014-03-30T16:22:19Z</time>
      </trkpt>
      <trkpt lat="45.51448" lon="5.91671">
        <ele>684.12</ele>
        <time>2014-03-30T16:22:22Z</time>
      </trkpt>
      <trkpt lat="45.51455" lon="5.91671">
        <ele>683.63</ele>
        <time>2014-03-30T16:22:23Z</time>
      </trkpt>
      <trkpt lat="45.51463" lon="5.91668">
        <ele>683.15</ele>
        <time>2014-03-30T16:22:24Z</time>
      </trkpt>
      <trkpt lat="45.51479" lon="5.91654">
        <ele>682.67</ele>
        <time>2014-03-30T16:22:25Z</time>
      </trkpt>
      <trkpt lat="45.51487" lon="5.91648">
        <ele>682.19</ele>
        <time>2014-03-30T16:22:26Z</time>
      </trkpt>
      <trkpt lat="45.51514" lon="5.91624">
        <ele>680.75</ele>
        <time>2014-03-30T16:22:30Z</time>
      </trkpt>
      <trkpt lat="45.51522" lon="5.9162">
        <ele>680.27</ele>
        <time>2014-03-30T16:22:31Z</time>
      </trkpt>
      <trkpt lat="45.51529" lon="5.91617">
        <ele>679.79</ele>
        <time>2014-03-30T16:22:32Z</time>
      </trkpt>
      <trkpt lat="45.51537" lon="5.91615">
        <ele>679.79</ele>
        <time>2014-03-30T16:22:33Z</time>
      </trkpt>
      <trkpt lat="45.51545" lon="5.91614">
        <ele>679.31</ele>
        <time>2014-03-30T16:22:34Z</time>
      </trkpt>
      <trkpt lat="45.51553" lon="5.91614">
        <ele>678.83</ele>
        <time>2014-03-30T16:22:35Z</time>
      </trkpt>
      <trkpt lat="45.51561" lon="5.91614">
        <ele>678.35</ele>
        <time>2014-03-30T16:22:36Z</time>
      </trkpt>
      <trkpt lat="45.51617" lon="5.91623">
        <ele>676.42</ele>
        <time>2014-03-30T16:22:43Z</time>
      </trkpt>
      <trkpt lat="45.51648" lon="5.91622">
        <ele>674.02</ele>
        <time>2014-03-30T16:22:47Z</time>
      </trkpt>
      <trkpt lat="45.51698" lon="5.91611">
        <ele>670.66</ele>
        <time>2014-03-30T16:22:53Z</time>
      </trkpt>
      <trkpt lat="45.51732" lon="5.916">
        <ele>668.73</ele>
        <time>2014-03-30T16:22:57Z</time>
      </trkpt>
      <trkpt lat="45.5178" lon="5.91575">
        <ele>666.33</ele>
        <time>2014-03-30T16:23:03Z</time>
      </trkpt>
      <trkpt lat="45.51839" lon="5.91538">
        <ele>663.45</ele>
        <time>2014-03-30T16:23:11Z</time>
      </trkpt>
      <trkpt lat="45.51936" lon="5.91517">
        <ele>660.08</ele>
        <time>2014-03-30T16:23:24Z</time>
      </trkpt>
      <trkpt lat="45.52002" lon="5.91508">
        <ele>656.72</ele>
        <time>2014-03-30T16:23:33Z</time>
      </trkpt>
      <trkpt lat="45.52066" lon="5.91501">
        <ele>653.35</ele>
        <time>2014-03-30T16:23:41Z</time>
      </trkpt>
      <trkpt lat="45.52097" lon="5.91496">
        <ele>651.43</ele>
        <time>2014-03-30T16:23:45Z</time>
      </trkpt>
      <trkpt lat="45.52104" lon="5.91492">
        <ele>650.47</ele>
        <time>2014-03-30T16:23:46Z</time>
      </trkpt>
      <trkpt lat="45.5211" lon="5.91487">
        <ele>650.47</ele>
        <time>2014-03-30T16:23:47Z</time>
      </trkpt>
      <trkpt lat="45.52164" lon="5.91455">
        <ele>649.03</ele>
        <time>2014-03-30T16:23:55Z</time>
      </trkpt>
      <trkpt lat="45.5217" lon="5.91454">
        <ele>649.03</ele>
        <time>2014-03-30T16:23:56Z</time>
      </trkpt>
      <trkpt lat="45.52177" lon="5.91454">
        <ele>648.55</ele>
        <time>2014-03-30T16:23:57Z</time>
      </trkpt>
      <trkpt lat="45.5219" lon="5.91457">
        <ele>648.55</ele>
        <time>2014-03-30T16:23:59Z</time>
      </trkpt>
      <trkpt lat="45.52197" lon="5.91457">
        <ele>648.07</ele>
        <time>2014-03-30T16:24:00Z</time>
      </trkpt>
      <trkpt lat="45.52204" lon="5.91455">
        <ele>647.59</ele>
        <time>2014-03-30T16:24:01Z</time>
      </trkpt>
      <trkpt lat="45.52211" lon="5.91451">
        <ele>647.1</ele>
        <time>2014-03-30T16:24:02Z</time>
      </trkpt>
      <trkpt lat="45.52216" lon="5.91445">
        <ele>646.62</ele>
        <time>2014-03-30T16:24:03Z</time>
      </trkpt>
      <trkpt lat="45.52221" lon="5.91438">
        <ele>646.14</ele>
        <time>2014-03-30T16:24:04Z</time>
      </trkpt>
      <trkpt lat="45.52226" lon="5.91431">
        <ele>646.62</ele>
        <time>2014-03-30T16:24:05Z</time>
      </trkpt>
      <trkpt lat="45.52235" lon="5.91418">
        <ele>646.62</ele>
        <time>2014-03-30T16:24:07Z</time>
      </trkpt>
      <trkpt lat="45.52239" lon="5.91412">
        <ele>647.1</ele>
        <time>2014-03-30T16:24:08Z</time>
      </trkpt>
      <trkpt lat="45.52241" lon="5.91406">
        <ele>647.1</ele>
        <time>2014-03-30T16:24:09Z</time>
      </trkpt>
      <trkpt lat="45.52243" lon="5.91401">
        <ele>647.59</ele>
        <time>2014-03-30T16:24:10Z</time>
      </trkpt>
      <trkpt lat="45.52245" lon="5.91396">
        <ele>648.07</ele>
        <time>2014-03-30T16:24:11Z</time>
      </trkpt>
      <trkpt lat="45.52253" lon="5.91359">
        <ele>650.95</ele>
        <time>2014-03-30T16:24:24Z</time>
      </trkpt>
      <trkpt lat="45.52257" lon="5.91351">
        <ele>651.91</ele>
        <time>2014-03-30T16:24:28Z</time>
      </trkpt>
      <trkpt lat="45.52258" lon="5.9135">
        <ele>651.91</ele>
        <time>2014-03-30T16:24:29Z</time>
      </trkpt>
      <trkpt lat="45.52259" lon="5.91348">
        <ele>652.39</ele>
        <time>2014-03-30T16:24:30Z</time>
      </trkpt>
      <trkpt lat="45.52261" lon="5.91346">
        <ele>652.39</ele>
        <time>2014-03-30T16:24:31Z</time>
      </trkpt>
      <trkpt lat="45.52262" lon="5.91344">
        <ele>652.87</ele>
        <time>2014-03-30T16:24:33Z</time>
      </trkpt>
      <trkpt lat="45.52272" lon="5.91336">
        <ele>654.31</ele>
        <time>2014-03-30T16:24:40Z</time>
      </trkpt>
      <trkpt lat="45.5229" lon="5.91332">
        <ele>655.76</ele>
        <time>2014-03-30T16:24:50Z</time>
      </trkpt>
      <trkpt lat="45.52292" lon="5.91332">
        <ele>655.76</ele>
        <time>2014-03-30T16:24:51Z</time>
      </trkpt>
      <trkpt lat="45.52293" lon="5.91332">
        <ele>656.24</ele>
        <time>2014-03-30T16:24:52Z</time>
      </trkpt>
      <trkpt lat="45.52322" lon="5.91315">
        <ele>658.16</ele>
        <time>2014-03-30T16:25:08Z</time>
      </trkpt>
      <trkpt lat="45.5234" lon="5.91275">
        <ele>658.64</ele>
        <time>2014-03-30T16:25:23Z</time>
      </trkpt>
      <trkpt lat="45.52337" lon="5.91238">
        <ele>661.52</ele>
        <time>2014-03-30T16:25:38Z</time>
      </trkpt>
      <trkpt lat="45.5232" lon="5.91214">
        <ele>664.41</ele>
        <time>2014-03-30T16:25:54Z</time>
      </trkpt>
      <trkpt lat="45.52317" lon="5.91213">
        <ele>664.89</ele>
        <time>2014-03-30T16:25:57Z</time>
      </trkpt>
      <trkpt lat="45.52316" lon="5.91214">
        <ele>665.37</ele>
        <time>2014-03-30T16:25:58Z</time>
      </trkpt>
      <trkpt lat="45.52314" lon="5.91215">
        <ele>665.37</ele>
        <time>2014-03-30T16:25:59Z</time>
      </trkpt>
      <trkpt lat="45.52301" lon="5.91231">
        <ele>668.73</ele>
        <time>2014-03-30T16:26:13Z</time>
      </trkpt>
      <trkpt lat="45.52297" lon="5.9123">
        <ele>669.22</ele>
        <time>2014-03-30T16:26:16Z</time>
      </trkpt>
      <trkpt lat="45.52296" lon="5.91229">
        <ele>669.22</ele>
        <time>2014-03-30T16:26:17Z</time>
      </trkpt>
      <trkpt lat="45.52295" lon="5.91228">
        <ele>669.22</ele>
        <time>2014-03-30T16:26:18Z</time>
      </trkpt>
      <trkpt lat="45.52295" lon="5.91226">
        <ele>669.22</ele>
        <time>2014-03-30T16:26:19Z</time>
      </trkpt>
      <trkpt lat="45.52294" lon="5.91224">
        <ele>669.22</ele>
        <time>2014-03-30T16:26:20Z</time>
      </trkpt>
      <trkpt lat="45.52293" lon="5.91223">
        <ele>669.7</ele>
        <time>2014-03-30T16:26:21Z</time>
      </trkpt>
      <trkpt lat="45.52292" lon="5.91221">
        <ele>670.18</ele>
        <time>2014-03-30T16:26:22Z</time>
      </trkpt>
      <trkpt lat="45.52292" lon="5.9122">
        <ele>670.18</ele>
        <time>2014-03-30T16:26:23Z</time>
      </trkpt>
      <trkpt lat="45.52291" lon="5.91219">
        <ele>670.18</ele>
        <time>2014-03-30T16:26:24Z</time>
      </trkpt>
      <trkpt lat="45.5229" lon="5.91217">
        <ele>670.66</ele>
        <time>2014-03-30T16:26:25Z</time>
      </trkpt>
      <trkpt lat="45.5229" lon="5.91215">
        <ele>670.66</ele>
        <time>2014-03-30T16:26:26Z</time>
      </trkpt>
      <trkpt lat="45.52289" lon="5.91213">
        <ele>670.66</ele>
        <time>2014-03-30T16:26:27Z</time>
      </trkpt>
      <trkpt lat="45.52283" lon="5.91188">
        <ele>673.54</ele>
        <time>2014-03-30T16:26:41Z</time>
      </trkpt>
      <trkpt lat="45.52283" lon="5.91187">
        <ele>673.54</ele>
        <time>2014-03-30T16:26:42Z</time>
      </trkpt>
      <trkpt lat="45.52282" lon="5.91185">
        <ele>674.02</ele>
        <time>2014-03-30T16:26:43Z</time>
      </trkpt>
      <trkpt lat="45.52282" lon="5.91183">
        <ele>674.02</ele>
        <time>2014-03-30T16:26:44Z</time>
      </trkpt>
      <trkpt lat="45.52277" lon="5.91152">
        <ele>676.42</ele>
        <time>2014-03-30T16:27:01Z</time>
      </trkpt>
      <trkpt lat="45.5228" lon="5.91119">
        <ele>679.31</ele>
        <time>2014-03-30T16:27:17Z</time>
      </trkpt>
      <trkpt lat="45.52289" lon="5.91083">
        <ele>681.71</ele>
        <time>2014-03-30T16:27:33Z</time>
      </trkpt>
      <trkpt lat="45.52308" lon="5.91057">
        <ele>684.6</ele>
        <time>2014-03-30T16:27:50Z</time>
      </trkpt>
      <trkpt lat="45.52324" lon="5.91026">
        <ele>687.48</ele>
        <time>2014-03-30T16:28:07Z</time>
      </trkpt>
      <trkpt lat="45.52335" lon="5.9101">
        <ele>688.92</ele>
        <time>2014-03-30T16:28:17Z</time>
      </trkpt>
      <trkpt lat="45.52358" lon="5.90993">
        <ele>692.29</ele>
        <time>2014-03-30T16:28:35Z</time>
      </trkpt>
      <trkpt lat="45.52375" lon="5.90987">
        <ele>695.17</ele>
        <time>2014-03-30T16:28:48Z</time>
      </trkpt>
      <trkpt lat="45.52377" lon="5.90985">
        <ele>695.17</ele>
        <time>2014-03-30T16:28:50Z</time>
      </trkpt>
      <trkpt lat="45.52378" lon="5.90984">
        <ele>695.65</ele>
        <time>2014-03-30T16:28:51Z</time>
      </trkpt>
      <trkpt lat="45.5238" lon="5.90973">
        <ele>696.61</ele>
        <time>2014-03-30T16:28:57Z</time>
      </trkpt>
      <trkpt lat="45.52372" lon="5.90951">
        <ele>699.98</ele>
        <time>2014-03-30T16:29:11Z</time>
      </trkpt>
      <trkpt lat="45.52361" lon="5.90935">
        <ele>703.34</ele>
        <time>2014-03-30T16:29:25Z</time>
      </trkpt>
      <trkpt lat="45.52351" lon="5.90917">
        <ele>706.23</ele>
        <time>2014-03-30T16:29:38Z</time>
      </trkpt>
      <trkpt lat="45.52341" lon="5.90895">
        <ele>708.15</ele>
        <time>2014-03-30T16:29:52Z</time>
      </trkpt>
      <trkpt lat="45.52331" lon="5.90869">
        <ele>711.51</ele>
        <time>2014-03-30T16:30:07Z</time>
      </trkpt>
      <trkpt lat="45.5232" lon="5.90841">
        <ele>713.92</ele>
        <time>2014-03-30T16:30:22Z</time>
      </trkpt>
      <trkpt lat="45.52315" lon="5.90826">
        <ele>715.84</ele>
        <time>2014-03-30T16:30:32Z</time>
      </trkpt>
      <trkpt lat="45.52314" lon="5.90824">
        <ele>716.32</ele>
        <time>2014-03-30T16:30:33Z</time>
      </trkpt>
      <trkpt lat="45.52314" lon="5.90821">
        <ele>716.32</ele>
        <time>2014-03-30T16:30:49Z</time>
      </trkpt>
    </trkseg>
  </trk>
</gpx>